# Wetter Temperatur Luftdruck Luftfeuchtigkeit Sichtweite Windgeschwindigkeit Windrichtung Zeit
1 Clouds 28 1008 78 10000 1.33 159 10:39 08.04.2020
2 Rain 27 1010 80 0 1.33 159 10:20 08.04.2020
3 Rain 27 1010 80 0 1.33 159 09:56 08.04.2020
4 Rain 27 1010 77 0 1.18 146 09:38 08.04.2020
5 Clouds 30 1007 66 10000 2.1 360 09:18 08.04.2020
6 Clouds 30 1007 66 10000 2.1 360 08:42 08.04.2020
7 Clouds 30 1007 66 10000 2.1 360 08:23 08.04.2020
8 Clouds 31 1006 66 10000 2.1 340 07:57 08.04.2020
9 Clouds 31 1006 66 10000 2.1 340 07:39 08.04.2020
10 Clouds 32 1006 59 10000 2.6 360 07:19 08.04.2020
11 Clouds 32 1007 59 10000 3.1 20 06:21 08.04.2020
12 Clouds 31 1007 66 10000 3.1 360 04:20 08.04.2020
13 Clouds 31 1009 62 10000 2.1 360 02:49 08.04.2020
14 Clouds 31 1009 62 10000 2.1 360 02:20 08.04.2020
15 Clouds 30 1009 70 10000 1 160 01:51 08.04.2020
16 Clouds 30 1009 70 10000 1 160 01:27 08.04.2020
17 Clouds 28 1009 74 10000 1.5 180 00:41 08.04.2020
18 Clouds 25 1008 83 10000 1.5 180 00:22 08.04.2020
19 Clouds 25 1008 83 10000 1.5 180 23:40 07.04.2020
20 Clouds 25 1008 83 10000 1.5 180 23:40 07.04.2020
21 Clouds 25 1008 83 10000 1.5 180 23:21 07.04.2020
22 Clouds 23 1008 94 10000 1.5 160 22:57 07.04.2020
23 Clouds 23 1008 94 10000 1.5 160 22:39 07.04.2020
24 Clouds 22 1007 100 10000 1.5 180 22:19 07.04.2020
25 Clouds 22 1007 100 10000 1.5 180 21:56 07.04.2020
26 Clouds 22 1007 100 10000 1.5 180 21:56 07.04.2020
27 Clouds 22 1007 100 10000 1.5 180 21:38 07.04.2020
28 Clouds 22 1007 100 10000 1.5 180 21:19 07.04.2020
29 Clouds 23 1006 88 10000 2.1 180 20:55 07.04.2020
30 Clouds 23 1006 88 10000 2.1 180 20:37 07.04.2020
31 Clouds 23 1006 88 10000 2.1 180 20:19 07.04.2020
32 Clouds 23 1006 94 10000 1.58 199 19:56 07.04.2020
33 Clouds 23 1006 94 10000 1.58 199 19:36 07.04.2020
34 Clouds 23 1006 94 10000 1.58 199 19:18 07.04.2020
35 Clouds 23 1007 94 10000 1 160 18:41 07.04.2020
36 Clouds 23 1007 94 10000 1 160 18:21 07.04.2020
37 Clouds 24 1007 94 10000 1.5 140 17:57 07.04.2020
38 Clouds 24 1007 94 10000 1.5 140 17:38 07.04.2020
39 Clouds 24 1008 94 10000 2.1 110 17:20 07.04.2020
40 Clouds 24 1008 94 10000 2.1 110 16:45 07.04.2020
41 Clouds 24 1008 94 10000 2.1 110 16:26 07.04.2020
42 Clouds 25 1007 74 0 1.88 191 15:46 07.04.2020
43 Clouds 25 1007 74 0 1.88 191 15:46 07.04.2020
44 Clouds 25 1008 88 10000 1 200 15:27 07.04.2020
45 Clouds 25 1008 88 10000 1 200 14:56 07.04.2020
46 Clouds 25 1008 88 10000 1 200 14:38 07.04.2020
47 Clouds 26 1008 88 10000 1.5 250 14:19 07.04.2020
48 Clouds 26 1008 88 10000 1.5 250 13:43 07.04.2020
49 Clouds 26 1008 94 10000 1.5 230 13:20 07.04.2020
50 Clouds 26 1008 94 10000 1.5 230 12:58 07.04.2020
51 Clouds 26 1008 94 10000 1.5 230 12:39 07.04.2020
52 Clouds 27 1007 88 10000 1.5 200 12:21 07.04.2020
53 Clouds 27 1007 88 10000 1.5 200 11:57 07.04.2020
54 Clouds 27 1007 88 10000 1.5 200 11:39 07.04.2020
55 Clouds 28 1006 88 10000 2.1 160 11:19 07.04.2020
56 Clouds 28 1006 88 10000 2.1 160 10:39 07.04.2020
57 Clouds 30 1005 84 10000 2.1 90 10:20 07.04.2020
58 Clouds 30 1005 84 10000 2.1 90 09:56 07.04.2020
59 Clouds 30 1005 84 10000 2.1 90 09:37 07.04.2020
60 Clouds 32 1005 62 10000 2.6 90 09:18 07.04.2020
61 Clouds 32 1005 62 10000 2.6 90 08:39 07.04.2020
62 Clouds 32 1004 66 10000 3.1 360 08:20 07.04.2020
63 Clouds 32 1004 66 10000 3.1 360 07:44 07.04.2020
64 Clouds 32 1004 66 10000 3.1 360 07:44 07.04.2020
65 Clouds 32 1004 66 10000 3.1 360 07:26 07.04.2020
66 Clouds 32 1004 70 10000 3.1 50 06:52 07.04.2020
67 Clouds 32 1004 70 10000 3.1 50 06:25 07.04.2020
68 Clouds 32 1005 70 10000 3.6 340 05:50 07.04.2020
69 Clouds 32 1005 70 10000 3.6 340 05:24 07.04.2020
70 Clouds 31 1006 70 10000 2.1 20 03:34 07.04.2020
71 Clouds 31 1007 70 10000 3.1 360 02:59 07.04.2020
72 Clouds 31 1007 70 10000 3.1 360 02:35 07.04.2020
73 Clouds 31 1008 70 10000 2.1 20 01:34 07.04.2020
74 Clouds 31 1008 70 10000 0.8 309 00:52 07.04.2020
75 Clouds 27 1007 83 10000 2.02 207 00:25 07.04.2020
76 Clouds 27 1007 83 10000 2.02 207 23:40 06.04.2020
77 Clouds 24 1007 100 10000 1 180 23:21 06.04.2020
78 Clouds 24 1007 100 10000 1 180 22:42 06.04.2020
79 Clouds 24 1007 100 10000 1 180 22:23 06.04.2020
80 Clouds 27 1008 77 0 2.02 207 21:59 06.04.2020
81 Clouds 27 1008 77 0 2.02 207 21:59 06.04.2020
82 Clouds 27 1008 77 0 2.02 207 21:41 06.04.2020
83 Clouds 24 1005 94 10000 1 110 21:20 06.04.2020
84 Clouds 24 1005 94 10000 1 110 20:56 06.04.2020
85 Clouds 24 1005 94 10000 1 110 20:38 06.04.2020
86 Clouds 24 1005 100 10000 1.5 160 20:20 06.04.2020
87 Clouds 24 1005 100 10000 1.5 160 19:56 06.04.2020
88 Clouds 24 1005 100 10000 1.5 160 19:38 06.04.2020
89 Clouds 24 1005 100 10000 1 200 19:19 06.04.2020
90 Clouds 24 1005 100 10000 1 200 19:19 06.04.2020
91 Clouds 24 1005 100 10000 1 200 18:42 06.04.2020
92 Clouds 25 1005 94 10000 2.9 207 18:23 06.04.2020
93 Clouds 25 1005 94 10000 2.9 207 17:55 06.04.2020
94 Clouds 25 1005 94 10000 2.9 207 17:37 06.04.2020
95 Clouds 25 1006 94 10000 2.9 207 17:18 06.04.2020
96 Clouds 25 1006 94 10000 2.9 207 16:47 06.04.2020
97 Clouds 25 1006 94 10000 2.9 207 16:29 06.04.2020
98 Clouds 27 1007 83 10000 4.1 290 14:46 06.04.2020
99 Clouds 27 1007 83 10000 4.1 290 14:46 06.04.2020
100 Clouds 27 1007 83 10000 4.1 290 14:46 06.04.2020
101 Clouds 27 1007 83 10000 4.1 290 14:46 06.04.2020
102 Clouds 27 1007 83 10000 4.1 290 14:46 06.04.2020
103 Clouds 26 1008 94 10000 5.1 250 13:44 06.04.2020
104 Clouds 26 1008 94 10000 5.1 250 13:21 06.04.2020
105 Clouds 27 1008 88 10000 3.1 270 12:41 06.04.2020
106 Clouds 27 1007 88 10000 2.1 290 12:18 06.04.2020
107 Clouds 27 1008 88 10000 3.1 270 12:18 06.04.2020
108 Clouds 27 1007 88 10000 2.1 290 11:40 06.04.2020
109 Clouds 27 1007 88 10000 2.1 290 11:40 06.04.2020
110 Clouds 27 1007 88 10000 2.1 290 11:40 06.04.2020
111 Clouds 27 1007 88 10000 2.1 290 11:40 06.04.2020
112 Clouds 27 1007 88 10000 2.1 290 11:40 06.04.2020
113 Clouds 27 1006 88 10000 2.87 236 10:53 06.04.2020
114 Clouds 27 1006 88 10000 2.87 236 10:53 06.04.2020
115 Clouds 27 1006 88 10000 2.87 236 10:53 06.04.2020
116 Clouds 27 1006 88 10000 2.87 236 10:23 06.04.2020
117 Clouds 27 1006 88 10000 2.87 236 10:23 06.04.2020
118 Clouds 28 1005 88 10000 2.1 160 10:01 06.04.2020
119 Clouds 28 1005 88 10000 2.1 160 09:59 06.04.2020
120 Clouds 28 1005 88 10000 2.1 160 09:59 06.04.2020
121 Clouds 28 1005 88 10000 2.1 160 09:59 06.04.2020
122 Clouds 28 1005 88 10000 2.1 160 09:59 06.04.2020
123 Clouds 28 1005 88 10000 2.1 160 09:26 06.04.2020
124 Clouds 30 1005 79 10000 2.1 180 08:55 06.04.2020
125 Clouds 30 1005 79 10000 2.1 180 08:55 06.04.2020
126 Clouds 30 1005 79 10000 2.1 180 08:36 06.04.2020
127 Clouds 30 1005 79 10000 2.1 180 08:36 06.04.2020
128 Clouds 30 1005 79 10000 2.1 180 08:36 06.04.2020
129 Clouds 29 1004 83 10000 1.5 160 07:55 06.04.2020
130 Clouds 29 1004 83 10000 1.5 160 07:18 06.04.2020
131 Rain 29 1005 83 10000 4.1 290 06:25 06.04.2020
132 Rain 29 1007 83 10000 6.7 320 05:00 06.04.2020
133 Rain 29 1007 83 10000 6.7 320 04:59 06.04.2020
134 Rain 29 1007 83 10000 6.7 320 04:59 06.04.2020
135 Rain 30 1007 84 10000 8.2 320 03:28 06.04.2020
136 Rain 29 1007 78 0 4.53 265 02:48 06.04.2020
137 Clouds 30 1008 74 10000 1.5 320 01:52 06.04.2020
138 Clouds 29 1008 79 10000 1.5 320 00:49 06.04.2020
139 Clouds 29 1008 79 10000 1.5 320 00:26 06.04.2020
140 Clouds 25 1007 94 10000 1 140 23:47 05.04.2020
141 Clouds 25 1007 94 10000 1 140 23:29 05.04.2020
142 Clouds 25 1007 94 10000 1 140 23:29 05.04.2020
143 Clouds 25 1007 94 10000 1 140 23:29 05.04.2020
144 Clouds 25 1006 94 10000 1 140 22:56 05.04.2020
145 Clouds 25 1006 94 10000 1 140 22:38 05.04.2020
146 Clouds 25 1006 94 10000 1 140 22:19 05.04.2020
147 Clouds 25 1006 94 10000 3.73 263 21:55 05.04.2020
148 Clouds 25 1006 94 10000 3.73 263 21:55 05.04.2020
149 Clouds 25 1006 94 10000 3.73 263 21:37 05.04.2020
150 Clouds 25 1006 94 10000 4 260 21:18 05.04.2020
151 Clouds 25 1005 94 10000 3.66 254 20:20 05.04.2020
152 Clouds 25 1005 94 10000 3.66 254 20:20 05.04.2020
153 Clouds 25 1005 94 10000 3.66 254 20:20 05.04.2020
154 Clouds 25 1005 94 10000 3.66 254 20:20 05.04.2020
155 Rain 26 1007 82 0 3.66 254 19:39 05.04.2020
156 Rain 26 1007 82 0 3.66 254 19:21 05.04.2020
157 Rain 26 1007 82 0 3.66 254 18:44 05.04.2020
158 Rain 26 1007 82 0 3.66 254 18:44 05.04.2020
159 Rain 26 1007 82 0 3.66 254 18:44 05.04.2020
160 Drizzle 25 1007 94 10000 1 340 17:57 05.04.2020
161 Drizzle 25 1007 94 10000 1 340 17:39 05.04.2020
162 Drizzle 25 1007 94 10000 1 340 17:39 05.04.2020
163 Drizzle 25 1007 94 10000 1 340 17:39 05.04.2020
164 Drizzle 25 1007 94 10000 1 340 17:20 05.04.2020
165 Drizzle 25 1007 94 10000 1 340 17:20 05.04.2020
166 Drizzle 25 1007 94 10000 1 340 17:20 05.04.2020
167 Drizzle 25 1007 94 10000 1 340 17:20 05.04.2020
168 Drizzle 25 1007 94 10000 1 340 17:20 05.04.2020
169 Clouds 25 1007 94 10000 1 200 16:21 05.04.2020
170 Drizzle 25 1008 94 10000 2.1 160 15:53 05.04.2020
171 Drizzle 25 1008 94 10000 2.1 160 15:33 05.04.2020
172 Rain 25 1008 94 10000 1 200 14:50 05.04.2020
173 Rain 25 1008 94 10000 1 200 14:26 05.04.2020
174 Rain 25 1008 94 10000 1 200 14:26 05.04.2020
175 Clouds 25 1008 94 10000 3.1 230 13:44 05.04.2020
176 Clouds 25 1008 94 10000 3.1 230 13:44 05.04.2020
177 Drizzle 25 1008 94 10000 3.1 290 12:54 05.04.2020
178 Drizzle 25 1008 94 10000 3.1 290 12:54 05.04.2020
179 Drizzle 25 1008 94 10000 3.1 290 12:54 05.04.2020
180 Drizzle 25 1008 94 10000 3.1 290 12:54 05.04.2020
181 Drizzle 25 1008 94 10000 3.1 290 12:54 05.04.2020
182 Clouds 26 1007 94 10000 4.1 290 11:43 05.04.2020
183 Clouds 26 1007 94 10000 4.1 290 11:21 05.04.2020
184 Clouds 26 1007 94 10000 4.1 290 11:21 05.04.2020
185 Drizzle 26 1006 94 10000 4.1 270 10:59 05.04.2020
186 Drizzle 26 1006 94 10000 4.1 270 10:40 05.04.2020
187 Drizzle 26 1006 94 10000 4.1 270 10:40 05.04.2020
188 Drizzle 26 1006 94 10000 4.1 270 10:40 05.04.2020
189 Drizzle 26 1006 94 10000 4.1 270 10:40 05.04.2020
190 Drizzle 26 1006 94 10000 4.1 270 10:40 05.04.2020
191 Drizzle 26 1006 94 10000 4.1 270 10:18 05.04.2020
192 Drizzle 27 1005 88 10000 2.6 250 09:43 05.04.2020
193 Drizzle 27 1005 88 10000 2.6 250 09:24 05.04.2020
194 Drizzle 27 1005 88 10000 2.6 250 09:24 05.04.2020
195 Drizzle 27 1005 88 10000 2.6 250 09:24 05.04.2020
196 Drizzle 27 1005 88 10000 2.6 250 09:24 05.04.2020
197 Drizzle 27 1005 88 10000 2.6 250 09:24 05.04.2020
198 Clouds 32 1003 70 10000 5.1 290 07:41 05.04.2020
199 Clouds 33 1005 63 10000 8.2 290 04:36 05.04.2020
200 Clouds 31 1006 66 10000 5.1 290 03:32 05.04.2020
201 Clouds 32 1007 62 10000 6.2 290 02:52 05.04.2020
202 Clouds 31 1007 70 10000 7.2 290 01:48 05.04.2020
203 Clouds 31 1007 70 10000 7.2 290 01:28 05.04.2020
204 Clouds 31 1007 70 10000 7.2 290 01:28 05.04.2020
205 Clouds 30 1007 74 10000 4.1 270 00:44 05.04.2020
206 Clouds 30 1007 74 10000 4.1 270 00:21 05.04.2020
207 Rain 28 1007 78 10000 2.6 270 23:55 04.04.2020
208 Rain 28 1007 78 10000 2.6 270 23:37 04.04.2020
209 Rain 28 1007 78 10000 2.6 270 23:18 04.04.2020
210 Clouds 26 1006 78 10000 2.6 270 22:40 04.04.2020
211 Clouds 26 1006 78 10000 2.6 270 22:21 04.04.2020
212 Clouds 25 1005 83 10000 3.1 290 21:58 04.04.2020
213 Clouds 25 1005 83 10000 3.1 290 21:39 04.04.2020
214 Clouds 25 1005 83 10000 3.1 290 21:19 04.04.2020
215 Clouds 24 1005 88 10000 2.1 270 20:58 04.04.2020
216 Clouds 24 1005 88 10000 2.1 270 20:39 04.04.2020
217 Clouds 24 1005 88 10000 2.1 270 20:20 04.04.2020
218 Rain 26 1006 79 0 4.43 263 19:56 04.04.2020
219 Rain 26 1006 81 0 4.13 273 19:36 04.04.2020
220 Clouds 23 1005 94 10000 3.6 230 19:18 04.04.2020
221 Clouds 23 1005 94 10000 3.6 230 18:55 04.04.2020
222 Clouds 23 1005 94 10000 3.6 230 18:37 04.04.2020
223 Clouds 23 1005 94 10000 3.6 230 18:18 04.04.2020
224 Clouds 23 1006 94 10000 2.6 250 17:40 04.04.2020
225 Clouds 23 1006 94 10000 2.6 250 17:20 04.04.2020
226 Clouds 24 1007 94 10000 2.6 250 16:46 04.04.2020
227 Clouds 24 1007 94 10000 2.6 250 16:28 04.04.2020
228 Clouds 24 1007 94 10000 2.1 270 15:59 04.04.2020
229 Clouds 24 1007 94 10000 2.1 270 15:39 04.04.2020
230 Clouds 24 1007 94 10000 2.1 270 15:20 04.04.2020
231 Clouds 24 1007 94 10000 2.1 270 15:20 04.04.2020
232 Clouds 25 1008 83 10000 2.6 270 14:56 04.04.2020
233 Clouds 25 1008 83 10000 2.6 270 14:37 04.04.2020
234 Clouds 25 1008 83 10000 2.6 270 14:18 04.04.2020
235 Clouds 24 1007 94 10000 2.1 250 13:42 04.04.2020
236 Clouds 24 1007 94 10000 2.1 250 13:22 04.04.2020
237 Clouds 24 1007 94 10000 2.1 250 13:22 04.04.2020
238 Clouds 25 1007 88 10000 3.1 230 12:58 04.04.2020
239 Clouds 25 1007 88 10000 3.1 230 12:40 04.04.2020
240 Clouds 27 1005 74 10000 5.1 270 12:21 04.04.2020
241 Clouds 27 1005 74 10000 5.1 270 11:42 04.04.2020
242 Clouds 27 1005 74 10000 5.1 270 11:23 04.04.2020
243 Clouds 27 1005 78 10000 4.1 290 10:59 04.04.2020
244 Clouds 27 1005 78 10000 4.1 290 10:41 04.04.2020
245 Clouds 27 1005 78 10000 4.1 290 10:23 04.04.2020
246 Clouds 28 1004 74 10000 4.1 290 09:57 04.04.2020
247 Clouds 28 1004 74 10000 4.1 290 09:39 04.04.2020
248 Clouds 28 1004 74 10000 4.1 290 09:21 04.04.2020
249 Clouds 30 1004 58 10000 4.1 270 08:45 04.04.2020
250 Clouds 30 1004 58 10000 4.1 270 08:25 04.04.2020
251 Clouds 30 1003 70 10000 4.1 250 07:59 04.04.2020
252 Clouds 30 1003 70 10000 4.1 250 07:40 04.04.2020
253 Clouds 30 1003 70 10000 4.1 250 07:21 04.04.2020
254 Clouds 31 1003 62 10000 7.2 290 06:40 04.04.2020
255 Clouds 33 1003 52 10000 7.2 270 05:52 04.04.2020
256 Clouds 33 1003 52 10000 7.2 270 05:52 04.04.2020
257 Clouds 33 1003 52 10000 7.2 270 05:33 04.04.2020
258 Clouds 31 1004 70 10000 5.1 270 04:34 04.04.2020
259 Clouds 31 1005 70 10000 6.2 290 03:57 04.04.2020
260 Clouds 31 1005 70 10000 6.2 290 03:37 04.04.2020
261 Clouds 31 1006 66 10000 4.1 290 02:48 04.04.2020
262 Clouds 31 1006 66 10000 4.1 290 02:29 04.04.2020
263 Clouds 30 1006 70 10000 2.6 290 01:46 04.04.2020
264 Clouds 30 1006 70 10000 5.1 270 01:20 04.04.2020
265 Clouds 28 1006 74 10000 2.6 270 00:43 04.04.2020
266 Clouds 28 1006 74 10000 2.6 270 00:23 04.04.2020
267 Clouds 28 1005 74 10000 2.6 270 23:38 03.04.2020
268 Clouds 28 1005 74 10000 2.6 270 23:19 03.04.2020
269 Clouds 26 1005 83 10000 1.5 240 22:41 03.04.2020
270 Clouds 26 1005 83 10000 1.5 240 22:19 03.04.2020
271 Rain 27 1006 76 0 4.09 246 21:57 03.04.2020
272 Rain 27 1006 76 0 4.09 246 21:38 03.04.2020
273 Clouds 26 1003 83 10000 2.6 320 21:20 03.04.2020
274 Clouds 26 1003 83 10000 2.6 320 20:55 03.04.2020
275 Clouds 26 1003 83 10000 2.6 320 20:36 03.04.2020
276 Clouds 26 1003 83 10000 2.6 320 20:18 03.04.2020
277 Clouds 26 1003 83 10000 3.1 270 19:55 03.04.2020
278 Clouds 26 1003 83 10000 3.1 270 19:36 03.04.2020
279 Clouds 26 1003 83 10000 3.1 270 19:18 03.04.2020
280 Clouds 26 1003 88 10000 3.1 290 18:56 03.04.2020
281 Clouds 26 1003 88 10000 3.1 290 18:38 03.04.2020
282 Clouds 26 1003 88 10000 3.1 290 18:20 03.04.2020
283 Clouds 27 1004 83 10000 4.6 290 17:40 03.04.2020
284 Clouds 27 1004 83 10000 4.6 290 17:19 03.04.2020
285 Clouds 26 1004 88 10000 4.6 290 16:55 03.04.2020
286 Clouds 26 1004 88 10000 4.6 290 16:36 03.04.2020
287 Clouds 26 1004 88 10000 4.6 290 16:18 03.04.2020
288 Clouds 27 1005 83 10000 5.7 270 15:41 03.04.2020
289 Clouds 27 1005 83 10000 5.7 270 15:22 03.04.2020
290 Rain 27 1007 81 0 3.8 242 14:58 03.04.2020
291 Rain 27 1007 81 0 3.8 242 14:40 03.04.2020
292 Clouds 27 1005 88 10000 3.6 320 14:21 03.04.2020
293 Clouds 27 1005 88 10000 3.6 320 13:46 03.04.2020
294 Clouds 27 1005 88 10000 3.6 320 13:46 03.04.2020
295 Clouds 27 1005 88 10000 3.6 320 13:26 03.04.2020
296 Clouds 27 1005 88 10000 3.6 320 12:56 03.04.2020
297 Clouds 27 1005 88 10000 4.1 290 12:38 03.04.2020
298 Clouds 27 1005 88 10000 4.1 290 12:18 03.04.2020
299 Rain 28 1005 78 10000 5.1 270 11:55 03.04.2020
300 Rain 28 1005 78 10000 5.1 270 11:37 03.04.2020
301 Rain 28 1005 78 10000 5.1 270 11:18 03.04.2020
302 Clouds 28 1004 78 10000 4.6 290 10:56 03.04.2020
303 Clouds 28 1004 78 10000 4.6 290 10:37 03.04.2020
304 Clouds 28 1004 78 10000 4.6 290 10:37 03.04.2020
305 Clouds 28 1004 78 10000 4.6 290 10:18 03.04.2020
306 Rain 28 1003 83 10000 3.6 290 09:54 03.04.2020
307 Rain 28 1003 83 10000 3.6 290 09:36 03.04.2020
308 Rain 28 1003 83 10000 3.6 290 09:18 03.04.2020
309 Clouds 28 1002 88 10000 3.1 270 08:41 03.04.2020
310 Clouds 28 1002 88 10000 3.1 270 08:22 03.04.2020
311 Rain 30 1002 74 10000 5.1 270 07:50 03.04.2020
312 Rain 30 1002 74 10000 5.1 270 07:32 03.04.2020
313 Clouds 30 1001 74 10000 5.7 270 06:50 03.04.2020
314 Clouds 30 1001 74 10000 5.7 270 06:25 03.04.2020
315 Rain 30 1002 74 10000 4.6 270 05:40 03.04.2020
316 Rain 28 1003 83 10000 3.1 290 03:45 03.04.2020
317 Rain 28 1003 83 10000 3.1 290 03:23 03.04.2020
318 Clouds 26 1004 83 10000 7.2 270 02:28 03.04.2020
319 Rain 25 1005 83 10000 5.1 290 01:23 03.04.2020
320 Rain 25 1004 94 10000 9.3 250 00:40 03.04.2020
321 Rain 25 1004 94 10000 9.3 250 00:20 03.04.2020
322 Rain 25 1002 94 10000 3.6 290 23:42 02.04.2020
323 Rain 25 1002 94 10000 3.6 290 23:23 02.04.2020
324 Clouds 24 1001 100 10000 6.2 290 22:58 02.04.2020
325 Clouds 24 1001 100 10000 6.2 290 22:39 02.04.2020
326 Clouds 24 1001 100 10000 6.2 290 22:20 02.04.2020
327 Rain 27 1004 81 0 5.54 253 21:39 02.04.2020
328 Rain 26 1004 82 0 4.6 258 21:20 02.04.2020
329 Rain 26 1002 86 0 6.88 291 20:58 02.04.2020
330 Rain 26 1002 86 0 6.88 291 20:40 02.04.2020
331 Rain 26 1002 86 0 6.88 291 20:40 02.04.2020
332 Rain 26 1002 86 0 6.88 291 20:21 02.04.2020
333 Rain 26 1002 86 0 6.88 291 19:44 02.04.2020
334 Rain 26 1002 86 0 6.88 291 19:21 02.04.2020
335 Rain 26 1002 86 0 6.88 291 18:58 02.04.2020
336 Rain 26 1002 86 0 6.88 291 18:39 02.04.2020
337 Rain 26 1002 86 0 6.88 291 18:39 02.04.2020
338 Clouds 26 1001 100 10000 6.2 360 18:20 02.04.2020
339 Clouds 26 1001 100 10000 6.2 360 17:56 02.04.2020
340 Clouds 26 1001 100 10000 6.2 360 17:38 02.04.2020
341 Clouds 26 1001 100 10000 6.2 360 17:19 02.04.2020
342 Rain 26 1001 89 0 7.23 341 16:55 02.04.2020
343 Rain 26 1001 89 0 7.23 341 16:37 02.04.2020
344 Drizzle 27 1004 88 10000 3.1 360 16:18 02.04.2020
345 Drizzle 27 1004 88 10000 3.1 360 15:44 02.04.2020
346 Drizzle 27 1004 88 10000 3.1 360 15:44 02.04.2020
347 Drizzle 27 1004 88 10000 3.1 360 15:44 02.04.2020
348 Drizzle 27 1004 88 10000 3.1 360 15:21 02.04.2020
349 Drizzle 28 1005 88 10000 4.1 340 14:58 02.04.2020
350 Drizzle 28 1005 88 10000 4.1 340 14:39 02.04.2020
351 Clouds 27 1005 94 10000 3.1 20 14:19 02.04.2020
352 Clouds 27 1005 94 10000 3.1 20 13:56 02.04.2020
353 Clouds 27 1005 94 10000 3.1 20 13:38 02.04.2020
354 Clouds 27 1005 94 10000 3.1 20 13:19 02.04.2020
355 Drizzle 26 1005 100 10000 4.1 50 12:47 02.04.2020
356 Drizzle 26 1005 100 10000 4.1 50 12:21 02.04.2020
357 Rain 26 1005 94 10000 3.1 70 11:58 02.04.2020
358 Rain 26 1005 94 10000 3.1 70 11:39 02.04.2020
359 Rain 26 1005 94 10000 3.1 70 11:21 02.04.2020
360 Rain 25 1005 100 10000 2.1 140 10:57 02.04.2020
361 Rain 25 1005 100 10000 2.1 140 10:39 02.04.2020
362 Rain 25 1005 100 10000 2.1 140 10:21 02.04.2020
363 Rain 25 1004 100 0 2.1 20 09:59 02.04.2020
364 Rain 25 1004 100 0 2.1 20 09:41 02.04.2020
365 Rain 25 1004 100 0 2.1 20 09:22 02.04.2020
366 Rain 25 1004 100 0 3.1 70 08:48 02.04.2020
367 Rain 25 1004 100 0 2.6 20 08:29 02.04.2020
368 Clouds 25 1004 100 0 2.1 20 07:59 02.04.2020
369 Clouds 25 1004 100 0 2.1 20 07:59 02.04.2020
370 Clouds 25 1004 100 0 2.1 20 07:41 02.04.2020
371 Clouds 25 1004 100 0 2.1 20 07:19 02.04.2020
372 Clouds 27 1003 94 0 4.6 360 06:25 02.04.2020
373 Rain 30 1004 84 10000 5.7 360 05:46 02.04.2020
374 Rain 30 1004 84 10000 5.7 360 05:18 02.04.2020
375 Rain 30 1007 84 10000 1.5 90 02:26 02.04.2020
376 Rain 28 1007 88 10000 2.6 200 01:27 02.04.2020
377 Clouds 26 1007 100 10000 2.6 200 00:41 02.04.2020
378 Clouds 26 1007 100 10000 2.6 200 00:20 02.04.2020
379 Clouds 25 1007 94 8000 1 230 23:39 01.04.2020
380 Clouds 25 1007 94 8000 1 230 23:19 01.04.2020
381 Drizzle 25 1006 94 10000 1 140 22:56 01.04.2020
382 Drizzle 25 1006 94 10000 1 140 22:38 01.04.2020
383 Drizzle 25 1006 94 10000 1 140 22:19 01.04.2020
384 Clouds 25 1006 94 10000 1.38 85 21:41 01.04.2020
385 Clouds 24 1006 100 10000 2.1 180 21:19 01.04.2020
386 Clouds 24 1006 100 0 1.5 160 20:56 01.04.2020
387 Clouds 24 1006 100 0 1.5 160 20:38 01.04.2020
388 Clouds 24 1006 100 0 1.5 160 20:19 01.04.2020
389 Drizzle 24 1007 100 10000 2.1 180 19:57 01.04.2020
390 Drizzle 24 1007 100 10000 2.1 180 19:37 01.04.2020
391 Drizzle 24 1007 100 10000 2.1 180 19:19 01.04.2020
392 Rain 26 1006 80 0 0.75 10 18:42 01.04.2020
393 Clouds 25 1007 100 0 2.1 360 18:22 01.04.2020
394 Clouds 25 1007 100 0 2.1 360 17:57 01.04.2020
395 Clouds 25 1007 100 0 2.1 360 17:37 01.04.2020
396 Clouds 25 1007 100 0 2.1 360 17:37 01.04.2020
397 Clouds 25 1007 100 0 2.1 360 17:18 01.04.2020
398 Clouds 25 1007 94 10000 1 200 16:56 01.04.2020
399 Clouds 25 1007 94 10000 1 200 16:38 01.04.2020
400 Clouds 25 1007 94 10000 1 200 16:20 01.04.2020
401 Clouds 25 1008 94 10000 1 290 15:42 01.04.2020
402 Clouds 25 1008 94 10000 1 290 15:22 01.04.2020
403 Clouds 25 1008 94 10000 1 180 14:59 01.04.2020
404 Clouds 25 1008 94 10000 1 180 14:39 01.04.2020
405 Clouds 25 1008 94 10000 1 180 14:21 01.04.2020
406 Rain 26 1007 81 0 0.93 11 13:59 01.04.2020
407 Rain 26 1007 81 0 0.93 11 13:38 01.04.2020
408 Rain 26 1007 81 0 0.93 11 13:19 01.04.2020
409 Rain 26 1007 81 0 0.93 11 12:56 01.04.2020
410 Rain 26 1007 81 0 0.93 11 12:37 01.04.2020
411 Rain 27 1007 80 0 0.17 323 12:18 01.04.2020
412 Drizzle 27 1007 94 10000 2.1 140 11:54 01.04.2020
413 Drizzle 27 1007 94 10000 2.1 140 11:36 01.04.2020
414 Drizzle 27 1007 94 10000 2.1 140 11:18 01.04.2020
415 Clouds 28 1007 88 10000 1 20 10:38 01.04.2020
416 Clouds 28 1007 88 10000 1 20 10:19 01.04.2020
417 Clouds 28 1007 88 10000 1 20 10:19 01.04.2020
418 Clouds 29 1006 83 10000 2.6 70 09:57 01.04.2020
419 Clouds 29 1006 83 10000 2.6 70 09:39 01.04.2020
420 Clouds 29 1006 83 10000 2.6 70 09:18 01.04.2020
421 Clouds 31 1006 66 10000 2.1 340 08:41 01.04.2020
422 Clouds 31 1006 66 10000 2.1 340 08:18 01.04.2020
423 Rain 29 1005 77 0 1.73 360 07:44 01.04.2020
424 Clouds 30 1005 79 10000 2.1 290 07:21 01.04.2020
425 Clouds 30 1005 79 10000 2.1 290 06:48 01.04.2020
426 Clouds 30 1005 79 10000 2.1 290 06:26 01.04.2020
427 Clouds 31 1006 70 10000 2.25 360 05:56 01.04.2020
428 Rain 30 1005 73 0 2.25 360 04:32 01.04.2020
429 Rain 30 1005 73 0 2.25 360 03:30 01.04.2020
430 Rain 30 1008 66 0 1.56 9 02:49 01.04.2020
431 Clouds 31 1008 70 10000 2.1 140 01:59 01.04.2020
432 Clouds 31 1008 70 10000 2.1 140 01:38 01.04.2020
433 Clouds 31 1008 70 10000 2.1 140 01:18 01.04.2020
434 Clouds 29 1008 83 10000 1 180 00:45 01.04.2020
435 Clouds 29 1008 83 10000 1 180 00:20 01.04.2020
436 Clouds 26 1008 88 10000 2.1 180 23:42 31.03.2020
437 Clouds 26 1008 88 10000 2.1 180 23:23 31.03.2020
438 Clouds 24 1007 100 10000 1.5 140 22:58 31.03.2020
439 Clouds 24 1007 100 10000 1.5 140 22:37 31.03.2020
440 Clouds 24 1007 100 10000 1.5 140 22:19 31.03.2020
441 Clouds 24 1006 100 10000 1 180 21:56 31.03.2020
442 Clouds 24 1006 100 10000 1 180 21:37 31.03.2020
443 Clouds 24 1006 100 10000 1 180 21:19 31.03.2020
444 Rain 25 1006 94 10000 1.5 230 20:55 31.03.2020
445 Rain 25 1006 94 10000 1.5 230 20:36 31.03.2020
446 Rain 25 1006 94 10000 1.5 230 20:36 31.03.2020
447 Clouds 25 1006 94 10000 0.52 156 20:18 31.03.2020
448 Clouds 25 1006 94 10000 0.52 156 19:41 31.03.2020
449 Clouds 25 1006 94 10000 2.6 180 19:22 31.03.2020
450 Clouds 25 1006 94 10000 2.6 180 18:55 31.03.2020
451 Clouds 25 1006 94 10000 2.6 180 18:37 31.03.2020
452 Rain 25 1007 100 10000 2.1 230 18:18 31.03.2020
453 Rain 25 1007 100 10000 2.1 230 17:54 31.03.2020
454 Rain 25 1007 100 10000 2.1 230 17:36 31.03.2020
455 Rain 25 1007 100 10000 2.1 230 17:36 31.03.2020
456 Rain 25 1008 100 10000 3.1 230 17:18 31.03.2020
457 Rain 25 1008 100 10000 3.1 230 16:38 31.03.2020
458 Rain 25 1008 100 10000 3.1 230 16:19 31.03.2020
459 Clouds 26 1009 94 10000 4.6 360 15:57 31.03.2020
460 Clouds 26 1009 94 10000 4.6 360 15:38 31.03.2020
461 Clouds 26 1009 94 10000 4.6 360 15:19 31.03.2020
462 Clouds 25 1008 100 10000 1.5 180 14:56 31.03.2020
463 Clouds 25 1008 100 10000 1.5 180 14:56 31.03.2020
464 Clouds 25 1008 100 10000 1.5 180 14:38 31.03.2020
465 Clouds 25 1008 100 10000 1.5 180 14:18 31.03.2020
466 Clouds 25 1008 100 10000 2.1 180 13:42 31.03.2020
467 Clouds 25 1008 100 10000 2.1 180 13:19 31.03.2020
468 Rain 26 1008 100 10000 2.1 160 12:55 31.03.2020
469 Rain 26 1008 100 10000 2.1 160 12:37 31.03.2020
470 Rain 26 1008 100 10000 2.1 160 12:18 31.03.2020
471 Clouds 26 1008 94 10000 1.5 200 11:38 31.03.2020
472 Clouds 26 1008 94 10000 1.5 200 11:19 31.03.2020
473 Clouds 27 1007 88 10000 2.1 200 10:57 31.03.2020
474 Clouds 27 1007 88 10000 2.1 200 10:39 31.03.2020
475 Clouds 27 1007 88 10000 2.1 200 10:20 31.03.2020
476 Clouds 28 1006 83 10000 1.5 230 09:55 31.03.2020
477 Clouds 28 1006 83 10000 1.5 230 09:37 31.03.2020
478 Clouds 28 1006 83 10000 1.5 230 09:19 31.03.2020
479 Clouds 30 1005 74 10000 3.1 360 08:54 31.03.2020
480 Clouds 30 1005 74 10000 3.1 360 08:36 31.03.2020
481 Clouds 30 1005 74 10000 3.1 360 08:18 31.03.2020
482 Clouds 30 1005 79 10000 4.6 360 07:43 31.03.2020
483 Clouds 30 1005 79 10000 4.6 360 07:23 31.03.2020
484 Clouds 31 1005 74 10000 4.1 360 06:58 31.03.2020
485 Clouds 31 1005 74 10000 4.1 360 06:39 31.03.2020
486 Clouds 31 1005 74 10000 2.1 360 05:42 31.03.2020
487 Clouds 31 1005 74 10000 2.1 360 05:23 31.03.2020
488 Clouds 30 1008 79 10000 2.1 50 02:53 31.03.2020
489 Clouds 30 1008 79 10000 2.1 70 01:47 31.03.2020
490 Clouds 30 1008 79 10000 2.1 70 01:19 31.03.2020
491 Clouds 29 1008 83 10000 1 200 00:42 31.03.2020
492 Clouds 29 1008 83 10000 1 200 00:19 31.03.2020
493 Clouds 27 1008 83 10000 1 160 23:39 30.03.2020
494 Clouds 27 1008 83 10000 1 160 23:20 30.03.2020
495 Clouds 24 1007 100 10000 0.45 31 22:57 30.03.2020
496 Clouds 24 1007 100 10000 0.45 31 22:38 30.03.2020
497 Clouds 24 1007 100 10000 0.45 31 22:18 30.03.2020
498 Drizzle 24 1007 100 10000 1.5 160 21:57 30.03.2020
499 Drizzle 24 1007 100 10000 1.5 160 21:37 30.03.2020
500 Drizzle 24 1007 100 10000 1.5 160 21:19 30.03.2020
501 Clouds 25 1006 94 10000 0.22 264 20:55 30.03.2020
502 Clouds 25 1006 94 10000 0.22 264 20:36 30.03.2020
503 Clouds 25 1006 94 10000 0.22 264 20:36 30.03.2020
504 Clouds 25 1006 94 10000 0.22 264 20:18 30.03.2020
505 Clouds 25 1006 94 10000 1.5 110 19:40 30.03.2020
506 Clouds 25 1006 94 10000 1.5 110 19:22 30.03.2020
507 Clouds 25 1006 100 10000 2.6 160 18:57 30.03.2020
508 Clouds 25 1006 100 10000 2.6 160 18:38 30.03.2020
509 Clouds 25 1006 100 10000 2.6 160 18:20 30.03.2020
510 Clouds 25 1006 100 10000 2.6 160 17:57 30.03.2020
511 Clouds 25 1006 100 10000 1 180 17:38 30.03.2020
512 Clouds 25 1006 100 10000 1 180 17:38 30.03.2020
513 Clouds 25 1006 100 10000 1 180 17:18 30.03.2020
514 Clouds 25 1007 100 10000 1.5 90 16:55 30.03.2020
515 Clouds 25 1007 100 10000 1.5 90 16:36 30.03.2020
516 Clouds 25 1007 100 10000 1.5 90 16:18 30.03.2020
517 Clouds 25 1008 100 10000 1 110 15:42 30.03.2020
518 Clouds 25 1008 100 10000 1 110 15:22 30.03.2020
519 Clouds 26 1008 94 10000 1.5 180 14:59 30.03.2020
520 Clouds 26 1008 94 10000 1.5 180 14:39 30.03.2020
521 Clouds 26 1008 94 10000 1.5 180 14:19 30.03.2020
522 Clouds 25 1008 100 10000 1 180 13:58 30.03.2020
523 Clouds 25 1008 100 10000 1 180 13:58 30.03.2020
524 Clouds 25 1008 100 10000 1 180 13:39 30.03.2020
525 Clouds 25 1008 100 10000 1 180 13:20 30.03.2020
526 Clouds 26 1008 94 10000 2.1 200 12:45 30.03.2020
527 Clouds 26 1008 94 10000 2.1 200 12:22 30.03.2020
528 Drizzle 26 1007 94 10000 3.1 290 11:59 30.03.2020
529 Drizzle 26 1007 94 10000 3.1 290 11:41 30.03.2020
530 Drizzle 26 1007 94 10000 3.1 290 11:22 30.03.2020
531 Drizzle 26 1007 94 10000 3.1 290 11:22 30.03.2020
532 Drizzle 27 1006 94 10000 2.1 230 10:57 30.03.2020
533 Drizzle 27 1006 94 10000 2.1 230 10:37 30.03.2020
534 Drizzle 27 1006 94 10000 2.1 230 10:19 30.03.2020
535 Clouds 27 1005 94 10000 2.1 200 09:41 30.03.2020
536 Clouds 27 1005 94 10000 2.1 200 09:20 30.03.2020
537 Drizzle 28 1005 88 10000 2.1 200 08:57 30.03.2020
538 Drizzle 28 1005 88 10000 2.1 200 08:38 30.03.2020
539 Drizzle 28 1005 88 10000 2.1 200 08:19 30.03.2020
540 Thunderstorm 29 1005 83 10000 1.5 340 07:43 30.03.2020
541 Thunderstorm 29 1005 83 10000 1.5 340 07:21 30.03.2020
542 Thunderstorm 30 1004 79 10000 3.1 360 06:43 30.03.2020
543 Thunderstorm 30 1004 79 10000 3.1 360 06:25 30.03.2020
544 Thunderstorm 30 1005 79 10000 5.1 340 05:43 30.03.2020
545 Clouds 31 1006 74 10000 4.1 340 04:29 30.03.2020
546 Clouds 30 1007 79 10000 3.1 360 03:54 30.03.2020
547 Clouds 31 1007 74 10000 4.1 360 02:44 30.03.2020
548 Clouds 31 1008 70 10000 1 70 01:55 30.03.2020
549 Clouds 29 1008 83 10000 1.5 110 00:57 30.03.2020
550 Clouds 29 1008 83 10000 1.5 110 00:27 30.03.2020
551 Clouds 25 1008 94 10000 1 180 23:55 29.03.2020
552 Clouds 25 1008 94 10000 1 180 23:36 29.03.2020
553 Clouds 25 1008 94 10000 1 180 23:18 29.03.2020
554 Clouds 25 1007 94 10000 1 180 22:40 29.03.2020
555 Clouds 25 1007 94 10000 1 180 22:20 29.03.2020
556 Clouds 25 1006 94 10000 1 200 21:59 29.03.2020
557 Clouds 25 1006 94 10000 1 200 21:37 29.03.2020
558 Clouds 25 1006 94 10000 1 200 21:19 29.03.2020
559 Clouds 25 1006 94 10000 1 140 20:55 29.03.2020
560 Clouds 25 1006 94 10000 1 140 20:37 29.03.2020
561 Clouds 24 1006 100 10000 1 160 20:18 29.03.2020
562 Clouds 24 1006 100 10000 1 160 20:18 29.03.2020
563 Clouds 24 1006 100 10000 1 160 20:18 29.03.2020
564 Clouds 24 1006 100 10000 1 160 19:55 29.03.2020
565 Clouds 24 1006 100 10000 1 160 19:37 29.03.2020
566 Clouds 25 1006 100 10000 1 160 19:19 29.03.2020
567 Clouds 25 1006 100 10000 1 160 18:55 29.03.2020
568 Clouds 25 1006 100 10000 1 160 18:37 29.03.2020
569 Clouds 25 1007 100 10000 1 200 18:18 29.03.2020
570 Clouds 25 1007 100 10000 1 200 17:42 29.03.2020
571 Clouds 25 1007 100 10000 1 200 17:24 29.03.2020
572 Clouds 25 1008 94 10000 1 140 16:59 29.03.2020
573 Clouds 25 1008 94 10000 1 140 16:41 29.03.2020
574 Clouds 25 1008 94 10000 1 140 16:21 29.03.2020
575 Clouds 25 1009 94 10000 1 140 15:59 29.03.2020
576 Clouds 25 1009 94 10000 1 140 15:59 29.03.2020
577 Clouds 25 1009 94 10000 1 140 15:40 29.03.2020
578 Clouds 25 1009 94 10000 1 140 15:21 29.03.2020
579 Clouds 25 1009 94 10000 1 140 15:21 29.03.2020
580 Drizzle 25 1010 94 10000 1.21 271 14:57 29.03.2020
581 Drizzle 25 1010 94 10000 1.21 271 14:37 29.03.2020
582 Drizzle 25 1010 94 10000 1.21 271 14:19 29.03.2020
583 Drizzle 25 1009 100 10000 1.5 200 13:55 29.03.2020
584 Drizzle 25 1009 100 10000 1.5 200 13:37 29.03.2020
585 Drizzle 25 1009 100 10000 1.5 200 13:18 29.03.2020
586 Drizzle 25 1009 100 10000 1.5 160 12:54 29.03.2020
587 Drizzle 25 1009 100 10000 1.5 160 12:54 29.03.2020
588 Drizzle 25 1009 100 10000 1.5 160 12:36 29.03.2020
589 Rain 25 1009 100 10000 2.1 140 12:18 29.03.2020
590 Rain 25 1009 100 10000 2.1 140 11:38 29.03.2020
591 Rain 25 1009 100 10000 2.1 140 11:20 29.03.2020
592 Clouds 26 1008 100 10000 1.5 160 10:40 29.03.2020
593 Clouds 26 1008 100 10000 1.5 160 10:21 29.03.2020
594 Clouds 27 1007 94 10000 1.5 110 09:57 29.03.2020
595 Clouds 27 1007 94 10000 1.5 110 09:38 29.03.2020
596 Clouds 27 1007 94 10000 1.5 110 09:18 29.03.2020
597 Clouds 27 1007 94 10000 1.5 110 09:18 29.03.2020
598 Drizzle 27 1006 88 10000 1 180 08:45 29.03.2020
599 Drizzle 27 1006 88 10000 1 180 08:26 29.03.2020
600 Drizzle 28 1005 88 10000 3.6 290 07:48 29.03.2020
601 Drizzle 28 1005 88 10000 3.6 290 07:23 29.03.2020
602 Clouds 30 1005 79 10000 2.1 20 06:40 29.03.2020
603 Clouds 29 1006 83 10000 3.1 290 04:56 29.03.2020
604 Clouds 30 1007 84 10000 5.1 360 03:41 29.03.2020
605 Clouds 30 1007 84 10000 5.1 360 03:20 29.03.2020
606 Clouds 31 1008 70 10000 3.1 360 01:43 29.03.2020
607 Clouds 31 1008 70 10000 3.1 360 01:22 29.03.2020
608 Clouds 31 1008 74 10000 1 20 00:45 29.03.2020
609 Clouds 31 1008 74 10000 1 20 00:27 29.03.2020
610 Clouds 30 1008 84 10000 1 290 23:41 28.03.2020
611 Clouds 25 1008 94 10000 1 140 23:22 28.03.2020
612 Clouds 25 1008 94 10000 1 140 22:44 28.03.2020
613 Clouds 25 1008 94 10000 1 140 22:23 28.03.2020
614 Clouds 23 1007 100 10000 0.27 166 21:57 28.03.2020
615 Clouds 23 1007 100 10000 0.27 166 21:57 28.03.2020
616 Clouds 23 1007 100 10000 0.27 166 21:57 28.03.2020
617 Clouds 23 1007 100 10000 0.27 166 21:39 28.03.2020
618 Clouds 23 1007 100 10000 0.27 166 21:20 28.03.2020
619 Clouds 23 1006 100 10000 1 110 20:57 28.03.2020
620 Clouds 23 1006 100 10000 1 110 20:38 28.03.2020
621 Clouds 23 1006 100 10000 1 110 20:19 28.03.2020
622 Clouds 23 1006 100 10000 1 110 20:19 28.03.2020
623 Clouds 24 1006 94 10000 0.43 122 19:55 28.03.2020
624 Clouds 24 1006 94 10000 0.43 122 19:36 28.03.2020
625 Clouds 24 1006 94 10000 1 140 19:18 28.03.2020
626 Clouds 24 1006 94 10000 1 140 18:39 28.03.2020
627 Clouds 24 1006 94 10000 1 140 18:20 28.03.2020
628 Clouds 24 1006 100 10000 0.43 122 17:41 28.03.2020
629 Clouds 25 1006 94 10000 0.43 122 17:22 28.03.2020
630 Clouds 25 1006 94 10000 1 358 16:59 28.03.2020
631 Clouds 25 1006 94 10000 1 358 16:38 28.03.2020
632 Clouds 25 1006 94 10000 1 358 16:18 28.03.2020
633 Clouds 25 1007 94 10000 1 180 15:40 28.03.2020
634 Clouds 25 1007 94 10000 1 180 15:19 28.03.2020
635 Clouds 25 1007 94 10000 1 180 15:19 28.03.2020
636 Clouds 25 1008 94 10000 1.5 200 14:57 28.03.2020
637 Clouds 25 1008 94 10000 1.5 200 14:39 28.03.2020
638 Clouds 25 1008 94 10000 1.5 200 14:20 28.03.2020
639 Clouds 25 1008 94 10000 1.5 200 14:20 28.03.2020
640 Clouds 25 1008 94 10000 1.5 200 14:20 28.03.2020
641 Clouds 25 1008 100 10000 0.8 14 13:42 28.03.2020
642 Clouds 25 1008 100 10000 1.31 24 13:23 28.03.2020
643 Clouds 25 1009 100 10000 1.5 200 12:41 28.03.2020
644 Clouds 25 1009 100 10000 1.5 200 12:22 28.03.2020
645 Clouds 25 1008 100 10000 1.5 140 11:43 28.03.2020
646 Drizzle 26 1007 100 10000 1.5 160 11:23 28.03.2020
647 Drizzle 26 1007 100 10000 1.5 160 10:58 28.03.2020
648 Drizzle 26 1007 100 10000 1.5 160 10:38 28.03.2020
649 Drizzle 26 1007 100 10000 1.5 160 10:18 28.03.2020
650 Rain 26 1007 100 10000 3.1 90 09:42 28.03.2020
651 Rain 26 1007 100 10000 3.1 90 09:23 28.03.2020
652 Rain 26 1006 100 10000 2.1 160 08:55 28.03.2020
653 Rain 26 1006 100 10000 2.1 160 08:37 28.03.2020
654 Rain 26 1006 100 10000 2.1 160 08:18 28.03.2020
655 Rain 27 1006 94 10000 2.1 180 07:41 28.03.2020
656 Rain 28 1006 88 10000 2.1 70 06:58 28.03.2020
657 Rain 28 1006 88 10000 2.1 70 06:34 28.03.2020
658 Rain 29 1006 83 10000 3.6 20 05:41 28.03.2020
659 Rain 29 1006 79 10000 3.6 360 05:21 28.03.2020
660 Rain 29 1006 79 10000 3.6 360 04:40 28.03.2020
661 Rain 30 1007 79 10000 6.7 360 03:21 28.03.2020
662 Clouds 31 1009 70 10000 2.6 20 01:49 28.03.2020
663 Clouds 31 1009 70 10000 2.6 20 01:25 28.03.2020
664 Clouds 31 1009 74 10000 1 360 00:55 28.03.2020
665 Clouds 31 1009 74 10000 1 360 00:33 28.03.2020
666 Clouds 28 1009 88 10000 1 160 23:45 27.03.2020
667 Clouds 28 1009 88 10000 1 160 23:26 27.03.2020
668 Clouds 25 1008 94 10000 1 200 22:58 27.03.2020
669 Clouds 25 1008 94 10000 1 200 22:40 27.03.2020
670 Clouds 25 1008 94 10000 1 200 22:21 27.03.2020
671 Clouds 25 1008 88 10000 1 200 21:59 27.03.2020
672 Clouds 24 1008 94 10000 0.95 184 21:41 27.03.2020
673 Clouds 24 1008 94 10000 0.95 184 21:23 27.03.2020
674 Clouds 23 1007 100 10000 1 160 20:57 27.03.2020
675 Clouds 23 1007 100 10000 1 160 20:39 27.03.2020
676 Clouds 23 1007 100 10000 1 160 20:19 27.03.2020
677 Clouds 23 1007 100 10000 1 160 20:19 27.03.2020
678 Clouds 24 1007 94 10000 1 160 19:55 27.03.2020
679 Clouds 24 1007 94 10000 1 160 19:36 27.03.2020
680 Clouds 24 1007 94 10000 1 160 19:18 27.03.2020
681 Rain 27 1007 77 0 0.42 182 18:42 27.03.2020
682 Clouds 24 1007 94 10000 1 110 18:23 27.03.2020
683 Clouds 24 1007 94 10000 1 110 17:54 27.03.2020
684 Clouds 24 1007 94 10000 1 110 17:36 27.03.2020
685 Clouds 23 1008 100 10000 1 200 17:18 27.03.2020
686 Clouds 23 1008 100 10000 1 200 16:41 27.03.2020
687 Clouds 23 1008 100 10000 1 200 16:23 27.03.2020
688 Clouds 23 1009 100 10000 1.18 181 15:43 27.03.2020
689 Clouds 23 1009 100 10000 1.18 181 15:25 27.03.2020
690 Clouds 24 1009 94 10000 1.18 181 14:48 27.03.2020
691 Clouds 24 1009 94 10000 1.18 181 14:27 27.03.2020
692 Clouds 24 1010 94 10000 1 110 13:58 27.03.2020
693 Clouds 24 1010 94 10000 1 110 13:40 27.03.2020
694 Clouds 24 1010 94 10000 1 110 13:21 27.03.2020
695 Clouds 24 1009 100 10000 1 160 12:57 27.03.2020
696 Clouds 24 1009 100 10000 1 160 12:39 27.03.2020
697 Clouds 24 1009 100 10000 1 160 12:18 27.03.2020
698 Clouds 25 1009 94 10000 1.44 212 11:41 27.03.2020
699 Clouds 25 1008 94 10000 1 140 11:23 27.03.2020
700 Clouds 25 1008 94 10000 1 140 11:23 27.03.2020
701 Clouds 25 1008 94 10000 1 140 10:55 27.03.2020
702 Clouds 25 1008 94 10000 1 140 10:37 27.03.2020
703 Clouds 25 1008 94 10000 1 140 10:18 27.03.2020
704 Clouds 25 1008 94 10000 1 110 09:56 27.03.2020
705 Clouds 25 1008 94 10000 1 110 09:37 27.03.2020
706 Clouds 25 1008 94 10000 1 110 09:18 27.03.2020
707 Clouds 26 1007 88 10000 1 140 08:56 27.03.2020
708 Clouds 26 1007 88 10000 1 140 08:37 27.03.2020
709 Clouds 26 1007 88 10000 1 140 08:19 27.03.2020
710 Clouds 26 1007 88 0 2.1 180 07:50 27.03.2020
711 Clouds 26 1007 88 0 2.1 180 07:23 27.03.2020
712 Rain 28 1007 78 10000 3.6 180 06:51 27.03.2020
713 Rain 28 1007 78 10000 3.6 180 06:33 27.03.2020
714 Rain 32 1007 66 10000 3.6 340 04:23 27.03.2020
715 Clouds 31 1009 70 10000 4.1 360 02:25 27.03.2020
716 Clouds 31 1009 70 10000 3.1 360 01:23 27.03.2020
717 Clouds 30 1010 70 10000 2.6 260 00:48 27.03.2020
718 Clouds 30 1010 70 10000 2.6 260 00:23 27.03.2020
719 Clouds 30 1010 74 10000 0.79 22 23:42 26.03.2020
720 Clouds 26 1009 83 10000 1.5 180 23:21 26.03.2020
721 Clouds 26 1009 83 10000 1.5 180 22:58 26.03.2020
722 Clouds 26 1009 83 10000 1.5 180 22:37 26.03.2020
723 Clouds 26 1009 83 10000 1.5 180 22:19 26.03.2020
724 Clouds 24 1008 94 10000 1 200 21:55 26.03.2020
725 Clouds 24 1008 94 10000 1 200 21:55 26.03.2020
726 Clouds 24 1008 94 10000 1 200 21:36 26.03.2020
727 Clouds 24 1008 94 10000 1 200 21:18 26.03.2020
728 Rain 27 1009 75 0 0.98 115 20:41 26.03.2020
729 Clouds 23 1008 100 10000 1 140 20:23 26.03.2020
730 Clouds 23 1008 100 10000 1 140 20:23 26.03.2020
731 Clouds 23 1008 100 10000 1 140 19:58 26.03.2020
732 Clouds 23 1008 100 10000 1 140 19:40 26.03.2020
733 Clouds 23 1008 100 10000 1 140 19:22 26.03.2020
734 Clouds 23 1008 100 10000 1.15 191 18:58 26.03.2020
735 Clouds 23 1008 100 10000 1.15 191 18:40 26.03.2020
736 Clouds 24 1007 94 10000 1 180 18:22 26.03.2020
737 Clouds 24 1007 94 10000 1 180 17:45 26.03.2020
738 Clouds 24 1007 94 10000 1 180 17:20 26.03.2020
739 Clouds 24 1007 94 10000 1 180 16:57 26.03.2020
740 Clouds 24 1007 94 10000 1 180 16:57 26.03.2020
741 Clouds 24 1008 94 10000 1.17 208 16:38 26.03.2020
742 Clouds 24 1008 94 10000 1.17 208 16:19 26.03.2020
743 Clouds 25 1009 94 10000 1 230 15:56 26.03.2020
744 Clouds 25 1009 94 10000 1 230 15:56 26.03.2020
745 Clouds 25 1009 94 10000 1 230 15:37 26.03.2020
746 Clouds 25 1009 94 10000 1 230 15:18 26.03.2020
747 Clouds 25 1010 94 10000 1.5 180 14:43 26.03.2020
748 Clouds 25 1010 94 10000 1.5 180 14:24 26.03.2020
749 Clouds 25 1011 94 10000 0.76 217 13:56 26.03.2020
750 Clouds 25 1011 94 10000 0.76 217 13:56 26.03.2020
751 Clouds 25 1011 94 10000 0.76 217 13:38 26.03.2020
752 Clouds 25 1011 94 10000 1.12 193 13:19 26.03.2020
753 Clouds 25 1011 94 10000 1 160 12:38 26.03.2020
754 Clouds 25 1011 100 10000 1 140 12:20 26.03.2020
755 Clouds 25 1011 100 10000 1 140 11:46 26.03.2020
756 Clouds 25 1011 100 10000 1 140 11:23 26.03.2020
757 Drizzle 26 1010 94 10000 1.5 160 10:59 26.03.2020
758 Drizzle 26 1010 94 10000 1.5 160 10:41 26.03.2020
759 Drizzle 26 1010 94 10000 1.5 160 10:20 26.03.2020
760 Clouds 27 1010 88 10000 3.1 110 09:45 26.03.2020
761 Clouds 27 1010 88 10000 3.1 110 09:21 26.03.2020
762 Clouds 29 1009 79 10000 2.6 110 08:57 26.03.2020
763 Clouds 29 1009 79 10000 2.6 110 08:57 26.03.2020
764 Clouds 29 1009 79 10000 2.6 110 08:38 26.03.2020
765 Clouds 29 1009 79 10000 2.6 110 08:19 26.03.2020
766 Clouds 30 1008 70 10000 3.1 230 07:44 26.03.2020
767 Clouds 30 1008 70 10000 3.1 230 07:22 26.03.2020
768 Clouds 31 1008 70 10000 2.1 290 06:57 26.03.2020
769 Clouds 32 1008 66 10000 1.89 326 06:27 26.03.2020
770 Rain 32 1008 62 10000 4.1 340 05:22 26.03.2020
771 Clouds 32 1009 66 10000 3.1 346 03:45 26.03.2020
772 Clouds 31 1010 70 10000 3.1 340 02:56 26.03.2020
773 Clouds 31 1011 70 10000 2.1 360 01:50 26.03.2020
774 Clouds 30 1010 74 10000 2.1 20 00:55 26.03.2020
775 Clouds 30 1010 74 10000 2.1 20 00:22 26.03.2020
776 Clouds 29 1010 79 10000 1.8 14 23:41 25.03.2020
777 Clouds 27 1010 83 10000 1.5 180 23:21 25.03.2020
778 Clouds 27 1010 83 10000 1.5 180 22:41 25.03.2020
779 Clouds 27 1010 83 10000 1.5 180 22:21 25.03.2020
780 Clouds 25 1010 94 10000 1.5 180 21:56 25.03.2020
781 Clouds 25 1010 94 10000 1.5 180 21:38 25.03.2020
782 Clouds 25 1010 94 10000 1.5 180 21:19 25.03.2020
783 Clouds 25 1009 94 10000 0.65 137 20:55 25.03.2020
784 Clouds 25 1009 94 10000 0.65 137 20:37 25.03.2020
785 Clouds 25 1009 94 10000 0.97 106 20:18 25.03.2020
786 Clouds 25 1009 94 10000 0.97 106 19:42 25.03.2020
787 Clouds 25 1009 94 10000 0.97 106 19:22 25.03.2020
788 Clouds 25 1009 94 10000 1.12 126 18:57 25.03.2020
789 Clouds 25 1008 94 10000 0.97 106 18:38 25.03.2020
790 Clouds 25 1008 94 10000 0.97 106 18:20 25.03.2020
791 Clouds 26 1008 94 10000 1.5 290 17:55 25.03.2020
792 Clouds 26 1008 94 10000 1.5 290 17:36 25.03.2020
793 Clouds 26 1008 94 10000 1.5 290 17:18 25.03.2020
794 Clouds 26 1009 94 10000 2.6 270 16:43 25.03.2020
795 Clouds 26 1009 94 10000 2.6 270 16:22 25.03.2020
796 Clouds 26 1010 100 10000 1 270 15:57 25.03.2020
797 Clouds 26 1010 100 10000 1 270 15:38 25.03.2020
798 Clouds 26 1010 100 10000 1 270 15:19 25.03.2020
799 Clouds 26 1010 100 10000 1.5 200 14:41 25.03.2020
800 Clouds 26 1010 100 10000 1.5 200 14:21 25.03.2020
801 Clouds 27 1011 94 10000 1.72 171 13:46 25.03.2020
802 Clouds 27 1011 94 10000 1.72 171 13:26 25.03.2020
803 Clouds 27 1010 88 10000 1 360 12:55 25.03.2020
804 Clouds 27 1010 88 10000 1 360 12:37 25.03.2020
805 Clouds 27 1010 88 10000 1 320 12:18 25.03.2020
806 Clouds 27 1010 88 10000 1 320 11:41 25.03.2020
807 Clouds 28 1009 83 10000 1 110 11:21 25.03.2020
808 Clouds 28 1009 83 10000 1 110 10:59 25.03.2020
809 Clouds 28 1009 83 10000 1 110 10:59 25.03.2020
810 Clouds 28 1009 83 10000 1 110 10:40 25.03.2020
811 Clouds 28 1009 83 10000 1 110 10:19 25.03.2020
812 Clouds 30 1008 74 10000 1 70 09:58 25.03.2020
813 Clouds 30 1008 74 10000 1 70 09:39 25.03.2020
814 Clouds 30 1008 74 10000 1 70 09:21 25.03.2020
815 Clouds 30 1007 74 10000 1.5 50 08:43 25.03.2020
816 Clouds 30 1007 74 10000 1.5 50 08:25 25.03.2020
817 Clouds 31 1007 66 10000 2.6 70 07:57 25.03.2020
818 Clouds 31 1007 66 10000 2.6 70 07:38 25.03.2020
819 Clouds 31 1006 70 10000 3.1 360 07:18 25.03.2020
820 Clouds 31 1006 70 10000 3.1 360 06:42 25.03.2020
821 Clouds 31 1006 70 10000 3.1 360 06:23 25.03.2020
822 Clouds 32 1006 66 10000 3.1 360 05:47 25.03.2020
823 Clouds 32 1007 62 10000 3.6 360 04:46 25.03.2020
824 Clouds 32 1007 66 10000 3.1 20 03:58 25.03.2020
825 Clouds 32 1007 66 10000 3.1 20 03:33 25.03.2020
826 Clouds 31 1009 70 10000 4.1 360 01:40 25.03.2020
827 Clouds 32 1009 66 10000 2.1 70 00:50 25.03.2020
828 Clouds 32 1009 66 10000 2.1 70 00:27 25.03.2020
829 Clouds 28 1009 83 10000 1 180 23:55 24.03.2020
830 Clouds 28 1009 83 10000 1 180 23:28 24.03.2020
831 Clouds 26 1009 88 10000 1 180 22:58 24.03.2020
832 Clouds 26 1009 88 10000 1 180 22:38 24.03.2020
833 Clouds 26 1009 88 10000 1 180 22:38 24.03.2020
834 Clouds 26 1009 88 10000 1 180 22:20 24.03.2020
835 Clouds 25 1008 88 10000 1 180 21:58 24.03.2020
836 Clouds 25 1008 88 10000 1 180 21:40 24.03.2020
837 Clouds 25 1008 88 10000 1 180 21:19 24.03.2020
838 Clouds 24 1007 94 10000 1 180 20:58 24.03.2020
839 Clouds 24 1007 94 10000 1 180 20:39 24.03.2020
840 Clouds 24 1007 94 10000 1 180 20:21 24.03.2020
841 Clouds 24 1007 94 10000 1 180 19:47 24.03.2020
842 Clouds 24 1007 94 10000 1 180 19:22 24.03.2020
843 Clouds 24 1007 94 10000 1 180 18:56 24.03.2020
844 Clouds 25 1007 94 10000 1 180 18:38 24.03.2020
845 Clouds 25 1007 94 10000 1 180 18:19 24.03.2020
846 Clouds 25 1007 94 10000 1 180 17:56 24.03.2020
847 Clouds 25 1007 94 10000 1 180 17:37 24.03.2020
848 Clouds 25 1008 94 10000 1 200 17:19 24.03.2020
849 Clouds 25 1008 94 10000 1 200 16:54 24.03.2020
850 Clouds 25 1008 94 10000 1 200 16:36 24.03.2020
851 Clouds 25 1008 94 10000 1 200 16:36 24.03.2020
852 Clouds 25 1008 94 10000 1 200 16:18 24.03.2020
853 Clouds 25 1008 94 10000 1.45 189 15:42 24.03.2020
854 Clouds 25 1008 94 10000 1.45 189 15:23 24.03.2020
855 Clouds 25 1009 94 10000 1.45 189 14:43 24.03.2020
856 Clouds 25 1009 94 10000 1.06 171 14:22 24.03.2020
857 Clouds 25 1009 94 10000 1.34 156 13:56 24.03.2020
858 Clouds 25 1009 94 10000 1.34 156 13:38 24.03.2020
859 Clouds 25 1009 94 10000 1.08 132 13:20 24.03.2020
860 Clouds 25 1009 100 10000 1.08 132 12:42 24.03.2020
861 Clouds 25 1009 100 10000 1.08 132 12:23 24.03.2020
862 Clouds 26 1009 94 10000 1.5 140 11:41 24.03.2020
863 Clouds 26 1009 94 10000 1.5 140 11:20 24.03.2020
864 Clouds 26 1008 88 10000 1 160 10:57 24.03.2020
865 Clouds 26 1008 88 10000 1 160 10:57 24.03.2020
866 Clouds 26 1008 88 10000 1 160 10:38 24.03.2020
867 Clouds 26 1008 88 10000 1 160 10:18 24.03.2020
868 Clouds 27 1007 83 10000 2.1 140 09:43 24.03.2020
869 Clouds 27 1007 83 10000 2.1 140 09:25 24.03.2020
870 Rain 30 1006 74 10000 3.1 70 08:40 24.03.2020
871 Rain 30 1006 74 10000 3.1 70 08:21 24.03.2020
872 Rain 31 1006 62 10000 1.5 360 07:59 24.03.2020
873 Rain 31 1006 62 10000 1.5 360 07:41 24.03.2020
874 Rain 31 1006 62 10000 1.5 360 07:21 24.03.2020
875 Clouds 32 1006 59 10000 2.1 360 06:34 24.03.2020
876 Clouds 31 1006 66 10000 4.1 320 05:30 24.03.2020
877 Clouds 32 1006 62 10000 2.6 20 04:49 24.03.2020
878 Clouds 31 1007 70 10000 4.1 360 03:19 24.03.2020
879 Clouds 31 1009 70 10000 3.6 360 01:59 24.03.2020
880 Clouds 30 1009 74 10000 2.1 320 00:52 24.03.2020
881 Clouds 30 1009 74 10000 2.1 320 00:26 24.03.2020
882 Clouds 29 1009 79 10000 1.73 14 23:50 23.03.2020
883 Clouds 29 1009 79 10000 1.73 14 23:30 23.03.2020
884 Clouds 26 1008 94 10000 1.02 172 22:59 23.03.2020
885 Clouds 26 1008 94 10000 1.02 172 22:40 23.03.2020
886 Clouds 26 1008 94 10000 1.02 172 22:22 23.03.2020
887 Clouds 24 1007 100 10000 1 180 21:44 23.03.2020
888 Clouds 24 1007 100 10000 1 180 21:21 23.03.2020
889 Clouds 23 1007 100 10000 1 140 21:00 23.03.2020
890 Clouds 23 1007 100 10000 1 140 20:41 23.03.2020
891 Clouds 23 1007 100 10000 1 140 20:23 23.03.2020
892 Clouds 24 1006 94 10000 1 160 19:55 23.03.2020
893 Clouds 24 1006 94 10000 1 160 19:37 23.03.2020
894 Clouds 24 1006 94 10000 1 160 19:18 23.03.2020
895 Clouds 24 1007 100 10000 1 160 18:43 23.03.2020
896 Clouds 24 1007 100 10000 1 160 18:24 23.03.2020
897 Clouds 24 1007 100 10000 1 160 17:57 23.03.2020
898 Clouds 24 1007 100 10000 1 160 17:57 23.03.2020
899 Clouds 24 1007 100 10000 1 160 17:38 23.03.2020
900 Clouds 25 1008 94 10000 0.66 331 17:19 23.03.2020
901 Clouds 25 1008 94 10000 0.66 331 16:43 23.03.2020
902 Clouds 25 1008 94 10000 0.66 331 16:25 23.03.2020
903 Clouds 25 1009 100 10000 1 200 15:44 23.03.2020
904 Clouds 25 1009 100 10000 1 200 15:21 23.03.2020
905 Clouds 25 1010 100 10000 2.1 200 14:57 23.03.2020
906 Clouds 25 1010 100 10000 2.1 200 14:37 23.03.2020
907 Clouds 25 1010 100 10000 2.1 200 14:18 23.03.2020
908 Clouds 25 1010 100 10000 2.1 200 14:18 23.03.2020
909 Clouds 25 1010 100 10000 1 230 13:41 23.03.2020
910 Clouds 25 1010 100 10000 1 230 13:22 23.03.2020
911 Clouds 25 1010 94 10000 1 70 12:58 23.03.2020
912 Clouds 25 1010 94 10000 1 70 12:58 23.03.2020
913 Clouds 25 1010 94 10000 1 70 12:40 23.03.2020
914 Clouds 25 1010 94 10000 1 70 12:21 23.03.2020
915 Rain 25 1009 94 10000 1.5 110 11:42 23.03.2020
916 Rain 26 1009 88 10000 2.6 90 11:21 23.03.2020
917 Rain 26 1009 88 10000 2.6 90 10:58 23.03.2020
918 Rain 26 1009 88 10000 2.6 90 10:39 23.03.2020
919 Rain 26 1009 88 10000 2.6 90 10:21 23.03.2020
920 Clouds 25 1008 94 10000 1.05 355 09:57 23.03.2020
921 Clouds 25 1008 94 10000 1.05 355 09:37 23.03.2020
922 Clouds 25 1008 94 10000 1.05 355 09:18 23.03.2020
923 Rain 26 1007 88 10000 1.5 140 08:37 23.03.2020
924 Rain 26 1007 88 10000 1.5 140 08:19 23.03.2020
925 Clouds 27 1006 83 10000 1.5 180 07:48 23.03.2020
926 Clouds 27 1006 83 10000 1.5 180 07:29 23.03.2020
927 Rain 29 1007 83 10000 1.5 250 06:52 23.03.2020
928 Rain 29 1007 83 10000 1.5 250 06:25 23.03.2020
929 Clouds 29 1006 79 10000 2.1 320 05:34 23.03.2020
930 Thunderstorm 30 1006 79 0 4.6 340 03:45 23.03.2020
931 Clouds 32 1008 70 10000 3.6 360 02:37 23.03.2020
932 Clouds 31 1009 66 10000 2.1 20 01:34 23.03.2020
933 Clouds 31 1009 74 10000 2.6 50 00:40 23.03.2020
934 Clouds 30 1009 74 10000 2.18 39 23:53 22.03.2020
935 Clouds 30 1009 74 10000 2.18 39 23:26 22.03.2020
936 Clouds 30 1009 74 10000 2.18 39 23:26 22.03.2020
937 Clouds 27 1009 83 10000 1.08 127 22:47 22.03.2020
938 Clouds 27 1009 83 10000 1.08 127 22:26 22.03.2020
939 Clouds 24 1008 100 10000 1.08 127 21:57 22.03.2020
940 Clouds 24 1008 100 10000 1.08 127 21:57 22.03.2020
941 Clouds 24 1008 100 10000 1.08 127 21:39 22.03.2020
942 Clouds 24 1008 100 10000 1.08 127 21:20 22.03.2020
943 Clouds 24 1008 94 10000 1.08 127 20:54 22.03.2020
944 Clouds 24 1008 94 10000 1.08 127 20:36 22.03.2020
945 Clouds 24 1008 94 10000 1.12 161 20:18 22.03.2020
946 Clouds 24 1007 94 10000 1.12 161 19:54 22.03.2020
947 Clouds 24 1007 94 10000 1.12 161 19:36 22.03.2020
948 Clouds 24 1007 94 10000 1.12 161 19:18 22.03.2020
949 Clouds 24 1007 100 10000 1.12 161 18:41 22.03.2020
950 Clouds 24 1007 100 10000 1.12 161 18:22 22.03.2020
951 Clouds 24 1007 100 10000 1.12 161 18:22 22.03.2020
952 Clouds 24 1007 100 10000 1 180 17:59 22.03.2020
953 Clouds 24 1007 100 10000 1 180 17:59 22.03.2020
954 Clouds 24 1007 100 10000 1 180 17:39 22.03.2020
955 Clouds 24 1008 100 10000 1.32 152 17:21 22.03.2020
956 Clouds 24 1008 100 10000 1.32 152 17:21 22.03.2020
957 Clouds 24 1008 100 10000 1.32 152 16:59 22.03.2020
958 Clouds 24 1008 100 10000 1.32 152 16:59 22.03.2020
959 Clouds 24 1008 100 10000 1.32 152 16:41 22.03.2020
960 Clouds 24 1008 100 10000 1.32 152 16:21 22.03.2020
961 Clouds 25 1009 94 10000 1.32 152 15:58 22.03.2020
962 Clouds 25 1009 94 10000 1.32 152 15:39 22.03.2020
963 Clouds 25 1009 94 10000 1.32 152 14:47 22.03.2020
964 Clouds 25 1009 94 10000 1.2 141 14:19 22.03.2020
965 Rain 24 1009 91 0 1.2 141 13:56 22.03.2020
966 Rain 24 1009 91 0 1.2 141 13:37 22.03.2020
967 Rain 24 1009 90 0 1.13 149 13:19 22.03.2020
968 Rain 24 1009 90 0 1.13 149 12:43 22.03.2020
969 Rain 24 1009 90 0 1.13 149 12:20 22.03.2020
970 Rain 24 1009 90 0 1.13 149 11:56 22.03.2020
971 Rain 24 1009 90 0 1.13 149 11:37 22.03.2020
972 Rain 24 1008 90 0 1.09 190 11:19 22.03.2020
973 Rain 24 1008 90 0 1.09 190 10:43 22.03.2020
974 Rain 24 1008 90 0 1.09 190 10:24 22.03.2020
975 Rain 24 1008 90 0 1.09 190 10:24 22.03.2020
976 Rain 24 1008 90 0 1.09 190 09:48 22.03.2020
977 Rain 24 1008 90 0 1.09 190 09:29 22.03.2020
978 Rain 24 1008 90 0 1.09 190 08:54 22.03.2020
979 Rain 24 1008 90 0 1.09 190 08:54 22.03.2020
980 Rain 24 1008 90 0 1.09 190 08:36 22.03.2020
981 Rain 26 1007 87 0 0.57 327 08:18 22.03.2020
982 Rain 26 1007 87 0 0.57 327 07:41 22.03.2020
983 Rain 26 1007 87 0 0.57 327 07:18 22.03.2020
984 Rain 26 1007 87 0 0.57 327 05:54 22.03.2020
985 Clouds 31 1007 74 10000 4.6 50 04:50 22.03.2020
986 Clouds 31 1008 79 10000 4.6 50 02:43 22.03.2020
987 Clouds 32 1010 70 10000 3.6 20 01:19 22.03.2020
988 Clouds 31 1010 70 10000 2.6 70 00:34 22.03.2020
989 Clouds 30 1011 74 10000 1.5 90 23:47 21.03.2020
990 Clouds 30 1011 74 10000 1.5 90 23:24 21.03.2020
991 Clouds 27 1011 83 10000 0.72 178 22:59 21.03.2020
992 Clouds 27 1011 83 10000 0.72 178 22:38 21.03.2020
993 Clouds 27 1011 83 10000 0.72 178 22:20 21.03.2020
994 Clouds 25 1010 94 10000 0.72 178 21:59 21.03.2020
995 Clouds 25 1010 94 10000 0.72 178 21:39 21.03.2020
996 Clouds 25 1010 94 10000 0.72 178 21:20 21.03.2020
997 Clouds 25 1010 94 10000 0.72 178 21:20 21.03.2020
998 Clouds 24 1009 100 10000 1 160 20:44 21.03.2020
999 Clouds 24 1009 100 10000 1 160 20:22 21.03.2020
1000 Clouds 24 1009 100 10000 1.39 181 19:56 21.03.2020
1001 Clouds 24 1009 100 10000 1.39 181 19:38 21.03.2020
1002 Clouds 24 1009 100 10000 1.39 181 19:19 21.03.2020
1003 Clouds 24 1009 100 10000 1.39 181 18:41 21.03.2020
1004 Clouds 24 1009 100 10000 1.39 181 18:21 21.03.2020
1005 Clouds 25 1009 94 10000 1.39 181 17:59 21.03.2020
1006 Clouds 25 1009 94 10000 1.39 181 17:41 21.03.2020
1007 Clouds 25 1010 100 10000 1 200 17:22 21.03.2020
1008 Clouds 25 1010 100 10000 1 200 16:42 21.03.2020
1009 Clouds 25 1010 100 10000 1 200 16:24 21.03.2020
1010 Clouds 26 1011 94 10000 2.6 200 15:59 21.03.2020
1011 Clouds 26 1011 94 10000 2.6 200 15:40 21.03.2020
1012 Clouds 26 1011 94 10000 2.6 200 15:22 21.03.2020
1013 Clouds 26 1011 94 10000 1.5 140 14:57 21.03.2020
1014 Clouds 26 1011 94 10000 1.5 140 14:38 21.03.2020
1015 Clouds 26 1011 94 10000 1.5 140 14:38 21.03.2020
1016 Clouds 26 1011 94 10000 1.5 140 14:19 21.03.2020
1017 Thunderstorm 26 1012 94 10000 1 200 13:58 21.03.2020
1018 Thunderstorm 26 1012 94 10000 1 200 13:39 21.03.2020
1019 Thunderstorm 26 1012 94 10000 1 200 13:21 21.03.2020
1020 Clouds 26 1011 94 10000 1.5 200 12:55 21.03.2020
1021 Clouds 26 1011 94 10000 1.5 200 12:36 21.03.2020
1022 Clouds 26 1011 94 10000 1.5 200 12:18 21.03.2020
1023 Clouds 26 1011 94 10000 1.5 200 11:55 21.03.2020
1024 Clouds 26 1011 94 10000 2.1 200 11:37 21.03.2020
1025 Clouds 27 1010 94 10000 1 180 11:18 21.03.2020
1026 Clouds 27 1010 94 10000 1 180 10:55 21.03.2020
1027 Clouds 27 1010 94 10000 1 180 10:37 21.03.2020
1028 Clouds 27 1010 94 10000 1 180 10:18 21.03.2020
1029 Clouds 28 1010 88 10000 1 320 09:40 21.03.2020
1030 Clouds 28 1010 88 10000 1 320 09:21 21.03.2020
1031 Clouds 30 1009 79 10000 1 50 08:56 21.03.2020
1032 Clouds 30 1009 79 10000 1 50 08:38 21.03.2020
1033 Clouds 30 1009 79 10000 1 50 08:20 21.03.2020
1034 Clouds 30 1008 74 10000 1 180 07:39 21.03.2020
1035 Clouds 30 1008 74 10000 1 180 07:20 21.03.2020
1036 Clouds 30 1008 74 10000 1 180 07:20 21.03.2020
1037 Clouds 29 1008 79 10000 1 230 06:45 21.03.2020
1038 Clouds 29 1009 79 10000 3.1 230 06:25 21.03.2020
1039 Clouds 29 1009 79 10000 1 20 05:41 21.03.2020
1040 Rain 31 1009 70 10000 2.6 50 04:34 21.03.2020
1041 Clouds 31 1011 74 10000 4.1 50 02:38 21.03.2020
1042 Clouds 30 1011 74 10000 2.6 50 01:49 21.03.2020
1043 Clouds 30 1011 74 10000 2.6 50 01:26 21.03.2020
1044 Clouds 29 1011 79 10000 3.1 50 00:43 21.03.2020
1045 Clouds 29 1011 79 10000 3.1 50 00:23 21.03.2020
1046 Clouds 28 1012 83 10000 1 70 23:44 20.03.2020
1047 Clouds 28 1012 83 10000 1 70 23:22 20.03.2020
1048 Clouds 27 1011 88 10000 0.85 174 22:44 20.03.2020
1049 Clouds 27 1011 88 10000 0.85 174 22:44 20.03.2020
1050 Clouds 27 1011 88 10000 0.85 174 22:25 20.03.2020
1051 Clouds 24 1011 100 10000 0.85 174 21:59 20.03.2020
1052 Clouds 24 1011 100 10000 0.85 174 21:40 20.03.2020
1053 Clouds 24 1011 100 10000 0.85 174 21:20 20.03.2020
1054 Clouds 24 1010 100 10000 0.85 174 20:59 20.03.2020
1055 Clouds 24 1010 100 10000 0.85 174 20:41 20.03.2020
1056 Clouds 24 1010 100 10000 1.46 184 20:20 20.03.2020
1057 Clouds 24 1010 100 10000 1.46 184 19:48 20.03.2020
1058 Clouds 24 1010 100 10000 1.46 184 19:22 20.03.2020
1059 Clouds 24 1010 100 10000 1.46 184 19:22 20.03.2020
1060 Clouds 24 1009 100 10000 1 160 18:58 20.03.2020
1061 Clouds 24 1009 100 10000 1 160 18:38 20.03.2020
1062 Clouds 24 1009 100 10000 1 160 18:20 20.03.2020
1063 Clouds 24 1009 100 10000 1 160 18:20 20.03.2020
1064 Clouds 24 1009 100 10000 1 160 17:56 20.03.2020
1065 Clouds 25 1010 100 10000 1.46 184 17:37 20.03.2020
1066 Clouds 25 1010 94 10000 1.36 191 17:19 20.03.2020
1067 Clouds 25 1010 94 10000 1.36 191 16:42 20.03.2020
1068 Clouds 25 1010 94 10000 1.36 191 16:21 20.03.2020
1069 Rain 25 1011 100 10000 1.36 191 15:55 20.03.2020
1070 Rain 25 1011 100 10000 1.36 191 15:37 20.03.2020
1071 Rain 25 1011 100 10000 1.36 191 15:18 20.03.2020
1072 Drizzle 25 1011 100 10000 1 160 14:42 20.03.2020
1073 Drizzle 25 1011 100 10000 1 160 14:21 20.03.2020
1074 Drizzle 25 1011 100 10000 1 160 14:20 20.03.2020
1075 Drizzle 25 1012 94 10000 1.5 180 13:48 20.03.2020
1076 Drizzle 25 1012 94 10000 1.5 180 13:24 20.03.2020
1077 Drizzle 25 1012 94 10000 1.5 180 13:24 20.03.2020
1078 Clouds 24 1012 100 10000 1.5 110 12:58 20.03.2020
1079 Clouds 24 1012 100 10000 1.5 110 12:38 20.03.2020
1080 Clouds 24 1012 100 10000 1.5 110 12:19 20.03.2020
1081 Drizzle 25 1011 100 10000 3.1 160 11:39 20.03.2020
1082 Thunderstorm 25 1011 100 10000 3.1 140 11:20 20.03.2020
1083 Thunderstorm 25 1011 100 10000 3.1 140 10:55 20.03.2020
1084 Thunderstorm 25 1011 100 10000 3.1 140 10:37 20.03.2020
1085 Thunderstorm 25 1011 100 10000 3.1 140 10:18 20.03.2020
1086 Thunderstorm 25 1011 100 10000 3.1 140 10:18 20.03.2020
1087 Clouds 29 1009 83 10000 1.5 290 09:44 20.03.2020
1088 Clouds 29 1009 83 10000 1.5 290 09:20 20.03.2020
1089 Clouds 30 1009 79 10000 1.5 320 08:44 20.03.2020
1090 Clouds 30 1009 79 10000 1.5 320 08:23 20.03.2020
1091 Clouds 31 1008 70 10000 3.1 340 07:59 20.03.2020
1092 Clouds 31 1008 70 10000 3.1 340 07:39 20.03.2020
1093 Clouds 31 1008 70 10000 3.1 340 07:39 20.03.2020
1094 Clouds 31 1008 70 10000 3.1 340 07:21 20.03.2020
1095 Clouds 31 1008 74 10000 2.6 320 06:42 20.03.2020
1096 Clouds 31 1008 74 10000 2.6 320 06:18 20.03.2020
1097 Clouds 32 1009 62 10000 4.1 360 04:36 20.03.2020
1098 Clouds 31 1011 70 10000 3.1 50 02:50 20.03.2020
1099 Clouds 31 1011 70 10000 3.6 50 01:50 20.03.2020
1100 Clouds 31 1012 70 10000 1 90 00:38 20.03.2020
1101 Clouds 30 1011 79 10000 1 70 23:59 19.03.2020
1102 Clouds 30 1011 79 10000 1 70 23:40 19.03.2020
1103 Clouds 26 1011 88 0 1 180 23:19 19.03.2020
1104 Clouds 26 1011 88 0 1 180 22:40 19.03.2020
1105 Clouds 26 1011 88 0 1 180 22:22 19.03.2020
1106 Clouds 25 1010 94 10000 1 110 21:58 19.03.2020
1107 Clouds 25 1010 94 10000 1 110 21:38 19.03.2020
1108 Clouds 25 1010 94 10000 1 110 21:18 19.03.2020
1109 Rain 25 1011 88 0 0.7 164 20:43 19.03.2020
1110 Clouds 25 1011 87 0 0.66 163 20:25 19.03.2020
1111 Clouds 23 1009 91 0 0.91 189 19:59 19.03.2020
1112 Clouds 23 1009 91 0 0.91 189 19:38 19.03.2020
1113 Clouds 23 1009 91 0 0.91 189 19:20 19.03.2020
1114 Clouds 23 1009 91 0 0.91 189 18:57 19.03.2020
1115 Clouds 23 1009 91 0 0.91 189 18:38 19.03.2020
1116 Clouds 23 1009 91 0 0.91 189 18:19 19.03.2020
1117 Clouds 23 1009 91 0 0.91 189 17:42 19.03.2020
1118 Clouds 23 1009 91 0 1.12 186 17:20 19.03.2020
1119 Clouds 23 1009 91 0 1.12 186 16:56 19.03.2020
1120 Clouds 23 1009 91 0 1.12 186 16:37 19.03.2020
1121 Clouds 23 1009 91 0 1.12 186 16:19 19.03.2020
1122 Clouds 23 1009 91 0 1.12 186 15:40 19.03.2020
1123 Clouds 23 1009 91 0 1.12 186 15:18 19.03.2020
1124 Thunderstorm 25 1012 100 10000 2.1 140 14:43 19.03.2020
1125 Thunderstorm 25 1012 100 10000 2.1 140 14:21 19.03.2020
1126 Thunderstorm 25 1012 100 10000 2.1 140 13:41 19.03.2020
1127 Clouds 26 1012 100 10000 3.1 140 13:20 19.03.2020
1128 Clouds 26 1012 100 10000 3.1 140 12:58 19.03.2020
1129 Clouds 26 1012 100 10000 3.1 140 12:40 19.03.2020
1130 Clouds 26 1012 100 10000 3.1 140 12:21 19.03.2020
1131 Clouds 27 1011 88 10000 1.5 160 11:43 19.03.2020
1132 Clouds 27 1010 88 10000 1.5 230 11:24 19.03.2020
1133 Clouds 27 1010 88 10000 1.5 230 10:57 19.03.2020
1134 Clouds 27 1010 88 10000 1.5 230 10:38 19.03.2020
1135 Clouds 27 1010 88 10000 1.5 230 10:19 19.03.2020
1136 Rain 29 1010 83 10000 0.9 148 09:45 19.03.2020
1137 Rain 29 1010 83 10000 0.9 148 09:27 19.03.2020
1138 Rain 30 1009 74 10000 2.1 290 08:58 19.03.2020
1139 Rain 30 1009 74 10000 2.1 290 08:40 19.03.2020
1140 Rain 30 1009 74 10000 2.1 290 08:19 19.03.2020
1141 Clouds 31 1008 70 10000 2.6 290 07:44 19.03.2020
1142 Clouds 31 1008 70 10000 2.6 290 07:23 19.03.2020
1143 Clouds 31 1008 74 10000 3.1 20 06:32 19.03.2020
1144 Clouds 31 1008 74 10000 1.5 340 05:46 19.03.2020
1145 Clouds 32 1009 66 10000 3.6 360 04:51 19.03.2020
1146 Clouds 32 1009 66 10000 3.6 360 04:24 19.03.2020
1147 Clouds 31 1010 74 10000 3.1 20 02:34 19.03.2020
1148 Clouds 31 1011 74 10000 3.1 50 00:55 19.03.2020
1149 Clouds 31 1011 74 10000 3.1 50 00:20 19.03.2020
1150 Clouds 30 1011 79 10000 3.1 110 23:45 18.03.2020
1151 Clouds 30 1011 79 10000 3.1 110 23:26 18.03.2020
1152 Clouds 30 1011 79 10000 3.1 110 23:26 18.03.2020
1153 Clouds 27 1011 83 10000 2.1 200 22:43 18.03.2020
1154 Clouds 27 1011 83 10000 2.1 200 22:24 18.03.2020
1155 Clouds 24 1010 100 10000 1 180 21:59 18.03.2020
1156 Clouds 24 1010 100 10000 1 180 21:40 18.03.2020
1157 Clouds 24 1010 100 10000 1 180 21:21 18.03.2020
1158 Clouds 24 1010 100 10000 1 180 21:21 18.03.2020
1159 Clouds 24 1010 94 10000 1.5 140 20:56 18.03.2020
1160 Clouds 24 1010 94 10000 1.5 140 20:38 18.03.2020
1161 Clouds 24 1010 94 10000 1.5 140 20:19 18.03.2020
1162 Clouds 24 1009 100 10000 1 200 19:42 18.03.2020
1163 Clouds 24 1009 100 10000 1 200 19:21 18.03.2020
1164 Clouds 24 1009 100 10000 1 200 18:59 18.03.2020
1165 Clouds 23 1009 92 0 1.16 197 18:40 18.03.2020
1166 Clouds 25 1009 94 10000 1 200 18:19 18.03.2020
1167 Clouds 25 1009 94 10000 1 200 17:56 18.03.2020
1168 Clouds 25 1009 94 10000 1 200 17:38 18.03.2020
1169 Clouds 25 1010 94 10000 1.5 200 17:19 18.03.2020
1170 Clouds 25 1010 94 10000 1.5 200 16:43 18.03.2020
1171 Clouds 25 1010 94 10000 1.5 200 16:21 18.03.2020
1172 Clouds 25 1010 100 10000 1.5 140 15:58 18.03.2020
1173 Clouds 25 1010 100 10000 1.5 140 15:38 18.03.2020
1174 Clouds 25 1010 100 10000 1.5 140 15:20 18.03.2020
1175 Clouds 25 1011 100 10000 0.92 196 14:43 18.03.2020
1176 Clouds 25 1011 100 10000 1.15 178 14:21 18.03.2020
1177 Clouds 26 1012 94 10000 1.15 178 13:42 18.03.2020
1178 Clouds 26 1012 94 10000 1.11 174 13:19 18.03.2020
1179 Clouds 26 1012 94 10000 1.5 110 12:55 18.03.2020
1180 Clouds 26 1012 94 10000 1.5 110 12:37 18.03.2020
1181 Clouds 26 1012 94 10000 1.5 110 12:18 18.03.2020
1182 Clouds 27 1011 94 10000 1 160 11:38 18.03.2020
1183 Clouds 27 1010 94 10000 1 160 11:19 18.03.2020
1184 Clouds 27 1010 94 10000 1 160 10:57 18.03.2020
1185 Clouds 27 1010 94 10000 1 160 10:37 18.03.2020
1186 Clouds 27 1010 94 10000 1 160 10:19 18.03.2020
1187 Clouds 27 1010 94 10000 2.6 160 09:43 18.03.2020
1188 Clouds 27 1010 94 10000 2.6 160 09:23 18.03.2020
1189 Clouds 27 1010 94 10000 2.6 160 09:23 18.03.2020
1190 Rain 29 1009 83 10000 3.1 110 08:55 18.03.2020
1191 Rain 29 1009 83 10000 3.1 110 08:37 18.03.2020
1192 Rain 29 1009 83 10000 3.1 110 08:19 18.03.2020
1193 Clouds 29 1008 79 10000 1.5 90 07:41 18.03.2020
1194 Clouds 29 1008 79 10000 1.5 90 07:23 18.03.2020
1195 Clouds 29 1008 83 10000 2.6 140 06:43 18.03.2020
1196 Rain 30 1009 74 10000 3.1 180 05:53 18.03.2020
1197 Rain 30 1009 74 10000 3.1 180 05:19 18.03.2020
1198 Rain 31 1009 74 10000 4.1 340 03:53 18.03.2020
1199 Clouds 31 1011 74 10000 3.1 20 02:37 18.03.2020
1200 Clouds 31 1011 66 10000 2.6 50 01:46 18.03.2020
1201 Clouds 31 1011 66 10000 2.6 50 01:21 18.03.2020
1202 Clouds 31 1012 74 10000 3.1 50 00:23 18.03.2020
1203 Clouds 31 1012 74 10000 1.5 50 23:43 17.03.2020
1204 Clouds 30 1012 79 10000 1 50 23:23 17.03.2020
1205 Clouds 27 1012 83 10000 0.78 208 22:47 17.03.2020
1206 Clouds 27 1012 83 10000 0.78 208 22:28 17.03.2020
1207 Clouds 25 1011 94 10000 1 180 21:57 17.03.2020
1208 Clouds 25 1011 94 10000 1 180 21:37 17.03.2020
1209 Clouds 25 1011 94 10000 1 180 21:19 17.03.2020
1210 Clouds 24 1010 100 10000 0.78 208 20:38 17.03.2020
1211 Clouds 24 1010 100 10000 1.3 191 20:20 17.03.2020
1212 Clouds 25 1010 94 10000 1.3 191 19:42 17.03.2020
1213 Clouds 25 1010 94 10000 1.3 191 19:22 17.03.2020
1214 Clouds 25 1010 94 10000 1.3 191 18:59 17.03.2020
1215 Clouds 25 1010 94 10000 1.3 191 18:40 17.03.2020
1216 Clouds 25 1010 94 10000 1.3 191 18:22 17.03.2020
1217 Clouds 25 1010 94 10000 1.3 191 17:59 17.03.2020
1218 Rain 25 1010 100 10000 1.3 191 17:39 17.03.2020
1219 Rain 26 1011 94 10000 2.1 180 17:20 17.03.2020
1220 Rain 26 1011 94 10000 2.1 180 16:43 17.03.2020
1221 Rain 26 1011 94 10000 2.1 180 16:19 17.03.2020
1222 Clouds 26 1011 94 10000 1 230 15:48 17.03.2020
1223 Clouds 26 1011 94 10000 1 230 15:23 17.03.2020
1224 Rain 26 1012 94 10000 3.1 180 14:49 17.03.2020
1225 Rain 26 1012 94 10000 3.1 180 14:31 17.03.2020
1226 Clouds 27 1012 88 10000 1 250 13:59 17.03.2020
1227 Clouds 27 1012 88 10000 1 250 13:41 17.03.2020
1228 Clouds 27 1012 88 10000 1 250 13:22 17.03.2020
1229 Rain 23 1012 92 0 1.61 206 12:47 17.03.2020
1230 Rain 23 1012 92 0 1.61 206 12:25 17.03.2020
1231 Rain 23 1012 92 0 1.61 206 11:57 17.03.2020
1232 Rain 23 1012 92 0 1.55 208 11:39 17.03.2020
1233 Rain 24 1011 93 0 1.78 227 11:20 17.03.2020
1234 Rain 24 1011 93 0 1.78 227 10:54 17.03.2020
1235 Rain 24 1011 93 0 1.78 227 10:36 17.03.2020
1236 Clouds 29 1010 74 10000 3.1 140 10:18 17.03.2020
1237 Clouds 29 1010 74 10000 3.1 140 09:44 17.03.2020
1238 Clouds 30 1009 70 10000 3.1 340 09:20 17.03.2020
1239 Clouds 30 1009 70 10000 3.1 340 08:51 17.03.2020
1240 Clouds 30 1009 70 10000 3.1 340 08:24 17.03.2020
1241 Clouds 31 1009 66 10000 5.1 340 07:58 17.03.2020
1242 Clouds 31 1009 66 10000 5.1 340 07:40 17.03.2020
1243 Clouds 31 1009 66 10000 5.1 340 07:19 17.03.2020
1244 Clouds 32 1008 75 10000 3.6 360 06:41 17.03.2020
1245 Clouds 32 1008 75 10000 3.6 360 06:19 17.03.2020
1246 Rain 32 1010 66 10000 4.1 340 04:51 17.03.2020
1247 Clouds 31 1010 74 10000 4.6 320 03:19 17.03.2020
1248 Clouds 31 1012 70 10000 3.6 320 01:49 17.03.2020
1249 Clouds 31 1012 70 10000 3.6 320 01:28 17.03.2020
1250 Clouds 31 1012 74 10000 2.1 320 00:48 17.03.2020
1251 Clouds 29 1012 83 10000 1.5 360 23:51 16.03.2020
1252 Clouds 29 1012 83 10000 1.5 360 23:32 16.03.2020
1253 Clouds 26 1012 88 10000 1.5 160 22:43 16.03.2020
1254 Clouds 26 1012 88 10000 1.5 160 22:25 16.03.2020
1255 Clouds 24 1011 100 10000 1.5 180 21:59 16.03.2020
1256 Clouds 24 1011 100 10000 1.5 180 21:40 16.03.2020
1257 Clouds 24 1011 100 10000 1.5 180 21:22 16.03.2020
1258 Clouds 24 1010 100 10000 1 110 20:56 16.03.2020
1259 Clouds 24 1010 100 10000 1 110 20:38 16.03.2020
1260 Clouds 24 1010 100 10000 1 110 20:19 16.03.2020
1261 Clouds 25 1010 94 10000 1 180 19:41 16.03.2020
1262 Clouds 25 1010 94 10000 1 180 19:21 16.03.2020
1263 Clouds 25 1010 94 10000 1.24 227 18:43 16.03.2020
1264 Clouds 25 1010 94 10000 1.24 227 18:22 16.03.2020
1265 Clouds 25 1010 94 10000 1.24 227 17:57 16.03.2020
1266 Clouds 25 1010 94 10000 1.24 227 17:37 16.03.2020
1267 Rain 25 1011 94 10000 1.32 224 17:18 16.03.2020
1268 Rain 25 1011 94 10000 1.32 224 16:45 16.03.2020
1269 Rain 25 1011 94 10000 1.32 224 16:27 16.03.2020
1270 Clouds 25 1012 94 10000 1 160 15:46 16.03.2020
1271 Clouds 25 1012 94 10000 1 160 15:28 16.03.2020
1272 Clouds 26 1012 88 10000 1.32 224 14:49 16.03.2020
1273 Clouds 26 1012 88 10000 1.32 224 14:28 16.03.2020
1274 Clouds 26 1013 88 10000 1 200 13:58 16.03.2020
1275 Clouds 26 1013 88 10000 1 200 13:40 16.03.2020
1276 Clouds 26 1013 88 10000 1 200 13:21 16.03.2020
1277 Clouds 27 1012 83 10000 2.6 250 12:44 16.03.2020
1278 Clouds 27 1012 83 10000 2.6 250 12:23 16.03.2020
1279 Clouds 27 1012 83 10000 4.6 250 11:46 16.03.2020
1280 Clouds 27 1011 94 10000 1 180 11:27 16.03.2020
1281 Clouds 27 1012 83 10000 4.6 250 11:27 16.03.2020
1282 Clouds 27 1011 94 10000 1 180 10:56 16.03.2020
1283 Clouds 27 1011 94 10000 1 180 10:37 16.03.2020
1284 Clouds 27 1011 94 10000 1 180 10:18 16.03.2020
1285 Clouds 29 1011 83 10000 1 270 09:42 16.03.2020
1286 Clouds 29 1011 83 10000 1 270 09:21 16.03.2020
1287 Clouds 29 1010 83 10000 3.1 320 08:50 16.03.2020
1288 Clouds 29 1010 83 10000 3.1 320 08:25 16.03.2020
1289 Clouds 30 1009 79 10000 3.1 290 07:45 16.03.2020
1290 Clouds 30 1009 79 10000 3.1 290 07:21 16.03.2020
1291 Clouds 30 1009 74 10000 5.1 320 06:51 16.03.2020
1292 Clouds 30 1009 74 10000 5.1 320 06:23 16.03.2020
1293 Clouds 30 1009 74 10000 4.1 320 04:54 16.03.2020
1294 Rain 30 1011 79 10000 3.1 340 02:40 16.03.2020
1295 Clouds 30 1011 79 10000 3.1 320 00:49 16.03.2020
1296 Clouds 30 1011 79 10000 3.1 320 00:30 16.03.2020
1297 Clouds 28 1012 88 10000 1.5 140 23:42 15.03.2020
1298 Clouds 28 1012 88 10000 1.5 140 23:20 15.03.2020
1299 Rain 26 1011 94 10000 1.14 246 22:42 15.03.2020
1300 Rain 26 1011 94 10000 1.14 246 22:22 15.03.2020
1301 Clouds 24 1010 100 10000 1.5 160 21:40 15.03.2020
1302 Clouds 24 1010 100 10000 1.5 160 21:22 15.03.2020
1303 Clouds 24 1009 100 10000 1.14 246 20:58 15.03.2020
1304 Clouds 24 1009 100 10000 1.14 246 20:58 15.03.2020
1305 Clouds 24 1009 100 10000 1.14 246 20:40 15.03.2020
1306 Clouds 24 1009 100 10000 1.12 221 20:20 15.03.2020
1307 Clouds 24 1009 100 10000 1.12 221 19:55 15.03.2020
1308 Clouds 24 1009 100 10000 1.12 221 19:55 15.03.2020
1309 Clouds 24 1009 100 10000 1.12 221 19:37 15.03.2020
1310 Clouds 24 1009 100 10000 1.12 221 19:18 15.03.2020
1311 Clouds 24 1008 100 10000 1.5 140 18:42 15.03.2020
1312 Clouds 24 1008 100 10000 1.5 140 18:24 15.03.2020
1313 Clouds 25 1008 100 10000 1.12 221 17:59 15.03.2020
1314 Clouds 25 1008 100 10000 1.12 221 17:39 15.03.2020
1315 Clouds 25 1009 94 10000 1.5 180 17:20 15.03.2020
1316 Clouds 25 1009 94 10000 1.5 180 16:55 15.03.2020
1317 Clouds 25 1009 94 10000 1.5 180 16:37 15.03.2020
1318 Clouds 25 1009 94 10000 1.5 180 16:18 15.03.2020
1319 Clouds 25 1010 94 10000 1.43 247 15:42 15.03.2020
1320 Clouds 25 1010 94 10000 1.43 247 15:22 15.03.2020
1321 Clouds 25 1010 100 10000 1.43 247 14:47 15.03.2020
1322 Clouds 25 1010 100 10000 1.43 247 14:28 15.03.2020
1323 Clouds 25 1010 94 10000 1.83 302 13:59 15.03.2020
1324 Clouds 25 1010 94 10000 1.83 302 13:39 15.03.2020
1325 Clouds 25 1010 94 10000 1.83 302 13:21 15.03.2020
1326 Rain 24 1010 88 0 1.7 283 12:44 15.03.2020
1327 Rain 24 1010 88 0 1.7 283 12:26 15.03.2020
1328 Rain 24 1010 88 0 1.7 283 11:59 15.03.2020
1329 Rain 24 1010 88 0 1.7 283 11:40 15.03.2020
1330 Clouds 26 1009 94 10000 2.1 250 11:22 15.03.2020
1331 Clouds 26 1009 94 10000 2.1 250 10:56 15.03.2020
1332 Clouds 26 1009 94 10000 2.1 250 10:36 15.03.2020
1333 Clouds 26 1009 94 10000 2.1 250 10:18 15.03.2020
1334 Clouds 26 1009 94 10000 2.1 320 09:40 15.03.2020
1335 Clouds 26 1009 94 10000 2.1 320 09:21 15.03.2020
1336 Clouds 25 1007 94 10000 2.1 320 08:42 15.03.2020
1337 Clouds 25 1007 94 10000 2.1 320 08:42 15.03.2020
1338 Clouds 25 1007 94 10000 2.1 320 08:20 15.03.2020
1339 Drizzle 25 1007 94 10000 3.1 250 07:51 15.03.2020
1340 Drizzle 25 1007 94 10000 3.1 250 07:29 15.03.2020
1341 Clouds 25 1008 94 0 6.2 270 06:49 15.03.2020
1342 Clouds 32 1006 70 10000 5.7 320 05:50 15.03.2020
1343 Clouds 32 1007 70 10000 5.7 320 05:18 15.03.2020
1344 Clouds 32 1007 70 10000 5.7 320 04:41 15.03.2020
1345 Clouds 32 1007 70 10000 5.7 320 04:41 15.03.2020
1346 Clouds 32 1007 70 10000 5.7 320 04:23 15.03.2020
1347 Clouds 32 1007 75 10000 5.7 320 03:30 15.03.2020
1348 Clouds 32 1008 75 10000 5.7 320 02:37 15.03.2020
1349 Clouds 31 1008 79 10000 3.6 290 01:20 15.03.2020
1350 Clouds 31 1008 79 10000 3.6 290 00:43 15.03.2020
1351 Clouds 29 1008 89 10000 2.6 290 00:21 15.03.2020
1352 Clouds 29 1008 89 10000 2.6 290 23:41 14.03.2020
1353 Clouds 27 1008 88 10000 1 180 23:21 14.03.2020
1354 Clouds 27 1008 88 10000 1 180 22:57 14.03.2020
1355 Clouds 27 1008 88 10000 1 180 22:38 14.03.2020
1356 Clouds 27 1008 88 10000 1 180 22:20 14.03.2020
1357 Clouds 26 1007 88 10000 2.1 180 21:56 14.03.2020
1358 Clouds 26 1007 88 10000 2.1 180 21:36 14.03.2020
1359 Clouds 26 1007 88 10000 2.1 180 21:18 14.03.2020
1360 Clouds 26 1007 88 10000 2.1 180 21:18 14.03.2020
1361 Clouds 25 1006 94 10000 1 160 20:58 14.03.2020
1362 Clouds 25 1006 94 10000 1 160 20:39 14.03.2020
1363 Clouds 25 1006 94 10000 1 160 20:18 14.03.2020
1364 Clouds 25 1006 94 10000 1 200 19:42 14.03.2020
1365 Clouds 25 1006 94 10000 1 200 19:24 14.03.2020
1366 Clouds 25 1005 94 10000 1 200 18:41 14.03.2020
1367 Clouds 25 1005 94 10000 1 200 18:21 14.03.2020
1368 Drizzle 27 1006 94 10000 1 230 17:43 14.03.2020
1369 Clouds 27 1006 94 10000 1 230 17:24 14.03.2020
1370 Clouds 27 1006 94 10000 1 230 16:59 14.03.2020
1371 Clouds 27 1006 94 10000 1 230 16:39 14.03.2020
1372 Clouds 27 1006 94 10000 1 230 16:20 14.03.2020
1373 Clouds 25 1007 94 10000 2.1 200 15:48 14.03.2020
1374 Clouds 25 1007 94 10000 2.1 200 15:25 14.03.2020
1375 Drizzle 27 1008 94 10000 2.1 230 14:44 14.03.2020
1376 Drizzle 27 1008 94 10000 2.1 230 14:22 14.03.2020
1377 Clouds 27 1008 94 10000 1.5 200 13:57 14.03.2020
1378 Clouds 27 1008 94 10000 1.5 200 13:39 14.03.2020
1379 Clouds 27 1008 94 10000 1.5 200 13:20 14.03.2020
1380 Clouds 27 1008 100 10000 2.6 230 12:44 14.03.2020
1381 Clouds 27 1008 100 10000 2.6 230 12:26 14.03.2020
1382 Clouds 27 1007 94 10000 1.72 253 11:47 14.03.2020
1383 Clouds 27 1007 94 10000 1.72 253 11:26 14.03.2020
1384 Clouds 27 1007 94 10000 1.82 266 10:57 14.03.2020
1385 Drizzle 28 1006 88 10000 1 110 10:39 14.03.2020
1386 Drizzle 28 1006 88 10000 1 110 10:20 14.03.2020
1387 Clouds 28 1005 88 10000 1.82 266 09:41 14.03.2020
1388 Clouds 28 1005 88 10000 1.82 266 09:22 14.03.2020
1389 Clouds 29 1004 83 10000 1 20 08:47 14.03.2020
1390 Clouds 29 1004 83 10000 1 20 08:47 14.03.2020
1391 Clouds 29 1004 83 10000 1 20 08:27 14.03.2020
1392 Clouds 31 1004 70 10000 2.1 290 07:49 14.03.2020
1393 Clouds 31 1004 70 10000 2.1 290 07:23 14.03.2020
1394 Clouds 32 1003 66 10000 3.1 290 06:59 14.03.2020
1395 Clouds 32 1003 66 10000 3.1 290 06:39 14.03.2020
1396 Clouds 31 1004 70 10000 3.1 270 04:58 14.03.2020
1397 Clouds 31 1005 70 10000 5.1 290 03:41 14.03.2020
1398 Clouds 31 1005 70 10000 5.1 290 03:20 14.03.2020
1399 Clouds 31 1006 70 10000 2.1 360 02:19 14.03.2020
1400 Clouds 31 1007 74 10000 2.6 50 00:42 14.03.2020
1401 Clouds 30 1007 84 10000 1 250 23:44 13.03.2020
1402 Clouds 30 1007 84 10000 1 250 23:25 13.03.2020
1403 Clouds 27 1007 88 10000 1 160 22:46 13.03.2020
1404 Clouds 27 1007 88 10000 1 160 22:25 13.03.2020
1405 Clouds 24 1006 100 10000 1 200 21:42 13.03.2020
1406 Clouds 24 1006 100 10000 1 200 21:21 13.03.2020
1407 Clouds 24 1006 100 10000 1.63 326 20:56 13.03.2020
1408 Clouds 24 1006 100 10000 1.63 326 20:37 13.03.2020
1409 Clouds 24 1006 100 10000 1.3 277 20:18 13.03.2020
1410 Clouds 24 1006 100 10000 1.5 140 19:42 13.03.2020
1411 Clouds 24 1006 100 10000 1.5 140 19:23 13.03.2020
1412 Clouds 24 1006 100 10000 2.6 200 18:44 13.03.2020
1413 Clouds 24 1006 100 10000 2.6 200 18:25 13.03.2020
1414 Clouds 23 1005 91 0 1.3 277 17:43 13.03.2020
1415 Clouds 24 1006 100 10000 1.3 277 17:22 13.03.2020
1416 Clouds 24 1006 100 10000 0.91 238 16:59 13.03.2020
1417 Clouds 24 1006 100 10000 0.91 238 16:39 13.03.2020
1418 Clouds 24 1006 100 10000 0.91 238 16:21 13.03.2020
1419 Clouds 24 1006 100 10000 0.91 238 15:46 13.03.2020
1420 Clouds 24 1006 100 10000 0.91 238 15:23 13.03.2020
1421 Clouds 25 1007 100 10000 1 160 14:59 13.03.2020
1422 Clouds 25 1007 100 10000 1 160 14:40 13.03.2020
1423 Clouds 25 1007 100 10000 1 160 14:21 13.03.2020
1424 Clouds 25 1008 100 10000 0.69 186 13:43 13.03.2020
1425 Clouds 25 1008 100 10000 0.69 186 13:24 13.03.2020
1426 Clouds 25 1008 100 10000 1.5 140 12:59 13.03.2020
1427 Clouds 25 1008 100 10000 1.5 140 12:39 13.03.2020
1428 Clouds 25 1008 100 10000 1.5 140 12:20 13.03.2020
1429 Clouds 26 1008 100 10000 0.85 192 11:56 13.03.2020
1430 Clouds 26 1008 100 10000 0.85 192 11:36 13.03.2020
1431 Clouds 27 1007 83 10000 1 160 11:18 13.03.2020
1432 Clouds 27 1007 83 10000 1 160 10:46 13.03.2020
1433 Clouds 27 1007 83 10000 1 160 10:26 13.03.2020
1434 Clouds 27 1007 94 10000 1.21 263 09:48 13.03.2020
1435 Clouds 27 1007 94 10000 1.21 263 09:30 13.03.2020
1436 Clouds 28 1006 88 10000 1.21 263 08:59 13.03.2020
1437 Clouds 28 1006 88 10000 1.21 263 08:38 13.03.2020
1438 Clouds 28 1006 88 10000 1.21 263 08:38 13.03.2020
1439 Clouds 28 1006 88 10000 1.21 263 08:38 13.03.2020
1440 Clouds 28 1006 88 10000 2.11 302 08:20 13.03.2020
1441 Clouds 29 1006 79 10000 2.26 293 07:44 13.03.2020
1442 Clouds 29 1006 79 10000 2.26 293 07:25 13.03.2020
1443 Clouds 29 1006 83 10000 1.5 340 06:46 13.03.2020
1444 Clouds 29 1006 83 10000 1.5 340 06:21 13.03.2020
1445 Clouds 29 1007 83 10000 1.5 320 05:45 13.03.2020
1446 Clouds 29 1007 79 10000 1.5 270 04:57 13.03.2020
1447 Clouds 29 1007 79 10000 1.5 270 04:25 13.03.2020
1448 Rain 29 1009 79 10000 2.41 299 02:42 13.03.2020
1449 Rain 28 1009 83 10000 1 180 01:37 13.03.2020
1450 Rain 28 1009 83 10000 1 180 01:18 13.03.2020
1451 Clouds 27 1009 88 10000 1.5 200 00:39 13.03.2020
1452 Clouds 27 1009 88 10000 1.5 200 00:19 13.03.2020
1453 Clouds 26 1009 94 10000 3.1 320 23:38 12.03.2020
1454 Drizzle 25 1008 94 10000 3.1 340 23:19 12.03.2020
1455 Drizzle 25 1008 94 10000 3.1 340 22:44 12.03.2020
1456 Drizzle 25 1008 94 10000 3.1 340 22:25 12.03.2020
1457 Rain 25 1008 94 10000 3.1 270 21:55 12.03.2020
1458 Rain 25 1008 94 10000 3.1 270 21:37 12.03.2020
1459 Rain 25 1008 94 10000 3.1 270 21:18 12.03.2020
1460 Clouds 25 1007 94 10000 2.81 257 20:42 12.03.2020
1461 Clouds 25 1007 94 10000 3.61 313 20:20 12.03.2020
1462 Drizzle 25 1007 88 10000 3.6 270 19:42 12.03.2020
1463 Drizzle 25 1007 88 10000 3.6 270 19:21 12.03.2020
1464 Drizzle 25 1007 94 10000 3.1 290 18:45 12.03.2020
1465 Drizzle 25 1007 94 10000 3.1 290 18:25 12.03.2020
1466 Drizzle 24 1008 100 10000 2.1 270 17:58 12.03.2020
1467 Drizzle 24 1008 100 10000 2.1 270 17:40 12.03.2020
1468 Drizzle 25 1008 94 10000 3.1 270 17:22 12.03.2020
1469 Drizzle 25 1008 94 10000 3.1 270 16:58 12.03.2020
1470 Drizzle 25 1008 94 10000 3.1 270 16:39 12.03.2020
1471 Drizzle 25 1008 94 10000 3.1 270 16:20 12.03.2020
1472 Drizzle 25 1008 94 8000 4.1 290 15:47 12.03.2020
1473 Drizzle 25 1008 94 8000 4.1 290 15:27 12.03.2020
1474 Clouds 24 1010 100 8000 3.1 270 14:44 12.03.2020
1475 Clouds 24 1010 100 8000 3.1 270 14:25 12.03.2020
1476 Rain 25 1010 94 4000 2.1 270 13:58 12.03.2020
1477 Rain 25 1010 94 1500 2.1 270 13:37 12.03.2020
1478 Rain 25 1010 94 1500 2.1 270 13:19 12.03.2020
1479 Rain 24 1010 100 1500 2.1 250 12:41 12.03.2020
1480 Rain 24 1010 100 1200 3.1 340 12:22 12.03.2020
1481 Rain 24 1010 100 1200 3.1 340 11:58 12.03.2020
1482 Rain 24 1010 100 1200 3.1 340 11:39 12.03.2020
1483 Rain 24 1009 100 1000 3.1 270 11:20 12.03.2020
1484 Rain 24 1009 100 1000 3.1 270 10:59 12.03.2020
1485 Rain 24 1009 100 1000 3.1 270 10:40 12.03.2020
1486 Rain 24 1009 100 1000 3.1 270 10:22 12.03.2020
1487 Rain 25 1009 94 1200 2.01 263 09:46 12.03.2020
1488 Rain 25 1009 94 1200 2.01 263 09:27 12.03.2020
1489 Rain 25 1008 94 1200 2.01 263 08:45 12.03.2020
1490 Rain 25 1008 94 1200 1.92 328 08:20 12.03.2020
1491 Rain 25 1008 94 1000 4.1 270 07:59 12.03.2020
1492 Rain 25 1008 94 1000 4.1 270 07:40 12.03.2020
1493 Rain 25 1008 94 1000 4.1 270 07:21 12.03.2020
1494 Rain 25 1007 100 1000 8.2 290 05:51 12.03.2020
1495 Rain 25 1007 100 2000 3.1 200 05:25 12.03.2020
1496 Rain 25 1008 100 4000 5.1 50 02:41 12.03.2020
1497 Rain 25 1009 100 1000 2.6 360 01:32 12.03.2020
1498 Rain 25 1009 100 5000 1 140 00:47 12.03.2020
1499 Rain 25 1009 100 5000 1 140 00:27 12.03.2020
1500 Drizzle 26 1009 100 10000 1 110 23:47 11.03.2020
1501 Clouds 25 1009 100 10000 2.6 110 23:24 11.03.2020
1502 Clouds 25 1009 100 10000 2.6 110 22:48 11.03.2020
1503 Clouds 25 1009 100 10000 2.6 110 22:30 11.03.2020
1504 Rain 25 1008 100 10000 1.5 160 21:59 11.03.2020
1505 Rain 25 1008 100 10000 1.5 160 21:59 11.03.2020
1506 Rain 25 1008 100 10000 1.5 160 21:41 11.03.2020
1507 Rain 25 1008 100 10000 1.5 160 21:22 11.03.2020
1508 Rain 25 1008 100 0 1.5 70 20:58 11.03.2020
1509 Rain 25 1008 100 0 1.5 70 20:39 11.03.2020
1510 Rain 25 1008 100 0 1.5 70 20:19 11.03.2020
1511 Rain 25 1008 100 0 4.1 290 19:44 11.03.2020
1512 Rain 25 1008 100 0 4.1 290 19:25 11.03.2020
1513 Rain 25 1008 100 10000 2.1 110 18:58 11.03.2020
1514 Rain 25 1008 100 10000 2.1 110 18:39 11.03.2020
1515 Rain 25 1008 100 10000 2.1 110 18:21 11.03.2020
1516 Rain 25 1008 100 10000 2.1 110 17:56 11.03.2020
1517 Clouds 25 1008 100 10000 1.5 110 17:37 11.03.2020
1518 Drizzle 25 1008 100 10000 2.1 160 17:19 11.03.2020
1519 Drizzle 25 1008 100 10000 2.1 160 16:45 11.03.2020
1520 Drizzle 25 1008 100 10000 2.1 160 16:22 11.03.2020
1521 Drizzle 25 1009 100 10000 3.6 180 15:45 11.03.2020
1522 Drizzle 25 1009 100 10000 3.6 180 15:24 11.03.2020
1523 Drizzle 26 1009 94 10000 1 180 14:57 11.03.2020
1524 Drizzle 26 1009 94 10000 1 180 14:39 11.03.2020
1525 Drizzle 26 1009 94 10000 1 180 14:21 11.03.2020
1526 Rain 26 1010 94 10000 1 360 13:44 11.03.2020
1527 Rain 26 1010 94 10000 1 360 13:26 11.03.2020
1528 Clouds 25 1010 100 10000 1.43 238 12:58 11.03.2020
1529 Clouds 25 1010 100 10000 1.43 238 12:39 11.03.2020
1530 Clouds 26 1010 94 10000 1.5 180 12:19 11.03.2020
1531 Clouds 26 1010 94 10000 1.5 180 11:41 11.03.2020
1532 Clouds 26 1010 94 10000 1.5 180 11:22 11.03.2020
1533 Rain 27 1009 94 10000 1.5 320 10:49 11.03.2020
1534 Rain 27 1009 94 10000 1.5 320 10:21 11.03.2020
1535 Rain 27 1009 94 10000 1.5 320 10:21 11.03.2020
1536 Rain 27 1009 94 10000 1.5 320 10:21 11.03.2020
1537 Clouds 28 1009 83 10000 1.5 270 09:59 11.03.2020
1538 Clouds 28 1009 83 10000 1.5 270 09:40 11.03.2020
1539 Clouds 28 1009 83 10000 1.5 270 09:21 11.03.2020
1540 Clouds 28 1008 83 10000 4.1 290 08:43 11.03.2020
1541 Clouds 28 1008 83 10000 4.1 290 08:25 11.03.2020
1542 Clouds 28 1007 83 10000 4.1 320 07:47 11.03.2020
1543 Clouds 28 1007 83 10000 4.1 320 07:21 11.03.2020
1544 Clouds 28 1006 83 10000 5.1 320 06:50 11.03.2020
1545 Clouds 28 1006 83 10000 5.1 320 06:31 11.03.2020
1546 Clouds 29 1007 79 10000 4.1 320 05:32 11.03.2020
1547 Clouds 29 1008 79 10000 3.6 290 03:26 11.03.2020
1548 Clouds 29 1008 79 10000 3.6 290 03:26 11.03.2020
1549 Rain 30 1009 70 10000 3.1 290 01:53 11.03.2020
1550 Rain 30 1009 70 10000 3.1 290 01:23 11.03.2020
1551 Rain 30 1010 79 10000 1.5 320 00:37 11.03.2020
1552 Rain 27 1009 88 10000 1.5 160 23:50 10.03.2020
1553 Rain 27 1009 88 10000 1.5 160 23:28 10.03.2020
1554 Rain 26 1009 94 10000 1.5 230 22:56 10.03.2020
1555 Rain 26 1009 94 10000 1.5 230 22:37 10.03.2020
1556 Rain 26 1009 94 10000 1.5 230 22:19 10.03.2020
1557 Clouds 24 1008 100 10000 1.5 160 21:56 10.03.2020
1558 Clouds 24 1008 100 10000 1.5 160 21:37 10.03.2020
1559 Clouds 24 1008 100 10000 1.5 160 21:18 10.03.2020
1560 Clouds 24 1008 100 10000 1.21 272 20:42 10.03.2020
1561 Clouds 24 1008 100 10000 1.34 268 20:19 10.03.2020
1562 Clouds 24 1008 100 10000 0.94 254 19:58 10.03.2020
1563 Clouds 24 1008 100 10000 0.94 254 19:40 10.03.2020
1564 Thunderstorm 24 1007 100 10000 0.94 254 19:22 10.03.2020
1565 Thunderstorm 24 1007 100 10000 0.94 254 18:55 10.03.2020
1566 Thunderstorm 24 1007 100 10000 1.5 140 18:36 10.03.2020
1567 Thunderstorm 24 1007 100 10000 1.5 140 18:18 10.03.2020
1568 Rain 24 1008 100 10000 0.94 254 17:41 10.03.2020
1569 Rain 25 1008 94 0 2.1 230 17:22 10.03.2020
1570 Rain 25 1008 94 0 2.1 230 16:40 10.03.2020
1571 Rain 25 1008 94 0 2.1 230 16:40 10.03.2020
1572 Rain 25 1008 94 0 2.1 230 16:20 10.03.2020
1573 Clouds 25 1008 100 10000 3.1 180 15:58 10.03.2020
1574 Clouds 25 1008 100 10000 3.1 180 15:58 10.03.2020
1575 Clouds 25 1008 100 10000 3.1 180 15:40 10.03.2020
1576 Clouds 25 1008 100 10000 3.1 180 15:19 10.03.2020
1577 Drizzle 25 1009 100 10000 1.5 230 14:57 10.03.2020
1578 Drizzle 25 1009 100 10000 1.5 230 14:39 10.03.2020
1579 Drizzle 25 1009 100 10000 1.5 230 14:18 10.03.2020
1580 Rain 25 1009 100 10000 1 140 13:42 10.03.2020
1581 Rain 25 1009 100 10000 1 140 13:42 10.03.2020
1582 Rain 25 1009 100 10000 1 140 13:42 10.03.2020
1583 Rain 25 1009 100 10000 1 140 13:24 10.03.2020
1584 Rain 25 1009 100 10000 1 50 12:42 10.03.2020
1585 Rain 25 1009 100 10000 1 50 12:21 10.03.2020
1586 Rain 25 1009 100 10000 1 50 12:21 10.03.2020
1587 Drizzle 25 1008 100 10000 1 160 11:59 10.03.2020
1588 Drizzle 25 1008 100 10000 1 160 11:41 10.03.2020
1589 Drizzle 25 1008 100 10000 1 160 11:23 10.03.2020
1590 Drizzle 25 1008 100 10000 1 200 10:54 10.03.2020
1591 Drizzle 25 1008 100 10000 1 200 10:36 10.03.2020
1592 Drizzle 25 1008 100 10000 1 200 10:18 10.03.2020
1593 Clouds 25 1008 100 10000 2.6 290 09:42 10.03.2020
1594 Clouds 25 1008 100 10000 2.6 290 09:19 10.03.2020
1595 Clouds 25 1007 100 0 2.1 360 08:53 10.03.2020
1596 Clouds 26 1007 100 0 4.1 360 08:33 10.03.2020
1597 Rain 27 1006 94 10000 2.1 180 07:52 10.03.2020
1598 Rain 27 1006 94 10000 2.1 180 07:32 10.03.2020
1599 Drizzle 28 1007 83 10000 1 50 06:48 10.03.2020
1600 Drizzle 28 1007 83 10000 1 50 06:30 10.03.2020
1601 Clouds 29 1006 79 10000 3.1 290 05:42 10.03.2020
1602 Clouds 27 1007 94 10000 1 20 04:53 10.03.2020
1603 Clouds 27 1007 94 10000 1 20 04:20 10.03.2020
1604 Clouds 30 1008 79 10000 3.1 230 02:41 10.03.2020
1605 Clouds 30 1009 79 10000 2.6 360 01:30 10.03.2020
1606 Clouds 30 1009 84 10000 1.4 264 00:44 10.03.2020
1607 Clouds 30 1009 84 10000 1.4 264 00:26 10.03.2020
1608 Clouds 29 1009 83 10000 1 180 23:41 09.03.2020
1609 Rain 26 1008 94 10000 2.1 180 23:21 09.03.2020
1610 Rain 26 1008 94 10000 2.1 180 22:43 09.03.2020
1611 Rain 26 1008 94 10000 2.1 180 22:22 09.03.2020
1612 Drizzle 25 1008 100 10000 1 50 21:59 09.03.2020
1613 Drizzle 25 1008 100 10000 1 50 21:40 09.03.2020
1614 Drizzle 25 1008 100 10000 1 50 21:21 09.03.2020
1615 Drizzle 25 1007 100 10000 2.1 160 20:56 09.03.2020
1616 Drizzle 25 1007 100 10000 2.1 160 20:56 09.03.2020
1617 Drizzle 25 1007 100 10000 2.1 160 20:38 09.03.2020
1618 Drizzle 25 1007 100 10000 2.1 160 20:20 09.03.2020
1619 Drizzle 25 1007 100 10000 1.5 230 19:44 09.03.2020
1620 Drizzle 25 1007 100 10000 1.5 230 19:25 09.03.2020
1621 Drizzle 25 1007 100 10000 2.1 200 18:58 09.03.2020
1622 Drizzle 25 1007 100 10000 2.1 200 18:58 09.03.2020
1623 Drizzle 25 1007 100 10000 2.1 200 18:38 09.03.2020
1624 Clouds 25 1007 100 10000 1 50 18:20 09.03.2020
1625 Clouds 25 1007 100 10000 1 50 17:57 09.03.2020
1626 Clouds 25 1007 100 10000 1 50 17:38 09.03.2020
1627 Clouds 26 1007 94 10000 2.1 140 17:20 09.03.2020
1628 Clouds 26 1007 94 10000 2.1 140 16:58 09.03.2020
1629 Rain 23 1006 92 0 1.04 254 16:39 09.03.2020
1630 Clouds 26 1007 94 10000 1 140 16:21 09.03.2020
1631 Clouds 26 1007 94 10000 1 140 15:58 09.03.2020
1632 Clouds 26 1007 94 10000 1 140 15:38 09.03.2020
1633 Clouds 26 1007 94 10000 1 140 15:19 09.03.2020
1634 Clouds 26 1008 94 10000 1.04 254 14:54 09.03.2020
1635 Clouds 26 1008 94 10000 1.04 254 14:36 09.03.2020
1636 Clouds 26 1008 94 10000 1.04 254 14:36 09.03.2020
1637 Clouds 26 1008 94 10000 1.43 276 14:18 09.03.2020
1638 Clouds 26 1009 94 10000 1.43 276 13:40 09.03.2020
1639 Clouds 26 1009 94 10000 1.01 258 13:22 09.03.2020
1640 Clouds 28 1008 88 10000 2.1 290 12:59 09.03.2020
1641 Clouds 28 1008 88 10000 2.1 290 12:41 09.03.2020
1642 Clouds 28 1008 88 10000 2.1 290 12:20 09.03.2020
1643 Rain 27 1008 94 10000 1.5 250 11:41 09.03.2020
1644 Rain 27 1008 94 10000 1.5 250 11:21 09.03.2020
1645 Clouds 28 1008 88 10000 2.1 290 10:58 09.03.2020
1646 Clouds 28 1008 88 10000 2.1 290 10:58 09.03.2020
1647 Clouds 28 1008 88 10000 2.1 290 10:40 09.03.2020
1648 Clouds 28 1008 88 10000 2.1 290 10:40 09.03.2020
1649 Clouds 28 1008 88 10000 2.1 290 10:19 09.03.2020
1650 Clouds 28 1008 88 10000 2.1 290 10:19 09.03.2020
1651 Clouds 27 1008 94 10000 3.1 320 09:43 09.03.2020
1652 Thunderstorm 28 1007 83 10000 5.7 320 09:24 09.03.2020
1653 Thunderstorm 29 1007 83 10000 2.1 290 08:55 09.03.2020
1654 Thunderstorm 29 1006 83 10000 3.6 320 08:37 09.03.2020
1655 Thunderstorm 29 1006 83 10000 3.6 320 08:18 09.03.2020
1656 Thunderstorm 29 1006 83 10000 3.6 320 08:18 09.03.2020
1657 Rain 30 1005 79 10000 3.1 340 07:39 09.03.2020
1658 Rain 30 1005 79 10000 3.1 340 07:20 09.03.2020
1659 Rain 30 1005 84 10000 4.1 360 06:41 09.03.2020
1660 Rain 30 1005 84 10000 4.1 360 06:23 09.03.2020
1661 Clouds 31 1005 74 10000 3.1 360 05:45 09.03.2020
1662 Rain 31 1006 70 10000 2.6 320 04:59 09.03.2020
1663 Rain 31 1006 70 10000 2.6 320 04:40 09.03.2020
1664 Rain 31 1006 70 10000 2.6 320 04:20 09.03.2020
1665 Rain 31 1006 70 10000 2.6 320 04:20 09.03.2020
1666 Rain 28 1008 88 10000 1 320 02:55 09.03.2020
1667 Clouds 27 1009 94 10000 1.69 355 00:44 09.03.2020
1668 Clouds 27 1009 94 10000 1.69 355 00:25 09.03.2020
1669 Drizzle 26 1009 100 10000 1.69 355 23:58 08.03.2020
1670 Drizzle 26 1009 100 10000 1.69 355 23:38 08.03.2020
1671 Drizzle 26 1009 100 10000 0.59 187 23:18 08.03.2020
1672 Clouds 27 1008 94 10000 1.5 230 22:41 08.03.2020
1673 Clouds 27 1008 94 10000 1.5 230 22:22 08.03.2020
1674 Clouds 25 1007 100 10000 2.1 200 21:59 08.03.2020
1675 Clouds 25 1007 100 10000 2.1 200 21:40 08.03.2020
1676 Clouds 25 1007 100 10000 2.1 200 21:20 08.03.2020
1677 Clouds 25 1007 100 10000 0.59 187 20:56 08.03.2020
1678 Clouds 25 1007 100 10000 0.59 187 20:37 08.03.2020
1679 Clouds 25 1006 100 10000 1 180 20:19 08.03.2020
1680 Clouds 25 1006 100 10000 1 180 20:19 08.03.2020
1681 Clouds 25 1006 100 10000 1 180 19:40 08.03.2020
1682 Clouds 25 1006 100 10000 1 180 19:19 08.03.2020
1683 Clouds 26 1006 94 10000 1 230 18:55 08.03.2020
1684 Clouds 26 1006 94 10000 1 230 18:37 08.03.2020
1685 Clouds 23 1006 85 0 1.44 193 18:18 08.03.2020
1686 Clouds 23 1006 85 0 1.44 193 17:39 08.03.2020
1687 Clouds 25 1007 100 10000 1 110 17:20 08.03.2020
1688 Clouds 25 1007 100 10000 1 110 16:57 08.03.2020
1689 Clouds 25 1007 100 10000 1 110 16:39 08.03.2020
1690 Clouds 25 1007 100 10000 1 110 16:20 08.03.2020
1691 Clouds 26 1007 94 10000 1.75 166 15:41 08.03.2020
1692 Clouds 26 1007 94 10000 1.75 166 15:21 08.03.2020
1693 Clouds 26 1008 94 10000 1 200 14:56 08.03.2020
1694 Clouds 26 1008 94 10000 1 200 14:37 08.03.2020
1695 Clouds 26 1008 94 10000 1 200 14:19 08.03.2020
1696 Rain 26 1009 94 10000 1.66 158 13:41 08.03.2020
1697 Rain 26 1009 94 10000 1.66 158 13:20 08.03.2020
1698 Clouds 26 1008 100 10000 1.08 119 12:43 08.03.2020
1699 Clouds 26 1008 100 10000 1.08 119 12:25 08.03.2020
1700 Clouds 26 1008 100 10000 1.5 140 11:58 08.03.2020
1701 Rain 24 1008 91 0 1.08 119 11:39 08.03.2020
1702 Rain 24 1008 91 0 1.08 119 11:39 08.03.2020
1703 Rain 27 1008 94 10000 1.5 200 11:21 08.03.2020
1704 Rain 27 1008 94 10000 1.5 200 11:21 08.03.2020
1705 Rain 27 1008 94 10000 1.5 200 10:42 08.03.2020
1706 Rain 27 1008 94 10000 1.5 200 10:23 08.03.2020
1707 Rain 29 1007 83 10000 1.5 160 09:58 08.03.2020
1708 Rain 29 1007 83 10000 1.5 160 09:37 08.03.2020
1709 Rain 29 1007 83 10000 1.5 160 09:18 08.03.2020
1710 Rain 29 1007 83 10000 1.5 160 09:18 08.03.2020
1711 Rain 29 1006 79 10000 1.5 50 08:40 08.03.2020
1712 Rain 29 1006 79 10000 1.5 50 08:19 08.03.2020
1713 Rain 27 1005 82 0 1.26 56 07:44 08.03.2020
1714 Clouds 31 1005 66 10000 2.6 20 07:25 08.03.2020
1715 Clouds 31 1005 66 10000 2.6 20 06:42 08.03.2020
1716 Clouds 31 1005 66 10000 2.6 20 06:22 08.03.2020
1717 Rain 27 1005 82 0 1.26 56 05:39 08.03.2020
1718 Clouds 29 1007 83 10000 1.5 360 03:52 08.03.2020
1719 Drizzle 27 1008 94 10000 1.78 31 02:30 08.03.2020
1720 Drizzle 28 1009 94 10000 4.6 50 01:34 08.03.2020
1721 Rain 30 1009 79 10000 1.5 360 00:52 08.03.2020
1722 Clouds 29 1009 79 10000 1 140 00:27 08.03.2020
1723 Clouds 29 1009 79 10000 1 140 23:46 07.03.2020
1724 Clouds 29 1009 79 10000 1 140 23:24 07.03.2020
1725 Clouds 28 1009 83 10000 1 140 22:54 07.03.2020
1726 Clouds 26 1008 94 10000 1 180 22:36 07.03.2020
1727 Clouds 26 1008 94 10000 1 180 22:18 07.03.2020
1728 Clouds 25 1006 94 10000 1 160 21:42 07.03.2020
1729 Clouds 25 1006 94 10000 1 160 21:19 07.03.2020
1730 Clouds 25 1007 94 10000 0.99 123 20:39 07.03.2020
1731 Clouds 25 1007 94 10000 1.43 175 20:19 07.03.2020
1732 Clouds 25 1006 94 10000 1 160 19:41 07.03.2020
1733 Clouds 25 1006 94 10000 1 160 19:22 07.03.2020
1734 Clouds 25 1007 94 10000 1 110 18:47 07.03.2020
1735 Clouds 25 1007 94 10000 1 110 18:28 07.03.2020
1736 Clouds 25 1007 94 10000 1 250 17:59 07.03.2020
1737 Clouds 25 1007 94 10000 1 250 17:41 07.03.2020
1738 Clouds 25 1007 94 10000 1 250 17:19 07.03.2020
1739 Clouds 25 1007 94 10000 1.48 184 16:55 07.03.2020
1740 Clouds 25 1007 94 10000 1.48 184 16:36 07.03.2020
1741 Clouds 25 1007 94 10000 1.48 184 16:18 07.03.2020
1742 Clouds 26 1008 94 10000 1 180 15:41 07.03.2020
1743 Clouds 26 1008 94 10000 1 180 15:22 07.03.2020
1744 Clouds 26 1008 94 10000 1 110 14:58 07.03.2020
1745 Clouds 26 1008 94 10000 1 110 14:40 07.03.2020
1746 Clouds 26 1008 94 10000 1 110 14:21 07.03.2020
1747 Clouds 26 1009 94 10000 1 160 13:41 07.03.2020
1748 Clouds 26 1009 94 10000 1 160 13:21 07.03.2020
1749 Clouds 26 1009 94 10000 1 140 12:46 07.03.2020
1750 Clouds 26 1009 94 10000 1 140 12:23 07.03.2020
1751 Clouds 26 1008 94 10000 2.1 160 11:59 07.03.2020
1752 Clouds 26 1008 94 10000 2.1 160 11:41 07.03.2020
1753 Clouds 26 1008 94 10000 2.1 160 11:23 07.03.2020
1754 Clouds 29 1008 74 10000 3.1 70 10:44 07.03.2020
1755 Clouds 29 1008 74 10000 3.1 70 10:22 07.03.2020
1756 Clouds 29 1007 83 10000 2.1 360 09:58 07.03.2020
1757 Clouds 29 1007 83 10000 2.1 360 09:40 07.03.2020
1758 Clouds 29 1007 83 10000 2.1 360 09:19 07.03.2020
1759 Clouds 30 1006 79 10000 3.1 340 08:44 07.03.2020
1760 Clouds 30 1006 79 10000 3.1 340 08:22 07.03.2020
1761 Clouds 32 1005 70 10000 4.1 320 07:56 07.03.2020
1762 Rain 27 1005 83 0 0.95 4 07:37 07.03.2020
1763 Rain 27 1005 83 0 0.95 4 07:19 07.03.2020
1764 Rain 27 1005 83 0 0.95 4 06:35 07.03.2020
1765 Rain 27 1005 83 0 0.95 4 05:55 07.03.2020
1766 Clouds 33 1006 55 10000 4.6 20 04:56 07.03.2020
1767 Rain 29 1005 68 0 2.24 7 02:58 07.03.2020
1768 Rain 29 1005 68 0 2.24 7 02:34 07.03.2020
1769 Clouds 32 1008 66 10000 2.6 20 01:45 07.03.2020
1770 Clouds 32 1008 66 10000 2.6 90 00:40 07.03.2020
1771 Clouds 32 1008 66 10000 2.6 90 00:21 07.03.2020
1772 Clouds 30 1008 74 10000 2.1 140 23:49 06.03.2020
1773 Clouds 30 1008 74 10000 2.1 140 23:26 06.03.2020
1774 Clouds 26 1008 88 10000 1.5 160 22:48 06.03.2020
1775 Clouds 26 1008 88 10000 1.5 160 22:22 06.03.2020
1776 Clouds 24 1007 94 10000 1.5 180 21:56 06.03.2020
1777 Clouds 24 1007 94 10000 1.5 180 21:38 06.03.2020
1778 Clouds 24 1007 94 10000 1.5 180 21:18 06.03.2020
1779 Clouds 24 1007 94 10000 1.5 180 21:18 06.03.2020
1780 Clouds 24 1007 94 10000 2.6 180 20:38 06.03.2020
1781 Clouds 24 1007 94 10000 2.6 180 20:20 06.03.2020
1782 Clouds 24 1007 94 10000 1 180 19:47 06.03.2020
1783 Clouds 24 1007 94 10000 1 180 19:28 06.03.2020
1784 Clouds 24 1007 94 10000 1 180 18:57 06.03.2020
1785 Clouds 23 1006 100 10000 1.09 170 18:38 06.03.2020
1786 Clouds 23 1006 100 10000 1.09 170 18:19 06.03.2020
1787 Clouds 24 1006 94 10000 1 140 17:42 06.03.2020
1788 Clouds 24 1006 94 10000 1 140 17:42 06.03.2020
1789 Clouds 24 1006 100 10000 1.5 180 17:23 06.03.2020
1790 Clouds 24 1006 100 10000 1.5 180 16:59 06.03.2020
1791 Clouds 24 1006 100 10000 1.5 180 16:40 06.03.2020
1792 Clouds 24 1006 100 10000 1.5 180 16:40 06.03.2020
1793 Clouds 24 1007 100 10000 1.29 190 16:19 06.03.2020
1794 Clouds 24 1007 100 10000 1.29 190 15:44 06.03.2020
1795 Clouds 24 1007 100 10000 1.29 190 15:24 06.03.2020
1796 Clouds 24 1008 100 10000 1.29 190 14:45 06.03.2020
1797 Clouds 24 1008 100 10000 1.29 190 14:25 06.03.2020
1798 Clouds 25 1009 94 10000 1.5 180 13:59 06.03.2020
1799 Clouds 25 1009 94 10000 1.5 180 13:40 06.03.2020
1800 Clouds 25 1009 94 10000 1.5 180 13:21 06.03.2020
1801 Clouds 25 1009 100 10000 1.5 200 12:55 06.03.2020
1802 Clouds 25 1009 100 10000 1.5 200 12:36 06.03.2020
1803 Clouds 25 1009 100 10000 1.5 200 12:18 06.03.2020
1804 Clouds 25 1008 100 10000 0.78 157 11:43 06.03.2020
1805 Clouds 25 1008 100 10000 0.6 163 11:21 06.03.2020
1806 Clouds 26 1007 88 10000 0.6 163 10:58 06.03.2020
1807 Clouds 26 1007 88 10000 0.6 163 10:37 06.03.2020
1808 Clouds 26 1007 88 10000 0.6 163 10:18 06.03.2020
1809 Clouds 26 1007 88 10000 0.6 163 10:18 06.03.2020
1810 Clouds 26 1007 88 10000 0.6 163 10:18 06.03.2020
1811 Clouds 26 1007 88 10000 1.5 180 09:42 06.03.2020
1812 Clouds 26 1007 88 10000 1.5 180 09:24 06.03.2020
1813 Clouds 27 1006 88 10000 2.6 140 08:57 06.03.2020
1814 Clouds 27 1006 88 10000 2.6 140 08:38 06.03.2020
1815 Clouds 27 1006 88 10000 2.6 140 08:20 06.03.2020
1816 Clouds 29 1006 79 10000 3.1 160 07:45 06.03.2020
1817 Clouds 29 1006 79 10000 3.1 160 07:24 06.03.2020
1818 Clouds 29 1005 79 10000 2.1 160 06:43 06.03.2020
1819 Clouds 29 1005 79 10000 2.1 160 06:22 06.03.2020
1820 Clouds 29 1006 79 10000 3.1 110 05:38 06.03.2020
1821 Clouds 29 1006 79 10000 3.1 110 05:19 06.03.2020
1822 Clouds 31 1006 70 10000 2.1 360 04:35 06.03.2020
1823 Clouds 31 1008 70 10000 2.1 20 01:43 06.03.2020
1824 Clouds 31 1008 70 10000 2.1 20 01:25 06.03.2020
1825 Clouds 30 1008 79 10000 1.5 50 00:49 06.03.2020
1826 Clouds 30 1008 79 10000 1.5 50 00:30 06.03.2020
1827 Clouds 29 1008 83 10000 1.5 180 23:43 05.03.2020
1828 Clouds 29 1008 83 10000 1.5 180 23:24 05.03.2020
1829 Clouds 27 1007 83 10000 2.1 180 22:55 05.03.2020
1830 Clouds 27 1007 83 10000 2.1 180 22:36 05.03.2020
1831 Clouds 27 1007 83 10000 2.1 180 22:18 05.03.2020
1832 Clouds 25 1007 94 10000 1.5 200 21:54 05.03.2020
1833 Clouds 25 1007 94 10000 1.5 200 21:36 05.03.2020
1834 Clouds 25 1007 94 10000 1.5 200 21:18 05.03.2020
1835 Clouds 24 1007 100 10000 2.1 200 20:42 05.03.2020
1836 Clouds 24 1007 100 10000 2.1 200 20:20 05.03.2020
1837 Clouds 24 1006 94 10000 1.5 180 19:59 05.03.2020
1838 Clouds 24 1006 94 10000 1.5 180 19:39 05.03.2020
1839 Clouds 24 1006 94 10000 1.5 180 19:20 05.03.2020
1840 Clouds 24 1006 100 10000 2.6 160 18:58 05.03.2020
1841 Clouds 24 1006 100 10000 2.6 160 18:37 05.03.2020
1842 Clouds 24 1006 100 10000 2.6 160 18:18 05.03.2020
1843 Clouds 24 1006 100 10000 2.6 180 17:55 05.03.2020
1844 Clouds 24 1006 100 10000 2.6 180 17:36 05.03.2020
1845 Clouds 24 1006 100 10000 2.6 180 17:36 05.03.2020
1846 Clouds 24 1006 100 10000 2.6 180 17:18 05.03.2020
1847 Clouds 24 1007 94 10000 1 160 16:41 05.03.2020
1848 Clouds 24 1007 94 10000 1 160 16:22 05.03.2020
1849 Clouds 24 1007 100 10000 1.5 140 15:46 05.03.2020
1850 Clouds 24 1007 100 10000 1.5 140 15:24 05.03.2020
1851 Clouds 25 1007 94 10000 1.5 160 14:59 05.03.2020
1852 Clouds 23 1006 90 0 1.56 189 14:41 05.03.2020
1853 Clouds 25 1008 94 10000 1.56 189 14:22 05.03.2020
1854 Clouds 25 1008 94 10000 1.34 162 13:57 05.03.2020
1855 Clouds 25 1008 94 10000 1.34 162 13:38 05.03.2020
1856 Clouds 25 1008 94 10000 1.58 165 13:20 05.03.2020
1857 Clouds 25 1008 94 10000 1.58 165 13:20 05.03.2020
1858 Clouds 25 1008 100 10000 2.1 180 12:42 05.03.2020
1859 Clouds 25 1008 100 10000 2.1 180 12:21 05.03.2020
1860 Clouds 25 1008 100 10000 1.58 165 11:57 05.03.2020
1861 Clouds 25 1008 100 10000 1.58 165 11:37 05.03.2020
1862 Clouds 25 1008 100 10000 1.58 165 11:37 05.03.2020
1863 Clouds 25 1008 100 10000 1.51 150 11:19 05.03.2020
1864 Clouds 26 1007 94 10000 1.51 150 10:57 05.03.2020
1865 Clouds 26 1007 94 10000 1.51 150 10:39 05.03.2020
1866 Clouds 26 1007 94 10000 1.51 150 10:21 05.03.2020
1867 Rain 24 1007 91 0 1.51 150 09:47 05.03.2020
1868 Clouds 26 1006 94 10000 2.1 230 09:28 05.03.2020
1869 Clouds 26 1006 94 10000 2.1 230 09:28 05.03.2020
1870 Clouds 26 1006 94 10000 2.1 230 08:59 05.03.2020
1871 Clouds 26 1006 94 10000 2.1 230 08:41 05.03.2020
1872 Clouds 26 1006 94 10000 2.1 230 08:21 05.03.2020
1873 Clouds 27 1005 94 10000 3.1 180 07:41 05.03.2020
1874 Clouds 27 1005 94 10000 3.1 180 07:19 05.03.2020
1875 Clouds 28 1005 88 0 4.1 160 06:43 05.03.2020
1876 Clouds 30 1005 79 10000 3.1 140 06:19 05.03.2020
1877 Thunderstorm 32 1005 75 10000 4.6 290 05:33 05.03.2020
1878 Thunderstorm 32 1005 75 10000 4.6 290 05:33 05.03.2020
1879 Clouds 32 1005 70 10000 5.1 270 04:23 05.03.2020
1880 Clouds 32 1006 75 10000 4.6 360 03:58 05.03.2020
1881 Clouds 32 1007 70 10000 2.6 360 02:31 05.03.2020
1882 Clouds 32 1008 70 10000 3.1 50 01:26 05.03.2020
1883 Clouds 31 1008 74 10000 2.6 360 00:44 05.03.2020
1884 Clouds 30 1008 74 10000 2.05 342 23:56 04.03.2020
1885 Clouds 30 1008 74 10000 2.05 342 23:38 04.03.2020
1886 Clouds 30 1008 74 10000 1.02 215 23:19 04.03.2020
1887 Clouds 27 1008 83 10000 1.5 180 22:40 04.03.2020
1888 Clouds 27 1008 83 10000 1.5 180 22:19 04.03.2020
1889 Clouds 26 1007 88 10000 1.5 180 21:59 04.03.2020
1890 Clouds 26 1007 88 10000 1.5 180 21:41 04.03.2020
1891 Clouds 26 1007 88 10000 1.5 180 21:20 04.03.2020
1892 Clouds 25 1007 94 10000 2.1 160 20:57 04.03.2020
1893 Clouds 25 1007 94 10000 2.1 160 20:39 04.03.2020
1894 Clouds 25 1007 94 10000 2.1 160 20:20 04.03.2020
1895 Clouds 25 1006 94 10000 1 140 19:42 04.03.2020
1896 Clouds 25 1006 94 10000 1 140 19:24 04.03.2020
1897 Clouds 25 1005 94 10000 1 180 18:57 04.03.2020
1898 Clouds 25 1005 94 10000 1 180 18:38 04.03.2020
1899 Clouds 25 1005 94 10000 1 180 18:20 04.03.2020
1900 Clouds 25 1006 94 10000 1 180 17:56 04.03.2020
1901 Clouds 25 1006 94 10000 1 180 17:37 04.03.2020
1902 Clouds 25 1006 94 10000 1 180 17:19 04.03.2020
1903 Clouds 26 1006 94 10000 1 180 16:44 04.03.2020
1904 Clouds 26 1006 94 10000 1 180 16:25 04.03.2020
1905 Clouds 26 1007 94 10000 1 200 15:59 04.03.2020
1906 Clouds 26 1007 94 10000 1 200 15:40 04.03.2020
1907 Clouds 26 1007 94 10000 1 200 15:21 04.03.2020
1908 Clouds 26 1001 94 10000 2.1 180 14:55 04.03.2020
1909 Clouds 26 1001 94 10000 2.1 180 14:36 04.03.2020
1910 Clouds 26 1001 94 10000 2.1 180 14:18 04.03.2020
1911 Drizzle 28 1008 88 10000 4.1 360 13:55 04.03.2020
1912 Drizzle 28 1008 88 10000 4.1 360 13:36 04.03.2020
1913 Drizzle 28 1008 88 10000 4.1 360 13:18 04.03.2020
1914 Clouds 28 1008 94 10000 1 20 12:42 04.03.2020
1915 Clouds 28 1008 94 10000 1 20 12:23 04.03.2020
1916 Clouds 24 1008 90 0 1.13 173 11:55 04.03.2020
1917 Clouds 24 1008 90 0 1.13 173 11:37 04.03.2020
1918 Clouds 29 1007 79 10000 0.79 133 11:19 04.03.2020
1919 Clouds 29 1007 79 10000 0.79 133 10:44 04.03.2020
1920 Clouds 29 1007 79 10000 0.79 133 10:25 04.03.2020
1921 Clouds 29 1006 83 10000 1.5 50 09:56 04.03.2020
1922 Clouds 29 1006 83 10000 1.5 50 09:38 04.03.2020
1923 Clouds 29 1006 83 10000 1.5 50 09:18 04.03.2020
1924 Rain 31 1005 74 10000 1 50 08:41 04.03.2020
1925 Rain 31 1005 74 10000 1 50 08:23 04.03.2020
1926 Clouds 31 1004 70 10000 1 360 07:48 04.03.2020
1927 Clouds 31 1004 70 10000 1 360 07:29 04.03.2020
1928 Clouds 31 1004 70 10000 2.1 360 06:51 04.03.2020
1929 Clouds 31 1004 70 10000 2.1 360 06:26 04.03.2020
1930 Clouds 32 1004 66 10000 1 340 05:57 04.03.2020
1931 Clouds 32 1004 66 10000 1 340 05:21 04.03.2020
1932 Clouds 32 1004 66 10000 1 340 05:21 04.03.2020
1933 Clouds 32 1006 70 10000 4.1 340 03:52 04.03.2020
1934 Clouds 32 1006 70 10000 4.1 340 03:33 04.03.2020
1935 Clouds 32 1006 70 10000 3.1 360 02:58 04.03.2020
1936 Clouds 32 1007 66 10000 3.1 360 02:26 04.03.2020
1937 Clouds 32 1007 66 10000 2.6 360 01:56 04.03.2020
1938 Clouds 32 1007 66 10000 2.6 360 01:31 04.03.2020
1939 Clouds 32 1008 70 10000 2.1 340 00:41 04.03.2020
1940 Clouds 32 1008 70 10000 2.1 340 00:19 04.03.2020
1941 Clouds 31 1008 74 10000 1 140 23:41 03.03.2020
1942 Clouds 31 1008 74 10000 1 140 23:22 03.03.2020
1943 Clouds 27 1007 88 10000 1 140 22:42 03.03.2020
1944 Clouds 27 1007 88 10000 1 140 22:20 03.03.2020
1945 Clouds 25 1007 94 10000 1 140 21:59 03.03.2020
1946 Clouds 25 1007 94 10000 1 140 21:40 03.03.2020
1947 Clouds 25 1007 94 10000 1 140 21:21 03.03.2020
1948 Clouds 25 1007 94 10000 1.5 140 20:57 03.03.2020
1949 Clouds 25 1007 94 10000 1.5 140 20:38 03.03.2020
1950 Clouds 25 1007 94 10000 1.5 140 20:18 03.03.2020
1951 Clouds 25 1007 94 10000 1.5 140 20:18 03.03.2020
1952 Clouds 25 1006 94 10000 1 140 19:56 03.03.2020
1953 Clouds 25 1006 94 10000 1 140 19:37 03.03.2020
1954 Clouds 25 1006 94 10000 1 140 19:37 03.03.2020
1955 Clouds 25 1006 94 10000 1 140 19:18 03.03.2020
1956 Clouds 25 1006 94 10000 1 180 18:55 03.03.2020
1957 Clouds 25 1006 94 10000 1 180 18:37 03.03.2020
1958 Clouds 25 1006 94 10000 1 180 18:37 03.03.2020
1959 Clouds 25 1006 94 10000 1 180 18:18 03.03.2020
1960 Clouds 26 1007 94 10000 1 160 17:40 03.03.2020
1961 Clouds 26 1007 94 10000 1 160 17:22 03.03.2020
1962 Clouds 24 1006 91 0 1.3 182 16:59 03.03.2020
1963 Clouds 24 1006 91 0 1.41 181 16:38 03.03.2020
1964 Clouds 24 1006 91 0 1.41 181 16:38 03.03.2020
1965 Clouds 26 1008 94 10000 1 200 16:20 03.03.2020
1966 Clouds 26 1008 94 10000 1 200 16:20 03.03.2020
1967 Clouds 26 1008 94 10000 1 200 15:57 03.03.2020
1968 Clouds 26 1008 94 10000 1 200 15:39 03.03.2020
1969 Clouds 26 1008 94 10000 1 200 15:20 03.03.2020
1970 Clouds 26 1008 94 10000 1.5 180 14:43 03.03.2020
1971 Clouds 26 1008 94 10000 1.5 180 14:20 03.03.2020
1972 Clouds 26 1009 94 10000 1.34 182 13:58 03.03.2020
1973 Clouds 26 1009 94 10000 1.34 182 13:40 03.03.2020
1974 Clouds 26 1009 94 10000 1.34 182 13:21 03.03.2020
1975 Clouds 26 1009 94 10000 1.34 182 13:21 03.03.2020
1976 Clouds 26 1009 100 10000 1 140 12:47 03.03.2020
1977 Clouds 26 1009 100 10000 1 140 12:47 03.03.2020
1978 Clouds 26 1009 100 10000 1 140 12:26 03.03.2020
1979 Clouds 27 1008 94 10000 1.5 140 11:58 03.03.2020
1980 Clouds 27 1008 94 10000 1.5 140 11:37 03.03.2020
1981 Clouds 27 1008 94 10000 1.5 140 11:18 03.03.2020
1982 Clouds 29 1007 83 10000 0.7 143 10:56 03.03.2020
1983 Clouds 29 1007 83 10000 0.7 143 10:37 03.03.2020
1984 Clouds 29 1007 83 10000 0.7 143 10:18 03.03.2020
1985 Clouds 30 1007 79 10000 0.7 143 09:44 03.03.2020
1986 Clouds 30 1007 79 10000 0.7 143 09:22 03.03.2020
1987 Clouds 31 1006 79 10000 2.1 360 08:56 03.03.2020
1988 Clouds 31 1006 79 10000 2.1 360 08:37 03.03.2020
1989 Clouds 31 1006 79 10000 2.1 360 08:19 03.03.2020
1990 Rain 33 1006 66 10000 0.63 74 07:42 03.03.2020
1991 Rain 33 1006 66 10000 0.63 74 07:20 03.03.2020
1992 Clouds 32 1006 75 10000 2.6 180 06:41 03.03.2020
1993 Clouds 32 1006 75 10000 2.6 180 06:22 03.03.2020
1994 Clouds 30 1006 79 10000 3.1 270 05:47 03.03.2020
1995 Rain 32 1006 70 10000 4.6 320 04:58 03.03.2020
1996 Clouds 32 1007 70 10000 4.1 360 03:52 03.03.2020
1997 Clouds 31 1009 74 10000 3.1 360 01:40 03.03.2020
1998 Clouds 31 1009 74 10000 2.1 20 00:48 03.03.2020
1999 Clouds 31 1009 74 10000 2.1 20 00:26 03.03.2020
2000 Clouds 31 1009 74 10000 2.07 9 23:51 02.03.2020
2001 Clouds 31 1009 74 10000 2.07 9 23:23 02.03.2020
2002 Clouds 28 1009 78 10000 2.1 200 22:58 02.03.2020
2003 Clouds 28 1009 78 10000 2.1 200 22:58 02.03.2020
2004 Clouds 28 1009 78 10000 2.1 200 22:39 02.03.2020
2005 Clouds 28 1009 78 10000 2.1 200 22:20 02.03.2020
2006 Clouds 25 1009 94 10000 1.5 200 21:58 02.03.2020
2007 Clouds 25 1009 94 10000 1.5 200 21:39 02.03.2020
2008 Clouds 25 1009 94 10000 1.5 200 21:20 02.03.2020
2009 Clouds 24 1008 100 10000 1 140 20:56 02.03.2020
2010 Clouds 24 1008 100 10000 1 140 20:38 02.03.2020
2011 Clouds 24 1008 100 10000 1 140 20:19 02.03.2020
2012 Clouds 25 1008 94 10000 1.5 90 19:54 02.03.2020
2013 Clouds 25 1008 94 10000 1.5 90 19:36 02.03.2020
2014 Clouds 25 1008 94 10000 1.5 90 19:18 02.03.2020
2015 Clouds 25 1007 100 10000 1 180 18:42 02.03.2020
2016 Clouds 25 1007 100 10000 1 180 18:19 02.03.2020
2017 Clouds 25 1007 100 10000 1 180 18:19 02.03.2020
2018 Clouds 25 1008 100 10000 1 180 17:57 02.03.2020
2019 Clouds 25 1008 100 10000 1 180 17:39 02.03.2020
2020 Clouds 25 1008 100 10000 1 180 17:20 02.03.2020
2021 Clouds 26 1008 94 10000 1 230 16:45 02.03.2020
2022 Clouds 26 1008 94 10000 1 230 16:45 02.03.2020
2023 Clouds 26 1008 94 10000 1 230 16:27 02.03.2020
2024 Clouds 24 1008 90 0 1.2 204 15:58 02.03.2020
2025 Clouds 24 1008 90 0 1.2 204 15:40 02.03.2020
2026 Clouds 26 1010 94 10000 2.1 110 15:19 02.03.2020
2027 Clouds 26 1010 94 10000 2.1 110 14:40 02.03.2020
2028 Clouds 26 1010 94 10000 2.1 110 14:20 02.03.2020
2029 Clouds 27 1010 88 10000 1.06 188 13:57 02.03.2020
2030 Clouds 27 1010 88 10000 1.06 188 13:37 02.03.2020
2031 Clouds 27 1010 88 10000 1.06 188 13:18 02.03.2020
2032 Clouds 27 1010 88 10000 1.3 187 12:43 02.03.2020
2033 Clouds 27 1010 88 10000 1.3 187 12:43 02.03.2020
2034 Clouds 27 1010 88 10000 1.3 187 12:19 02.03.2020
2035 Clouds 27 1009 88 10000 1 180 11:40 02.03.2020
2036 Clouds 27 1009 88 10000 1 180 11:21 02.03.2020
2037 Clouds 28 1009 83 10000 1 180 10:58 02.03.2020
2038 Clouds 28 1009 83 10000 1 180 10:40 02.03.2020
2039 Clouds 28 1009 83 10000 1 180 10:19 02.03.2020
2040 Clouds 29 1008 79 10000 0.91 163 09:51 02.03.2020
2041 Clouds 29 1008 79 10000 0.91 163 09:31 02.03.2020
2042 Rain 33 1008 63 10000 3.1 340 08:49 02.03.2020
2043 Rain 33 1008 63 10000 3.1 340 08:24 02.03.2020
2044 Rain 33 1007 63 10000 3.1 340 07:52 02.03.2020
2045 Rain 33 1007 63 10000 3.1 340 07:33 02.03.2020
2046 Clouds 32 1007 70 10000 3.6 320 06:53 02.03.2020
2047 Clouds 32 1007 70 10000 3.6 320 06:26 02.03.2020
2048 Clouds 32 1007 70 10000 4.6 320 05:26 02.03.2020
2049 Clouds 33 1008 63 10000 2.6 360 03:57 02.03.2020
2050 Clouds 32 1009 66 10000 4.1 320 02:57 02.03.2020
2051 Clouds 32 1009 66 10000 4.1 320 02:30 02.03.2020
2052 Clouds 31 1009 74 10000 2.6 340 01:36 02.03.2020
2053 Clouds 31 1009 74 10000 2.6 340 01:18 02.03.2020
2054 Clouds 31 1009 74 10000 3.1 320 00:22 02.03.2020
2055 Clouds 30 1009 74 10000 1 200 23:42 01.03.2020
2056 Clouds 30 1009 74 10000 1 200 23:23 01.03.2020
2057 Clouds 27 1009 94 10000 1.17 153 22:45 01.03.2020
2058 Clouds 27 1009 94 10000 1.17 153 22:21 01.03.2020
2059 Clouds 25 1008 100 10000 1.17 153 21:59 01.03.2020
2060 Clouds 25 1008 100 10000 1.17 153 21:59 01.03.2020
2061 Clouds 25 1008 100 10000 1.17 153 21:40 01.03.2020
2062 Clouds 25 1008 100 10000 1.17 153 21:22 01.03.2020
2063 Clouds 25 1008 100 10000 1 140 20:55 01.03.2020
2064 Clouds 25 1008 100 10000 1 140 20:37 01.03.2020
2065 Clouds 25 1008 100 10000 1 140 20:19 01.03.2020
2066 Clouds 25 1007 100 10000 1.77 133 19:41 01.03.2020
2067 Clouds 25 1007 100 10000 1.77 133 19:22 01.03.2020
2068 Clouds 26 1007 100 10000 1.77 133 18:57 01.03.2020
2069 Clouds 26 1007 100 10000 1.77 133 18:39 01.03.2020
2070 Clouds 26 1007 100 10000 1.77 133 18:19 01.03.2020
2071 Clouds 26 1007 100 10000 1 180 17:55 01.03.2020
2072 Clouds 26 1007 100 10000 1 180 17:37 01.03.2020
2073 Clouds 26 1007 100 10000 1 180 17:18 01.03.2020
2074 Rain 26 1008 94 10000 1.4 148 16:40 01.03.2020
2075 Rain 26 1008 94 10000 1.4 148 16:20 01.03.2020
2076 Clouds 26 1009 100 10000 1 140 15:59 01.03.2020
2077 Clouds 26 1009 100 10000 1 140 15:40 01.03.2020
2078 Clouds 26 1009 100 10000 1 140 15:22 01.03.2020
2079 Clouds 26 1009 100 10000 6.2 70 14:58 01.03.2020
2080 Thunderstorm 27 1009 94 10000 1.5 110 14:39 01.03.2020
2081 Thunderstorm 27 1009 94 10000 1.5 110 14:21 01.03.2020
2082 Clouds 27 1010 88 10000 0.91 182 13:59 01.03.2020
2083 Clouds 27 1010 88 10000 0.91 182 13:59 01.03.2020
2084 Clouds 27 1010 88 10000 0.91 182 13:41 01.03.2020
2085 Clouds 27 1010 88 10000 1.05 163 13:20 01.03.2020
2086 Clouds 27 1010 94 10000 2.1 160 12:56 01.03.2020
2087 Clouds 27 1010 94 10000 2.1 160 12:38 01.03.2020
2088 Clouds 27 1010 94 10000 2.1 160 12:19 01.03.2020
2089 Clouds 27 1009 94 10000 1.05 163 11:40 01.03.2020
2090 Clouds 27 1009 94 10000 0.56 107 11:19 01.03.2020
2091 Clouds 29 1008 83 10000 0.47 147 10:56 01.03.2020
2092 Clouds 29 1008 83 10000 0.47 147 10:37 01.03.2020
2093 Clouds 29 1008 83 10000 0.47 147 10:18 01.03.2020
2094 Clouds 29 1008 83 10000 0.47 147 10:18 01.03.2020
2095 Clouds 30 1007 79 10000 1 50 09:42 01.03.2020
2096 Clouds 30 1007 79 10000 1 50 09:42 01.03.2020
2097 Clouds 30 1007 79 10000 1 50 09:23 01.03.2020
2098 Clouds 31 1007 70 10000 2.1 20 08:46 01.03.2020
2099 Clouds 31 1007 70 10000 2.1 20 08:28 01.03.2020
2100 Clouds 32 1006 66 10000 2.1 360 07:56 01.03.2020
2101 Clouds 32 1006 66 10000 2.1 360 07:38 01.03.2020
2102 Clouds 32 1006 66 10000 2.1 360 07:19 01.03.2020
2103 Clouds 32 1006 59 10000 3.1 360 06:41 01.03.2020
2104 Clouds 32 1006 59 10000 4.1 360 05:35 01.03.2020
2105 Clouds 32 1008 66 10000 2.1 20 02:59 01.03.2020
2106 Clouds 32 1008 66 10000 2.1 20 02:18 01.03.2020
2107 Clouds 31 1009 58 10000 2.1 360 01:36 01.03.2020
2108 Clouds 30 1009 79 10000 2.1 90 00:49 01.03.2020
2109 Clouds 30 1009 79 10000 2.1 90 00:25 01.03.2020
2110 Clouds 29 1009 79 10000 2.1 140 23:58 29.02.2020
2111 Clouds 29 1009 79 10000 2.1 140 23:40 29.02.2020
2112 Clouds 29 1009 79 10000 2.1 140 23:21 29.02.2020
2113 Clouds 27 1009 78 10000 2.6 180 22:38 29.02.2020
2114 Clouds 27 1009 78 10000 2.6 180 22:19 29.02.2020
2115 Clouds 25 1008 88 10000 1.5 160 21:39 29.02.2020
2116 Clouds 25 1008 88 10000 1.5 160 21:19 29.02.2020
2117 Clouds 25 1009 85 0 1.27 132 20:41 29.02.2020
2118 Clouds 25 1008 88 10000 1 200 20:20 29.02.2020
2119 Clouds 25 1008 88 10000 1 200 19:54 29.02.2020
2120 Clouds 25 1008 88 10000 1 200 19:36 29.02.2020
2121 Clouds 25 1008 88 10000 1 200 19:18 29.02.2020
2122 Clouds 25 1007 88 10000 2.1 200 18:40 29.02.2020
2123 Clouds 25 1007 88 10000 2.1 200 18:19 29.02.2020
2124 Clouds 25 1007 88 10000 2.1 200 17:55 29.02.2020
2125 Clouds 25 1007 88 10000 2.1 200 17:37 29.02.2020
2126 Clouds 25 1007 88 10000 2.1 200 17:19 29.02.2020
2127 Clouds 25 1008 94 10000 2.1 200 16:43 29.02.2020
2128 Clouds 25 1008 94 10000 2.1 200 16:19 29.02.2020
2129 Clouds 26 1008 88 10000 1.5 160 15:56 29.02.2020
2130 Clouds 26 1008 88 10000 1.5 160 15:36 29.02.2020
2131 Clouds 26 1008 88 10000 1.5 160 15:36 29.02.2020
2132 Clouds 26 1008 88 10000 1.5 160 15:18 29.02.2020
2133 Clouds 26 1009 88 10000 0.97 186 14:39 29.02.2020
2134 Clouds 26 1009 88 10000 1.06 175 14:21 29.02.2020
2135 Clouds 26 1009 88 10000 1.5 180 13:45 29.02.2020
2136 Clouds 26 1009 88 10000 1.5 180 13:26 29.02.2020
2137 Clouds 26 1008 88 10000 1.5 200 12:56 29.02.2020
2138 Clouds 26 1008 88 10000 1.5 200 12:37 29.02.2020
2139 Clouds 26 1008 88 10000 1.5 200 12:19 29.02.2020
2140 Clouds 26 1008 94 10000 1 200 11:44 29.02.2020
2141 Clouds 26 1008 94 10000 1 200 11:26 29.02.2020
2142 Clouds 28 1007 83 10000 1 140 10:51 29.02.2020
2143 Clouds 28 1007 83 10000 1 140 10:29 29.02.2020
2144 Clouds 30 1006 70 10000 1 270 09:52 29.02.2020
2145 Clouds 30 1006 70 10000 1 270 09:28 29.02.2020
2146 Clouds 31 1006 66 10000 1 320 08:58 29.02.2020
2147 Clouds 31 1006 66 10000 1 320 08:38 29.02.2020
2148 Clouds 31 1006 66 10000 1 320 08:19 29.02.2020
2149 Clouds 32 1005 59 10000 2.1 360 07:46 29.02.2020
2150 Clouds 32 1005 59 10000 2.1 360 07:21 29.02.2020
2151 Clouds 32 1005 62 10000 3.1 340 06:54 29.02.2020
2152 Clouds 32 1005 62 10000 3.1 340 06:27 29.02.2020
2153 Clouds 32 1005 70 10000 3.6 360 05:49 29.02.2020
2154 Clouds 32 1005 70 10000 3.6 360 05:29 29.02.2020
2155 Clouds 32 1006 70 10000 3.6 20 03:46 29.02.2020
2156 Clouds 32 1006 70 10000 3.6 20 03:23 29.02.2020
2157 Clouds 32 1007 70 10000 4.1 20 02:47 29.02.2020
2158 Clouds 31 1008 70 10000 3.1 20 01:32 29.02.2020
2159 Clouds 32 1009 75 10000 2.6 70 00:44 29.02.2020
2160 Clouds 32 1009 75 10000 2.6 70 00:25 29.02.2020
2161 Clouds 30 1009 74 10000 1 180 23:38 28.02.2020
2162 Clouds 30 1009 74 10000 1 180 23:20 28.02.2020
2163 Clouds 26 1008 78 10000 2.1 180 22:42 28.02.2020
2164 Clouds 26 1008 78 10000 2.1 180 22:22 28.02.2020
2165 Clouds 24 1008 88 10000 2.1 180 21:42 28.02.2020
2166 Clouds 24 1008 88 10000 2.1 180 21:21 28.02.2020
2167 Clouds 23 1007 88 10000 3.1 180 20:56 28.02.2020
2168 Clouds 23 1007 88 10000 3.1 180 20:38 28.02.2020
2169 Clouds 23 1007 88 10000 3.1 180 20:19 28.02.2020
2170 Clouds 23 1007 94 10000 3.1 180 19:56 28.02.2020
2171 Clouds 23 1007 94 10000 3.1 180 19:37 28.02.2020
2172 Clouds 23 1007 94 10000 3.1 180 19:19 28.02.2020
2173 Clouds 24 1007 88 10000 3.1 200 18:46 28.02.2020
2174 Clouds 24 1007 88 10000 3.1 200 18:23 28.02.2020
2175 Clouds 24 1007 88 10000 2.1 180 17:41 28.02.2020
2176 Clouds 24 1007 88 10000 2.1 180 17:23 28.02.2020
2177 Clouds 24 1007 88 10000 2.1 180 17:23 28.02.2020
2178 Clouds 24 1008 88 10000 1 200 16:56 28.02.2020
2179 Clouds 24 1008 88 10000 1 200 16:37 28.02.2020
2180 Clouds 24 1008 88 10000 1 200 16:19 28.02.2020
2181 Clouds 25 1009 88 10000 1 180 15:55 28.02.2020
2182 Clouds 25 1009 88 10000 1 180 15:55 28.02.2020
2183 Clouds 25 1009 88 10000 1 180 15:55 28.02.2020
2184 Clouds 25 1009 88 10000 1 180 15:36 28.02.2020
2185 Clouds 25 1009 88 10000 1 180 15:18 28.02.2020
2186 Clouds 25 1009 94 10000 1 180 14:42 28.02.2020
2187 Clouds 25 1009 94 10000 1 180 14:19 28.02.2020
2188 Clouds 26 1009 88 10000 1 180 13:57 28.02.2020
2189 Clouds 26 1009 88 10000 1 180 13:39 28.02.2020
2190 Clouds 26 1009 88 10000 1 180 13:19 28.02.2020
2191 Clouds 26 1008 94 10000 1.5 180 12:43 28.02.2020
2192 Clouds 26 1008 94 10000 1.5 180 12:24 28.02.2020
2193 Clouds 27 1008 94 10000 2.1 180 11:43 28.02.2020
2194 Clouds 27 1008 94 10000 2.1 180 11:24 28.02.2020
2195 Clouds 28 1007 88 10000 3.1 160 10:59 28.02.2020
2196 Clouds 28 1007 88 10000 3.1 160 10:40 28.02.2020
2197 Clouds 28 1007 88 10000 3.1 160 10:20 28.02.2020
2198 Clouds 30 1006 79 10000 2.6 360 09:47 28.02.2020
2199 Clouds 30 1006 79 10000 2.6 360 09:21 28.02.2020
2200 Clouds 31 1006 74 10000 2.6 340 08:57 28.02.2020
2201 Clouds 31 1006 74 10000 2.6 340 08:37 28.02.2020
2202 Clouds 31 1006 74 10000 2.6 340 08:18 28.02.2020
2203 Clouds 32 1005 62 10000 3.6 340 07:40 28.02.2020
2204 Clouds 32 1005 62 10000 3.6 340 07:20 28.02.2020
2205 Clouds 32 1004 66 10000 4.1 290 06:45 28.02.2020
2206 Clouds 32 1004 66 10000 4.1 290 06:19 28.02.2020
2207 Clouds 32 1005 66 10000 3.1 360 04:35 28.02.2020
2208 Clouds 32 1006 70 10000 3.6 360 03:51 28.02.2020
2209 Clouds 31 1007 70 10000 3.1 360 02:46 28.02.2020
2210 Clouds 31 1007 70 10000 3.1 360 02:25 28.02.2020
2211 Clouds 31 1009 74 10000 2.1 20 00:48 28.02.2020
2212 Clouds 31 1009 74 10000 2.1 20 00:26 28.02.2020
2213 Clouds 30 1009 74 10000 1.5 110 23:42 27.02.2020
2214 Clouds 30 1009 74 10000 1.5 110 23:19 27.02.2020
2215 Clouds 27 1008 83 10000 1 200 22:43 27.02.2020
2216 Clouds 27 1008 83 10000 1 200 22:25 27.02.2020
2217 Clouds 24 1008 100 10000 1 160 21:57 27.02.2020
2218 Clouds 24 1008 100 10000 1 160 21:39 27.02.2020
2219 Clouds 24 1008 100 10000 1 160 21:19 27.02.2020
2220 Clouds 24 1007 100 10000 0.59 168 20:56 27.02.2020
2221 Clouds 24 1007 100 10000 0.59 168 20:37 27.02.2020
2222 Clouds 24 1007 100 10000 0.59 168 20:37 27.02.2020
2223 Clouds 24 1007 100 10000 1.08 194 20:19 27.02.2020
2224 Clouds 25 1007 94 10000 1 180 19:42 27.02.2020
2225 Clouds 25 1007 94 10000 1 180 19:23 27.02.2020
2226 Clouds 25 1007 100 10000 1.08 194 18:58 27.02.2020
2227 Clouds 25 1007 100 10000 1.08 194 18:40 27.02.2020
2228 Clouds 25 1007 100 10000 1.08 194 18:20 27.02.2020
2229 Clouds 26 1007 94 10000 1.5 110 17:56 27.02.2020
2230 Clouds 26 1007 94 10000 1.5 110 17:38 27.02.2020
2231 Clouds 26 1007 94 10000 1.5 110 17:19 27.02.2020
2232 Drizzle 26 1007 100 10000 1.37 179 16:54 27.02.2020
2233 Drizzle 26 1007 100 10000 1.37 179 16:36 27.02.2020
2234 Drizzle 26 1007 100 10000 1.37 179 16:18 27.02.2020
2235 Clouds 26 1008 100 10000 1.37 179 15:39 27.02.2020
2236 Clouds 26 1008 100 10000 1.37 179 15:20 27.02.2020
2237 Clouds 26 1008 100 10000 1.5 180 14:59 27.02.2020
2238 Clouds 26 1008 100 10000 1.5 180 14:39 27.02.2020
2239 -273 0 0 0 0 0 14:21 27.02.2020
2240 Clouds 27 1008 100 10000 1 110 13:43 27.02.2020
2241 Clouds 27 1008 100 10000 1 110 13:22 27.02.2020
2242 Clouds 27 1008 94 10000 1.15 165 12:57 27.02.2020
2243 Clouds 27 1008 94 10000 1.15 165 12:39 27.02.2020
2244 Clouds 27 1008 94 10000 1.15 165 12:19 27.02.2020
2245 Clouds 28 1007 94 10000 3.1 160 11:45 27.02.2020
2246 Clouds 28 1007 94 10000 3.1 160 11:22 27.02.2020
2247 Clouds 28 1007 94 10000 1.5 140 10:46 27.02.2020
2248 Clouds 28 1007 94 10000 1.5 140 10:25 27.02.2020
2249 Clouds 30 1006 79 10000 1.5 340 09:59 27.02.2020
2250 Clouds 30 1006 79 10000 1.5 340 09:40 27.02.2020
2251 Clouds 30 1006 79 10000 1.5 340 09:21 27.02.2020
2252 Clouds 30 1006 79 10000 2.1 360 08:42 27.02.2020
2253 Clouds 30 1006 79 10000 2.1 360 08:22 27.02.2020
2254 Clouds 32 1006 62 10000 3.1 340 07:46 27.02.2020
2255 Clouds 32 1006 62 10000 3.1 340 07:26 27.02.2020
2256 Clouds 32 1005 70 10000 1.5 340 06:48 27.02.2020
2257 Clouds 31 1005 74 10000 3.6 360 05:58 27.02.2020
2258 Clouds 32 1006 70 10000 4.1 20 04:21 27.02.2020
2259 Clouds 32 1007 70 10000 3.6 20 02:33 27.02.2020
2260 Clouds 31 1008 74 10000 3.1 50 00:46 27.02.2020
2261 Clouds 31 1008 74 10000 3.1 50 00:26 27.02.2020
2262 Clouds 30 1009 74 10000 1.5 140 23:40 26.02.2020
2263 Clouds 30 1009 74 10000 1.5 140 23:19 26.02.2020
2264 Clouds 27 1008 83 10000 1 200 22:58 26.02.2020
2265 Clouds 27 1008 83 10000 1 200 22:39 26.02.2020
2266 Clouds 27 1008 83 10000 1 200 22:39 26.02.2020
2267 Clouds 27 1008 83 10000 1 200 22:20 26.02.2020
2268 Clouds 24 1008 100 10000 1 180 21:56 26.02.2020
2269 Clouds 24 1008 100 10000 1 180 21:36 26.02.2020
2270 Clouds 24 1008 100 10000 1 180 21:18 26.02.2020
2271 Clouds 24 1007 94 10000 1 140 20:54 26.02.2020
2272 Clouds 24 1007 94 10000 1 140 20:36 26.02.2020
2273 Clouds 24 1007 94 10000 1 140 20:18 26.02.2020
2274 Clouds 24 1007 94 10000 1 140 19:45 26.02.2020
2275 Clouds 24 1007 94 10000 1 140 19:20 26.02.2020
2276 Clouds 24 1006 100 10000 1 140 18:58 26.02.2020
2277 Clouds 24 1006 100 10000 1 140 18:58 26.02.2020
2278 Clouds 24 1006 100 10000 1 140 18:58 26.02.2020
2279 Clouds 24 1006 100 10000 1 140 18:40 26.02.2020
2280 Clouds 24 1006 100 10000 1 140 18:22 26.02.2020
2281 Clouds 24 1006 100 10000 1 140 18:22 26.02.2020
2282 Clouds 25 1006 94 10000 1 200 17:42 26.02.2020
2283 Clouds 25 1006 94 10000 1 200 17:42 26.02.2020
2284 Clouds 25 1006 94 10000 1 200 17:24 26.02.2020
2285 Clouds 25 1007 94 10000 1 140 16:58 26.02.2020
2286 Clouds 25 1007 94 10000 1 140 16:39 26.02.2020
2287 Clouds 25 1007 94 10000 1 140 16:21 26.02.2020
2288 Clouds 25 1007 94 10000 1 140 16:21 26.02.2020
2289 Clouds 26 1008 94 10000 1 110 15:47 26.02.2020
2290 Clouds 26 1008 94 10000 1 110 15:29 26.02.2020
2291 Clouds 26 1009 94 10000 2.1 180 14:59 26.02.2020
2292 Clouds 26 1009 94 10000 2.1 180 14:40 26.02.2020
2293 Clouds 26 1009 94 10000 2.1 180 14:21 26.02.2020
2294 Clouds 27 1009 83 10000 2.1 160 13:43 26.02.2020
2295 Clouds 27 1009 83 10000 2.1 160 13:21 26.02.2020
2296 Rain 24 1009 91 0 1.02 172 12:40 26.02.2020
2297 Clouds 27 1008 94 10000 1 180 12:22 26.02.2020
2298 Clouds 27 1008 94 10000 1 180 11:58 26.02.2020
2299 Clouds 27 1008 94 10000 1 180 11:40 26.02.2020
2300 Clouds 27 1008 94 10000 1 180 11:21 26.02.2020
2301 Clouds 28 1007 83 10000 1 160 10:43 26.02.2020
2302 Clouds 28 1007 83 10000 1 160 10:23 26.02.2020
2303 Clouds 29 1007 79 10000 1 320 09:57 26.02.2020
2304 Clouds 29 1007 79 10000 1 320 09:39 26.02.2020
2305 Clouds 29 1007 79 10000 1 320 09:20 26.02.2020
2306 Clouds 29 1006 79 10000 2.1 340 08:39 26.02.2020
2307 Clouds 29 1006 79 10000 2.1 340 08:39 26.02.2020
2308 Clouds 29 1006 79 10000 2.1 340 08:19 26.02.2020
2309 Clouds 32 1005 62 10000 3.6 360 07:50 26.02.2020
2310 Clouds 32 1005 62 10000 3.6 360 07:29 26.02.2020
2311 Rain 26 1005 84 0 1.27 354 06:57 26.02.2020
2312 Rain 26 1005 84 0 1.27 354 06:39 26.02.2020
2313 Rain 26 1005 84 0 1.27 354 06:18 26.02.2020
2314 Clouds 31 1005 74 10000 3.1 360 05:47 26.02.2020
2315 Rain 28 1006 74 0 1.82 359 04:49 26.02.2020
2316 Clouds 31 1008 74 10000 3.1 50 02:54 26.02.2020
2317 Clouds 30 1009 74 10000 4.1 360 01:50 26.02.2020
2318 Clouds 30 1009 74 10000 4.1 360 01:21 26.02.2020
2319 Clouds 30 1009 79 10000 2.1 360 00:28 26.02.2020
2320 Clouds 30 1009 79 10000 1.5 180 23:59 25.02.2020
2321 Clouds 30 1009 79 10000 1.5 180 23:38 25.02.2020
2322 Clouds 30 1009 79 10000 1.5 180 23:20 25.02.2020
2323 Clouds 27 1008 88 10000 0.45 203 22:43 25.02.2020
2324 Clouds 27 1008 88 10000 0.45 203 22:20 25.02.2020
2325 Clouds 24 1008 100 10000 0.45 203 21:58 25.02.2020
2326 Clouds 24 1008 100 10000 0.45 203 21:37 25.02.2020
2327 Clouds 24 1008 100 10000 0.45 203 21:18 25.02.2020
2328 Clouds 24 1007 100 10000 1.5 160 20:55 25.02.2020
2329 Clouds 24 1007 100 10000 1.5 160 20:36 25.02.2020
2330 Clouds 24 1007 100 10000 1.5 160 20:18 25.02.2020
2331 Clouds 24 1007 100 10000 1 140 19:42 25.02.2020
2332 Clouds 24 1007 100 10000 1 140 19:22 25.02.2020
2333 Clouds 23 1007 92 0 1.17 208 18:58 25.02.2020
2334 Clouds 23 1007 92 0 1.17 208 18:38 25.02.2020
2335 Clouds 25 1007 100 10000 1 90 18:19 25.02.2020
2336 Clouds 25 1007 100 10000 1 90 17:54 25.02.2020
2337 Clouds 25 1007 100 10000 1 90 17:36 25.02.2020
2338 Clouds 25 1007 100 10000 1 90 17:18 25.02.2020
2339 Drizzle 25 1008 100 10000 0.88 213 16:42 25.02.2020
2340 Drizzle 25 1008 100 10000 0.88 213 16:22 25.02.2020
2341 Clouds 25 1009 100 10000 0.88 213 15:59 25.02.2020
2342 Clouds 25 1009 100 10000 0.88 213 15:59 25.02.2020
2343 Clouds 25 1009 100 10000 0.88 213 15:41 25.02.2020
2344 Clouds 25 1009 100 10000 0.88 213 15:41 25.02.2020
2345 Clouds 25 1009 100 10000 0.88 213 15:20 25.02.2020
2346 Clouds 25 1009 100 10000 2.6 200 14:58 25.02.2020
2347 Clouds 25 1009 100 10000 2.6 200 14:38 25.02.2020
2348 Clouds 25 1009 100 10000 2.6 200 14:18 25.02.2020
2349 Thunderstorm 25 1010 100 0 4.1 250 13:55 25.02.2020
2350 Clouds 25 1011 100 0 3.1 320 13:37 25.02.2020
2351 Clouds 25 1011 100 0 3.1 320 13:19 25.02.2020
2352 Clouds 26 1009 100 10000 3.6 360 12:42 25.02.2020
2353 Clouds 26 1009 100 10000 3.6 360 12:22 25.02.2020
2354 Clouds 26 1009 100 10000 4.6 360 11:57 25.02.2020
2355 Clouds 27 1009 94 10000 2.6 250 11:39 25.02.2020
2356 Clouds 27 1009 94 10000 2.6 250 11:19 25.02.2020
2357 Clouds 27 1008 88 10000 1 200 10:59 25.02.2020
2358 Clouds 27 1008 88 10000 1 200 10:40 25.02.2020
2359 Clouds 27 1008 88 10000 1 200 10:21 25.02.2020
2360 Clouds 29 1007 83 10000 2.1 160 09:41 25.02.2020
2361 Clouds 29 1007 83 10000 2.1 160 09:22 25.02.2020
2362 Clouds 30 1007 79 10000 2.1 50 08:47 25.02.2020
2363 Clouds 30 1007 79 10000 2.1 50 08:28 25.02.2020
2364 Clouds 31 1006 70 10000 2.6 50 07:58 25.02.2020
2365 Clouds 31 1006 70 10000 2.6 50 07:39 25.02.2020
2366 Clouds 31 1006 70 10000 2.6 50 07:18 25.02.2020
2367 Clouds 32 1006 66 10000 2.1 50 06:28 25.02.2020
2368 Clouds 31 1006 70 10000 2.1 360 05:25 25.02.2020
2369 Clouds 31 1008 66 10000 3.1 360 02:54 25.02.2020
2370 Clouds 31 1009 66 10000 3.1 20 01:31 25.02.2020
2371 Clouds 32 1009 66 10000 1.84 2 00:43 25.02.2020
2372 Clouds 32 1009 66 10000 1.84 2 00:22 25.02.2020
2373 Clouds 30 1010 74 10000 1.84 2 23:40 24.02.2020
2374 Clouds 30 1010 74 10000 0.84 163 23:19 24.02.2020
2375 Clouds 27 1009 83 10000 1.5 200 22:38 24.02.2020
2376 Clouds 27 1009 83 10000 1.5 200 22:19 24.02.2020
2377 Clouds 25 1009 94 10000 1 160 21:56 24.02.2020
2378 Clouds 25 1009 94 10000 1 160 21:38 24.02.2020
2379 Clouds 25 1009 94 10000 1 160 21:19 24.02.2020
2380 Clouds 24 1008 100 10000 1.5 160 20:56 24.02.2020
2381 Clouds 24 1008 100 10000 1.5 160 20:37 24.02.2020
2382 Clouds 24 1008 100 10000 1.5 160 20:18 24.02.2020
2383 Clouds 24 1008 94 10000 1.08 189 19:56 24.02.2020
2384 Clouds 24 1008 94 10000 1.08 189 19:37 24.02.2020
2385 Clouds 24 1008 94 10000 1.08 189 19:19 24.02.2020
2386 Clouds 25 1007 94 10000 1.08 189 18:42 24.02.2020
2387 Clouds 25 1007 94 10000 1.08 189 18:23 24.02.2020
2388 Clouds 25 1007 94 10000 1.08 189 17:57 24.02.2020
2389 Clouds 25 1007 94 10000 1.08 189 17:38 24.02.2020
2390 Clouds 25 1007 94 10000 1.12 194 17:19 24.02.2020
2391 Clouds 26 1008 88 10000 1.12 194 16:55 24.02.2020
2392 Clouds 26 1008 88 10000 1.12 194 16:37 24.02.2020
2393 Clouds 26 1008 88 10000 1.12 194 16:18 24.02.2020
2394 Clouds 26 1009 94 10000 1.5 180 15:55 24.02.2020
2395 Clouds 26 1009 94 10000 1.5 180 15:37 24.02.2020
2396 Clouds 26 1009 94 10000 1.5 180 15:19 24.02.2020
2397 Clouds 26 1010 94 10000 2.1 160 14:40 24.02.2020
2398 Clouds 26 1010 94 10000 2.1 160 14:22 24.02.2020
2399 Clouds 26 1010 88 10000 2.1 140 13:58 24.02.2020
2400 Clouds 26 1010 88 10000 2.1 140 13:40 24.02.2020
2401 Clouds 26 1010 88 10000 2.1 140 13:22 24.02.2020
2402 Clouds 26 1010 94 10000 1.05 168 12:57 24.02.2020
2403 Clouds 26 1010 94 10000 1.05 168 12:39 24.02.2020
2404 Clouds 26 1010 94 10000 1.05 168 12:21 24.02.2020
2405 Clouds 26 1009 94 10000 1 200 11:46 24.02.2020
2406 Clouds 26 1009 94 10000 1 200 11:28 24.02.2020
2407 Rain 28 1009 83 10000 3.1 90 10:48 24.02.2020
2408 Rain 28 1009 83 10000 3.1 90 10:30 24.02.2020
2409 Clouds 30 1007 74 10000 1 290 09:55 24.02.2020
2410 Clouds 30 1007 74 10000 1 290 09:37 24.02.2020
2411 Clouds 30 1007 74 10000 1 290 09:18 24.02.2020
2412 Rain 30 1007 74 10000 1 290 08:47 24.02.2020
2413 Rain 30 1007 74 10000 1 290 08:47 24.02.2020
2414 Rain 30 1007 74 10000 1 290 08:28 24.02.2020
2415 Rain 31 1007 70 10000 3.1 360 07:48 24.02.2020
2416 Rain 31 1007 70 10000 3.1 360 07:28 24.02.2020
2417 Clouds 32 1006 70 10000 2.1 320 06:37 24.02.2020
2418 Clouds 32 1006 70 10000 2.1 320 06:18 24.02.2020
2419 Clouds 32 1006 70 10000 3.6 360 05:30 24.02.2020
2420 Clouds 31 1007 74 10000 2.6 20 04:25 24.02.2020
2421 Clouds 31 1009 74 10000 3.6 20 02:55 24.02.2020
2422 Clouds 31 1009 70 10000 3.6 360 01:46 24.02.2020
2423 Clouds 31 1009 70 10000 3.6 20 00:59 24.02.2020
2424 Clouds 31 1009 70 10000 3.6 20 00:28 24.02.2020
2425 Clouds 30 1009 74 10000 1 360 23:59 23.02.2020
2426 Clouds 30 1009 74 10000 1 360 23:40 23.02.2020
2427 Clouds 30 1009 74 10000 1 360 23:18 23.02.2020
2428 Clouds 27 1009 83 10000 1 200 22:56 23.02.2020
2429 Clouds 27 1009 83 10000 1 200 22:37 23.02.2020
2430 Clouds 27 1009 83 10000 1 200 22:18 23.02.2020
2431 Clouds 25 1009 94 10000 0.32 112 21:43 23.02.2020
2432 Clouds 25 1009 94 10000 0.32 112 21:43 23.02.2020
2433 Clouds 25 1009 94 10000 0.32 112 21:43 23.02.2020
2434 Clouds 25 1009 94 10000 0.32 112 21:19 23.02.2020
2435 Clouds 25 1008 94 10000 1 140 20:56 23.02.2020
2436 Clouds 25 1008 94 10000 1 140 20:37 23.02.2020
2437 Clouds 25 1008 94 10000 1 140 20:19 23.02.2020
2438 Clouds 25 1008 94 10000 1 230 19:55 23.02.2020
2439 Clouds 25 1008 94 10000 1 230 19:36 23.02.2020
2440 Clouds 25 1008 94 10000 1 230 19:18 23.02.2020
2441 Clouds 25 1008 94 10000 1 230 19:18 23.02.2020
2442 Clear 23 1008 91 0 1.2 173 18:41 23.02.2020
2443 Clouds 26 1008 94 10000 1 200 18:21 23.02.2020
2444 Clouds 26 1008 94 10000 1 200 17:59 23.02.2020
2445 Clouds 26 1008 94 10000 1 200 17:41 23.02.2020
2446 Clouds 26 1008 94 10000 1 200 17:21 23.02.2020
2447 Drizzle 26 1009 94 10000 2.1 160 16:57 23.02.2020
2448 Drizzle 26 1009 94 10000 2.1 160 16:38 23.02.2020
2449 Drizzle 26 1009 94 10000 2.1 160 16:20 23.02.2020
2450 Clouds 27 1009 88 10000 2.1 160 15:54 23.02.2020
2451 Clouds 27 1009 88 10000 2.1 160 15:36 23.02.2020
2452 Clouds 27 1009 88 10000 2.1 160 15:18 23.02.2020
2453 Clouds 27 1009 88 10000 1.39 187 14:55 23.02.2020
2454 Clouds 27 1009 88 10000 1.39 187 14:37 23.02.2020
2455 Clouds 27 1009 88 10000 1.39 187 14:37 23.02.2020
2456 Clouds 27 1009 88 10000 0.64 160 14:18 23.02.2020
2457 Clouds 27 1010 88 10000 0.64 160 13:42 23.02.2020
2458 Clouds 27 1010 88 10000 0.68 157 13:22 23.02.2020
2459 Clouds 27 1010 94 10000 0.68 157 12:59 23.02.2020
2460 Clouds 27 1010 94 10000 0.68 157 12:39 23.02.2020
2461 Clouds 27 1010 94 10000 0.68 157 12:39 23.02.2020
2462 Clouds 27 1010 94 10000 0.68 157 12:20 23.02.2020
2463 Clouds 27 1009 94 10000 1.5 160 11:38 23.02.2020
2464 Clouds 27 1009 94 10000 1.5 160 11:20 23.02.2020
2465 Clouds 27 1009 94 10000 1.5 160 11:20 23.02.2020
2466 Clouds 28 1009 88 10000 0.85 95 10:56 23.02.2020
2467 Clouds 28 1009 88 10000 0.85 95 10:38 23.02.2020
2468 Clouds 28 1009 88 10000 0.85 95 10:20 23.02.2020
2469 Clouds 29 1008 79 10000 1 110 09:54 23.02.2020
2470 Clouds 29 1008 79 10000 1 110 09:36 23.02.2020
2471 Clouds 29 1008 79 10000 1 110 09:36 23.02.2020
2472 Clouds 29 1008 79 10000 1 110 09:18 23.02.2020
2473 Clouds 30 1007 74 10000 1.5 360 08:42 23.02.2020
2474 Clouds 30 1007 74 10000 1.5 360 08:23 23.02.2020
2475 Clouds 30 1007 70 10000 2.1 360 07:41 23.02.2020
2476 Clouds 30 1007 70 10000 2.1 360 07:18 23.02.2020
2477 Clouds 31 1006 66 10000 3.1 360 06:19 23.02.2020
2478 Clouds 32 1007 62 10000 3.1 360 04:49 23.02.2020
2479 Clouds 31 1008 70 10000 4.1 360 03:50 23.02.2020
2480 Clouds 31 1009 70 10000 3.1 360 02:38 23.02.2020
2481 Clouds 31 1009 70 10000 3.1 360 02:38 23.02.2020
2482 Clouds 31 1010 66 10000 3.1 20 01:26 23.02.2020
2483 Clouds 31 1010 74 10000 2.1 20 00:49 23.02.2020
2484 Clouds 31 1010 74 10000 2.1 20 00:28 23.02.2020
2485 Clouds 31 1010 74 10000 2.1 20 00:28 23.02.2020
2486 Clear 30 1010 74 10000 1.79 16 23:59 22.02.2020
2487 Clear 30 1010 74 10000 1.79 16 23:40 22.02.2020
2488 Clear 30 1010 74 10000 0.83 165 23:19 22.02.2020
2489 Clouds 27 1010 83 10000 2.1 180 22:41 22.02.2020
2490 Clouds 27 1010 83 10000 2.1 180 22:19 22.02.2020
2491 Clouds 25 1009 94 10000 1 160 21:43 22.02.2020
2492 Clouds 25 1009 94 10000 1 160 21:24 22.02.2020
2493 Clouds 25 1009 94 10000 1 160 21:24 22.02.2020
2494 Clouds 24 1008 94 10000 1 160 20:49 22.02.2020
2495 Clouds 24 1008 94 10000 1 160 20:25 22.02.2020
2496 Clouds 25 1008 88 10000 1.5 200 19:59 22.02.2020
2497 Clouds 25 1008 88 10000 1.5 200 19:41 22.02.2020
2498 Clouds 25 1008 88 10000 1.5 200 19:21 22.02.2020
2499 Clear 23 1008 91 0 1.37 194 18:41 22.02.2020
2500 Clouds 25 1008 94 10000 1.37 194 18:22 22.02.2020
2501 Clouds 25 1008 94 10000 1.37 194 17:58 22.02.2020
2502 Clouds 25 1008 94 10000 1.37 194 17:40 22.02.2020
2503 Clouds 25 1008 94 10000 0.88 200 17:21 22.02.2020
2504 Clouds 25 1009 94 10000 1 200 16:57 22.02.2020
2505 Clouds 25 1009 94 10000 1 200 16:39 22.02.2020
2506 Clouds 25 1009 94 10000 1 200 16:20 22.02.2020
2507 Clouds 25 1009 100 10000 1 180 15:44 22.02.2020
2508 Clouds 25 1009 100 10000 1 180 15:44 22.02.2020
2509 Clouds 25 1009 100 10000 1 180 15:25 22.02.2020
2510 Clouds 26 1010 94 10000 1 180 14:56 22.02.2020
2511 Clouds 26 1010 94 10000 1 180 14:37 22.02.2020
2512 Clouds 26 1010 94 10000 1 180 14:18 22.02.2020
2513 Clouds 26 1011 94 10000 0.68 186 13:41 22.02.2020
2514 Clouds 26 1011 94 10000 1.01 187 13:19 22.02.2020
2515 Clouds 27 1010 88 10000 1 160 12:46 22.02.2020
2516 Clouds 27 1010 88 10000 1 160 12:24 22.02.2020
2517 Clouds 27 1010 94 10000 2.6 160 11:55 22.02.2020
2518 Clouds 27 1010 94 10000 2.6 160 11:36 22.02.2020
2519 Clouds 27 1010 94 10000 2.6 160 11:18 22.02.2020
2520 Clouds 28 1009 88 10000 1.5 200 10:40 22.02.2020
2521 Clouds 28 1009 88 10000 1.5 200 10:20 22.02.2020
2522 Clouds 29 1009 79 10000 0.62 170 09:58 22.02.2020
2523 Clouds 29 1009 79 10000 0.62 170 09:38 22.02.2020
2524 Clouds 29 1009 79 10000 0.62 170 09:20 22.02.2020
2525 Clouds 30 1008 74 10000 0.62 170 08:46 22.02.2020
2526 Clouds 30 1008 74 10000 0.62 170 08:27 22.02.2020
2527 Clouds 30 1008 74 10000 0.62 170 08:27 22.02.2020
2528 Clouds 29 1007 79 10000 1.5 160 07:48 22.02.2020
2529 Clouds 29 1007 79 10000 1.5 160 07:48 22.02.2020
2530 Clouds 29 1007 79 10000 1.5 160 07:19 22.02.2020
2531 Clouds 29 1007 79 10000 3.1 200 06:47 22.02.2020
2532 Clouds 29 1007 79 10000 3.1 200 06:27 22.02.2020
2533 Thunderstorm 31 1008 70 10000 4.1 340 04:32 22.02.2020
2534 Clouds 32 1009 70 10000 4.6 360 03:21 22.02.2020
2535 Clouds 31 1010 70 10000 4.1 360 02:28 22.02.2020
2536 Clouds 31 1010 66 10000 3.1 340 01:41 22.02.2020
2537 Clouds 31 1010 66 10000 3.1 340 01:23 22.02.2020
2538 Clouds 32 1010 66 10000 2.1 50 00:41 22.02.2020
2539 Clouds 32 1010 66 10000 2.1 50 00:21 22.02.2020
2540 Clouds 29 1011 74 10000 1 140 23:42 21.02.2020
2541 Clouds 29 1011 74 10000 1 140 23:21 21.02.2020
2542 Clouds 26 1010 88 10000 1 180 22:43 21.02.2020
2543 Clouds 26 1010 88 10000 1 180 22:25 21.02.2020
2544 Clouds 24 1009 94 10000 1 160 21:57 21.02.2020
2545 Clouds 24 1009 94 10000 1 160 21:37 21.02.2020
2546 Clouds 24 1009 94 10000 1 160 21:19 21.02.2020
2547 Clouds 24 1009 94 10000 1 140 20:47 21.02.2020
2548 Clouds 24 1009 94 10000 1 140 20:27 21.02.2020
2549 Clouds 23 1008 88 0 1.55 196 19:41 21.02.2020
2550 Clouds 23 1008 88 0 1.55 196 19:23 21.02.2020
2551 Clouds 23 1008 88 0 1.55 196 18:45 21.02.2020
2552 Clouds 23 1008 88 0 1.55 196 18:24 21.02.2020
2553 Clouds 24 1008 94 10000 1 180 17:59 21.02.2020
2554 Clouds 24 1008 94 10000 1 180 17:39 21.02.2020
2555 Clouds 24 1008 94 10000 1 180 17:20 21.02.2020
2556 Clouds 25 1008 88 10000 1 200 16:56 21.02.2020
2557 Clouds 25 1008 88 10000 1 200 16:56 21.02.2020
2558 Clouds 25 1008 88 10000 1 200 16:38 21.02.2020
2559 Clouds 25 1008 88 10000 1 200 16:20 21.02.2020
2560 Clouds 24 1009 94 10000 2.1 230 15:44 21.02.2020
2561 Clouds 24 1009 94 10000 2.1 230 15:19 21.02.2020
2562 Clouds 24 1010 94 10000 1 170 14:54 21.02.2020
2563 Clouds 24 1010 94 10000 1 170 14:36 21.02.2020
2564 Clouds 24 1010 94 10000 1 170 14:18 21.02.2020
2565 Clouds 25 1010 94 10000 1 140 13:41 21.02.2020
2566 Clouds 25 1010 94 10000 1 140 13:21 21.02.2020
2567 Clouds 25 1010 94 10000 1.19 181 12:46 21.02.2020
2568 Clouds 25 1010 94 10000 1.19 181 12:27 21.02.2020
2569 Clouds 25 1009 94 10000 1 140 11:58 21.02.2020
2570 Clouds 25 1009 94 10000 1 140 11:38 21.02.2020
2571 Clouds 25 1009 94 10000 1 140 11:20 21.02.2020
2572 Clouds 26 1008 94 10000 1 160 10:42 21.02.2020
2573 Clouds 26 1008 94 10000 1 160 10:22 21.02.2020
2574 Clouds 26 1007 94 10000 1.55 211 09:58 21.02.2020
2575 Clouds 26 1007 94 10000 1.55 211 09:39 21.02.2020
2576 Clouds 26 1007 94 10000 1.55 211 09:20 21.02.2020
2577 Clouds 26 1007 94 10000 2.1 160 08:55 21.02.2020
2578 Clouds 26 1007 94 10000 2.1 160 08:36 21.02.2020
2579 Clouds 26 1007 94 10000 2.1 160 08:18 21.02.2020
2580 Clouds 27 1006 88 10000 1 290 07:41 21.02.2020
2581 Clouds 27 1006 88 10000 1 290 07:20 21.02.2020
2582 Rain 27 1006 88 10000 1 290 06:55 21.02.2020
2583 Rain 27 1006 88 10000 1 290 06:32 21.02.2020
2584 Rain 27 1007 88 10000 3.1 230 05:55 21.02.2020
2585 Thunderstorm 27 1007 88 10000 2.6 180 04:50 21.02.2020
2586 Thunderstorm 28 1008 78 10000 3.6 250 04:25 21.02.2020
2587 Thunderstorm 29 1008 83 10000 5.1 250 03:46 21.02.2020
2588 Rain 31 1008 74 10000 3.6 20 02:58 21.02.2020
2589 Rain 30 1009 79 10000 2.1 50 01:29 21.02.2020
2590 Clouds 30 1009 74 10000 1.5 50 00:46 21.02.2020
2591 Clouds 30 1009 74 10000 1.5 50 00:24 21.02.2020
2592 Clouds 29 1009 83 10000 2.1 290 23:47 20.02.2020
2593 Clouds 29 1009 83 10000 2.1 290 23:27 20.02.2020
2594 Clouds 26 1009 94 10000 1 140 23:00 20.02.2020
2595 Clouds 26 1009 94 10000 1 140 22:39 20.02.2020
2596 Clouds 26 1009 94 10000 1 140 22:20 20.02.2020
2597 Clouds 25 1008 100 10000 2.02 199 21:57 20.02.2020
2598 Clouds 25 1008 100 10000 2.02 199 21:37 20.02.2020
2599 Clouds 25 1008 100 10000 2.02 199 21:37 20.02.2020
2600 Clouds 25 1008 100 10000 2.02 199 21:19 20.02.2020
2601 Clouds 25 1007 100 10000 1 180 20:55 20.02.2020
2602 Clouds 25 1007 100 10000 1 180 20:37 20.02.2020
2603 Clouds 25 1007 100 10000 1 180 20:19 20.02.2020
2604 Clouds 25 1006 94 10000 1 180 19:58 20.02.2020
2605 Clouds 25 1006 94 10000 1 180 19:39 20.02.2020
2606 Clouds 25 1006 94 10000 1 180 19:21 20.02.2020
2607 Clouds 25 1006 100 10000 2.1 110 18:39 20.02.2020
2608 Clouds 25 1006 100 10000 2.1 110 18:39 20.02.2020
2609 Clouds 25 1006 100 10000 2.1 110 18:20 20.02.2020
2610 Clouds 26 1005 94 10000 2.03 200 17:54 20.02.2020
2611 Clouds 26 1005 94 10000 2.03 200 17:54 20.02.2020
2612 Clouds 26 1005 94 10000 2.03 200 17:36 20.02.2020
2613 Clouds 26 1006 94 10000 2.02 217 17:18 20.02.2020
2614 Clouds 26 1006 94 10000 2.02 217 16:54 20.02.2020
2615 Clouds 26 1006 94 10000 2.02 217 16:36 20.02.2020
2616 Clouds 26 1006 94 10000 2.02 217 16:18 20.02.2020
2617 Clouds 26 1007 94 10000 2.1 290 15:41 20.02.2020
2618 Clouds 26 1007 94 10000 2.1 290 15:20 20.02.2020
2619 Clouds 26 1008 94 10000 2.1 140 14:55 20.02.2020
2620 Clouds 26 1008 94 10000 2.1 140 14:37 20.02.2020
2621 Clouds 26 1008 94 10000 2.1 140 14:19 20.02.2020
2622 Clouds 27 1008 88 10000 1.5 230 13:44 20.02.2020
2623 Clouds 27 1008 88 10000 1.5 230 13:20 20.02.2020
2624 Clouds 27 1008 94 10000 1 180 12:58 20.02.2020
2625 Clouds 27 1008 94 10000 1 180 12:38 20.02.2020
2626 Clouds 27 1008 94 10000 1 180 12:19 20.02.2020
2627 Clouds 27 1007 88 10000 2.3 232 11:43 20.02.2020
2628 Clouds 27 1007 88 10000 2.3 232 11:23 20.02.2020
2629 Clouds 28 1006 83 10000 3.1 270 10:58 20.02.2020
2630 Clouds 28 1006 83 10000 3.1 270 10:40 20.02.2020
2631 Clouds 28 1006 83 10000 3.1 270 10:21 20.02.2020
2632 Clouds 28 1006 83 10000 3.1 270 10:21 20.02.2020
2633 Clouds 29 1005 83 0 4.6 290 09:46 20.02.2020
2634 Clouds 29 1005 83 0 4.6 290 09:25 20.02.2020
2635 Thunderstorm 29 1005 79 0 5.1 290 08:59 20.02.2020
2636 Thunderstorm 29 1005 79 0 5.1 290 08:39 20.02.2020
2637 Thunderstorm 29 1005 79 0 5.1 290 08:21 20.02.2020
2638 Clouds 31 1003 70 10000 5.7 290 07:45 20.02.2020
2639 Clouds 31 1003 70 10000 5.7 290 07:23 20.02.2020
2640 Clouds 31 1003 70 10000 6.2 290 06:53 20.02.2020
2641 Clouds 31 1003 70 10000 6.2 290 06:26 20.02.2020
2642 Clouds 31 1004 70 10000 8.2 270 05:46 20.02.2020
2643 Clouds 31 1004 66 10000 5.1 290 04:54 20.02.2020
2644 Clouds 31 1005 74 10000 4.1 290 03:58 20.02.2020
2645 Clouds 31 1005 74 10000 4.1 290 03:28 20.02.2020
2646 Clouds 28 1006 88 10000 4.1 270 02:23 20.02.2020
2647 Clouds 30 1007 79 10000 3.1 270 00:58 20.02.2020
2648 Clouds 30 1007 79 10000 3.1 270 00:31 20.02.2020
2649 Clouds 30 1006 79 10000 3.6 290 23:49 19.02.2020
2650 Clouds 30 1006 79 10000 3.6 290 23:22 19.02.2020
2651 Clouds 29 1006 79 10000 3.1 320 22:46 19.02.2020
2652 Clouds 29 1006 79 10000 3.1 320 22:28 19.02.2020
2653 Clouds 26 1005 88 10000 3.1 290 21:59 19.02.2020
2654 Clouds 26 1005 88 10000 3.1 290 21:41 19.02.2020
2655 Clouds 26 1005 88 10000 3.1 290 21:19 19.02.2020
2656 Clouds 26 1004 88 10000 3.1 290 20:58 19.02.2020
2657 Clouds 26 1004 88 10000 3.1 290 20:39 19.02.2020
2658 Clouds 26 1004 88 10000 3.1 290 20:20 19.02.2020
2659 Clouds 26 1004 88 10000 3.1 290 19:58 19.02.2020
2660 Clouds 26 1004 88 10000 3.1 290 19:38 19.02.2020
2661 Clouds 26 1004 88 10000 3.1 290 19:20 19.02.2020
2662 Clouds 26 1004 88 10000 3.1 270 18:58 19.02.2020
2663 Clouds 26 1004 88 10000 3.1 270 18:40 19.02.2020
2664 Clouds 26 1004 88 10000 3.1 270 18:21 19.02.2020
2665 Clouds 26 1004 88 10000 1.5 250 17:55 19.02.2020
2666 Clouds 26 1004 88 10000 1.5 250 17:37 19.02.2020
2667 Clouds 26 1004 88 10000 1.5 250 17:18 19.02.2020
2668 Clouds 26 1005 88 10000 1.5 290 16:41 19.02.2020
2669 Clouds 26 1005 88 10000 1.5 290 16:18 19.02.2020
2670 Clouds 27 1005 83 10000 3.1 290 15:44 19.02.2020
2671 Clouds 27 1005 83 10000 3.1 290 15:26 19.02.2020
2672 Clouds 27 1006 88 10000 4.6 290 14:59 19.02.2020
2673 Clouds 27 1006 88 10000 4.6 290 14:40 19.02.2020
2674 Clouds 27 1006 88 10000 4.6 290 14:21 19.02.2020
2675 Clouds 27 1006 88 10000 2.6 290 13:42 19.02.2020
2676 Clouds 27 1006 88 10000 2.6 290 13:23 19.02.2020
2677 Clouds 26 1006 94 10000 1.5 250 12:57 19.02.2020
2678 Clouds 26 1006 94 10000 1.5 250 12:37 19.02.2020
2679 Clouds 26 1006 94 10000 1.5 250 12:18 19.02.2020
2680 Clouds 26 1006 94 10000 2.6 290 11:39 19.02.2020
2681 Clouds 26 1006 94 10000 2.6 290 11:20 19.02.2020
2682 Clouds 27 1005 88 10000 2.1 320 10:58 19.02.2020
2683 Clouds 27 1005 88 10000 2.1 320 10:38 19.02.2020
2684 Clouds 27 1005 88 10000 2.1 320 10:20 19.02.2020
2685 Clouds 27 1004 88 10000 4.1 250 09:58 19.02.2020
2686 Clouds 27 1004 88 10000 4.1 250 09:38 19.02.2020
2687 Clouds 27 1004 88 10000 4.1 250 09:19 19.02.2020
2688 Clouds 29 1003 74 10000 4.1 250 08:46 19.02.2020
2689 Clouds 29 1003 74 10000 4.1 250 08:24 19.02.2020
2690 Clouds 31 1002 70 10000 4.1 250 07:44 19.02.2020
2691 Clouds 31 1002 70 10000 4.1 250 07:26 19.02.2020
2692 Clouds 33 1002 63 10000 6.2 270 06:57 19.02.2020
2693 Clouds 33 1002 63 10000 6.2 270 06:31 19.02.2020
2694 Clouds 33 1002 63 10000 6.7 320 04:25 19.02.2020
2695 Clouds 32 1004 70 10000 6.2 340 02:58 19.02.2020
2696 Clouds 32 1004 70 10000 6.2 340 02:31 19.02.2020
2697 Clouds 32 1004 66 10000 4.6 320 01:24 19.02.2020
2698 Clear 29 1005 62 0 2.84 309 00:51 19.02.2020
2699 Clear 29 1005 62 0 2.84 309 00:51 19.02.2020
2700 Clear 29 1005 62 0 2.84 309 00:31 19.02.2020
2701 Clouds 30 1005 70 10000 3.1 320 23:44 18.02.2020
2702 Clouds 30 1005 70 10000 3.1 320 23:21 18.02.2020
2703 Clouds 26 1004 83 10000 1.37 232 22:59 18.02.2020
2704 Clouds 26 1004 83 10000 1.37 232 22:41 18.02.2020
2705 Clouds 26 1004 83 10000 1.37 232 22:19 18.02.2020
2706 Clouds 23 1004 94 10000 1 180 21:56 18.02.2020
2707 Clouds 23 1004 94 10000 1 180 21:37 18.02.2020
2708 Clouds 23 1004 94 10000 1 180 21:19 18.02.2020
2709 Clouds 24 1003 88 10000 1.37 232 20:56 18.02.2020
2710 Clouds 24 1003 88 10000 1.37 232 20:38 18.02.2020
2711 Clouds 24 1003 88 10000 1.37 232 20:38 18.02.2020
2712 Clouds 24 1003 88 10000 1.37 232 20:38 18.02.2020
2713 Clouds 24 1003 88 10000 1.93 221 20:20 18.02.2020
2714 Clouds 24 1003 88 10000 1.93 221 19:43 18.02.2020
2715 Clouds 24 1003 88 10000 1.93 221 19:20 18.02.2020
2716 Clouds 25 1002 83 10000 3.1 200 18:59 18.02.2020
2717 Clouds 25 1002 83 10000 3.1 200 18:41 18.02.2020
2718 Clouds 25 1002 83 10000 3.1 200 18:20 18.02.2020
2719 Clouds 26 1003 88 10000 3.1 290 17:56 18.02.2020
2720 Clouds 26 1003 88 10000 3.1 290 17:37 18.02.2020
2721 Clouds 26 1003 88 10000 3.1 290 17:18 18.02.2020
2722 Clouds 26 1003 88 10000 3.1 290 16:39 18.02.2020
2723 Clouds 26 1003 88 10000 3.1 290 16:19 18.02.2020
2724 Clouds 25 1004 94 10000 1 200 15:40 18.02.2020
2725 Clouds 25 1004 94 10000 1 200 15:20 18.02.2020
2726 Clouds 26 1005 88 10000 1 200 14:57 18.02.2020
2727 Clouds 26 1005 88 10000 1 200 14:38 18.02.2020
2728 Clouds 26 1005 88 10000 1 200 14:20 18.02.2020
2729 Clouds 26 1005 88 10000 1.5 200 13:41 18.02.2020
2730 Clouds 26 1005 88 10000 1.5 200 13:22 18.02.2020
2731 Clouds 28 1004 78 10000 2.6 250 12:56 18.02.2020
2732 Clouds 28 1004 78 10000 2.6 250 12:38 18.02.2020
2733 Clouds 28 1004 78 10000 2.6 250 12:19 18.02.2020
2734 Clouds 28 1003 74 10000 4.1 270 11:43 18.02.2020
2735 Clouds 28 1003 74 10000 4.1 270 11:43 18.02.2020
2736 Clouds 28 1003 74 10000 4.1 270 11:25 18.02.2020
2737 Clouds 29 1003 66 10000 3.1 270 10:55 18.02.2020
2738 Clouds 29 1003 66 10000 3.1 270 10:37 18.02.2020
2739 Clouds 29 1003 66 10000 3.1 270 10:18 18.02.2020
2740 Clouds 30 1003 66 0 3.1 250 09:55 18.02.2020
2741 Clouds 30 1003 66 0 3.1 250 09:36 18.02.2020
2742 Clouds 30 1003 66 0 3.1 250 09:18 18.02.2020
2743 Clouds 31 1002 62 0 4.1 250 08:42 18.02.2020
2744 Clouds 31 1002 62 0 4.1 250 08:21 18.02.2020
2745 Clouds 32 1001 55 0 4.1 270 07:56 18.02.2020
2746 Clouds 32 1001 55 0 4.1 270 07:31 18.02.2020
2747 Clouds 33 1000 52 10000 5.1 250 06:56 18.02.2020
2748 Clouds 33 1000 52 10000 5.1 250 06:37 18.02.2020
2749 Clouds 35 1000 50 10000 7.2 250 05:59 18.02.2020
2750 Clouds 35 1000 50 10000 7.2 250 05:33 18.02.2020
2751 Clouds 31 1002 70 10000 5.1 360 03:59 18.02.2020
2752 Clouds 31 1003 70 10000 3.1 340 02:59 18.02.2020
2753 Clouds 32 1004 62 10000 1 340 01:58 18.02.2020
2754 Clouds 30 1004 74 10000 1 360 00:46 18.02.2020
2755 Clouds 30 1004 74 10000 1 360 00:46 18.02.2020
2756 Clouds 30 1004 74 10000 1 360 00:20 18.02.2020
2757 Clouds 29 1005 79 10000 1.12 264 23:44 17.02.2020
2758 Clouds 29 1005 79 10000 1.12 264 23:25 17.02.2020
2759 Clouds 27 1004 88 10000 1.36 194 22:59 17.02.2020
2760 Clouds 27 1004 88 10000 1.36 194 22:41 17.02.2020
2761 Clouds 27 1004 88 10000 1.36 194 22:20 17.02.2020
2762 Clouds 24 1003 100 10000 2.1 160 21:41 17.02.2020
2763 Clouds 24 1003 100 10000 2.1 160 21:20 17.02.2020
2764 Clouds 24 1003 94 10000 1.36 194 20:59 17.02.2020
2765 Clouds 24 1003 94 10000 1.36 194 20:39 17.02.2020
2766 Clouds 24 1003 94 10000 1.9 207 20:20 17.02.2020
2767 Clouds 24 1002 94 10000 1 140 19:55 17.02.2020
2768 Clouds 24 1002 94 10000 1 140 19:36 17.02.2020
2769 Clouds 24 1002 94 10000 1 140 19:18 17.02.2020
2770 Rain 23 1003 92 0 1.9 207 18:37 17.02.2020
2771 Rain 23 1003 92 0 1.9 207 18:37 17.02.2020
2772 Clouds 24 1002 100 10000 1.9 207 18:19 17.02.2020
2773 Clouds 24 1002 100 10000 1.9 207 17:54 17.02.2020
2774 Clouds 24 1002 100 10000 1.9 207 17:36 17.02.2020
2775 Clouds 24 1002 100 10000 2.24 218 17:18 17.02.2020
2776 Clouds 25 1003 88 10000 1.5 180 16:43 17.02.2020
2777 Clouds 25 1003 88 10000 1.5 180 16:22 17.02.2020
2778 Clouds 23 1004 88 0 2.24 218 15:57 17.02.2020
2779 Clouds 23 1004 88 0 2.24 218 15:39 17.02.2020
2780 Clouds 23 1004 88 0 2.24 218 15:39 17.02.2020
2781 Clouds 25 1004 94 10000 1.5 180 15:21 17.02.2020
2782 Clouds 25 1004 94 10000 1.5 180 14:44 17.02.2020
2783 Clouds 25 1004 94 10000 1.5 180 14:25 17.02.2020
2784 Rain 24 1005 94 10000 1.5 270 13:58 17.02.2020
2785 Rain 24 1005 94 10000 1.5 270 13:39 17.02.2020
2786 Rain 24 1005 94 10000 1.5 270 13:19 17.02.2020
2787 Clouds 28 1005 78 10000 2.1 270 12:44 17.02.2020
2788 Clouds 28 1005 78 10000 2.1 270 12:25 17.02.2020
2789 Clouds 27 1005 78 10000 2.6 290 11:58 17.02.2020
2790 Clouds 27 1005 78 10000 2.6 290 11:39 17.02.2020
2791 Clouds 27 1005 78 10000 2.6 290 11:20 17.02.2020
2792 Clouds 28 1004 74 10000 5.1 250 10:55 17.02.2020
2793 Clouds 28 1004 74 10000 5.1 250 10:37 17.02.2020
2794 Clouds 28 1004 74 10000 5.1 250 10:18 17.02.2020
2795 Clouds 29 1004 74 10000 6.2 270 09:41 17.02.2020
2796 -273 0 0 0 0 0 09:21 17.02.2020
2797 Clouds 30 1003 70 10000 4.1 290 08:58 17.02.2020
2798 Clouds 30 1003 70 10000 4.1 290 08:39 17.02.2020
2799 Clouds 30 1003 70 10000 4.1 290 08:19 17.02.2020
2800 Rain 30 1002 62 10000 8.7 250 07:44 17.02.2020
2801 Rain 30 1002 62 10000 8.7 250 07:23 17.02.2020
2802 Clouds 30 1001 66 10000 4.1 250 06:51 17.02.2020
2803 Clouds 30 1001 66 10000 4.1 250 06:32 17.02.2020
2804 Rain 24 1003 91 0 3.37 243 05:41 17.02.2020
2805 Rain 25 1003 88 0 3.37 247 04:59 17.02.2020
2806 Clouds 32 1003 66 10000 5.1 270 03:20 17.02.2020
2807 Clouds 29 1005 74 10000 4.1 290 01:47 17.02.2020
2808 Clouds 28 1005 83 10000 4.1 270 00:41 17.02.2020
2809 Clouds 28 1005 83 10000 4.1 270 00:19 17.02.2020
2810 Clouds 27 1005 88 10000 5.1 290 23:53 16.02.2020
2811 Clouds 27 1005 88 10000 5.1 290 23:29 16.02.2020
2812 Drizzle 26 1005 88 10000 6.2 290 22:57 16.02.2020
2813 Drizzle 26 1005 88 10000 6.2 290 22:38 16.02.2020
2814 Drizzle 26 1005 88 10000 6.2 290 22:20 16.02.2020
2815 Drizzle 26 1005 88 10000 6.2 290 22:20 16.02.2020
2816 -273 0 0 0 0 0 21:56 16.02.2020
2817 Drizzle 25 1004 94 10000 5.1 290 21:56 16.02.2020
2818 Drizzle 25 1004 94 10000 5.1 290 21:38 16.02.2020
2819 Drizzle 25 1004 94 10000 5.1 290 21:19 16.02.2020
2820 Clouds 25 1005 94 10000 4.1 270 20:56 16.02.2020
2821 Clouds 25 1005 94 10000 4.1 270 20:38 16.02.2020
2822 Clouds 25 1005 94 10000 4.1 270 20:19 16.02.2020
2823 Drizzle 26 1004 83 10000 5.1 270 19:56 16.02.2020
2824 Drizzle 26 1004 83 10000 5.1 270 19:36 16.02.2020
2825 Drizzle 26 1004 83 10000 5.1 270 19:18 16.02.2020
2826 Clouds 27 1003 83 10000 5.1 270 18:41 16.02.2020
2827 Clouds 27 1003 83 10000 5.1 270 18:23 16.02.2020
2828 Rain 27 1003 78 10000 3.1 270 17:45 16.02.2020
2829 Rain 27 1003 78 10000 3.1 270 17:21 16.02.2020
2830 Rain 28 1004 74 10000 3.1 290 16:57 16.02.2020
2831 Rain 28 1004 74 10000 3.1 290 16:39 16.02.2020
2832 Rain 28 1004 74 10000 3.1 290 16:39 16.02.2020
2833 Rain 28 1004 74 10000 3.1 290 16:21 16.02.2020
2834 Clouds 27 1004 83 10000 2.6 270 15:57 16.02.2020
2835 Clouds 27 1004 83 10000 2.6 270 15:37 16.02.2020
2836 Clouds 27 1004 83 10000 2.6 270 15:18 16.02.2020
2837 Clouds 27 1004 83 10000 4.1 270 14:39 16.02.2020
2838 Clouds 27 1004 83 10000 4.1 270 14:21 16.02.2020
2839 Clouds 27 1004 83 10000 3.1 250 13:47 16.02.2020
2840 Clouds 27 1004 83 10000 3.1 250 13:24 16.02.2020
2841 Clouds 27 1005 83 10000 2.1 250 12:56 16.02.2020
2842 Clouds 27 1005 83 10000 2.1 250 12:38 16.02.2020
2843 Clouds 27 1005 83 10000 2.1 250 12:19 16.02.2020
2844 Clouds 27 1005 83 10000 2.1 290 11:39 16.02.2020
2845 Clouds 27 1005 83 10000 2.1 290 11:18 16.02.2020
2846 Clouds 26 1004 83 10000 3.53 248 10:56 16.02.2020
2847 Clouds 26 1004 83 10000 3.53 248 10:38 16.02.2020
2848 Clouds 26 1004 83 10000 3.53 248 10:20 16.02.2020
2849 Clouds 28 1004 74 10000 4.1 270 09:55 16.02.2020
2850 Clouds 28 1004 74 10000 4.1 270 09:36 16.02.2020
2851 Clouds 28 1004 74 10000 4.1 270 09:18 16.02.2020
2852 Clouds 29 1003 79 10000 3.1 250 08:45 16.02.2020
2853 Clouds 29 1003 79 10000 3.1 250 08:21 16.02.2020
2854 Clouds 29 1003 79 10000 3.1 250 08:21 16.02.2020
2855 Clouds 29 1002 79 10000 4.1 290 07:52 16.02.2020
2856 Clouds 29 1002 79 10000 4.1 290 07:34 16.02.2020
2857 Rain 30 1002 74 10000 8.2 290 06:33 16.02.2020
2858 Drizzle 31 1003 70 10000 5.1 270 04:43 16.02.2020
2859 Clouds 33 1003 63 10000 6.7 290 03:29 16.02.2020
2860 Clouds 33 1004 59 10000 8.7 250 02:32 16.02.2020
2861 Clouds 32 1005 59 10000 6.7 250 01:42 16.02.2020
2862 Clouds 32 1005 59 10000 6.7 250 01:22 16.02.2020
2863 Clouds 31 1005 66 10000 2.6 270 00:52 16.02.2020
2864 Clouds 31 1005 66 10000 2.6 270 00:31 16.02.2020
2865 Rain 30 1005 74 10000 3.1 270 23:46 15.02.2020
2866 Rain 30 1005 74 10000 3.1 270 23:26 15.02.2020
2867 Clouds 28 1005 78 10000 3.6 290 22:59 15.02.2020
2868 Clouds 28 1005 78 10000 3.6 290 22:41 15.02.2020
2869 Clouds 28 1005 78 10000 3.6 290 22:21 15.02.2020
2870 Clouds 27 1004 83 10000 5.1 270 21:59 15.02.2020
2871 Clouds 27 1004 83 10000 5.1 270 21:39 15.02.2020
2872 Clouds 27 1004 83 10000 5.1 270 21:21 15.02.2020
2873 Clouds 27 1004 83 10000 3.6 270 20:40 15.02.2020
2874 Clouds 27 1004 83 10000 3.6 270 20:40 15.02.2020
2875 Clouds 27 1004 83 10000 3.6 270 20:21 15.02.2020
2876 Clouds 26 1003 88 10000 2.1 290 19:44 15.02.2020
2877 Clouds 26 1003 88 10000 2.1 290 19:22 15.02.2020
2878 Clouds 26 1003 88 10000 2.6 290 18:45 15.02.2020
2879 Clouds 26 1003 88 10000 2.6 290 18:24 15.02.2020
2880 Clouds 27 1003 78 10000 3.1 290 17:58 15.02.2020
2881 Clouds 27 1003 78 10000 3.1 290 17:58 15.02.2020
2882 Clouds 27 1003 78 10000 3.1 290 17:58 15.02.2020
2883 Clouds 27 1003 78 10000 3.1 290 17:39 15.02.2020
2884 Clouds 27 1003 78 10000 3.1 290 17:39 15.02.2020
2885 Clouds 27 1003 78 10000 3.1 290 17:21 15.02.2020
2886 Clouds 26 1004 88 10000 2.1 270 16:43 15.02.2020
2887 Clouds 26 1004 88 10000 2.1 270 16:25 15.02.2020
2888 Clouds 27 1005 83 10000 3.1 270 15:59 15.02.2020
2889 Clouds 27 1005 83 10000 3.1 270 15:41 15.02.2020
2890 Clouds 27 1005 83 10000 3.1 270 15:22 15.02.2020
2891 Clouds 27 1005 83 10000 4.1 290 14:45 15.02.2020
2892 Clouds 27 1005 83 10000 4.1 290 14:19 15.02.2020
2893 Clouds 26 1005 88 10000 2.6 270 13:56 15.02.2020
2894 Clouds 26 1005 88 10000 2.6 270 13:56 15.02.2020
2895 Clouds 26 1005 88 10000 2.6 270 13:38 15.02.2020
2896 Clouds 26 1005 88 10000 2.6 270 13:20 15.02.2020
2897 Clouds 27 1006 83 10000 3.6 270 12:42 15.02.2020
2898 Clouds 27 1006 83 10000 3.6 270 12:23 15.02.2020
2899 Clouds 27 1006 83 10000 3.6 250 11:49 15.02.2020
2900 Clouds 27 1006 83 10000 3.6 250 11:31 15.02.2020
2901 Clouds 28 1005 78 10000 2.6 320 10:56 15.02.2020
2902 Clouds 28 1005 78 10000 2.6 320 10:38 15.02.2020
2903 Clouds 28 1005 78 10000 2.6 320 10:19 15.02.2020
2904 Clouds 28 1005 78 10000 4.1 270 09:43 15.02.2020
2905 Clouds 28 1005 78 10000 4.1 270 09:25 15.02.2020
2906 Clouds 28 1004 78 10000 4.1 290 08:44 15.02.2020
2907 Clouds 28 1004 78 10000 4.1 290 08:25 15.02.2020
2908 Clouds 28 1003 78 10000 4.6 270 07:59 15.02.2020
2909 Clouds 28 1003 78 10000 4.6 270 07:38 15.02.2020
2910 Clouds 27 1003 83 10000 5.1 270 06:59 15.02.2020
2911 Clouds 27 1003 83 10000 5.1 270 06:36 15.02.2020
2912 Clouds 27 1004 88 0 5.1 270 05:46 15.02.2020
2913 Clouds 30 1004 74 10000 6.2 290 04:46 15.02.2020
2914 Rain 30 1005 79 10000 6.2 290 03:43 15.02.2020
2915 Rain 30 1006 74 10000 6.2 270 02:52 15.02.2020
2916 Rain 30 1006 74 10000 6.2 270 02:23 15.02.2020
2917 Clouds 29 1006 74 10000 4.1 290 01:40 15.02.2020
2918 Rain 30 1006 79 10000 5.1 270 00:42 15.02.2020
2919 Rain 30 1006 79 10000 5.1 270 00:21 15.02.2020
2920 Rain 29 1006 79 10000 3.6 290 23:42 14.02.2020
2921 Rain 29 1006 79 10000 3.6 290 23:20 14.02.2020
2922 Rain 27 1006 88 10000 2.1 270 22:44 14.02.2020
2923 Rain 27 1006 88 10000 2.1 270 22:23 14.02.2020
2924 Clouds 26 1005 88 10000 3.6 270 21:52 14.02.2020
2925 Clouds 26 1005 88 10000 3.6 270 21:34 14.02.2020
2926 Drizzle 26 1004 94 10000 3.6 290 20:59 14.02.2020
2927 Drizzle 26 1004 94 10000 3.6 290 20:41 14.02.2020
2928 Drizzle 26 1004 94 10000 3.6 290 20:19 14.02.2020
2929 Drizzle 26 1004 88 10000 3.1 290 19:43 14.02.2020
2930 Drizzle 26 1004 88 10000 3.1 290 19:25 14.02.2020
2931 Drizzle 25 1004 94 10000 1.5 290 18:59 14.02.2020
2932 Drizzle 25 1004 94 10000 1.5 290 18:41 14.02.2020
2933 Drizzle 25 1004 94 10000 1.5 290 18:22 14.02.2020
2934 Clouds 26 1004 88 10000 3.1 290 17:59 14.02.2020
2935 Clouds 26 1004 88 10000 3.1 290 17:40 14.02.2020
2936 Clouds 26 1004 88 10000 3.1 290 17:18 14.02.2020
2937 Drizzle 25 1005 100 10000 6.2 290 16:42 14.02.2020
2938 Drizzle 25 1005 100 10000 6.2 290 16:42 14.02.2020
2939 Drizzle 25 1005 100 10000 6.2 290 16:23 14.02.2020
2940 Drizzle 25 1005 100 10000 2.1 230 15:57 14.02.2020
2941 Drizzle 25 1005 100 10000 2.1 230 15:39 14.02.2020
2942 Drizzle 25 1005 100 10000 2.1 230 15:20 14.02.2020
2943 Drizzle 25 1006 100 0 3.1 290 14:59 14.02.2020
2944 Drizzle 25 1006 100 0 3.1 290 14:41 14.02.2020
2945 Drizzle 25 1006 100 0 3.1 290 14:22 14.02.2020
2946 Drizzle 26 1008 88 0 3.1 290 13:55 14.02.2020
2947 Drizzle 26 1008 88 0 3.1 290 13:55 14.02.2020
2948 Drizzle 26 1008 88 0 3.1 290 13:37 14.02.2020
2949 Drizzle 26 1008 88 0 3.1 290 13:19 14.02.2020
2950 Drizzle 25 1008 100 0 3.1 290 12:56 14.02.2020
2951 Drizzle 25 1008 100 0 3.1 290 12:38 14.02.2020
2952 Drizzle 25 1008 100 0 3.1 290 12:38 14.02.2020
2953 Drizzle 25 1008 100 0 3.1 290 12:19 14.02.2020
2954 Clouds 25 1007 100 0 3.1 270 11:55 14.02.2020
2955 Clouds 25 1007 100 0 3.1 270 11:36 14.02.2020
2956 Clouds 25 1007 100 0 3.1 270 11:18 14.02.2020
2957 Clouds 25 1007 100 0 3.1 200 10:41 14.02.2020
2958 Clouds 25 1007 100 0 3.1 200 10:22 14.02.2020
2959 Drizzle 27 1006 88 10000 1.5 270 09:44 14.02.2020
2960 Drizzle 27 1006 88 10000 1.5 270 09:23 14.02.2020
2961 Drizzle 27 1006 88 10000 1.5 270 09:23 14.02.2020
2962 Rain 28 1005 83 10000 4.1 290 08:57 14.02.2020
2963 Rain 28 1005 83 10000 4.1 290 08:38 14.02.2020
2964 Rain 28 1005 83 10000 4.1 290 08:20 14.02.2020
2965 Rain 29 1005 70 10000 5.1 270 07:49 14.02.2020
2966 Rain 29 1005 70 10000 5.1 270 07:29 14.02.2020
2967 Clouds 29 1004 79 10000 4.1 270 06:38 14.02.2020
2968 Clouds 29 1004 79 10000 4.1 270 06:18 14.02.2020
2969 Rain 28 1005 83 10000 3.6 270 05:28 14.02.2020
2970 Clouds 32 1005 70 10000 5.1 290 03:46 14.02.2020
2971 Clouds 31 1007 79 10000 4.6 340 02:53 14.02.2020
2972 Rain 32 1008 70 10000 4.6 320 01:55 14.02.2020
2973 Clouds 30 1008 79 10000 1 340 00:45 14.02.2020
2974 Clouds 30 1008 79 10000 1 340 00:25 14.02.2020
2975 Clouds 29 1008 83 10000 1.5 290 23:52 13.02.2020
2976 Clouds 29 1008 83 10000 1.5 290 23:25 13.02.2020
2977 Clouds 29 1008 83 10000 1.5 290 23:25 13.02.2020
2978 Clouds 26 1008 94 10000 1 250 23:00 13.02.2020
2979 Clouds 26 1008 94 10000 1 250 22:38 13.02.2020
2980 Clouds 26 1008 94 10000 1 250 22:19 13.02.2020
2981 Drizzle 26 1007 88 10000 1 290 21:43 13.02.2020
2982 Drizzle 26 1007 88 10000 1 290 21:24 13.02.2020
2983 Clouds 26 1007 94 10000 2.1 290 20:59 13.02.2020
2984 Clouds 26 1007 94 10000 2.1 290 20:40 13.02.2020
2985 Clouds 26 1007 94 10000 2.1 290 20:22 13.02.2020
2986 Clouds 26 1006 94 10000 1 320 19:57 13.02.2020
2987 Clouds 26 1006 94 10000 1 320 19:37 13.02.2020
2988 Clouds 26 1006 94 10000 1 320 19:19 13.02.2020
2989 Drizzle 25 1006 100 10000 1 250 18:45 13.02.2020
2990 Drizzle 25 1006 100 10000 1 250 18:25 13.02.2020
2991 Clouds 26 1006 94 10000 1 250 17:59 13.02.2020
2992 Clouds 26 1006 94 10000 1 250 17:40 13.02.2020
2993 Clouds 26 1006 94 10000 1 250 17:21 13.02.2020
2994 Clouds 26 1006 94 10000 1 250 17:21 13.02.2020
2995 Drizzle 26 1007 94 10000 1 270 16:58 13.02.2020
2996 Drizzle 26 1007 94 10000 1 270 16:38 13.02.2020
2997 Drizzle 26 1007 94 10000 1 270 16:19 13.02.2020
2998 Drizzle 26 1007 94 10000 1 270 16:19 13.02.2020
2999 Clouds 27 1008 88 10000 2.1 250 15:56 13.02.2020
3000 Clouds 27 1008 88 10000 2.1 250 15:37 13.02.2020
3001 Clouds 27 1008 88 10000 2.1 250 15:19 13.02.2020
3002 Drizzle 27 1009 88 10000 2.1 250 14:56 13.02.2020
3003 Drizzle 27 1009 88 10000 2.1 250 14:37 13.02.2020
3004 Drizzle 27 1009 88 10000 2.1 250 14:19 13.02.2020
3005 Drizzle 27 1009 88 10000 4.1 290 13:44 13.02.2020
3006 Drizzle 27 1009 88 10000 4.1 290 13:44 13.02.2020
3007 Drizzle 27 1009 88 10000 4.1 290 13:18 13.02.2020
3008 Drizzle 27 1009 88 10000 2.1 290 12:56 13.02.2020
3009 Drizzle 27 1009 88 10000 2.1 290 12:56 13.02.2020
3010 Drizzle 27 1009 88 10000 2.1 290 12:37 13.02.2020
3011 Drizzle 27 1009 88 10000 2.1 290 12:18 13.02.2020
3012 Clouds 27 1009 88 10000 5.1 290 11:43 13.02.2020
3013 Clouds 27 1009 88 10000 5.1 290 11:43 13.02.2020
3014 Clouds 27 1009 88 10000 5.1 290 11:43 13.02.2020
3015 Clouds 27 1009 88 10000 5.1 290 11:20 13.02.2020
3016 Clouds 28 1008 83 10000 4.1 290 10:46 13.02.2020
3017 Clouds 28 1008 83 10000 4.1 290 10:27 13.02.2020
3018 Clouds 28 1007 88 10000 2.1 250 09:51 13.02.2020
3019 Clouds 28 1007 88 10000 2.1 250 09:28 13.02.2020
3020 Clouds 29 1006 83 10000 2.1 290 08:58 13.02.2020
3021 Clouds 29 1006 83 10000 2.1 290 08:37 13.02.2020
3022 Clouds 29 1006 83 10000 2.1 290 08:18 13.02.2020
3023 Rain 29 1006 83 10000 2.6 320 07:39 13.02.2020
3024 Rain 29 1006 83 10000 2.6 320 07:20 13.02.2020
3025 Clouds 30 1005 79 10000 7.2 320 06:44 13.02.2020
3026 Clouds 30 1005 79 10000 7.2 320 06:44 13.02.2020
3027 Clouds 30 1005 79 10000 7.2 320 06:18 13.02.2020
3028 Clouds 30 1005 79 10000 5.1 320 05:30 13.02.2020
3029 Clouds 30 1006 79 10000 4.6 320 04:25 13.02.2020
3030 Clouds 30 1007 79 10000 5.1 290 03:47 13.02.2020
3031 Clouds 30 1007 79 10000 5.1 290 03:18 13.02.2020
3032 Clouds 30 1008 79 10000 3.6 290 02:48 13.02.2020
3033 Clouds 30 1008 79 10000 3.6 290 02:19 13.02.2020
3034 Clouds 29 1008 79 10000 5.1 290 01:28 13.02.2020
3035 Clouds 28 1009 88 10000 5.1 290 00:32 13.02.2020
3036 Clouds 28 1009 88 10000 5.1 270 23:58 12.02.2020
3037 Clouds 28 1009 88 10000 5.1 270 23:38 12.02.2020
3038 Clouds 28 1009 88 10000 5.1 270 23:19 12.02.2020
3039 Clouds 28 1008 88 10000 2.6 290 22:44 12.02.2020
3040 Clouds 28 1008 88 10000 2.6 290 22:24 12.02.2020
3041 Clouds 26 1007 94 10000 2.6 290 21:58 12.02.2020
3042 Clouds 26 1007 94 10000 2.6 290 21:39 12.02.2020
3043 Clouds 26 1007 94 10000 2.6 290 21:19 12.02.2020
3044 Clouds 25 1007 100 10000 2.1 270 20:55 12.02.2020
3045 Clouds 25 1007 100 10000 2.1 270 20:37 12.02.2020
3046 Clouds 25 1007 100 10000 2.1 270 20:18 12.02.2020
3047 Clouds 25 1007 100 10000 2.1 270 20:18 12.02.2020
3048 Rain 26 1007 94 10000 4.6 320 19:43 12.02.2020
3049 Rain 26 1007 94 10000 4.6 320 19:23 12.02.2020
3050 Clouds 26 1006 94 10000 1.5 270 18:54 12.02.2020
3051 Clouds 26 1006 94 10000 1.5 270 18:36 12.02.2020
3052 Clouds 26 1006 94 10000 1.5 270 18:18 12.02.2020
3053 Clouds 26 1006 94 10000 1.5 320 17:41 12.02.2020
3054 Clouds 26 1006 94 10000 1.5 320 17:19 12.02.2020
3055 Clouds 26 1007 94 10000 3.1 290 16:57 12.02.2020
3056 Clouds 26 1007 94 10000 3.1 290 16:37 12.02.2020
3057 Clouds 26 1007 94 10000 3.1 290 16:18 12.02.2020
3058 Clouds 26 1007 94 10000 2.6 290 15:39 12.02.2020
3059 Clouds 26 1007 94 10000 2.6 290 15:20 12.02.2020
3060 Clouds 24 1006 83 0 2.48 239 14:43 12.02.2020
3061 Clouds 24 1009 86 0 2.5 241 14:21 12.02.2020
3062 Clouds 24 1009 87 0 2.33 243 13:59 12.02.2020
3063 Clouds 24 1009 87 0 2.33 243 13:41 12.02.2020
3064 Clouds 24 1009 86 0 2.5 241 13:22 12.02.2020
3065 Clouds 26 1008 100 10000 2.6 290 12:58 12.02.2020
3066 Clouds 26 1008 100 10000 2.6 290 12:39 12.02.2020
3067 Clouds 26 1008 100 10000 2.6 290 12:19 12.02.2020
3068 Clouds 26 1008 94 10000 3.1 290 11:59 12.02.2020
3069 Clouds 26 1008 94 10000 3.1 290 11:40 12.02.2020
3070 Clouds 26 1008 94 10000 3.1 290 11:21 12.02.2020
3071 Rain 26 1008 94 10000 3.1 290 10:58 12.02.2020
3072 Rain 26 1008 94 10000 3.1 290 10:40 12.02.2020
3073 Rain 26 1008 94 10000 3.1 290 10:20 12.02.2020
3074 Rain 26 1007 94 10000 3.1 270 09:42 12.02.2020
3075 Rain 26 1007 94 10000 3.1 270 09:42 12.02.2020
3076 Rain 26 1007 94 10000 3.1 270 09:24 12.02.2020
3077 Rain 26 1007 94 10000 3.1 270 09:24 12.02.2020
3078 Rain 27 1007 94 0 3.1 290 08:59 12.02.2020
3079 Rain 27 1007 94 0 3.1 290 08:38 12.02.2020
3080 Rain 27 1007 94 0 3.1 290 08:20 12.02.2020
3081 Rain 27 1007 94 0 3.1 290 08:20 12.02.2020
3082 Rain 29 1005 79 10000 4.1 290 07:58 12.02.2020
3083 Rain 29 1005 79 10000 4.1 290 07:58 12.02.2020
3084 Rain 29 1005 79 10000 4.1 290 07:39 12.02.2020
3085 Rain 29 1005 79 10000 4.1 290 07:19 12.02.2020
3086 Rain 29 1005 79 10000 4.1 290 07:19 12.02.2020
3087 Clouds 29 1005 83 10000 3.1 270 06:41 12.02.2020
3088 Clouds 29 1005 83 10000 3.1 270 06:18 12.02.2020
3089 Clouds 28 1005 88 10000 4.1 290 05:21 12.02.2020
3090 Rain 28 1006 88 10000 3.1 290 04:41 12.02.2020
3091 Clouds 28 1007 83 10000 4.1 270 03:57 12.02.2020
3092 Clouds 28 1007 83 10000 4.1 270 03:28 12.02.2020
3093 Clouds 33 1006 63 10000 4.1 270 02:41 12.02.2020
3094 -273 0 0 0 0 0 02:21 12.02.2020
3095 Clouds 33 1007 63 10000 6.2 250 01:27 12.02.2020
3096 Clouds 31 1007 74 10000 2.1 270 00:39 12.02.2020
3097 Clouds 31 1007 74 10000 2.1 270 00:21 12.02.2020
3098 Clouds 30 1007 79 10000 3.1 290 23:45 11.02.2020
3099 Clouds 30 1007 79 10000 3.1 290 23:27 11.02.2020
3100 Rain 29 1006 74 10000 3.1 290 22:56 11.02.2020
3101 Rain 29 1006 74 10000 3.1 290 22:38 11.02.2020
3102 Rain 29 1006 74 10000 3.1 290 22:19 11.02.2020
3103 Clouds 27 1006 83 10000 4.1 270 21:56 11.02.2020
3104 Clouds 27 1006 83 10000 4.1 270 21:37 11.02.2020
3105 Clouds 27 1006 83 10000 4.1 270 21:18 11.02.2020
3106 Clouds 27 1006 83 10000 4.1 270 21:18 11.02.2020
3107 Clouds 27 1005 83 10000 3.1 290 20:56 11.02.2020
3108 Clouds 27 1005 83 10000 3.1 290 20:37 11.02.2020
3109 Clouds 27 1005 83 10000 3.1 290 20:18 11.02.2020
3110 Clouds 28 1005 74 10000 4.1 270 19:42 11.02.2020
3111 Clouds 28 1005 74 10000 4.1 270 19:24 11.02.2020
3112 Clouds 28 1005 74 10000 4.1 270 19:24 11.02.2020
3113 Rain 23 1006 90 0 2.69 240 18:57 11.02.2020
3114 Rain 23 1006 90 0 2.69 240 18:57 11.02.2020
3115 Rain 23 1006 90 0 2.69 240 18:39 11.02.2020
3116 Clouds 28 1005 78 10000 4.1 270 18:20 11.02.2020
3117 Clouds 28 1005 78 10000 4.1 270 17:55 11.02.2020
3118 Clouds 28 1005 78 10000 4.1 270 17:36 11.02.2020
3119 Clouds 28 1005 78 10000 4.1 270 17:36 11.02.2020
3120 Clouds 28 1005 78 10000 4.1 270 17:18 11.02.2020
3121 Clouds 28 1006 74 10000 4.1 270 16:56 11.02.2020
3122 Clouds 28 1006 74 10000 4.1 270 16:37 11.02.2020
3123 Clouds 28 1006 74 10000 4.1 270 16:19 11.02.2020
3124 Clouds 28 1006 74 10000 6.2 270 15:44 11.02.2020
3125 Clouds 28 1006 74 10000 6.2 270 15:26 11.02.2020
3126 Clouds 28 1007 78 10000 4.1 290 14:56 11.02.2020
3127 Clouds 28 1007 78 10000 4.1 290 14:36 11.02.2020
3128 Clouds 28 1007 78 10000 4.1 290 14:36 11.02.2020
3129 Clouds 28 1007 78 10000 4.1 290 14:18 11.02.2020
3130 Clouds 29 1007 74 10000 7.2 290 13:41 11.02.2020
3131 Clouds 29 1007 74 10000 7.2 290 13:21 11.02.2020
3132 Clouds 29 1007 74 10000 7.2 290 13:21 11.02.2020
3133 Clouds 28 1006 78 10000 4.1 290 12:58 11.02.2020
3134 Clouds 28 1006 78 10000 4.1 290 12:40 11.02.2020
3135 Clouds 28 1006 78 10000 4.1 290 12:20 11.02.2020
3136 Clouds 28 1006 78 10000 4.1 290 11:42 11.02.2020
3137 Clouds 28 1006 78 10000 4.1 290 11:21 11.02.2020
3138 Clouds 28 1005 83 10000 5.1 270 10:57 11.02.2020
3139 Clouds 28 1005 83 10000 5.1 270 10:38 11.02.2020
3140 Clouds 28 1005 83 10000 5.1 270 10:20 11.02.2020
3141 Clouds 28 1005 78 10000 3.1 290 09:55 11.02.2020
3142 Clouds 28 1005 78 10000 3.1 290 09:37 11.02.2020
3143 Clouds 28 1005 78 10000 3.1 290 09:19 11.02.2020
3144 Clouds 29 1004 79 10000 5.1 270 08:42 11.02.2020
3145 Clouds 29 1004 79 10000 5.1 270 08:23 11.02.2020
3146 Clouds 30 1004 74 10000 5.1 270 07:48 11.02.2020
3147 Clouds 30 1004 74 10000 5.1 270 07:26 11.02.2020
3148 Clouds 30 1004 79 10000 6.2 290 06:44 11.02.2020
3149 Clouds 30 1004 79 10000 6.2 290 06:22 11.02.2020
3150 Rain 30 1004 84 10000 4.6 290 05:54 11.02.2020
3151 Rain 30 1004 84 10000 4.6 290 05:24 11.02.2020
3152 Clouds 31 1005 79 10000 6.2 320 04:39 11.02.2020
3153 Clouds 30 1006 79 10000 7.2 290 02:53 11.02.2020
3154 Clouds 30 1006 79 10000 7.2 290 02:27 11.02.2020
3155 Clouds 29 1007 83 10000 2.1 320 01:36 11.02.2020
3156 Clouds 28 1007 88 10000 2.6 270 00:40 11.02.2020
3157 Clouds 28 1007 88 0 1.5 270 23:57 10.02.2020
3158 Clouds 28 1007 88 0 1.5 270 23:38 10.02.2020
3159 Clouds 28 1007 88 0 1.5 270 23:19 10.02.2020
3160 Clouds 26 1007 94 10000 1.5 270 22:40 10.02.2020
3161 Clouds 26 1007 94 10000 1.5 270 22:20 10.02.2020
3162 Clouds 26 1006 94 10000 1 250 21:43 10.02.2020
3163 Clouds 26 1006 94 10000 1 250 21:25 10.02.2020
3164 Clouds 27 1005 88 10000 1 290 20:58 10.02.2020
3165 Clouds 27 1005 88 10000 1 290 20:38 10.02.2020
3166 Clouds 27 1005 88 10000 1 290 20:20 10.02.2020
3167 Clouds 27 1005 88 10000 2.6 320 19:58 10.02.2020
3168 Clouds 27 1005 88 10000 2.6 320 19:38 10.02.2020
3169 Clouds 27 1005 88 10000 2.6 320 19:19 10.02.2020
3170 Clouds 26 1004 94 10000 2.1 270 18:58 10.02.2020
3171 Clouds 26 1004 94 10000 2.1 270 18:39 10.02.2020
3172 Clouds 26 1004 94 10000 2.1 270 18:20 10.02.2020
3173 Clouds 26 1004 94 10000 2.1 290 17:56 10.02.2020
3174 Clouds 26 1004 94 10000 2.1 290 17:37 10.02.2020
3175 Clouds 26 1004 94 10000 2.1 290 17:19 10.02.2020
3176 Clouds 27 1005 88 10000 2.6 320 16:58 10.02.2020
3177 Clouds 27 1005 88 10000 2.6 320 16:38 10.02.2020
3178 Clouds 27 1005 88 10000 2.6 320 16:18 10.02.2020
3179 Clouds 27 1005 88 10000 3.1 290 15:42 10.02.2020
3180 Clouds 27 1005 88 10000 3.1 290 15:22 10.02.2020
3181 Clouds 27 1006 88 10000 2.6 290 14:59 10.02.2020
3182 Clouds 27 1006 88 10000 2.6 290 14:41 10.02.2020
3183 Clouds 27 1006 88 10000 2.6 290 14:19 10.02.2020
3184 Clouds 27 1007 83 10000 3.6 290 13:56 10.02.2020
3185 Clouds 27 1007 83 10000 3.6 290 13:37 10.02.2020
3186 Clouds 27 1007 83 10000 3.6 290 13:18 10.02.2020
3187 Clouds 27 1006 88 10000 4.1 290 12:43 10.02.2020
3188 Clouds 27 1006 88 10000 4.1 290 12:43 10.02.2020
3189 Clouds 27 1006 88 10000 4.1 290 12:24 10.02.2020
3190 Clouds 27 1006 88 10000 4.6 290 11:55 10.02.2020
3191 Clouds 27 1006 88 10000 4.6 290 11:36 10.02.2020
3192 Clouds 27 1006 88 10000 4.6 290 11:18 10.02.2020
3193 Drizzle 27 1005 88 10000 2.1 290 10:44 10.02.2020
3194 Drizzle 27 1005 88 10000 2.1 290 10:26 10.02.2020
3195 Clouds 27 1004 88 10000 1.5 200 09:45 10.02.2020
3196 Clouds 27 1004 88 10000 1.5 200 09:24 10.02.2020
3197 Clouds 28 1003 88 10000 3.6 290 08:43 10.02.2020
3198 Clouds 28 1003 88 10000 3.6 290 08:22 10.02.2020
3199 Clouds 29 1003 79 10000 6.2 290 07:58 10.02.2020
3200 Clouds 29 1003 79 10000 6.2 290 07:36 10.02.2020
3201 Clouds 29 1004 83 10000 4.1 290 06:58 10.02.2020
3202 Clouds 29 1004 83 10000 4.1 290 05:41 10.02.2020
3203 Drizzle 28 1004 88 10000 5.1 290 04:23 10.02.2020
3204 Rain 29 1004 83 10000 4.6 320 03:28 10.02.2020
3205 Clouds 30 1005 79 10000 3.6 290 02:51 10.02.2020
3206 Drizzle 28 1005 88 10000 5.1 290 01:34 10.02.2020
3207 Rain 27 1006 94 10000 4.1 290 00:45 10.02.2020
3208 Rain 27 1006 94 10000 4.1 290 00:27 10.02.2020
3209 Rain 26 1005 94 0 8.2 290 23:43 09.02.2020
3210 Rain 26 1005 94 0 8.2 290 23:24 09.02.2020
3211 Rain 26 1005 100 0 1.5 270 22:54 09.02.2020
3212 Drizzle 27 1005 88 10000 3.6 230 22:36 09.02.2020
3213 Drizzle 27 1005 88 10000 3.6 230 22:18 09.02.2020
3214 Clouds 27 1004 88 10000 3.1 290 21:40 09.02.2020
3215 Clouds 27 1004 88 10000 3.1 290 21:40 09.02.2020
3216 Clouds 27 1004 88 10000 3.1 290 21:21 09.02.2020
3217 Clouds 27 1003 88 10000 4.6 270 20:45 09.02.2020
3218 Clouds 27 1003 88 10000 4.6 270 20:22 09.02.2020
3219 Clouds 27 1003 83 10000 4.1 290 19:55 09.02.2020
3220 Clouds 27 1003 83 10000 4.1 290 19:37 09.02.2020
3221 Clouds 27 1003 83 10000 4.1 290 19:18 09.02.2020
3222 Clouds 27 1002 83 10000 3.1 270 18:42 09.02.2020
3223 Clouds 27 1002 83 10000 3.1 270 18:23 09.02.2020
3224 Clouds 27 1002 88 10000 3.6 270 17:58 09.02.2020
3225 Clouds 27 1002 88 10000 3.6 270 17:39 09.02.2020
3226 Clouds 27 1002 88 10000 3.6 270 17:20 09.02.2020
3227 Clouds 27 1003 88 10000 4.1 290 16:41 09.02.2020
3228 Clouds 27 1003 88 10000 4.1 290 16:22 09.02.2020
3229 Clouds 27 1003 88 10000 3.6 290 15:58 09.02.2020
3230 Clouds 27 1003 88 10000 3.6 290 15:40 09.02.2020
3231 Clouds 27 1003 88 10000 3.6 290 15:21 09.02.2020
3232 Clouds 27 1004 88 10000 4.6 290 14:56 09.02.2020
3233 Clouds 27 1004 88 10000 4.6 290 14:36 09.02.2020
3234 Clouds 27 1004 88 10000 4.6 290 14:18 09.02.2020
3235 Clouds 25 1004 100 10000 4.1 270 13:42 09.02.2020
3236 Clouds 25 1004 100 10000 4.1 270 13:23 09.02.2020
3237 Clouds 26 1004 94 10000 2.1 270 12:54 09.02.2020
3238 Clouds 26 1004 94 10000 2.1 270 12:36 09.02.2020
3239 Clouds 26 1004 94 10000 2.1 270 12:18 09.02.2020
3240 Drizzle 26 1004 94 10000 3.1 270 11:39 09.02.2020
3241 Drizzle 26 1004 94 10000 3.1 270 11:19 09.02.2020
3242 Drizzle 26 1004 94 10000 7.2 290 10:43 09.02.2020
3243 Drizzle 26 1004 94 10000 7.2 290 10:23 09.02.2020
3244 Drizzle 26 1004 100 10000 7.2 290 09:57 09.02.2020
3245 Drizzle 26 1004 100 10000 7.2 290 09:38 09.02.2020
3246 Drizzle 26 1004 100 10000 7.2 290 09:38 09.02.2020
3247 Drizzle 26 1004 100 10000 7.2 290 09:19 09.02.2020
3248 Drizzle 26 1003 100 10000 4.1 290 08:39 09.02.2020
3249 Drizzle 26 1003 100 10000 4.1 290 08:20 09.02.2020
3250 Drizzle 27 1003 94 10000 3.1 290 07:51 09.02.2020
3251 Clouds 27 1001 94 10000 4.1 290 06:59 09.02.2020
3252 Clouds 27 1001 94 10000 4.1 290 06:36 09.02.2020
3253 Clouds 27 1002 100 10000 5.7 290 05:52 09.02.2020
3254 Clouds 27 1002 100 10000 5.7 290 05:52 09.02.2020
3255 Clouds 27 1002 100 10000 5.7 290 05:32 09.02.2020
3256 Drizzle 28 1003 88 10000 3.1 290 04:23 09.02.2020
3257 Drizzle 26 1004 94 10000 3.6 270 02:49 09.02.2020
3258 Rain 27 1004 94 10000 5.1 320 02:30 09.02.2020
3259 Clouds 30 1004 79 10000 4.1 290 01:36 09.02.2020
3260 Clouds 30 1004 79 10000 4.6 290 00:55 09.02.2020
3261 Clouds 30 1004 79 10000 4.6 290 00:29 09.02.2020
3262 Clouds 29 1004 83 10000 3.1 290 23:48 08.02.2020
3263 Clouds 29 1004 83 10000 3.1 290 23:23 08.02.2020
3264 Clouds 28 1003 83 10000 3.6 290 22:55 08.02.2020
3265 Clouds 28 1003 83 10000 3.6 290 22:37 08.02.2020
3266 Clouds 28 1003 83 10000 3.6 290 22:19 08.02.2020
3267 Clouds 27 1003 83 10000 2.6 320 21:42 08.02.2020
3268 Clouds 27 1003 83 10000 2.6 320 21:24 08.02.2020
3269 Clouds 26 1002 88 10000 3.1 290 20:58 08.02.2020
3270 Clouds 26 1002 88 10000 3.1 290 20:39 08.02.2020
3271 Clouds 26 1002 88 10000 3.1 290 20:19 08.02.2020
3272 Clouds 25 1001 94 10000 1 290 19:55 08.02.2020
3273 Clouds 25 1001 94 10000 1 290 19:37 08.02.2020
3274 Clouds 25 1001 94 10000 1 290 19:19 08.02.2020
3275 Clouds 25 1001 94 10000 1 290 19:19 08.02.2020
3276 Rain 27 1002 83 10000 3.1 270 18:43 08.02.2020
3277 Rain 27 1002 83 10000 3.1 270 18:24 08.02.2020
3278 Clouds 27 1001 83 10000 4.6 250 17:44 08.02.2020
3279 Clouds 27 1001 83 10000 4.6 250 17:22 08.02.2020
3280 Clouds 28 1002 78 10000 4.6 290 16:59 08.02.2020
3281 Clouds 28 1002 78 10000 4.6 290 16:40 08.02.2020
3282 Clouds 28 1002 78 10000 4.6 290 16:21 08.02.2020
3283 Clouds 27 1002 83 10000 4.6 320 15:43 08.02.2020
3284 Clouds 27 1002 83 10000 4.6 320 15:19 08.02.2020
3285 Rain 27 1003 83 10000 4.6 320 14:59 08.02.2020
3286 Rain 27 1003 83 10000 4.6 320 14:40 08.02.2020
3287 Rain 27 1003 83 10000 4.6 320 14:19 08.02.2020
3288 Rain 27 1004 83 10000 3.6 270 13:43 08.02.2020
3289 Rain 27 1004 83 10000 3.6 270 13:23 08.02.2020
3290 Clouds 27 1004 83 10000 3.6 290 12:57 08.02.2020
3291 Clouds 27 1004 83 10000 3.6 290 12:37 08.02.2020
3292 Clouds 27 1004 83 10000 3.6 290 12:37 08.02.2020
3293 Clouds 27 1004 83 10000 3.6 290 12:19 08.02.2020
3294 Clouds 27 1004 83 10000 3.6 290 12:19 08.02.2020
3295 Clouds 27 1004 83 10000 3.6 290 12:19 08.02.2020
3296 Rain 27 1004 78 10000 5.1 270 11:41 08.02.2020
3297 Rain 27 1004 78 10000 5.1 270 11:21 08.02.2020
3298 Drizzle 27 1003 78 10000 5.7 270 10:43 08.02.2020
3299 Drizzle 27 1003 78 10000 5.7 270 10:25 08.02.2020
3300 Drizzle 26 1003 88 10000 4.1 290 09:55 08.02.2020
3301 Drizzle 26 1003 88 10000 4.1 290 09:36 08.02.2020
3302 Drizzle 26 1003 88 10000 4.1 290 09:18 08.02.2020
3303 Drizzle 27 1003 88 10000 3.6 270 08:39 08.02.2020
3304 Drizzle 27 1003 88 10000 3.6 270 08:21 08.02.2020
3305 Clouds 28 1002 83 10000 4.1 270 07:50 08.02.2020
3306 Clouds 28 1002 83 10000 4.1 270 07:31 08.02.2020
3307 Clouds 31 1001 70 10000 5.1 270 06:33 08.02.2020
3308 Clouds 32 1001 66 10000 7.2 270 05:57 08.02.2020
3309 Clouds 32 1001 66 10000 7.2 270 05:31 08.02.2020
3310 Rain 32 1002 59 10000 7.2 270 04:51 08.02.2020
3311 Clouds 31 1003 70 10000 5.7 270 03:57 08.02.2020
3312 Clouds 31 1004 70 10000 7.2 270 02:58 08.02.2020
3313 Clouds 31 1004 70 10000 7.2 270 02:24 08.02.2020
3314 Clouds 31 1005 66 10000 6.7 250 01:28 08.02.2020
3315 Clouds 31 1004 70 10000 7.2 250 00:45 08.02.2020
3316 Clouds 31 1004 70 10000 7.2 250 00:23 08.02.2020
3317 Clouds 30 1004 79 10000 4.1 270 23:56 07.02.2020
3318 Clouds 30 1004 79 10000 4.1 270 23:37 07.02.2020
3319 Clouds 30 1004 79 10000 4.1 270 23:19 07.02.2020
3320 Clouds 30 1003 74 10000 3.4 247 22:41 07.02.2020
3321 Clouds 30 1003 74 10000 3.4 247 22:41 07.02.2020
3322 Clouds 30 1003 74 10000 3.4 247 22:19 07.02.2020
3323 Clouds 28 1003 83 10000 4.1 290 21:44 07.02.2020
3324 Clouds 28 1003 83 10000 4.1 290 21:23 07.02.2020
3325 Clouds 27 1003 88 10000 3.6 270 20:59 07.02.2020
3326 Clouds 27 1003 88 10000 3.6 270 20:38 07.02.2020
3327 Clouds 27 1003 88 10000 3.6 270 20:18 07.02.2020
3328 Clouds 27 1003 94 10000 3.6 290 19:43 07.02.2020
3329 Clouds 27 1003 94 10000 3.6 290 19:22 07.02.2020
3330 Clouds 27 1003 88 10000 4.1 290 18:58 07.02.2020
3331 Clouds 27 1003 88 10000 4.1 290 18:40 07.02.2020
3332 Clouds 27 1003 88 10000 4.1 290 18:21 07.02.2020
3333 Clouds 27 1003 94 10000 4.1 290 17:43 07.02.2020
3334 Clouds 27 1003 94 10000 4.1 290 17:22 07.02.2020
3335 Clouds 27 1004 94 10000 6.2 290 16:57 07.02.2020
3336 Clouds 27 1004 94 10000 6.2 290 16:39 07.02.2020
3337 Clouds 27 1004 94 10000 6.2 290 16:20 07.02.2020
3338 Clouds 26 1005 100 10000 4.1 290 15:48 07.02.2020
3339 Clouds 26 1005 100 10000 4.1 290 15:27 07.02.2020
3340 Rain 24 1004 91 0 3.03 261 14:46 07.02.2020
3341 Rain 24 1004 91 0 3.03 261 14:26 07.02.2020
3342 Rain 24 1007 89 0 3.5 267 13:58 07.02.2020
3343 Rain 24 1007 89 0 3.5 267 13:39 07.02.2020
3344 Thunderstorm 26 1007 100 10000 2.6 290 13:21 07.02.2020
3345 Thunderstorm 26 1007 100 10000 2.6 290 13:21 07.02.2020
3346 Thunderstorm 26 1007 100 10000 2.6 290 12:55 07.02.2020
3347 Thunderstorm 26 1007 100 10000 2.6 290 12:37 07.02.2020
3348 Thunderstorm 26 1007 100 10000 2.6 290 12:19 07.02.2020
3349 Clouds 27 1006 94 10000 1.5 270 11:42 07.02.2020
3350 Clouds 27 1006 94 10000 1.5 270 11:20 07.02.2020
3351 Rain 24 1005 90 0 3.63 265 10:42 07.02.2020
3352 Clouds 27 1005 94 10000 2.6 290 10:24 07.02.2020
3353 Clouds 27 1005 94 10000 2.6 290 09:56 07.02.2020
3354 Clouds 27 1005 94 10000 2.6 290 09:37 07.02.2020
3355 Clouds 27 1005 94 10000 2.6 290 09:19 07.02.2020
3356 Clouds 27 1004 100 10000 3.63 265 08:42 07.02.2020
3357 Clouds 27 1004 100 10000 3.43 265 08:21 07.02.2020
3358 Clouds 28 1004 88 10000 7.7 290 07:45 07.02.2020
3359 Clouds 28 1004 88 10000 7.7 290 07:26 07.02.2020
3360 Clouds 28 1004 88 10000 3.1 290 06:46 07.02.2020
3361 Clouds 28 1004 88 10000 3.1 290 06:26 07.02.2020
3362 Clouds 27 1004 94 10000 2.6 270 05:45 07.02.2020
3363 Drizzle 27 1005 94 10000 3.1 290 04:42 07.02.2020
3364 Drizzle 26 1008 94 10000 2.1 320 02:50 07.02.2020
3365 Drizzle 26 1008 94 10000 1.5 250 01:42 07.02.2020
3366 Rain 26 1008 100 10000 1 250 00:48 07.02.2020
3367 Rain 26 1008 100 10000 1 250 00:19 07.02.2020
3368 Rain 26 1008 100 10000 1 250 00:19 07.02.2020
3369 Rain 25 1007 100 10000 3.1 320 23:37 06.02.2020
3370 Rain 25 1007 100 10000 3.1 320 23:19 06.02.2020
3371 Rain 25 1006 89 0 3.41 268 22:44 06.02.2020
3372 Drizzle 26 1005 100 10000 2.1 290 22:24 06.02.2020
3373 Drizzle 26 1005 100 10000 2.1 290 21:38 06.02.2020
3374 Drizzle 26 1005 100 10000 2.1 290 21:19 06.02.2020
3375 Drizzle 26 1005 100 10000 4.1 290 20:58 06.02.2020
3376 Drizzle 26 1005 100 10000 4.1 290 20:39 06.02.2020
3377 Drizzle 26 1005 100 10000 4.1 290 20:19 06.02.2020
3378 Rain 27 1004 88 10000 4.1 290 19:58 06.02.2020
3379 Rain 27 1004 88 10000 4.1 290 19:40 06.02.2020
3380 Rain 27 1004 88 10000 4.1 290 19:21 06.02.2020
3381 Rain 26 1004 100 10000 3.1 320 18:58 06.02.2020
3382 Rain 26 1004 100 10000 3.1 320 18:39 06.02.2020
3383 Rain 26 1004 100 10000 3.1 320 18:20 06.02.2020
3384 Rain 26 1004 94 10000 2.1 320 17:42 06.02.2020
3385 Rain 26 1004 94 10000 2.1 320 17:21 06.02.2020
3386 Rain 27 1005 88 10000 4.1 290 16:54 06.02.2020
3387 Rain 27 1005 88 10000 4.1 290 16:36 06.02.2020
3388 Rain 27 1005 88 10000 4.1 290 16:18 06.02.2020
3389 Clouds 26 1005 100 10000 3.1 270 15:41 06.02.2020
3390 Clouds 26 1005 100 10000 3.1 270 15:21 06.02.2020
3391 Clouds 26 1005 94 10000 2.1 290 14:47 06.02.2020
3392 Clouds 26 1006 94 10000 5.1 320 14:26 06.02.2020
3393 Clouds 26 1006 94 10000 5.1 320 13:54 06.02.2020
3394 Clouds 26 1006 94 10000 5.1 320 13:36 06.02.2020
3395 Clouds 26 1006 94 10000 5.1 320 13:18 06.02.2020
3396 Clouds 27 1007 88 10000 4.6 320 12:43 06.02.2020
3397 Clouds 27 1007 88 10000 4.6 320 12:18 06.02.2020
3398 Drizzle 26 1006 94 10000 6.2 290 11:56 06.02.2020
3399 Drizzle 26 1006 94 10000 6.2 290 11:37 06.02.2020
3400 Drizzle 26 1006 94 10000 6.2 290 11:37 06.02.2020
3401 Drizzle 26 1006 94 10000 6.2 290 11:18 06.02.2020
3402 Drizzle 26 1006 94 10000 6.2 290 10:41 06.02.2020
3403 Drizzle 26 1006 94 10000 6.2 290 10:22 06.02.2020
3404 Clouds 26 1006 94 10000 3.1 290 09:59 06.02.2020
3405 Clouds 26 1006 94 10000 3.1 290 09:40 06.02.2020
3406 Clouds 26 1006 94 10000 3.1 290 09:20 06.02.2020
3407 Drizzle 26 1005 94 10000 2.1 320 08:45 06.02.2020
3408 Drizzle 26 1005 94 10000 2.1 320 08:45 06.02.2020
3409 Drizzle 26 1005 94 10000 2.1 320 08:24 06.02.2020
3410 Rain 26 1005 94 10000 3.1 290 07:55 06.02.2020
3411 Rain 26 1005 94 10000 3.1 290 07:55 06.02.2020
3412 Rain 26 1005 94 10000 3.1 290 07:29 06.02.2020
3413 Rain 26 1005 94 10000 7.2 290 06:48 06.02.2020
3414 Rain 26 1005 94 10000 7.2 290 06:19 06.02.2020
3415 Rain 26 1005 100 0 3.6 320 05:32 06.02.2020
3416 Rain 27 1007 94 0 6.2 290 03:47 06.02.2020
3417 Rain 27 1007 100 10000 6.2 290 02:58 06.02.2020
3418 Drizzle 28 1008 88 10000 7.2 290 01:55 06.02.2020
3419 Drizzle 28 1008 88 10000 7.2 290 01:24 06.02.2020
3420 Drizzle 28 1007 94 10000 4.6 290 00:28 06.02.2020
3421 Drizzle 27 1007 94 10000 4.6 290 23:56 05.02.2020
3422 Drizzle 27 1007 94 10000 4.6 290 23:38 05.02.2020
3423 Drizzle 27 1007 94 10000 4.6 290 23:19 05.02.2020
3424 Rain 27 1007 88 10000 3.1 290 22:41 05.02.2020
3425 Rain 27 1007 88 10000 3.1 290 22:22 05.02.2020
3426 Rain 27 1006 88 10000 3.1 290 21:57 05.02.2020
3427 Clouds 26 1005 94 10000 3.1 290 21:39 05.02.2020
3428 Clouds 26 1005 94 10000 3.1 290 21:19 05.02.2020
3429 Clouds 27 1005 88 10000 5.1 290 20:39 05.02.2020
3430 Clouds 27 1005 88 10000 5.1 290 20:20 05.02.2020
3431 Clouds 27 1004 88 10000 3.1 270 19:58 05.02.2020
3432 Clouds 27 1004 88 10000 3.1 270 19:40 05.02.2020
3433 Clouds 27 1004 88 10000 3.1 270 19:19 05.02.2020
3434 Clouds 27 1003 88 10000 3.1 250 18:56 05.02.2020
3435 Clouds 27 1003 88 10000 3.1 250 18:38 05.02.2020
3436 Clouds 27 1003 88 10000 3.1 250 18:18 05.02.2020
3437 Clouds 27 1004 88 10000 2.6 270 17:38 05.02.2020
3438 Clouds 27 1004 88 10000 2.6 270 17:38 05.02.2020
3439 Clouds 27 1004 88 10000 3.1 290 17:19 05.02.2020
3440 Clouds 27 1004 88 10000 3.1 290 16:57 05.02.2020
3441 Clouds 27 1004 88 10000 3.1 290 16:38 05.02.2020
3442 Clouds 27 1004 88 10000 3.1 290 16:19 05.02.2020
3443 Clouds 27 1005 88 10000 2.6 290 15:42 05.02.2020
3444 Clouds 27 1005 88 10000 2.6 290 15:19 05.02.2020
3445 Clouds 27 1006 88 10000 2.1 250 14:56 05.02.2020
3446 Clouds 27 1006 88 10000 2.1 250 14:37 05.02.2020
3447 Clouds 27 1006 88 10000 2.1 250 14:19 05.02.2020
3448 Clouds 28 1006 78 10000 3.6 290 13:42 05.02.2020
3449 Clouds 28 1006 78 10000 3.6 290 13:22 05.02.2020
3450 Clouds 28 1006 83 10000 2.6 290 12:44 05.02.2020
3451 Clouds 28 1006 83 10000 2.6 290 12:25 05.02.2020
3452 Clouds 28 1006 83 10000 2.49 255 11:59 05.02.2020
3453 Clouds 28 1006 83 10000 2.49 255 11:59 05.02.2020
3454 Clouds 28 1006 83 10000 2.49 255 11:40 05.02.2020
3455 Clouds 28 1006 83 10000 2.76 252 11:21 05.02.2020
3456 Clouds 28 1005 83 10000 2.76 252 10:43 05.02.2020
3457 Clouds 28 1005 83 10000 2.76 252 10:25 05.02.2020
3458 Clouds 29 1005 79 10000 3.6 290 09:59 05.02.2020
3459 Clouds 29 1005 79 10000 3.6 290 09:38 05.02.2020
3460 Clouds 29 1005 79 10000 3.6 290 09:20 05.02.2020
3461 Clouds 30 1003 79 10000 3.6 290 08:45 05.02.2020
3462 Clouds 30 1003 79 10000 3.6 290 08:24 05.02.2020
3463 Clouds 31 1003 74 10000 5.7 290 07:55 05.02.2020
3464 Clouds 31 1003 74 10000 5.7 290 07:55 05.02.2020
3465 Clouds 31 1003 74 10000 5.7 290 07:33 05.02.2020
3466 Clouds 31 1003 74 10000 6.2 290 06:50 05.02.2020
3467 Clouds 31 1003 74 10000 6.2 290 06:23 05.02.2020
3468 Clouds 30 1003 79 10000 5.1 290 05:54 05.02.2020
3469 Drizzle 28 1004 88 10000 5.1 270 05:19 05.02.2020
3470 Drizzle 28 1004 88 10000 5.1 270 04:45 05.02.2020
3471 Clouds 29 1005 89 10000 2.1 290 03:50 05.02.2020
3472 Clouds 28 1006 94 10000 4.1 290 02:25 05.02.2020
3473 Clouds 29 1006 89 10000 5.1 290 01:37 05.02.2020
3474 Clouds 29 1006 89 10000 5.1 290 01:37 05.02.2020
3475 Clouds 30 1006 84 10000 5.1 290 00:42 05.02.2020
3476 Clouds 29 1006 89 10000 3.6 290 23:57 04.02.2020
3477 Clouds 29 1006 89 10000 4.1 320 23:37 04.02.2020
3478 Clouds 29 1006 89 10000 4.1 320 23:18 04.02.2020
3479 Clouds 29 1006 83 10000 5.1 290 22:42 04.02.2020
3480 Clouds 29 1006 83 10000 5.1 290 22:21 04.02.2020
3481 Clouds 26 1005 100 10000 1.5 290 21:59 04.02.2020
3482 Clouds 26 1005 100 10000 1.5 290 21:40 04.02.2020
3483 Clouds 26 1005 100 10000 1.5 290 21:19 04.02.2020
3484 Clouds 27 1005 94 10000 1.5 290 20:58 04.02.2020
3485 Clouds 27 1005 94 10000 1.5 290 20:38 04.02.2020
3486 Clouds 27 1005 94 10000 1.5 290 20:20 04.02.2020
3487 Clouds 26 1004 100 10000 2.1 290 19:56 04.02.2020
3488 Thunderstorm 26 1004 94 10000 3.1 290 19:38 04.02.2020
3489 Thunderstorm 26 1004 94 10000 3.1 290 19:19 04.02.2020
3490 Thunderstorm 26 1004 100 10000 3.6 290 18:54 04.02.2020
3491 Thunderstorm 26 1004 100 10000 3.6 290 18:36 04.02.2020
3492 Thunderstorm 26 1004 100 10000 3.6 290 18:18 04.02.2020
3493 Drizzle 26 1005 100 10000 1 250 17:41 04.02.2020
3494 Clouds 26 1006 94 10000 2.6 250 17:20 04.02.2020
3495 Clouds 26 1006 94 10000 2.6 250 16:40 04.02.2020
3496 Clouds 26 1006 94 10000 2.6 250 16:21 04.02.2020
3497 Clouds 26 1006 94 10000 2.6 250 15:58 04.02.2020
3498 Clouds 26 1006 94 10000 2.6 250 15:58 04.02.2020
3499 Clouds 26 1006 94 10000 2.6 250 15:39 04.02.2020
3500 Clouds 26 1006 94 10000 2.6 250 15:20 04.02.2020
3501 Clouds 26 1007 94 0 2.6 260 14:56 04.02.2020
3502 Clouds 26 1007 94 0 2.6 260 14:37 04.02.2020
3503 Clouds 26 1007 94 0 2.6 260 14:19 04.02.2020
3504 Clouds 27 1008 83 0 3.1 250 13:41 04.02.2020
3505 Clouds 27 1008 83 0 3.1 250 13:23 04.02.2020
3506 Clouds 27 1007 88 0 1.5 270 12:57 04.02.2020
3507 Clouds 27 1007 88 0 1.5 270 12:38 04.02.2020
3508 Clouds 27 1007 88 0 1.5 270 12:19 04.02.2020
3509 Clouds 27 1007 88 0 2.1 290 11:55 04.02.2020
3510 Clouds 27 1007 88 0 2.1 290 11:37 04.02.2020
3511 Clouds 27 1007 88 0 2.1 290 11:18 04.02.2020
3512 Drizzle 27 1006 88 0 3.6 290 10:44 04.02.2020
3513 Drizzle 27 1006 88 0 3.6 290 10:24 04.02.2020
3514 Clouds 28 1006 78 10000 4.1 270 09:56 04.02.2020
3515 Clouds 28 1006 78 10000 4.1 270 09:37 04.02.2020
3516 Clouds 28 1006 78 10000 4.1 270 09:18 04.02.2020
3517 Clouds 29 1005 74 10000 4.1 270 08:43 04.02.2020
3518 Clouds 29 1005 74 10000 4.1 270 08:24 04.02.2020
3519 Rain 29 1005 79 10000 4.1 270 07:49 04.02.2020
3520 Rain 29 1005 79 10000 4.1 270 07:24 04.02.2020
3521 Clouds 30 1004 74 10000 5.1 290 06:45 04.02.2020
3522 Clouds 30 1004 74 10000 5.1 290 06:26 04.02.2020
3523 Clouds 31 1004 74 10000 5.1 270 05:29 04.02.2020
3524 Clouds 34 1006 63 10000 6.2 290 03:54 04.02.2020
3525 Clouds 34 1006 63 10000 6.2 290 03:34 04.02.2020
3526 Clouds 34 1006 63 10000 4.1 250 02:59 04.02.2020
3527 Clouds 34 1006 63 10000 4.1 250 02:32 04.02.2020
3528 Clouds 33 1007 66 10000 2.1 200 01:55 04.02.2020
3529 Clouds 33 1007 66 10000 2.1 200 01:35 04.02.2020
3530 Clouds 32 1007 66 10000 4.6 270 00:45 04.02.2020
3531 Clouds 32 1007 66 10000 4.6 270 00:21 04.02.2020
3532 Clouds 30 1007 74 10000 3.6 290 23:40 03.02.2020
3533 Clouds 30 1007 74 10000 3.6 290 23:22 03.02.2020
3534 Clouds 29 1007 83 10000 1 320 22:39 03.02.2020
3535 Clouds 29 1007 83 10000 1 320 22:20 03.02.2020
3536 Clouds 26 1006 88 10000 2.1 270 21:55 03.02.2020
3537 Clouds 26 1006 88 10000 2.1 270 21:55 03.02.2020
3538 Clouds 26 1006 88 10000 2.1 270 21:37 03.02.2020
3539 Clouds 26 1006 88 10000 2.1 270 21:18 03.02.2020
3540 Clouds 26 1006 94 10000 2.1 290 20:42 03.02.2020
3541 Clouds 26 1006 94 10000 2.1 290 20:19 03.02.2020
3542 Clouds 26 1005 88 10000 2.1 290 19:57 03.02.2020
3543 Clouds 26 1005 88 10000 2.1 290 19:39 03.02.2020
3544 Clouds 26 1005 88 10000 2.1 290 19:19 03.02.2020
3545 Clouds 26 1005 94 10000 1.87 239 18:45 03.02.2020
3546 Clouds 26 1005 94 10000 1.87 239 18:25 03.02.2020
3547 Clouds 26 1005 94 10000 1.87 239 17:59 03.02.2020
3548 Clouds 26 1005 94 10000 1.87 239 17:59 03.02.2020
3549 Clouds 26 1005 94 10000 1.87 239 17:39 03.02.2020
3550 Clouds 26 1005 94 10000 2.01 234 17:20 03.02.2020
3551 Clouds 26 1005 94 10000 2.01 234 17:20 03.02.2020
3552 Clouds 27 1006 88 10000 2.01 234 16:55 03.02.2020
3553 Clouds 27 1006 88 10000 2.01 234 16:37 03.02.2020
3554 Clouds 27 1006 88 10000 2.01 234 16:18 03.02.2020
3555 Clouds 27 1007 88 10000 1 110 15:54 03.02.2020
3556 Clouds 27 1007 88 10000 1 110 15:36 03.02.2020
3557 Clouds 27 1007 88 10000 1 110 15:18 03.02.2020
3558 Clouds 27 1007 88 10000 1 110 15:18 03.02.2020
3559 Clouds 24 1006 91 0 2.01 234 14:39 03.02.2020
3560 Clouds 28 1009 78 10000 2.6 290 14:21 03.02.2020
3561 Clouds 28 1009 78 10000 2.6 290 13:55 03.02.2020
3562 Clouds 28 1009 78 10000 2.6 290 13:36 03.02.2020
3563 Clouds 28 1009 78 10000 2.6 290 13:18 03.02.2020
3564 Clouds 28 1008 83 10000 1.5 270 12:40 03.02.2020
3565 Clouds 28 1008 83 10000 1.5 270 12:21 03.02.2020
3566 Clouds 28 1008 83 10000 1.5 290 11:58 03.02.2020
3567 Clouds 28 1008 83 10000 1.5 290 11:37 03.02.2020
3568 Clouds 28 1008 83 10000 1.5 290 11:18 03.02.2020
3569 Clouds 29 1008 74 10000 2.6 270 10:41 03.02.2020
3570 Clouds 29 1008 74 10000 2.6 270 10:23 03.02.2020
3571 Clouds 29 1008 74 10000 2.6 270 10:23 03.02.2020
3572 Clouds 29 1007 79 10000 3.1 250 09:49 03.02.2020
3573 Clouds 29 1007 79 10000 3.1 250 09:25 03.02.2020
3574 Clouds 30 1007 74 10000 3.6 270 08:57 03.02.2020
3575 Clouds 30 1007 74 10000 3.6 270 08:39 03.02.2020
3576 Clouds 30 1007 74 10000 3.6 270 08:39 03.02.2020
3577 Clouds 30 1007 74 10000 3.6 270 08:21 03.02.2020
3578 Clouds 31 1005 74 10000 4.6 320 07:41 03.02.2020
3579 Clouds 31 1005 74 10000 4.6 320 07:21 03.02.2020
3580 Clouds 32 1006 75 10000 4.1 320 06:51 03.02.2020
3581 Clouds 32 1006 75 10000 4.1 320 06:30 03.02.2020
3582 Clouds 32 1006 70 10000 4.1 320 05:37 03.02.2020
3583 Clouds 32 1006 70 10000 4.1 320 05:18 03.02.2020
3584 Clouds 32 1007 66 10000 2.6 250 03:51 03.02.2020
3585 Clouds 32 1008 70 10000 5.1 250 02:36 03.02.2020
3586 Clouds 31 1008 70 10000 7.2 290 01:42 03.02.2020
3587 Clouds 29 1009 79 10000 3.1 270 00:47 03.02.2020
3588 Clouds 29 1009 79 10000 3.1 270 00:25 03.02.2020
3589 Rain 29 1009 70 0 2.94 309 23:39 02.02.2020
3590 Drizzle 28 1009 83 10000 2.1 270 23:21 02.02.2020
3591 Drizzle 28 1009 83 10000 2.1 270 22:58 02.02.2020
3592 Drizzle 28 1009 83 10000 2.1 270 22:38 02.02.2020
3593 Drizzle 28 1009 83 10000 2.1 270 22:19 02.02.2020
3594 Rain 25 1009 83 0 1.24 256 21:55 02.02.2020
3595 Rain 25 1009 83 0 1.24 256 21:37 02.02.2020
3596 Clouds 25 1008 94 10000 1.24 256 21:18 02.02.2020
3597 Clouds 25 1008 94 10000 1.24 256 20:55 02.02.2020
3598 Clouds 25 1008 94 10000 1.24 256 20:36 02.02.2020
3599 Clouds 25 1008 94 10000 1.17 235 20:18 02.02.2020
3600 Clouds 25 1008 94 10000 1.17 235 19:42 02.02.2020
3601 Clouds 25 1008 94 10000 1.17 235 19:24 02.02.2020
3602 Clouds 25 1008 100 10000 1.17 235 18:59 02.02.2020
3603 Clouds 25 1008 100 10000 1.17 235 18:39 02.02.2020
3604 Clouds 25 1008 100 10000 1.17 235 18:20 02.02.2020
3605 Clouds 25 1008 100 10000 1.17 235 17:58 02.02.2020
3606 Clouds 25 1008 100 10000 1.17 235 17:38 02.02.2020
3607 Clouds 25 1008 100 10000 1.17 235 17:38 02.02.2020
3608 Clouds 25 1008 100 10000 1.06 196 17:19 02.02.2020
3609 Clouds 25 1008 100 10000 1.06 196 16:58 02.02.2020
3610 Clouds 25 1008 100 10000 1.06 196 16:39 02.02.2020
3611 Clouds 25 1008 100 10000 1.06 196 16:39 02.02.2020
3612 Clouds 25 1008 100 10000 1.06 196 16:19 02.02.2020
3613 Clouds 25 1009 100 10000 1.06 196 15:57 02.02.2020
3614 Clouds 25 1009 100 10000 1.06 196 15:38 02.02.2020
3615 Clouds 25 1009 100 10000 1.06 196 15:19 02.02.2020
3616 Clouds 25 1009 100 10000 1.06 196 15:19 02.02.2020
3617 Clouds 26 1009 100 10000 1.06 196 14:45 02.02.2020
3618 Clouds 26 1009 100 10000 1.41 214 14:20 02.02.2020
3619 Clouds 26 1010 100 10000 1 180 13:59 02.02.2020
3620 Clouds 26 1010 100 10000 1 180 13:41 02.02.2020
3621 Clouds 26 1010 100 10000 1 180 13:22 02.02.2020
3622 Clouds 27 1010 94 10000 0.77 216 12:57 02.02.2020
3623 Clouds 27 1010 94 10000 0.77 216 12:39 02.02.2020
3624 Clouds 27 1010 94 10000 1.82 221 12:21 02.02.2020
3625 Clouds 27 1009 94 10000 0.77 216 11:43 02.02.2020
3626 Clouds 27 1009 94 10000 2.4 231 11:20 02.02.2020
3627 Clouds 27 1009 94 10000 1.5 180 10:58 02.02.2020
3628 Clouds 27 1009 94 10000 1.5 180 10:39 02.02.2020
3629 Clouds 27 1009 94 10000 1.5 180 10:21 02.02.2020
3630 Clouds 28 1008 88 10000 1.5 290 09:59 02.02.2020
3631 Clouds 28 1008 88 10000 1.5 290 09:39 02.02.2020
3632 Clouds 28 1008 88 10000 1.5 290 09:20 02.02.2020
3633 Clouds 28 1008 88 10000 1.5 290 09:20 02.02.2020
3634 Clouds 28 1008 88 10000 1.5 290 08:46 02.02.2020
3635 Clouds 28 1008 88 10000 1.5 290 08:26 02.02.2020
3636 Clouds 29 1007 83 10000 2.1 360 07:48 02.02.2020
3637 Clouds 29 1007 83 10000 2.1 360 07:30 02.02.2020
3638 Rain 30 1007 79 10000 2.6 320 06:56 02.02.2020
3639 Rain 30 1007 79 10000 2.6 320 06:37 02.02.2020
3640 Rain 30 1007 79 10000 2.6 320 06:18 02.02.2020
3641 Clouds 31 1007 74 10000 2.6 320 05:18 02.02.2020
3642 Rain 28 1007 88 10000 1 290 03:41 02.02.2020
3643 Drizzle 26 1009 100 10000 1 140 02:42 02.02.2020
3644 Rain 26 1010 94 0 1 160 01:57 02.02.2020
3645 Rain 26 1010 94 0 1 160 01:35 02.02.2020
3646 Rain 25 1010 100 10000 1 270 00:45 02.02.2020
3647 Rain 25 1010 100 10000 1 270 00:23 02.02.2020
3648 Clouds 25 1010 100 10000 3.2 307 23:54 01.02.2020
3649 Clouds 25 1010 100 10000 3.2 307 23:36 01.02.2020
3650 Clouds 25 1010 100 10000 0.88 200 23:18 01.02.2020
3651 Rain 25 1010 100 0 1.5 140 22:42 01.02.2020
3652 Rain 25 1010 100 0 1.5 140 22:42 01.02.2020
3653 Rain 25 1010 100 0 1.5 140 22:18 01.02.2020
3654 Drizzle 25 1009 100 10000 2.6 110 21:39 01.02.2020
3655 Drizzle 25 1009 100 10000 2.6 110 21:19 01.02.2020
3656 Rain 25 1008 100 10000 1 140 20:42 01.02.2020
3657 Rain 25 1008 100 10000 1 140 20:21 01.02.2020
3658 Rain 25 1007 94 10000 2.1 160 19:58 01.02.2020
3659 Rain 25 1007 94 10000 2.1 160 19:39 01.02.2020
3660 Rain 25 1007 94 10000 2.1 160 19:20 01.02.2020
3661 -273 0 0 0 0 0 18:58 01.02.2020
3662 Clouds 24 1008 100 10000 1.5 160 18:40 01.02.2020
3663 Clouds 24 1008 100 10000 1.5 160 18:22 01.02.2020
3664 Clouds 25 1008 94 0 3.1 320 17:58 01.02.2020
3665 Clouds 26 1007 94 10000 4.1 160 17:39 01.02.2020
3666 Clouds 26 1007 94 10000 4.1 160 17:39 01.02.2020
3667 Clouds 26 1007 94 10000 4.1 160 17:19 01.02.2020
3668 Clouds 26 1008 94 10000 1.5 180 16:43 01.02.2020
3669 Clouds 26 1008 94 10000 1.5 180 16:25 01.02.2020
3670 Clouds 26 1008 100 10000 0.76 164 15:58 01.02.2020
3671 Clouds 26 1008 100 10000 0.76 164 15:40 01.02.2020
3672 Clouds 26 1008 100 10000 0.76 164 15:20 01.02.2020
3673 Clouds 26 1009 100 10000 4.1 180 14:41 01.02.2020
3674 Clouds 26 1009 100 10000 4.1 180 14:21 01.02.2020
3675 Rain 26 1009 94 10000 2.1 360 13:58 01.02.2020
3676 Rain 26 1009 94 10000 2.1 360 13:39 01.02.2020
3677 Rain 26 1009 94 10000 2.1 360 13:18 01.02.2020
3678 Rain 27 1009 94 0 1.5 140 12:41 01.02.2020
3679 Rain 27 1009 94 0 1.5 140 12:22 01.02.2020
3680 Drizzle 27 1009 94 10000 1 200 11:44 01.02.2020
3681 Drizzle 27 1009 94 10000 1 200 11:24 01.02.2020
3682 Rain 28 1008 88 10000 0.3 38 10:59 01.02.2020
3683 Rain 28 1008 88 10000 0.3 38 10:40 01.02.2020
3684 Rain 28 1008 88 10000 0.3 38 10:22 01.02.2020
3685 Rain 28 1008 88 10000 1 160 09:59 01.02.2020
3686 Rain 28 1008 88 10000 1 160 09:40 01.02.2020
3687 Rain 28 1008 88 10000 1 160 09:21 01.02.2020
3688 Clouds 29 1007 79 10000 1 110 08:49 01.02.2020
3689 Clouds 30 1007 70 10000 2.6 20 07:51 01.02.2020
3690 Clouds 30 1007 70 10000 2.6 20 07:28 01.02.2020
3691 Clouds 30 1007 70 10000 2.6 20 07:28 01.02.2020
3692 Clouds 30 1007 66 10000 1.5 360 06:59 01.02.2020
3693 Clouds 30 1007 66 10000 1.5 360 06:40 01.02.2020
3694 Clouds 32 1007 62 10000 2.1 360 05:53 01.02.2020
3695 Clouds 31 1007 74 10000 2.1 200 04:22 01.02.2020
3696 Clouds 31 1008 74 10000 3.6 290 03:23 01.02.2020
3697 Clouds 29 1009 83 10000 2.1 290 02:48 01.02.2020
3698 Clouds 29 1009 83 10000 2.1 290 02:30 01.02.2020
3699 Clouds 27 1010 94 10000 1.5 200 01:55 01.02.2020
3700 Clouds 27 1010 94 10000 1.5 200 01:37 01.02.2020
3701 Drizzle 25 1010 100 10000 2.6 200 00:31 01.02.2020
3702 Drizzle 25 1010 100 10000 2.1 180 23:59 31.01.2020
3703 Drizzle 25 1010 100 10000 2.1 180 23:38 31.01.2020
3704 Drizzle 25 1010 100 10000 2.1 180 23:18 31.01.2020
3705 Clouds 26 1010 94 10000 5.1 20 22:41 31.01.2020
3706 Clouds 26 1010 94 10000 5.1 20 22:41 31.01.2020
3707 Clouds 26 1010 94 10000 5.1 20 22:22 31.01.2020
3708 Clouds 25 1009 100 10000 1.67 124 21:59 31.01.2020
3709 Clouds 25 1009 100 10000 1.67 124 21:39 31.01.2020
3710 Clouds 25 1009 100 10000 1.67 124 21:20 31.01.2020
3711 Clouds 24 1008 100 10000 1.67 124 20:57 31.01.2020
3712 Clouds 24 1008 100 10000 1.67 124 20:38 31.01.2020
3713 Clouds 25 1008 100 10000 1.75 172 20:20 31.01.2020
3714 Clouds 25 1008 100 10000 1.75 172 19:56 31.01.2020
3715 Clouds 25 1008 100 10000 1.75 172 19:37 31.01.2020
3716 Clouds 25 1008 100 10000 1.75 172 19:18 31.01.2020
3717 Clouds 25 1007 100 10000 1.75 172 18:42 31.01.2020
3718 Clouds 25 1007 100 10000 1.75 172 18:23 31.01.2020
3719 Clouds 25 1007 100 10000 2.1 200 17:54 31.01.2020
3720 Clouds 25 1007 100 10000 2.1 200 17:36 31.01.2020
3721 Clouds 25 1007 100 10000 2.1 200 17:36 31.01.2020
3722 Clouds 25 1007 100 10000 2.1 200 17:18 31.01.2020
3723 Clouds 25 1008 100 10000 1.5 200 16:54 31.01.2020
3724 Clouds 25 1008 100 10000 1.5 200 16:54 31.01.2020
3725 Clouds 25 1008 100 10000 1.5 200 16:36 31.01.2020
3726 Clouds 25 1008 100 10000 1.5 200 16:18 31.01.2020
3727 Clouds 25 1009 100 10000 2.6 360 15:41 31.01.2020
3728 Clouds 25 1009 100 10000 2.6 360 15:20 31.01.2020
3729 Clouds 25 1009 100 10000 2.6 360 15:20 31.01.2020
3730 Thunderstorm 25 1009 100 10000 1.57 176 14:45 31.01.2020
3731 Thunderstorm 25 1009 100 10000 1.57 176 14:26 31.01.2020
3732 Clouds 26 1010 94 10000 2.1 230 13:59 31.01.2020
3733 Clouds 26 1010 94 10000 2.1 230 13:38 31.01.2020
3734 Clouds 26 1010 94 10000 2.1 230 13:20 31.01.2020
3735 Clouds 25 1010 100 0 2.6 180 12:45 31.01.2020
3736 Clouds 25 1010 100 0 2.6 180 12:24 31.01.2020
3737 Clouds 25 1009 100 10000 3.6 160 11:55 31.01.2020
3738 Clouds 25 1009 100 10000 3.6 160 11:37 31.01.2020
3739 Clouds 25 1009 100 10000 3.6 160 11:19 31.01.2020
3740 Clouds 25 1009 100 0 0.94 132 10:44 31.01.2020
3741 Clouds 27 1009 94 0 6.2 140 10:23 31.01.2020
3742 Clouds 27 1008 88 10000 1.5 160 09:58 31.01.2020
3743 Clouds 27 1008 88 10000 1.5 160 09:39 31.01.2020
3744 Clouds 27 1008 88 10000 1.5 160 09:19 31.01.2020
3745 Clouds 30 1007 79 10000 1.5 70 08:53 31.01.2020
3746 Clouds 30 1007 79 10000 1.5 70 08:28 31.01.2020
3747 Clouds 31 1006 74 10000 2.1 70 07:54 31.01.2020
3748 Clouds 31 1006 74 10000 2.1 70 07:26 31.01.2020
3749 Rain 31 1006 74 10000 3.6 20 06:59 31.01.2020
3750 Rain 31 1006 74 10000 3.6 20 06:20 31.01.2020
3751 Rain 32 1006 75 10000 2.6 50 05:50 31.01.2020
3752 Rain 31 1006 74 10000 2.1 360 04:56 31.01.2020
3753 Clouds 31 1008 74 10000 5.1 360 02:58 31.01.2020
3754 Clouds 32 1008 70 10000 3.1 360 01:39 31.01.2020
3755 Clouds 32 1008 70 10000 3.1 20 00:46 31.01.2020
3756 Clouds 32 1008 70 10000 3.1 20 00:27 31.01.2020
3757 Clouds 31 1008 74 10000 2.6 90 23:57 30.01.2020
3758 Clouds 31 1008 74 10000 2.6 90 23:26 30.01.2020
3759 Clouds 28 1008 83 10000 1 180 22:57 30.01.2020
3760 Clouds 28 1008 83 10000 1 180 22:37 30.01.2020
3761 Clouds 28 1008 83 10000 1 180 22:18 30.01.2020
3762 Clouds 28 1008 83 10000 1 180 22:18 30.01.2020
3763 Clouds 25 1007 100 10000 1 200 21:57 30.01.2020
3764 Clouds 25 1007 100 10000 1 200 21:38 30.01.2020
3765 Clouds 25 1007 100 10000 1 200 21:38 30.01.2020
3766 Clouds 24 1007 100 10000 0.85 156 21:18 30.01.2020
3767 Clouds 24 1007 100 10000 0.85 156 20:41 30.01.2020
3768 Clouds 25 1006 94 10000 1.5 160 20:22 30.01.2020
3769 Clouds 25 1006 94 10000 1.5 160 19:57 30.01.2020
3770 Clouds 25 1006 94 10000 1.5 160 19:39 30.01.2020
3771 Clouds 25 1006 94 10000 1.5 160 19:18 30.01.2020
3772 Clouds 23 1006 87 0 1.33 174 18:41 30.01.2020
3773 Clouds 23 1006 87 0 1.33 174 18:21 30.01.2020
3774 Clouds 23 1006 87 0 1.33 174 17:57 30.01.2020
3775 Clouds 23 1006 87 0 1.33 174 17:37 30.01.2020
3776 Rain 25 1007 100 10000 2.1 160 17:19 30.01.2020
3777 Rain 25 1007 100 10000 2.1 160 16:56 30.01.2020
3778 Rain 25 1007 100 10000 2.1 160 16:38 30.01.2020
3779 Rain 25 1007 100 10000 2.1 160 16:19 30.01.2020
3780 Drizzle 25 1008 100 10000 2.1 180 15:43 30.01.2020
3781 Drizzle 25 1008 100 10000 2.1 180 15:20 30.01.2020
3782 Clouds 26 1009 100 10000 1 200 14:50 30.01.2020
3783 Clouds 26 1009 100 10000 1 200 14:50 30.01.2020
3784 Clouds 26 1009 100 10000 1 200 14:27 30.01.2020
3785 Clouds 26 1009 94 10000 1 140 13:56 30.01.2020
3786 Clouds 26 1009 94 10000 1 140 13:36 30.01.2020
3787 Clouds 26 1009 94 10000 1 140 13:18 30.01.2020
3788 Clouds 26 1009 100 10000 1.16 162 12:42 30.01.2020
3789 Clouds 26 1009 100 10000 1.16 162 12:24 30.01.2020
3790 Clouds 27 1007 94 10000 1.16 162 11:56 30.01.2020
3791 Clouds 27 1007 94 10000 1.16 162 11:38 30.01.2020
3792 Clouds 27 1007 94 10000 1.16 162 11:38 30.01.2020
3793 Clouds 27 1007 94 10000 0.86 175 11:19 30.01.2020
3794 Clouds 28 1007 78 10000 1.5 200 10:42 30.01.2020
3795 Clouds 28 1007 78 10000 1.5 200 10:22 30.01.2020
3796 Clouds 29 1007 79 0 1 340 09:48 30.01.2020
3797 Clouds 29 1007 79 0 1 340 09:30 30.01.2020
3798 Clouds 29 1005 79 0 1.5 360 08:59 30.01.2020
3799 Clouds 29 1005 79 0 1.5 360 08:39 30.01.2020
3800 Clouds 29 1005 79 0 1.5 360 08:20 30.01.2020
3801 Clouds 30 1005 70 0 1 20 07:49 30.01.2020
3802 Clouds 30 1005 70 0 1 20 07:28 30.01.2020
3803 Rain 26 1005 85 0 0.14 158 06:47 30.01.2020
3804 Rain 26 1005 85 0 0.14 158 06:47 30.01.2020
3805 Rain 26 1005 85 0 0.14 158 06:28 30.01.2020
3806 Clouds 31 1005 70 10000 1.5 50 05:44 30.01.2020
3807 Clouds 31 1005 70 10000 1.5 50 05:20 30.01.2020
3808 Clouds 30 1007 79 10000 4.1 70 03:53 30.01.2020
3809 Clouds 30 1007 79 10000 4.1 70 03:35 30.01.2020
3810 Clouds 30 1008 79 10000 2.6 50 02:19 30.01.2020
3811 Clouds 29 1009 83 10000 1.91 26 00:40 30.01.2020
3812 Clouds 29 1009 83 10000 1.91 26 00:20 30.01.2020
3813 Clouds 28 1009 88 10000 1.91 26 23:45 29.01.2020
3814 Clouds 28 1009 88 10000 0.42 141 23:21 29.01.2020
3815 Clouds 28 1009 88 10000 0.42 141 23:21 29.01.2020
3816 Clouds 28 1009 88 10000 0.42 141 23:21 29.01.2020
3817 Clouds 28 1009 88 10000 0.42 141 23:21 29.01.2020
3818 Clouds 27 1009 88 10000 0.42 141 22:56 29.01.2020
3819 Clouds 27 1009 88 10000 0.42 141 22:38 29.01.2020
3820 Clouds 27 1009 88 10000 0.42 141 22:19 29.01.2020
3821 Rain 26 1008 94 10000 1 290 21:57 29.01.2020
3822 Rain 26 1008 94 10000 1 290 21:38 29.01.2020
3823 Rain 26 1008 94 10000 1 290 21:18 29.01.2020
3824 Clouds 25 1007 100 10000 1 230 20:57 29.01.2020
3825 Clouds 25 1007 100 10000 1 230 20:37 29.01.2020
3826 Clouds 25 1007 100 10000 1 230 20:37 29.01.2020
3827 Clouds 25 1007 100 10000 1 230 20:18 29.01.2020
3828 Clouds 25 1007 100 10000 1 230 20:18 29.01.2020
3829 Clouds 25 1007 100 10000 3.1 110 19:55 29.01.2020
3830 Clouds 25 1007 100 10000 3.1 110 19:36 29.01.2020
3831 Clouds 25 1007 100 10000 3.1 110 19:18 29.01.2020
3832 Clouds 23 1006 86 0 1.6 192 18:40 29.01.2020
3833 Clouds 23 1006 86 0 1.6 192 18:19 29.01.2020
3834 Clouds 23 1006 86 0 1.6 192 17:41 29.01.2020
3835 Clouds 23 1006 86 0 1.6 192 17:41 29.01.2020
3836 Clouds 26 1006 94 10000 1 180 17:23 29.01.2020
3837 Clouds 26 1006 94 10000 1 180 17:23 29.01.2020
3838 Clouds 26 1006 94 10000 1 180 16:57 29.01.2020
3839 Clouds 26 1006 94 10000 1 180 16:39 29.01.2020
3840 Clouds 26 1006 94 10000 1 180 16:19 29.01.2020
3841 Clouds 26 1007 100 10000 1.48 188 15:39 29.01.2020
3842 Clouds 26 1007 100 10000 1.48 188 15:21 29.01.2020
3843 Clouds 26 1008 100 10000 1 200 14:55 29.01.2020
3844 Clouds 26 1008 100 10000 1 200 14:37 29.01.2020
3845 Clouds 26 1008 100 10000 1 200 14:18 29.01.2020
3846 Clouds 26 1008 94 10000 1.44 197 13:40 29.01.2020
3847 Clouds 26 1008 94 10000 1.4 194 13:22 29.01.2020
3848 Clouds 26 1008 94 10000 1.4 194 12:56 29.01.2020
3849 Clouds 26 1008 94 10000 1.4 194 12:38 29.01.2020
3850 Clouds 26 1008 94 10000 1.4 194 12:20 29.01.2020
3851 Clouds 26 1008 94 10000 1 180 11:47 29.01.2020
3852 Clouds 26 1008 94 10000 1 180 11:24 29.01.2020
3853 Rain 24 1008 90 0 1.77 221 10:56 29.01.2020
3854 Rain 24 1008 90 0 1.77 221 10:37 29.01.2020
3855 Rain 28 1006 94 10000 3.1 180 10:19 29.01.2020
3856 Rain 28 1006 94 10000 3.1 180 09:40 29.01.2020
3857 Rain 28 1006 94 10000 3.1 180 09:40 29.01.2020
3858 Rain 28 1006 94 10000 3.1 180 09:21 29.01.2020
3859 Rain 30 1006 79 10000 2.1 360 08:57 29.01.2020
3860 Rain 30 1006 79 10000 2.1 360 08:39 29.01.2020
3861 Rain 30 1006 79 10000 2.1 360 08:20 29.01.2020
3862 Rain 27 1005 86 0 1.39 248 07:44 29.01.2020
3863 Rain 27 1005 86 0 1.39 248 07:24 29.01.2020
3864 Clouds 30 1005 79 10000 2.1 290 06:54 29.01.2020
3865 Thunderstorm 31 1005 74 10000 3.6 320 06:36 29.01.2020
3866 Thunderstorm 31 1005 74 10000 3.6 320 06:18 29.01.2020
3867 Clouds 32 1005 75 10000 2.6 20 05:43 29.01.2020
3868 Clouds 32 1005 75 10000 2.6 20 05:25 29.01.2020
3869 Clouds 32 1006 70 10000 3.1 20 04:37 29.01.2020
3870 Clouds 31 1008 79 10000 4.6 360 02:43 29.01.2020
3871 Clouds 31 1009 74 10000 4.6 340 02:18 29.01.2020
3872 Clouds 31 1009 74 0 3.6 360 00:42 29.01.2020
3873 Clouds 31 1009 74 0 3.6 360 00:23 29.01.2020
3874 Clouds 31 1009 74 10000 3.1 320 23:45 28.01.2020
3875 Clouds 31 1009 74 10000 3.1 320 23:21 28.01.2020
3876 Clouds 28 1009 78 10000 1.5 230 22:58 28.01.2020
3877 Clouds 28 1009 78 10000 1.5 230 22:40 28.01.2020
3878 Clouds 28 1009 78 10000 1.5 230 22:21 28.01.2020
3879 Clouds 25 1008 94 10000 0.8 237 21:42 28.01.2020
3880 Clouds 25 1008 94 10000 0.8 237 21:22 28.01.2020
3881 Clouds 25 1007 94 10000 0.8 237 20:57 28.01.2020
3882 Clouds 25 1007 94 10000 0.8 237 20:39 28.01.2020
3883 Clouds 25 1007 94 10000 1.26 202 20:21 28.01.2020
3884 Clouds 25 1007 88 10000 1.5 200 19:39 28.01.2020
3885 Clouds 25 1007 88 10000 1.5 200 19:20 28.01.2020
3886 Clouds 25 1007 88 10000 1.5 200 19:20 28.01.2020
3887 Clouds 25 1007 94 10000 1.13 208 18:58 28.01.2020
3888 Clouds 25 1007 94 10000 1.13 208 18:39 28.01.2020
3889 Clouds 25 1007 94 10000 1.13 208 18:21 28.01.2020
3890 Clouds 25 1008 94 10000 1.13 208 17:56 28.01.2020
3891 Clouds 25 1008 94 10000 1.13 208 17:37 28.01.2020
3892 Clouds 25 1008 94 10000 1.18 202 17:19 28.01.2020
3893 Clouds 26 1008 88 10000 1.5 180 16:45 28.01.2020
3894 Clouds 26 1008 88 10000 1.5 180 16:27 28.01.2020
3895 Clouds 26 1008 94 10000 1.5 200 15:59 28.01.2020
3896 Clouds 26 1008 94 10000 1.5 200 15:40 28.01.2020
3897 Clouds 26 1008 94 10000 1.5 200 15:18 28.01.2020
3898 Clouds 26 1009 94 10000 1.18 202 14:44 28.01.2020
3899 Clouds 26 1009 94 10000 1.2 205 14:20 28.01.2020
3900 Clouds 26 1009 94 10000 1.2 205 13:43 28.01.2020
3901 Clouds 26 1009 94 10000 1.19 189 13:25 28.01.2020
3902 Clouds 27 1009 94 10000 1.19 189 12:56 28.01.2020
3903 Clouds 27 1009 94 10000 1.19 189 12:38 28.01.2020
3904 Clouds 27 1009 94 10000 1.19 189 12:20 28.01.2020
3905 Clouds 27 1008 94 10000 1.19 189 11:41 28.01.2020
3906 Clouds 27 1008 94 10000 1.19 189 11:41 28.01.2020
3907 Clouds 27 1008 94 10000 1.19 189 11:22 28.01.2020
3908 Clouds 28 1008 88 10000 0.91 318 10:55 28.01.2020
3909 Clouds 28 1008 88 10000 0.91 318 10:36 28.01.2020
3910 Clouds 28 1008 88 10000 0.91 318 10:18 28.01.2020
3911 Clouds 29 1007 83 10000 1.5 340 09:41 28.01.2020
3912 Clouds 29 1007 83 10000 1.5 340 09:20 28.01.2020
3913 Clouds 31 1006 74 10000 3.6 320 08:45 28.01.2020
3914 Clouds 31 1006 74 10000 3.6 320 08:26 28.01.2020
3915 Clouds 32 1005 62 10000 4.1 340 07:53 28.01.2020
3916 Clouds 32 1005 62 10000 4.1 340 07:31 28.01.2020
3917 Clouds 32 1005 70 10000 2.1 340 06:47 28.01.2020
3918 Clouds 32 1005 70 10000 2.1 340 06:24 28.01.2020
3919 Clouds 32 1006 75 10000 5.1 320 05:38 28.01.2020
3920 Clouds 32 1006 75 10000 5.1 320 05:20 28.01.2020
3921 Clouds 32 1007 70 10000 3.6 360 03:47 28.01.2020
3922 Clouds 31 1008 74 10000 3.6 20 02:46 28.01.2020
3923 Clouds 31 1008 74 10000 3.6 20 02:25 28.01.2020
3924 Clouds 31 1008 66 10000 3.1 340 01:53 28.01.2020
3925 Clouds 31 1008 66 10000 3.1 340 01:20 28.01.2020
3926 Clouds 31 1008 70 10000 2.6 20 00:41 28.01.2020
3927 Clouds 31 1008 70 10000 2.6 20 00:19 28.01.2020
3928 Clouds 29 1008 62 0 2.43 344 23:42 27.01.2020
3929 Clouds 25 1007 84 0 0.93 266 23:19 27.01.2020
3930 Clouds 27 1008 78 10000 0.93 266 22:45 27.01.2020
3931 Clouds 27 1008 78 10000 0.93 266 22:20 27.01.2020
3932 Clouds 27 1008 78 10000 0.93 266 22:20 27.01.2020
3933 Clouds 27 1008 78 10000 0.93 266 22:20 27.01.2020
3934 Clouds 26 1007 88 10000 0.93 266 21:57 27.01.2020
3935 Clouds 24 1007 94 10000 1 140 21:39 27.01.2020
3936 Clouds 24 1007 94 10000 1 140 21:19 27.01.2020
3937 Clouds 24 1007 94 10000 1 140 21:19 27.01.2020
3938 Clouds 23 1006 100 10000 1 140 20:56 27.01.2020
3939 Clouds 23 1006 100 10000 1 140 20:37 27.01.2020
3940 Clouds 23 1006 100 10000 1 140 20:19 27.01.2020
3941 Clouds 24 1006 88 10000 1.04 207 19:42 27.01.2020
3942 Clouds 24 1006 88 10000 1.04 207 19:23 27.01.2020
3943 Clouds 22 1006 89 0 1.04 207 18:59 27.01.2020
3944 Clouds 22 1006 89 0 1.04 207 18:39 27.01.2020
3945 Clouds 24 1006 100 10000 1 200 18:20 27.01.2020
3946 Clouds 24 1006 100 10000 1 200 18:20 27.01.2020
3947 Clouds 24 1006 100 10000 1 200 18:20 27.01.2020
3948 Clouds 24 1006 100 10000 1 200 17:57 27.01.2020
3949 Clouds 22 1006 89 0 1.04 207 17:37 27.01.2020
3950 Clouds 25 1007 94 10000 1 200 17:18 27.01.2020
3951 Clouds 25 1007 94 10000 1 200 16:42 27.01.2020
3952 Clouds 25 1007 94 10000 1 200 16:24 27.01.2020
3953 Clouds 25 1007 94 10000 1 200 16:24 27.01.2020
3954 Clouds 25 1007 94 10000 0.98 220 15:55 27.01.2020
3955 Clouds 25 1007 94 10000 0.98 220 15:37 27.01.2020
3956 Clouds 25 1007 94 10000 0.98 220 15:19 27.01.2020
3957 Clouds 26 1008 88 10000 0.98 220 14:54 27.01.2020
3958 Clouds 26 1008 88 10000 0.98 220 14:36 27.01.2020
3959 Clouds 26 1008 88 10000 1.19 205 14:18 27.01.2020
3960 Clouds 27 1008 83 10000 1 230 13:41 27.01.2020
3961 Clouds 27 1008 83 10000 1 230 13:20 27.01.2020
3962 Clouds 27 1008 88 10000 2.1 250 12:55 27.01.2020
3963 Clouds 27 1008 88 10000 2.1 250 12:37 27.01.2020
3964 Clouds 27 1008 88 10000 2.1 250 12:18 27.01.2020
3965 Clouds 28 1008 83 10000 1.5 250 11:41 27.01.2020
3966 Clouds 28 1008 83 10000 1.5 250 11:21 27.01.2020
3967 Clouds 29 1006 83 10000 1 270 10:43 27.01.2020
3968 Clouds 29 1006 83 10000 1 270 10:25 27.01.2020
3969 Rain 24 1007 91 0 1.19 209 09:57 27.01.2020
3970 Rain 24 1007 91 0 1.19 209 09:38 27.01.2020
3971 Clouds 30 1005 84 10000 3.6 320 09:18 27.01.2020
3972 Clouds 30 1005 84 10000 3.6 320 08:42 27.01.2020
3973 Clouds 30 1005 84 10000 3.6 320 08:20 27.01.2020
3974 Rain 32 1004 66 10000 5.1 340 07:54 27.01.2020
3975 Rain 32 1004 66 10000 5.1 340 07:34 27.01.2020
3976 Clouds 32 1004 70 0 6.2 320 06:53 27.01.2020
3977 Clouds 32 1004 70 0 6.2 320 06:25 27.01.2020
3978 Clouds 32 1004 70 10000 6.2 320 05:23 27.01.2020
3979 Clouds 33 1005 66 10000 5.7 320 03:47 27.01.2020
3980 Clouds 32 1006 70 10000 4.6 360 02:36 27.01.2020
3981 Clouds 32 1007 66 10000 4.1 360 01:29 27.01.2020
3982 Clouds 32 1007 70 10000 1.5 340 00:44 27.01.2020
3983 Clouds 32 1007 70 10000 1.5 340 00:26 27.01.2020
3984 Clouds 31 1007 70 10000 2.1 250 00:00 27.01.2020
3985 Clouds 31 1007 70 10000 2.1 250 23:59 26.01.2020
3986 Clouds 31 1007 70 10000 2.1 250 23:41 26.01.2020
3987 Clouds 31 1007 70 10000 2.1 250 23:41 26.01.2020
3988 Clouds 31 1007 70 10000 2.1 250 23:41 26.01.2020
3989 Clouds 31 1007 70 10000 2.1 250 23:41 26.01.2020
3990 Clouds 31 1007 70 10000 2.1 250 23:18 26.01.2020
3991 Clouds 28 1006 83 10000 1.5 230 22:54 26.01.2020
3992 Clouds 28 1006 83 10000 1.5 230 22:36 26.01.2020
3993 Clouds 28 1006 83 10000 1.5 230 22:18 26.01.2020
3994 Clouds 26 1006 88 10000 2.6 180 21:54 26.01.2020
3995 Clouds 26 1006 88 10000 2.6 180 21:36 26.01.2020
3996 Clouds 26 1006 88 10000 2.6 180 21:36 26.01.2020
3997 Clouds 26 1006 88 10000 2.6 180 21:18 26.01.2020
3998 Clouds 25 1006 88 10000 1.5 200 20:54 26.01.2020
3999 Clouds 25 1006 88 10000 1.5 200 20:36 26.01.2020
4000 Clouds 25 1006 88 10000 1.5 200 20:18 26.01.2020
4001 Clouds 25 1005 94 10000 1 200 19:40 26.01.2020
4002 Clouds 25 1005 94 10000 1 200 19:21 26.01.2020
4003 Clouds 25 1005 94 10000 1 180 18:59 26.01.2020
4004 Clouds 25 1005 94 10000 1 180 18:39 26.01.2020
4005 Clouds 25 1005 94 10000 1 180 18:21 26.01.2020
4006 Clouds 25 1005 94 10000 1 180 18:21 26.01.2020
4007 Clouds 25 1005 94 10000 1 180 17:57 26.01.2020
4008 Clouds 25 1005 94 10000 1 180 17:38 26.01.2020
4009 Clouds 25 1005 94 10000 1 180 17:18 26.01.2020
4010 Clouds 25 1005 94 10000 1 180 17:18 26.01.2020
4011 Clouds 26 1006 94 10000 1 180 16:57 26.01.2020
4012 Clouds 26 1006 94 10000 1 180 16:57 26.01.2020
4013 Clouds 26 1006 94 10000 1 180 16:39 26.01.2020
4014 Clouds 26 1006 94 10000 1 180 16:19 26.01.2020
4015 Clouds 26 1006 94 10000 1 180 16:19 26.01.2020
4016 Clouds 23 1005 90 0 1.31 212 15:45 26.01.2020
4017 Clouds 23 1005 90 0 1.31 212 15:22 26.01.2020
4018 Clouds 23 1005 90 0 1.31 212 14:58 26.01.2020
4019 Clouds 23 1005 90 0 1.31 212 14:39 26.01.2020
4020 Clouds 24 1008 91 0 1.23 177 14:19 26.01.2020
4021 Clouds 24 1008 91 0 1.23 177 13:41 26.01.2020
4022 Clouds 24 1008 91 0 1.23 177 13:20 26.01.2020
4023 Clouds 24 1008 91 0 1.32 174 12:56 26.01.2020
4024 Clouds 24 1008 91 0 1.32 174 12:37 26.01.2020
4025 Clouds 24 1008 91 0 1.32 174 12:19 26.01.2020
4026 Clouds 24 1008 91 0 1.32 174 12:19 26.01.2020
4027 Clouds 24 1008 91 0 1.32 174 11:57 26.01.2020
4028 Clouds 24 1008 91 0 1.32 174 11:57 26.01.2020
4029 Clouds 24 1008 91 0 1.32 174 11:37 26.01.2020
4030 Clouds 28 1006 83 10000 2.1 180 11:18 26.01.2020
4031 Clouds 28 1006 83 10000 2.1 180 10:55 26.01.2020
4032 Clouds 28 1006 83 10000 2.1 180 10:55 26.01.2020
4033 Clouds 28 1006 83 10000 2.1 180 10:37 26.01.2020
4034 Clouds 28 1006 83 10000 2.1 180 10:19 26.01.2020
4035 Clouds 28 1006 83 10000 2.1 180 10:19 26.01.2020
4036 Rain 24 1007 91 0 0.96 187 09:42 26.01.2020
4037 Clouds 31 1005 70 10000 2.6 360 09:23 26.01.2020
4038 Clouds 31 1005 70 10000 2.6 360 08:59 26.01.2020
4039 Clouds 31 1005 70 10000 2.6 360 08:41 26.01.2020
4040 Clouds 31 1005 70 10000 2.6 360 08:21 26.01.2020
4041 Clouds 32 1004 62 10000 3.1 360 07:50 26.01.2020
4042 Clouds 32 1004 62 10000 3.1 360 07:26 26.01.2020
4043 Clouds 32 1004 66 10000 2.6 290 06:40 26.01.2020
4044 Clouds 32 1004 66 10000 2.6 290 06:22 26.01.2020
4045 Clouds 32 1004 66 10000 4.1 340 05:27 26.01.2020
4046 Clouds 32 1005 66 10000 3.1 20 03:23 26.01.2020
4047 Clouds 32 1006 62 10000 3.1 360 02:24 26.01.2020
4048 Clear 31 1007 70 10000 3.1 340 01:40 26.01.2020
4049 Clear 31 1007 70 10000 3.1 340 01:21 26.01.2020
4050 Clouds 32 1007 66 10000 2.1 360 00:41 26.01.2020
4051 Clouds 32 1007 66 10000 2.1 360 00:20 26.01.2020
4052 Clear 29 1007 60 0 2.16 3 23:38 25.01.2020
4053 Clear 26 1007 70 0 0.76 176 23:20 25.01.2020
4054 Clear 26 1007 70 0 0.76 176 22:43 25.01.2020
4055 Clear 26 1007 70 0 0.76 176 22:21 25.01.2020
4056 Clear 26 1007 70 0 0.76 176 21:59 25.01.2020
4057 Clear 26 1007 70 0 0.76 176 21:41 25.01.2020
4058 Clear 26 1007 70 0 0.76 176 21:22 25.01.2020
4059 Clear 26 1007 70 0 0.76 176 20:54 25.01.2020
4060 Clear 26 1007 70 0 0.76 176 20:36 25.01.2020
4061 Clouds 23 1005 79 0 1.25 182 20:18 25.01.2020
4062 Clouds 23 1005 79 0 1.25 182 19:41 25.01.2020
4063 Clouds 23 1005 79 0 1.25 182 19:19 25.01.2020
4064 Clouds 23 1005 79 0 1.25 182 19:19 25.01.2020
4065 Clouds 23 1005 79 0 1.25 182 18:56 25.01.2020
4066 Clouds 23 1005 79 0 1.25 182 18:37 25.01.2020
4067 Clouds 23 1005 79 0 1.25 182 18:18 25.01.2020
4068 Clouds 23 1005 79 0 1.25 182 18:18 25.01.2020
4069 Clouds 23 1005 79 0 1.25 182 17:39 25.01.2020
4070 Clouds 23 1006 83 0 1.65 186 17:19 25.01.2020
4071 Clouds 23 1006 83 0 1.65 186 16:56 25.01.2020
4072 Clouds 23 1006 83 0 1.65 186 16:37 25.01.2020
4073 Clouds 23 1006 83 0 1.65 186 16:18 25.01.2020
4074 Clouds 23 1006 83 0 1.65 186 15:42 25.01.2020
4075 Clouds 23 1006 83 0 1.65 186 15:23 25.01.2020
4076 Clouds 23 1006 83 0 1.65 186 14:46 25.01.2020
4077 Clouds 23 1008 88 0 2 206 14:19 25.01.2020
4078 Clouds 23 1008 88 0 2 206 13:56 25.01.2020
4079 Clouds 23 1008 88 0 2 206 13:38 25.01.2020
4080 Clouds 23 1008 87 0 1.97 203 13:18 25.01.2020
4081 Clouds 23 1008 88 0 2 206 13:18 25.01.2020
4082 Clouds 23 1008 87 0 1.97 203 12:42 25.01.2020
4083 Clouds 27 1007 88 10000 1 200 12:21 25.01.2020
4084 Clouds 27 1007 88 10000 1 200 11:43 25.01.2020
4085 Clouds 27 1007 88 10000 1 200 11:21 25.01.2020
4086 Clouds 27 1007 88 10000 1 200 11:21 25.01.2020
4087 Rain 27 1007 88 10000 1.5 180 10:56 25.01.2020
4088 Rain 27 1007 88 10000 1.5 180 10:38 25.01.2020
4089 Rain 27 1007 88 10000 1.5 180 10:38 25.01.2020
4090 Rain 27 1007 88 10000 1.5 180 10:38 25.01.2020
4091 Rain 27 1007 88 10000 1.5 180 10:19 25.01.2020
4092 Rain 28 1006 83 10000 2.1 160 09:40 25.01.2020
4093 Rain 28 1006 83 10000 2.1 160 09:20 25.01.2020
4094 Clouds 30 1005 74 10000 3.1 90 08:43 25.01.2020
4095 Clouds 31 1005 70 10000 3.6 70 07:59 25.01.2020
4096 Clouds 31 1004 70 10000 2.1 50 07:40 25.01.2020
4097 Clouds 31 1004 66 10000 2.1 50 06:41 25.01.2020
4098 Clouds 31 1004 66 10000 2.1 50 06:22 25.01.2020
4099 Clouds 31 1005 70 10000 2.1 360 05:43 25.01.2020
4100 Clouds 31 1006 74 10000 3.6 360 04:24 25.01.2020
4101 Clouds 31 1006 74 10000 2.1 360 03:50 25.01.2020
4102 Clouds 31 1007 74 10000 3.6 20 02:38 25.01.2020
4103 Clouds 31 1008 74 10000 3.1 50 01:57 25.01.2020
4104 Clouds 31 1008 74 10000 3.1 50 01:23 25.01.2020
4105 Clouds 30 1008 70 10000 3.1 360 00:39 25.01.2020
4106 Clouds 30 1008 70 10000 3.1 360 00:18 25.01.2020
4107 Clouds 30 1008 74 10000 2.1 335 23:42 24.01.2020
4108 Clouds 30 1008 74 10000 2.1 335 23:42 24.01.2020
4109 Clouds 30 1008 74 10000 2.1 335 23:24 24.01.2020
4110 Clouds 27 1008 83 10000 0.87 224 22:46 24.01.2020
4111 Clouds 27 1008 83 10000 0.87 224 22:46 24.01.2020
4112 Clouds 27 1008 83 10000 0.87 224 22:28 24.01.2020
4113 Clouds 24 1008 100 10000 0.87 224 21:58 24.01.2020
4114 Clouds 24 1008 100 10000 0.87 224 21:40 24.01.2020
4115 Clouds 24 1008 100 10000 0.87 224 21:18 24.01.2020
4116 Clouds 23 1007 100 10000 0.87 224 20:43 24.01.2020
4117 Clouds 23 1007 100 10000 1.18 215 20:22 24.01.2020
4118 Clouds 23 1007 100 10000 1 160 19:58 24.01.2020
4119 Clouds 23 1007 100 10000 1 160 19:40 24.01.2020
4120 Clouds 23 1007 100 10000 1 160 19:22 24.01.2020
4121 Clouds 23 1007 100 10000 1 160 19:22 24.01.2020
4122 Clouds 23 1006 100 10000 1.18 215 18:54 24.01.2020
4123 Clouds 23 1006 100 10000 1.18 215 18:36 24.01.2020
4124 Clouds 23 1006 100 10000 1.18 215 18:18 24.01.2020
4125 Clouds 24 1007 100 10000 1 200 17:42 24.01.2020
4126 Clouds 24 1007 100 10000 1 200 17:21 24.01.2020
4127 Clouds 24 1007 100 10000 1 160 16:43 24.01.2020
4128 Clouds 24 1007 100 10000 1 160 16:22 24.01.2020
4129 Clouds 24 1007 100 10000 1 160 16:22 24.01.2020
4130 Clouds 24 1008 100 10000 1 160 15:56 24.01.2020
4131 Clouds 24 1008 100 10000 1 160 15:38 24.01.2020
4132 Clouds 24 1008 100 10000 1 160 15:19 24.01.2020
4133 Clouds 25 1008 94 10000 1 140 14:41 24.01.2020
4134 Clouds 25 1008 94 10000 1 140 14:41 24.01.2020
4135 Clouds 25 1008 94 10000 1 140 14:23 24.01.2020
4136 Clouds 25 1008 94 10000 1 140 14:23 24.01.2020
4137 Clouds 25 1009 94 10000 1.5 140 13:45 24.01.2020
4138 Clouds 25 1009 94 10000 1.5 140 13:24 24.01.2020
4139 Clouds 26 1009 94 10000 1.5 110 12:55 24.01.2020
4140 Clouds 26 1009 94 10000 1.5 110 12:36 24.01.2020
4141 Clouds 26 1009 94 10000 1.5 110 12:18 24.01.2020
4142 Clouds 26 1008 94 10000 2.1 140 11:42 24.01.2020
4143 Clouds 26 1008 94 10000 2.1 140 11:18 24.01.2020
4144 Rain 27 1008 94 10000 2.1 140 10:43 24.01.2020
4145 Rain 27 1008 94 10000 2.1 140 10:21 24.01.2020
4146 Clouds 27 1007 88 10000 3.1 140 09:55 24.01.2020
4147 Clouds 27 1007 88 10000 3.1 140 09:37 24.01.2020
4148 Clouds 27 1007 88 10000 3.1 140 09:18 24.01.2020
4149 Rain 31 1006 79 10000 2.1 140 08:40 24.01.2020
4150 Rain 31 1006 79 10000 2.1 140 08:19 24.01.2020
4151 Rain 30 1006 79 10000 3.6 320 07:49 24.01.2020
4152 Rain 30 1006 79 10000 3.6 320 07:24 24.01.2020
4153 Clouds 31 1006 74 10000 5.1 320 06:45 24.01.2020
4154 Clouds 31 1006 74 10000 5.1 320 06:24 24.01.2020
4155 Clouds 31 1006 74 10000 5.1 320 05:37 24.01.2020
4156 Clouds 31 1007 74 10000 3.6 360 03:47 24.01.2020
4157 Clouds 30 1008 74 10000 4.1 320 02:41 24.01.2020
4158 Clouds 30 1008 74 10000 4.1 320 02:22 24.01.2020
4159 Clouds 31 1009 66 10000 3.1 360 01:39 24.01.2020
4160 Clouds 31 1009 66 10000 2.6 340 00:52 24.01.2020
4161 Clouds 31 1009 66 10000 2.6 340 00:19 24.01.2020
4162 Clouds 31 1009 62 10000 1 50 23:42 23.01.2020
4163 Clouds 31 1009 62 10000 1 50 23:23 23.01.2020
4164 Clouds 27 1009 74 10000 2.1 180 22:58 23.01.2020
4165 Clouds 27 1009 74 10000 2.1 180 22:37 23.01.2020
4166 Clouds 27 1009 74 10000 2.1 180 22:37 23.01.2020
4167 Clouds 27 1009 74 10000 2.1 180 22:18 23.01.2020
4168 Clouds 24 1009 94 10000 0.69 203 21:55 23.01.2020
4169 Clouds 24 1009 94 10000 0.69 203 21:37 23.01.2020
4170 Clouds 24 1009 94 10000 0.69 203 21:19 23.01.2020
4171 Clouds 23 1008 94 10000 0.69 203 20:54 23.01.2020
4172 Clouds 23 1008 94 10000 0.47 219 20:36 23.01.2020
4173 Clouds 23 1008 94 10000 1.07 189 20:18 23.01.2020
4174 Clouds 23 1008 88 10000 1.07 189 19:42 23.01.2020
4175 Clouds 23 1008 88 10000 1.07 189 19:23 23.01.2020
4176 Clouds 23 1008 94 10000 1.07 189 18:57 23.01.2020
4177 Clouds 23 1008 94 10000 1.07 189 18:38 23.01.2020
4178 Clouds 23 1008 94 10000 1.07 189 18:19 23.01.2020
4179 Clouds 23 1008 100 10000 1.07 189 17:45 23.01.2020
4180 Clouds 23 1008 100 10000 1.25 218 17:21 23.01.2020
4181 Clouds 24 1008 94 10000 1.25 218 16:59 23.01.2020
4182 Clouds 24 1008 94 10000 1.25 218 16:39 23.01.2020
4183 Clouds 24 1008 94 10000 1.25 218 16:19 23.01.2020
4184 Clouds 24 1009 94 10000 1.25 218 15:58 23.01.2020
4185 Clouds 24 1009 94 10000 1.25 218 15:38 23.01.2020
4186 Clouds 24 1009 94 10000 1.25 218 15:38 23.01.2020
4187 Clouds 24 1009 94 10000 1.25 218 15:19 23.01.2020
4188 Clouds 25 1009 88 10000 1.25 218 14:58 23.01.2020
4189 Clouds 25 1009 88 10000 1.25 218 14:40 23.01.2020
4190 Clouds 25 1009 88 10000 1.28 216 14:21 23.01.2020
4191 Clouds 25 1010 88 10000 1.5 180 13:46 23.01.2020
4192 Clouds 25 1010 88 10000 1.5 180 13:21 23.01.2020
4193 Clouds 26 1010 83 10000 1 230 12:56 23.01.2020
4194 Clouds 26 1010 83 10000 1 230 12:56 23.01.2020
4195 Clouds 26 1010 83 10000 1 230 12:38 23.01.2020
4196 Clouds 26 1010 83 10000 1 230 12:20 23.01.2020
4197 Clouds 28 1009 78 10000 2.1 250 11:43 23.01.2020
4198 Clouds 28 1009 78 10000 2.1 250 11:25 23.01.2020
4199 Clouds 28 1008 78 10000 3.1 200 10:58 23.01.2020
4200 Clouds 28 1008 78 10000 3.1 200 10:40 23.01.2020
4201 Clouds 28 1008 78 10000 3.1 200 10:19 23.01.2020
4202 Clouds 29 1008 79 10000 2.1 180 09:41 23.01.2020
4203 Clouds 29 1008 79 10000 2.1 180 09:22 23.01.2020
4204 Clouds 31 1007 74 10000 3.1 320 08:56 23.01.2020
4205 Clouds 31 1007 74 10000 3.1 320 08:38 23.01.2020
4206 Clouds 31 1007 74 10000 3.1 320 08:18 23.01.2020
4207 Clouds 32 1007 66 10000 5.1 340 07:37 23.01.2020
4208 Clouds 32 1007 66 10000 5.1 340 07:18 23.01.2020
4209 Clouds 32 1007 70 10000 2.6 340 06:44 23.01.2020
4210 Clouds 32 1007 70 10000 2.6 340 06:18 23.01.2020
4211 Clouds 32 1008 66 10000 5.1 360 04:25 23.01.2020
4212 Clouds 32 1009 66 10000 3.1 20 03:23 23.01.2020
4213 Clouds 31 1010 62 10000 3.6 360 01:53 23.01.2020
4214 Clouds 31 1010 66 10000 2.6 360 00:44 23.01.2020
4215 Clouds 31 1010 66 10000 2.6 360 00:22 23.01.2020
4216 Clouds 30 1010 66 10000 1 200 23:46 22.01.2020
4217 Clouds 30 1010 66 10000 1 200 23:28 22.01.2020
4218 Clouds 27 1010 74 10000 1 200 22:43 22.01.2020
4219 Clouds 27 1010 74 10000 1 200 22:25 22.01.2020
4220 Clouds 25 1009 83 10000 1.5 200 21:58 22.01.2020
4221 Clouds 25 1009 83 10000 1.5 200 21:36 22.01.2020
4222 Clouds 25 1009 83 10000 1.5 200 21:36 22.01.2020
4223 Clouds 25 1009 83 10000 1.5 200 21:18 22.01.2020
4224 Clouds 24 1009 88 10000 1 200 20:42 22.01.2020
4225 Clouds 24 1009 88 10000 1 200 20:23 22.01.2020
4226 Clouds 24 1008 88 10000 1 180 19:59 22.01.2020
4227 Clouds 24 1008 88 10000 1 180 19:41 22.01.2020
4228 Clouds 24 1008 88 10000 1 180 19:20 22.01.2020
4229 Clouds 24 1008 94 10000 1 180 18:58 22.01.2020
4230 Clouds 24 1008 94 10000 1 180 18:39 22.01.2020
4231 Clouds 24 1008 94 10000 1 180 18:21 22.01.2020
4232 Clouds 22 1009 84 0 1.29 214 17:56 22.01.2020
4233 Clouds 22 1009 84 0 1.29 214 17:38 22.01.2020
4234 Clouds 25 1009 88 10000 1.43 212 17:19 22.01.2020
4235 Clouds 25 1009 88 10000 1.43 212 16:44 22.01.2020
4236 Clouds 25 1009 88 10000 1.43 212 16:24 22.01.2020
4237 Clouds 25 1009 94 10000 1.43 212 15:59 22.01.2020
4238 Clouds 25 1009 94 10000 1.43 212 15:41 22.01.2020
4239 Clouds 25 1009 94 10000 1.43 212 15:23 22.01.2020
4240 Clouds 25 1010 94 10000 1 200 14:58 22.01.2020
4241 Clouds 25 1010 94 10000 1 200 14:37 22.01.2020
4242 Clouds 25 1010 94 10000 1 200 14:19 22.01.2020
4243 Clouds 26 1010 88 10000 1 230 13:55 22.01.2020
4244 Clouds 26 1010 88 10000 1 230 13:36 22.01.2020
4245 Clouds 26 1010 88 10000 1 230 13:36 22.01.2020
4246 Clouds 26 1010 88 10000 1 230 13:36 22.01.2020
4247 Clouds 26 1010 88 10000 1 230 13:18 22.01.2020
4248 Clouds 27 1010 83 10000 1.38 200 12:55 22.01.2020
4249 Clouds 27 1010 83 10000 1.38 200 12:37 22.01.2020
4250 Clouds 27 1010 83 10000 1.38 200 12:18 22.01.2020
4251 Clouds 28 1009 78 10000 2.6 230 11:56 22.01.2020
4252 Clouds 28 1009 78 10000 2.6 230 11:37 22.01.2020
4253 Clouds 28 1009 78 10000 2.6 230 11:18 22.01.2020
4254 Clouds 29 1009 79 10000 2.6 180 10:43 22.01.2020
4255 Clouds 29 1009 79 10000 2.6 180 10:20 22.01.2020
4256 Rain 30 1008 84 10000 2.6 200 09:43 22.01.2020
4257 Rain 30 1008 84 10000 2.6 200 09:25 22.01.2020
4258 Clouds 30 1008 79 10000 2.1 320 08:57 22.01.2020
4259 Clouds 30 1007 79 10000 2.6 320 08:39 22.01.2020
4260 Clouds 30 1007 79 10000 2.6 320 08:21 22.01.2020
4261 Rain 32 1006 70 10000 5.1 340 07:49 22.01.2020
4262 Rain 32 1006 70 10000 5.1 340 07:30 22.01.2020
4263 Clouds 31 1007 74 10000 4.6 340 06:50 22.01.2020
4264 Clouds 31 1007 74 10000 4.6 340 06:26 22.01.2020
4265 Clouds 32 1007 66 10000 4.1 360 05:33 22.01.2020
4266 Clouds 31 1008 70 10000 5.1 360 04:18 22.01.2020
4267 Clouds 31 1008 70 10000 5.1 360 03:21 22.01.2020
4268 Clouds 31 1010 66 10000 4.1 20 01:43 22.01.2020
4269 Clouds 32 1010 66 10000 1.5 200 00:44 22.01.2020
4270 Clouds 32 1010 66 10000 1.5 200 00:26 22.01.2020
4271 Clouds 30 1010 74 10000 1 140 23:38 21.01.2020
4272 Clouds 30 1010 74 10000 1 140 23:20 21.01.2020
4273 Clouds 27 1010 83 10000 1.5 200 22:55 21.01.2020
4274 Clouds 27 1010 83 10000 1.5 200 22:55 21.01.2020
4275 Clouds 27 1010 83 10000 1.5 200 22:55 21.01.2020
4276 Clouds 27 1010 83 10000 1.5 200 22:55 21.01.2020
4277 Clouds 27 1010 83 10000 1.5 200 22:36 21.01.2020
4278 Clouds 27 1010 83 10000 1.5 200 22:18 21.01.2020
4279 Clouds 24 1009 100 10000 1 140 21:55 21.01.2020
4280 Clouds 24 1009 100 10000 1 140 21:37 21.01.2020
4281 Clouds 24 1009 100 10000 1 140 21:18 21.01.2020
4282 Clouds 23 1008 100 10000 1.5 230 20:39 21.01.2020
4283 Clouds 23 1008 100 10000 1.5 230 20:20 21.01.2020
4284 Clouds 23 1008 100 10000 1.36 198 19:59 21.01.2020
4285 Clouds 23 1008 100 10000 1.36 198 19:40 21.01.2020
4286 Clouds 23 1008 100 10000 1.36 198 19:21 21.01.2020
4287 Clouds 23 1008 100 10000 1.5 160 18:57 21.01.2020
4288 Clouds 23 1008 100 10000 1.5 160 18:39 21.01.2020
4289 Clouds 23 1008 100 10000 1.5 160 18:21 21.01.2020
4290 Clouds 24 1008 94 10000 1 140 17:57 21.01.2020
4291 Clouds 24 1008 94 10000 1 140 17:38 21.01.2020
4292 Clouds 24 1008 94 10000 1 140 17:18 21.01.2020
4293 Clouds 24 1008 94 10000 1.86 213 16:38 21.01.2020
4294 Clouds 24 1008 94 10000 1.86 213 16:19 21.01.2020
4295 Clouds 25 1009 94 10000 2.1 160 15:59 21.01.2020
4296 Clouds 25 1009 94 10000 2.1 160 15:38 21.01.2020
4297 Clouds 25 1009 94 10000 2.1 160 15:19 21.01.2020
4298 Clouds 25 1009 100 10000 1.5 180 14:40 21.01.2020
4299 Clouds 25 1009 100 10000 1.5 180 14:21 21.01.2020
4300 Clouds 26 1010 94 10000 1.5 230 13:43 21.01.2020
4301 Clouds 26 1010 94 10000 1.5 230 13:21 21.01.2020
4302 Clouds 26 1010 100 10000 1.62 222 12:59 21.01.2020
4303 Clouds 26 1010 100 10000 1.62 222 12:41 21.01.2020
4304 Clouds 26 1010 100 10000 1.62 222 12:23 21.01.2020
4305 Clouds 26 1010 100 10000 1.62 222 11:55 21.01.2020
4306 Clouds 26 1010 100 10000 1.62 222 11:36 21.01.2020
4307 Clouds 26 1010 100 10000 1.73 224 11:18 21.01.2020
4308 Clouds 27 1009 94 10000 1.73 224 10:42 21.01.2020
4309 Clouds 27 1009 94 10000 1.73 224 10:22 21.01.2020
4310 Clouds 27 1008 94 10000 1.73 224 09:43 21.01.2020
4311 Clouds 27 1008 94 10000 1.73 224 09:24 21.01.2020
4312 Clouds 28 1007 88 10000 4.6 140 08:58 21.01.2020
4313 Clouds 28 1007 88 10000 4.6 140 08:58 21.01.2020
4314 Clouds 28 1007 88 10000 4.6 140 08:40 21.01.2020
4315 Clouds 28 1007 88 10000 4.6 140 08:19 21.01.2020
4316 Clouds 31 1006 74 10000 5.1 320 07:42 21.01.2020
4317 Clouds 31 1006 74 10000 5.1 320 07:42 21.01.2020
4318 Clouds 31 1006 74 10000 5.1 320 07:23 21.01.2020
4319 Rain 31 1006 79 10000 3.6 340 06:55 21.01.2020
4320 Rain 31 1006 79 10000 3.6 340 06:37 21.01.2020
4321 Rain 32 1006 75 10000 5.1 340 05:50 21.01.2020
4322 Rain 32 1007 59 10000 3.6 340 04:41 21.01.2020
4323 Clouds 31 1009 79 10000 3.1 360 02:58 21.01.2020
4324 Clouds 31 1009 79 10000 3.1 360 02:19 21.01.2020
4325 Clouds 30 1010 70 10000 3.1 20 01:26 21.01.2020
4326 Clouds 30 1010 74 10000 2.6 360 00:38 21.01.2020
4327 Clouds 29 1010 79 10000 1.5 230 23:59 20.01.2020
4328 Clouds 29 1010 79 10000 1.5 230 23:41 20.01.2020
4329 Clouds 29 1010 79 10000 1.5 230 23:19 20.01.2020
4330 Clouds 26 1010 88 10000 1.5 140 22:58 20.01.2020
4331 Clouds 26 1010 88 10000 1.5 140 22:38 20.01.2020
4332 Clouds 26 1010 88 10000 1.5 140 22:20 20.01.2020
4333 Clouds 26 1010 88 10000 1.5 140 22:20 20.01.2020
4334 Clouds 24 1009 100 10000 1.11 198 21:58 20.01.2020
4335 Clouds 24 1009 100 10000 1.11 198 21:37 20.01.2020
4336 Clouds 24 1009 100 10000 1.11 198 21:19 20.01.2020
4337 Clouds 23 1008 100 10000 1.11 198 20:56 20.01.2020
4338 Clouds 23 1008 100 10000 1.11 198 20:38 20.01.2020
4339 Clouds 23 1008 100 10000 1.81 194 20:18 20.01.2020
4340 Clouds 23 1008 100 10000 1.81 194 19:56 20.01.2020
4341 Clouds 23 1008 100 10000 1.81 194 19:56 20.01.2020
4342 Clouds 23 1008 100 10000 1.81 194 19:37 20.01.2020
4343 Clouds 23 1008 100 10000 1.81 194 19:18 20.01.2020
4344 Clouds 24 1007 100 10000 1.81 194 18:43 20.01.2020
4345 Clouds 24 1007 100 10000 1.81 194 18:22 20.01.2020
4346 Clouds 24 1008 100 10000 1.5 160 17:41 20.01.2020
4347 Clouds 24 1008 100 10000 1.5 160 17:20 20.01.2020
4348 Clouds 24 1008 100 10000 1.5 160 17:20 20.01.2020
4349 Clouds 24 1008 94 10000 1 110 16:59 20.01.2020
4350 Clouds 24 1008 94 10000 1 110 16:37 20.01.2020
4351 Clouds 24 1008 94 10000 1 110 16:18 20.01.2020
4352 Clouds 24 1008 94 10000 1 110 16:18 20.01.2020
4353 Clouds 24 1009 100 10000 1 230 15:54 20.01.2020
4354 Clouds 24 1009 100 10000 1 230 15:36 20.01.2020
4355 Clouds 24 1009 100 10000 1 230 15:18 20.01.2020
4356 Clouds 25 1010 94 10000 1.85 208 14:41 20.01.2020
4357 Clouds 25 1010 94 10000 1.85 208 14:22 20.01.2020
4358 Clouds 25 1010 100 10000 1 230 13:58 20.01.2020
4359 Clouds 25 1010 100 10000 1 230 13:39 20.01.2020
4360 Clouds 25 1010 100 10000 1 230 13:20 20.01.2020
4361 Clouds 25 1010 100 10000 1.8 207 12:45 20.01.2020
4362 Clouds 25 1010 100 10000 1.8 207 12:26 20.01.2020
4363 Clouds 26 1009 94 10000 1.8 207 11:56 20.01.2020
4364 Clouds 26 1009 94 10000 1.8 207 11:37 20.01.2020
4365 Clouds 26 1009 94 10000 2.44 227 11:19 20.01.2020
4366 Clouds 26 1008 94 10000 1 160 10:47 20.01.2020
4367 Clouds 26 1008 94 10000 1 160 10:21 20.01.2020
4368 Rain 28 1008 83 10000 3.1 290 09:42 20.01.2020
4369 Rain 28 1008 83 10000 3.1 290 09:24 20.01.2020
4370 Rain 29 1007 79 10000 4.6 290 08:56 20.01.2020
4371 Rain 29 1007 79 10000 4.6 290 08:35 20.01.2020
4372 Clouds 26 1006 94 10000 2.1 320 07:59 20.01.2020
4373 Clouds 26 1006 94 10000 2.1 320 07:41 20.01.2020
4374 Clouds 26 1006 94 10000 2.1 320 07:21 20.01.2020
4375 Clouds 26 1006 94 10000 1.5 20 06:44 20.01.2020
4376 Clouds 26 1006 94 10000 1.5 20 06:22 20.01.2020
4377 Clouds 29 1005 83 10000 1.5 320 05:38 20.01.2020
4378 Clouds 29 1005 83 10000 1.5 320 05:19 20.01.2020
4379 Clouds 32 1006 75 10000 5.1 320 04:23 20.01.2020
4380 Clouds 31 1008 70 10000 3.1 360 01:58 20.01.2020
4381 Clouds 31 1008 70 10000 3.1 360 01:39 20.01.2020
4382 Clouds 30 1008 74 10000 3.1 20 00:56 20.01.2020
4383 Clouds 30 1008 74 10000 3.1 20 00:38 20.01.2020
4384 Clouds 30 1008 74 10000 3.1 20 00:38 20.01.2020
4385 Clouds 30 1008 74 10000 3.1 20 00:20 20.01.2020
4386 Clouds 30 1008 74 10000 1.88 338 23:38 19.01.2020
4387 Clouds 30 1008 74 10000 0.84 198 23:18 19.01.2020
4388 Clear 25 1008 80 0 0.84 198 22:55 19.01.2020
4389 Clear 25 1008 80 0 0.84 198 22:37 19.01.2020
4390 Clear 25 1008 80 0 0.84 198 22:19 19.01.2020
4391 Clouds 24 1007 94 10000 1 180 21:56 19.01.2020
4392 Clouds 24 1007 94 10000 1 180 21:37 19.01.2020
4393 Clouds 24 1007 94 10000 1 180 21:19 19.01.2020
4394 Clouds 23 1007 94 10000 1 180 20:56 19.01.2020
4395 Clouds 23 1007 94 10000 1 180 20:37 19.01.2020
4396 Clouds 23 1007 94 10000 1 180 20:19 19.01.2020
4397 Clouds 24 1006 94 10000 1.5 180 19:55 19.01.2020
4398 Clouds 24 1006 94 10000 1.5 180 19:37 19.01.2020
4399 Clouds 24 1006 94 10000 1.5 180 19:19 19.01.2020
4400 Clouds 24 1006 94 10000 1 180 18:55 19.01.2020
4401 Clouds 24 1006 94 10000 1 180 18:55 19.01.2020
4402 Clouds 24 1006 94 10000 1 180 18:36 19.01.2020
4403 Clouds 24 1006 94 10000 1 180 18:18 19.01.2020
4404 Clouds 24 1006 94 10000 1.5 200 17:56 19.01.2020
4405 Clouds 24 1006 94 10000 1.5 200 17:38 19.01.2020
4406 Clouds 24 1006 94 10000 1.5 200 17:18 19.01.2020
4407 Clouds 25 1006 94 10000 1 200 16:55 19.01.2020
4408 Clouds 25 1006 94 10000 1 200 16:36 19.01.2020
4409 Clouds 25 1006 94 10000 1 200 16:18 19.01.2020
4410 Clouds 25 1007 94 10000 1 200 15:41 19.01.2020
4411 Clouds 25 1007 94 10000 1 200 15:22 19.01.2020
4412 Clouds 25 1008 100 10000 1 200 14:59 19.01.2020
4413 Clouds 25 1008 100 10000 1 200 14:40 19.01.2020
4414 Clouds 25 1008 100 10000 1 200 14:19 19.01.2020
4415 Clouds 26 1008 94 10000 1.43 201 13:58 19.01.2020
4416 Clouds 26 1008 94 10000 1.43 201 13:39 19.01.2020
4417 Clouds 26 1008 94 10000 1.43 201 13:39 19.01.2020
4418 Clouds 26 1008 94 10000 1.51 208 13:20 19.01.2020
4419 Clouds 25 1008 94 10000 1.51 208 12:56 19.01.2020
4420 Clouds 25 1008 94 10000 1.51 208 12:37 19.01.2020
4421 Clouds 25 1008 94 10000 1.51 208 12:19 19.01.2020
4422 Clouds 25 1007 94 10000 2.6 110 11:56 19.01.2020
4423 Clouds 25 1007 94 10000 2.6 110 11:37 19.01.2020
4424 Clouds 25 1007 94 10000 2.6 110 11:18 19.01.2020
4425 Clouds 26 1007 88 10000 1 160 10:39 19.01.2020
4426 Clouds 26 1007 88 10000 1 160 10:19 19.01.2020
4427 Clouds 27 1006 83 10000 2.6 110 09:56 19.01.2020
4428 Clouds 27 1006 83 10000 2.6 110 09:37 19.01.2020
4429 Clouds 27 1006 83 10000 2.6 110 09:19 19.01.2020
4430 Clouds 29 1005 83 10000 3.6 110 08:54 19.01.2020
4431 Clouds 29 1005 83 10000 3.6 110 08:30 19.01.2020
4432 Clouds 29 1004 74 10000 3.6 160 07:46 19.01.2020
4433 Clouds 29 1004 74 10000 3.6 160 07:27 19.01.2020
4434 Clouds 31 1004 66 10000 6.2 110 06:54 19.01.2020
4435 Clouds 31 1004 66 10000 6.2 110 06:21 19.01.2020
4436 Clouds 32 1005 70 10000 2.6 20 03:28 19.01.2020
4437 Clouds 31 1006 62 10000 3.1 340 02:26 19.01.2020
4438 Clouds 31 1007 62 10000 2.6 50 01:29 19.01.2020
4439 Clouds 31 1006 70 10000 1.74 3 00:54 19.01.2020
4440 Clouds 31 1006 66 10000 1.74 3 00:31 19.01.2020
4441 Clouds 31 1006 66 10000 1.74 3 23:59 18.01.2020
4442 Clouds 31 1006 66 10000 1.74 3 23:41 18.01.2020
4443 Clouds 31 1006 66 10000 1.74 3 23:23 18.01.2020
4444 Clouds 26 1006 78 10000 1.5 200 22:55 18.01.2020
4445 Clouds 26 1006 78 10000 1.5 200 22:37 18.01.2020
4446 Clouds 26 1006 78 10000 1.5 200 22:19 18.01.2020
4447 Clouds 23 1006 94 10000 1.5 200 21:57 18.01.2020
4448 Clouds 23 1006 94 10000 1.5 200 21:37 18.01.2020
4449 Clouds 23 1006 94 10000 1.5 200 21:19 18.01.2020
4450 Clouds 22 1005 100 10000 0.92 212 20:43 18.01.2020
4451 Clouds 22 1005 100 10000 1.69 192 20:21 18.01.2020
4452 Clouds 23 1005 94 10000 1.69 192 19:57 18.01.2020
4453 Clouds 23 1005 94 10000 1.69 192 19:57 18.01.2020
4454 Clouds 23 1005 94 10000 1.69 192 19:39 18.01.2020
4455 Clouds 23 1005 94 10000 1.69 192 19:39 18.01.2020
4456 Clouds 23 1005 94 10000 1.69 192 19:21 18.01.2020
4457 Clouds 23 1004 94 10000 1.5 160 18:42 18.01.2020
4458 Clouds 23 1004 94 10000 1.5 160 18:21 18.01.2020
4459 Clouds 24 1004 94 10000 1.69 192 17:55 18.01.2020
4460 Clouds 24 1004 94 10000 1.69 192 17:37 18.01.2020
4461 Clouds 24 1004 94 10000 1.86 201 17:18 18.01.2020
4462 Clouds 24 1004 88 10000 1.5 160 16:41 18.01.2020
4463 Clouds 24 1004 88 10000 1.5 160 16:23 18.01.2020
4464 Clouds 24 1005 94 10000 1.86 201 15:59 18.01.2020
4465 Clouds 24 1005 94 10000 1.86 201 15:40 18.01.2020
4466 Clouds 24 1005 94 10000 1.86 201 15:22 18.01.2020
4467 Clouds 25 1006 88 10000 1.86 201 14:44 18.01.2020
4468 Clouds 25 1006 88 10000 1.86 201 14:24 18.01.2020
4469 Clouds 26 1006 88 10000 2.1 205 13:59 18.01.2020
4470 Clouds 26 1006 88 10000 2.1 205 13:41 18.01.2020
4471 Clouds 26 1006 88 10000 2.05 207 13:21 18.01.2020
4472 Clouds 26 1006 88 10000 1 200 12:55 18.01.2020
4473 Clouds 26 1006 88 10000 1 200 12:36 18.01.2020
4474 Clouds 26 1006 88 10000 1 200 12:18 18.01.2020
4475 Clouds 27 1005 78 10000 1 180 11:43 18.01.2020
4476 Clouds 27 1005 78 10000 1 180 11:21 18.01.2020
4477 Clouds 29 1005 58 10000 1 290 10:45 18.01.2020
4478 Clouds 29 1005 58 10000 1 290 10:22 18.01.2020
4479 Clouds 30 1004 74 10000 2.1 230 09:57 18.01.2020
4480 Clouds 30 1004 74 10000 2.1 230 09:39 18.01.2020
4481 Clouds 30 1004 74 10000 2.1 230 09:19 18.01.2020
4482 Clouds 32 1003 66 10000 2.1 160 08:42 18.01.2020
4483 Clouds 32 1003 66 10000 2.1 160 08:20 18.01.2020
4484 Clouds 33 1001 59 10000 2.6 110 07:58 18.01.2020
4485 Clouds 33 1001 59 10000 2.6 110 07:37 18.01.2020
4486 Clouds 33 1001 59 10000 3.6 90 06:50 18.01.2020
4487 Clouds 33 1001 63 10000 3.6 90 06:27 18.01.2020
4488 Clouds 33 1002 66 10000 3.1 70 05:45 18.01.2020
4489 Clouds 32 1003 66 10000 1.5 20 04:19 18.01.2020
4490 Clouds 31 1004 70 10000 5.1 50 02:21 18.01.2020
4491 Clouds 31 1004 62 10000 3.6 50 01:36 18.01.2020
4492 Clouds 32 1005 66 10000 1 110 00:38 18.01.2020
4493 Clouds 32 1005 66 10000 1 110 00:19 18.01.2020
4494 Clouds 30 1005 74 10000 2.1 110 23:44 17.01.2020
4495 Clouds 30 1005 74 10000 2.1 110 23:20 17.01.2020
4496 Clouds 26 1005 83 10000 1 180 22:59 17.01.2020
4497 Clouds 26 1005 83 10000 1 180 22:40 17.01.2020
4498 Clouds 26 1005 83 10000 1 180 22:19 17.01.2020
4499 Clouds 24 1004 94 10000 1 200 21:42 17.01.2020
4500 Clouds 24 1004 94 10000 1 200 21:24 17.01.2020
4501 Clouds 23 1004 100 10000 1 200 20:59 17.01.2020
4502 Clouds 23 1004 100 10000 1 200 20:40 17.01.2020
4503 Clouds 23 1004 100 10000 1 200 20:20 17.01.2020
4504 Clouds 24 1003 94 10000 1 140 19:57 17.01.2020
4505 Clouds 24 1003 94 10000 1 140 19:38 17.01.2020
4506 Clouds 24 1003 94 10000 1 140 19:19 17.01.2020
4507 Clouds 22 1003 91 0 2.14 206 18:56 17.01.2020
4508 Clouds 22 1003 91 0 2.14 206 18:56 17.01.2020
4509 Clouds 22 1003 91 0 2.14 206 18:36 17.01.2020
4510 Clouds 24 1003 94 10000 1 200 18:18 17.01.2020
4511 Clouds 24 1003 94 10000 1 200 17:39 17.01.2020
4512 Clouds 24 1003 94 10000 1 200 17:20 17.01.2020
4513 Clouds 24 1003 94 10000 1 180 16:43 17.01.2020
4514 Clouds 24 1003 94 10000 1 180 16:21 17.01.2020
4515 Clouds 24 1003 100 10000 1 180 15:55 17.01.2020
4516 Clouds 24 1003 100 10000 1 180 15:37 17.01.2020
4517 Clouds 24 1003 100 10000 1 180 15:19 17.01.2020
4518 Clouds 25 1004 94 10000 1.5 200 14:43 17.01.2020
4519 Clouds 25 1004 94 10000 1.5 200 14:23 17.01.2020
4520 Clouds 26 1004 88 10000 1 180 13:42 17.01.2020
4521 Clouds 26 1004 88 10000 1 180 13:22 17.01.2020
4522 Clouds 23 1006 88 0 2.26 205 12:46 17.01.2020
4523 Clouds 27 1004 83 10000 1 200 12:23 17.01.2020
4524 Clouds 27 1004 83 10000 1 200 11:41 17.01.2020
4525 Clouds 27 1004 83 10000 1 200 11:41 17.01.2020
4526 Clouds 27 1004 83 10000 1 200 11:20 17.01.2020
4527 Clouds 28 1004 78 10000 1 200 10:56 17.01.2020
4528 Clouds 28 1004 78 10000 1 200 10:37 17.01.2020
4529 Clouds 28 1004 78 10000 1 200 10:19 17.01.2020
4530 Rain 29 1003 74 10000 2.65 210 09:43 17.01.2020
4531 Rain 29 1003 74 10000 2.65 210 09:21 17.01.2020
4532 Clouds 31 1002 62 10000 2.6 230 08:56 17.01.2020
4533 Clouds 31 1002 62 10000 2.6 230 08:38 17.01.2020
4534 Clouds 31 1002 62 10000 2.6 230 08:19 17.01.2020
4535 Rain 29 1001 74 10000 4.6 230 07:43 17.01.2020
4536 Rain 29 1001 74 10000 4.6 230 07:43 17.01.2020
4537 Rain 29 1001 74 10000 4.6 230 07:24 17.01.2020
4538 Clouds 32 1001 62 10000 5.7 250 06:47 17.01.2020
4539 Clouds 32 1001 62 10000 5.7 250 06:29 17.01.2020
4540 Rain 30 1002 62 0 4.22 241 04:26 17.01.2020
4541 Rain 30 1002 62 0 4.22 241 02:56 17.01.2020
4542 Rain 30 1002 62 0 4.22 241 02:31 17.01.2020
4543 Clouds 29 1005 65 0 3 243 01:33 17.01.2020
4544 Clouds 29 1005 65 0 3 243 00:59 17.01.2020
4545 Clouds 29 1005 65 0 3 243 00:59 17.01.2020
4546 Clouds 29 1005 65 0 3 243 00:35 17.01.2020
4547 Clouds 30 1003 74 10000 3 243 23:56 16.01.2020
4548 Clouds 30 1003 74 10000 3 243 23:38 16.01.2020
4549 Clouds 30 1003 74 10000 2.87 228 23:19 16.01.2020
4550 Clouds 26 1003 88 10000 1 160 22:40 16.01.2020
4551 Clouds 26 1003 88 10000 1 160 22:21 16.01.2020
4552 Clouds 25 1003 94 10000 2.87 228 21:57 16.01.2020
4553 Clouds 25 1003 94 10000 2.87 228 21:37 16.01.2020
4554 Clouds 25 1003 94 10000 2.87 228 21:19 16.01.2020
4555 Clouds 25 1002 94 10000 1 230 20:56 16.01.2020
4556 Clouds 25 1002 94 10000 1 230 20:37 16.01.2020
4557 Clouds 25 1002 94 10000 1 230 20:18 16.01.2020
4558 Clouds 26 1001 83 10000 2.71 218 19:54 16.01.2020
4559 Clouds 26 1001 83 10000 2.71 218 19:54 16.01.2020
4560 Clouds 26 1001 83 10000 2.71 218 19:36 16.01.2020
4561 Clouds 26 1001 83 10000 2.71 218 19:18 16.01.2020
4562 Clouds 27 1001 78 10000 3.6 270 18:54 16.01.2020
4563 Clouds 27 1001 78 10000 3.6 270 18:36 16.01.2020
4564 Clouds 27 1001 78 10000 3.6 270 18:18 16.01.2020
4565 Clouds 27 1002 83 10000 4.6 270 17:41 16.01.2020
4566 Clouds 27 1002 83 10000 4.6 270 17:21 16.01.2020
4567 Clouds 27 1001 83 10000 2.6 270 16:56 16.01.2020
4568 Clouds 27 1001 83 10000 2.6 270 16:37 16.01.2020
4569 Clouds 27 1001 83 10000 2.6 270 16:19 16.01.2020
4570 Clouds 26 1002 88 10000 2.6 250 15:44 16.01.2020
4571 Clouds 26 1002 88 10000 2.6 250 15:21 16.01.2020
4572 Clouds 27 1003 83 10000 3.1 230 14:55 16.01.2020
4573 Clouds 27 1003 83 10000 3.1 230 14:37 16.01.2020
4574 Clouds 27 1003 83 10000 3.1 230 14:19 16.01.2020
4575 Clouds 26 1004 88 10000 3.1 180 13:43 16.01.2020
4576 Clouds 26 1004 88 10000 3.1 180 13:24 16.01.2020
4577 Clouds 27 1003 83 10000 1.5 140 12:46 16.01.2020
4578 Clouds 27 1003 83 10000 1.5 140 12:28 16.01.2020
4579 Clouds 27 1003 83 10000 4.1 270 11:56 16.01.2020
4580 Clouds 27 1003 83 10000 4.1 270 11:37 16.01.2020
4581 Clouds 27 1003 83 10000 4.1 270 11:19 16.01.2020
4582 Clouds 28 1003 83 10000 4.1 250 10:39 16.01.2020
4583 Clouds 28 1003 83 10000 4.1 250 10:20 16.01.2020
4584 Clouds 29 1003 79 10000 1.5 250 09:57 16.01.2020
4585 Clouds 29 1003 79 10000 1.5 250 09:38 16.01.2020
4586 Clouds 29 1003 79 10000 1.5 250 09:19 16.01.2020
4587 Clouds 30 1002 70 10000 5.1 270 08:49 16.01.2020
4588 Clouds 30 1002 70 10000 5.1 270 08:29 16.01.2020
4589 Clouds 32 1001 62 10000 4.1 250 07:57 16.01.2020
4590 Clouds 32 1001 62 10000 4.1 250 07:37 16.01.2020
4591 Clouds 32 1001 62 10000 4.1 250 07:18 16.01.2020
4592 Rain 31 1000 74 10000 3.6 70 06:42 16.01.2020
4593 Clouds 31 1000 70 10000 3.1 20 05:58 16.01.2020
4594 Clouds 31 1000 70 10000 3.1 20 05:39 16.01.2020
4595 Rain 31 1000 74 10000 3.1 70 04:37 16.01.2020
4596 Rain 31 1000 74 10000 3.1 70 04:37 16.01.2020
4597 Clouds 31 1001 70 10000 2.1 90 03:28 16.01.2020
4598 Clouds 32 1002 66 10000 1.5 200 02:36 16.01.2020
4599 Rain 28 1004 88 10000 1.5 270 00:48 16.01.2020
4600 Rain 28 1004 88 10000 1.5 270 00:24 16.01.2020
4601 Rain 27 1004 94 10000 1.5 180 23:48 15.01.2020
4602 Rain 27 1004 94 10000 1.5 180 23:23 15.01.2020
4603 Clouds 26 1000 94 10000 3.1 160 22:57 15.01.2020
4604 Clouds 26 1000 94 10000 3.1 160 22:39 15.01.2020
4605 Clouds 26 1000 94 10000 3.1 160 22:19 15.01.2020
4606 Clouds 25 1003 100 0 1.5 140 21:57 15.01.2020
4607 Clouds 25 1003 100 0 1.5 140 21:37 15.01.2020
4608 Clouds 25 1003 100 0 1.5 140 21:37 15.01.2020
4609 Clouds 25 1003 100 0 1.5 140 21:19 15.01.2020
4610 Drizzle 25 1002 100 10000 2.1 230 20:56 15.01.2020
4611 Drizzle 25 1002 100 10000 2.1 230 20:38 15.01.2020
4612 Drizzle 25 1002 100 10000 2.1 230 20:19 15.01.2020
4613 Drizzle 25 1001 94 10000 3.25 223 19:54 15.01.2020
4614 Drizzle 25 1001 94 10000 3.25 223 19:36 15.01.2020
4615 Drizzle 25 1001 94 10000 3.25 223 19:18 15.01.2020
4616 Rain 25 1001 100 10000 3.25 223 18:56 15.01.2020
4617 Rain 25 1001 100 10000 3.25 223 18:37 15.01.2020
4618 Rain 25 1001 100 10000 3.25 223 18:19 15.01.2020
4619 Rain 25 1001 100 10000 1.5 200 17:55 15.01.2020
4620 Rain 25 1001 100 10000 1.5 200 17:37 15.01.2020
4621 Rain 25 1001 100 10000 1.5 200 17:18 15.01.2020
4622 Rain 25 1002 100 10000 4.6 270 16:40 15.01.2020
4623 Rain 25 1002 100 10000 4.6 270 16:21 15.01.2020
4624 Clouds 25 1003 100 10000 4.22 242 15:56 15.01.2020
4625 Clouds 25 1003 100 10000 4.22 242 15:38 15.01.2020
4626 Clouds 25 1003 100 10000 4.22 242 15:18 15.01.2020
4627 Clouds 25 1003 100 10000 4.22 242 14:42 15.01.2020
4628 Clouds 25 1003 100 10000 2.35 252 14:19 15.01.2020
4629 Clouds 25 1003 100 10000 1 50 13:46 15.01.2020
4630 Clouds 25 1003 100 10000 1 50 13:26 15.01.2020
4631 Drizzle 26 1003 94 10000 2.1 290 12:59 15.01.2020
4632 Drizzle 26 1003 94 10000 2.1 290 12:39 15.01.2020
4633 Drizzle 26 1003 94 10000 2.1 290 12:19 15.01.2020
4634 Clouds 25 1003 100 10000 5.1 290 11:56 15.01.2020
4635 Clouds 25 1003 100 10000 5.1 290 11:36 15.01.2020
4636 Clouds 25 1003 100 10000 5.1 290 11:18 15.01.2020
4637 Clouds 26 1003 94 10000 6.2 290 10:41 15.01.2020
4638 Clouds 26 1003 94 10000 6.2 290 10:23 15.01.2020
4639 Rain 27 1002 88 10000 4.1 320 09:42 15.01.2020
4640 Rain 27 1002 88 10000 4.1 320 09:22 15.01.2020
4641 Rain 28 1001 83 10000 6.2 290 08:55 15.01.2020
4642 Rain 28 1001 83 10000 6.2 290 08:37 15.01.2020
4643 Rain 28 1001 83 10000 6.2 290 08:19 15.01.2020
4644 Rain 28 1000 83 10000 3.1 320 07:43 15.01.2020
4645 Rain 28 1000 83 10000 3.1 320 07:24 15.01.2020
4646 Clouds 28 1001 88 10000 6.2 270 06:44 15.01.2020
4647 Clouds 26 1002 94 10000 6.7 290 05:57 15.01.2020
4648 Clouds 29 1003 83 10000 7.2 290 03:56 15.01.2020
4649 Clouds 29 1003 83 10000 5.1 290 02:28 15.01.2020
4650 Clouds 30 1004 74 10000 5.7 290 01:22 15.01.2020
4651 Clouds 31 1003 74 10000 6.2 270 00:44 15.01.2020
4652 Clouds 31 1003 74 10000 6.2 270 00:25 15.01.2020
4653 Clouds 30 1003 79 10000 6.2 270 23:47 14.01.2020
4654 Clouds 30 1003 79 10000 6.2 270 23:29 14.01.2020
4655 Rain 29 1004 79 10000 5.7 290 22:59 14.01.2020
4656 Rain 29 1004 79 10000 5.7 290 22:40 14.01.2020
4657 Rain 29 1004 79 10000 5.7 290 22:19 14.01.2020
4658 Clouds 28 1003 83 10000 3.6 290 21:58 14.01.2020
4659 Clouds 28 1003 83 10000 3.6 290 21:39 14.01.2020
4660 Clouds 28 1003 83 10000 3.6 290 21:20 14.01.2020
4661 Rain 27 1002 88 10000 2.6 270 20:56 14.01.2020
4662 Rain 26 1004 83 0 3.5 252 20:38 14.01.2020
4663 Rain 27 1002 88 10000 4.6 290 20:18 14.01.2020
4664 Rain 27 1002 88 10000 4.6 290 19:55 14.01.2020
4665 Rain 27 1002 88 10000 4.6 290 19:37 14.01.2020
4666 Rain 27 1002 88 10000 4.6 290 19:18 14.01.2020
4667 Rain 27 1002 88 10000 4.6 290 19:18 14.01.2020
4668 Rain 24 1002 91 0 3.04 248 18:41 14.01.2020
4669 Clouds 27 1002 94 10000 5.1 290 18:20 14.01.2020
4670 Clouds 27 1002 94 10000 5.1 290 17:56 14.01.2020
4671 Clouds 27 1002 94 10000 5.1 290 17:36 14.01.2020
4672 Clouds 27 1002 94 10000 5.1 290 17:18 14.01.2020
4673 Clouds 26 1003 94 10000 2.6 290 16:42 14.01.2020
4674 Clouds 26 1003 94 10000 2.6 290 16:22 14.01.2020
4675 Rain 26 1004 100 10000 2.6 290 15:56 14.01.2020
4676 Rain 26 1004 100 10000 2.6 290 15:38 14.01.2020
4677 Rain 26 1004 100 10000 2.6 290 15:19 14.01.2020
4678 Drizzle 26 1004 94 10000 1.5 160 14:43 14.01.2020
4679 Drizzle 26 1004 94 10000 1.5 160 14:20 14.01.2020
4680 Drizzle 26 1005 94 10000 1.5 290 13:55 14.01.2020
4681 Drizzle 26 1005 94 10000 1.5 290 13:37 14.01.2020
4682 Drizzle 26 1005 94 10000 1.5 290 13:18 14.01.2020
4683 Drizzle 27 1005 88 10000 4.1 250 12:41 14.01.2020
4684 Drizzle 27 1005 88 10000 4.1 250 12:20 14.01.2020
4685 Rain 27 1004 88 10000 6.2 270 11:43 14.01.2020
4686 Rain 27 1004 88 10000 6.2 270 11:23 14.01.2020
4687 Drizzle 27 1003 88 10000 5.1 270 10:59 14.01.2020
4688 Drizzle 27 1003 88 10000 5.1 270 10:40 14.01.2020
4689 Drizzle 27 1003 88 10000 5.1 270 10:20 14.01.2020
4690 Clouds 27 1003 88 10000 3.6 270 09:57 14.01.2020
4691 Clouds 27 1003 88 10000 3.6 270 09:57 14.01.2020
4692 Clouds 27 1003 88 10000 3.6 270 09:39 14.01.2020
4693 Clouds 27 1003 88 10000 3.6 270 09:20 14.01.2020
4694 Drizzle 26 1002 94 10000 2.6 250 08:46 14.01.2020
4695 Drizzle 26 1002 94 10000 2.6 250 08:24 14.01.2020
4696 Rain 26 1003 100 0 6.2 270 07:53 14.01.2020
4697 Clouds 28 1001 70 0 4.45 244 07:33 14.01.2020
4698 Drizzle 28 1002 94 10000 5.1 290 06:51 14.01.2020
4699 Drizzle 28 1002 94 10000 5.1 290 06:23 14.01.2020
4700 Drizzle 30 1001 79 10000 6.2 290 05:21 14.01.2020
4701 Clouds 31 1002 74 10000 6.2 290 03:51 14.01.2020
4702 Rain 35 1003 59 10000 8.2 250 02:42 14.01.2020
4703 Rain 33 1003 63 10000 6.2 270 01:35 14.01.2020
4704 Rain 32 1004 66 10000 7.2 290 00:49 14.01.2020
4705 Rain 32 1004 66 10000 7.2 290 00:28 14.01.2020
4706 Clouds 32 1003 66 10000 7.2 270 23:48 13.01.2020
4707 Clouds 32 1003 66 10000 7.2 270 23:20 13.01.2020
4708 Clouds 30 1003 70 10000 5.7 290 23:00 13.01.2020
4709 Clouds 30 1003 70 10000 5.7 290 22:40 13.01.2020
4710 Clouds 30 1003 70 10000 5.7 290 22:20 13.01.2020
4711 Clouds 29 1002 74 10000 5.1 270 21:56 13.01.2020
4712 Clouds 29 1002 74 10000 5.1 270 21:37 13.01.2020
4713 Clouds 29 1002 74 10000 5.1 270 21:18 13.01.2020
4714 Clouds 28 1002 78 10000 5.7 270 20:57 13.01.2020
4715 Clouds 28 1002 78 10000 5.7 270 20:57 13.01.2020
4716 Clouds 28 1002 78 10000 5.7 270 20:38 13.01.2020
4717 Clouds 28 1002 78 10000 5.7 270 20:20 13.01.2020
4718 Clouds 28 1002 74 10000 5.1 270 19:56 13.01.2020
4719 Clouds 28 1002 74 10000 5.1 270 19:37 13.01.2020
4720 Clouds 28 1002 74 10000 5.1 270 19:18 13.01.2020
4721 Clouds 27 1001 83 10000 4.1 290 18:55 13.01.2020
4722 Clouds 27 1001 83 10000 4.1 290 18:36 13.01.2020
4723 Clouds 27 1001 83 10000 4.1 290 18:18 13.01.2020
4724 Clouds 27 1002 83 10000 4.1 290 17:40 13.01.2020
4725 Clouds 27 1002 83 10000 4.1 290 17:21 13.01.2020
4726 Clouds 24 1002 85 0 3.22 228 16:56 13.01.2020
4727 Clouds 24 1002 85 0 3.22 228 16:37 13.01.2020
4728 Clouds 24 1002 85 0 3.22 228 16:18 13.01.2020
4729 Clouds 24 1002 85 0 3.22 228 15:42 13.01.2020
4730 Clouds 24 1002 85 0 3.22 228 15:22 13.01.2020
4731 Clouds 24 1002 85 0 3.22 228 14:56 13.01.2020
4732 Clouds 24 1002 85 0 3.22 228 14:36 13.01.2020
4733 Clouds 24 1005 86 0 3.14 231 14:18 13.01.2020
4734 Clouds 24 1005 86 0 3.14 231 13:40 13.01.2020
4735 Clouds 24 1005 87 0 3.19 234 13:22 13.01.2020
4736 Clouds 24 1005 87 0 3.19 234 12:58 13.01.2020
4737 Clouds 24 1005 87 0 3.19 234 12:40 13.01.2020
4738 Clouds 29 1003 74 10000 3.1 270 12:21 13.01.2020
4739 Clouds 29 1003 74 10000 3.1 270 11:40 13.01.2020
4740 Clouds 29 1003 74 10000 3.1 270 11:20 13.01.2020
4741 Clouds 29 1003 70 10000 5.1 290 10:58 13.01.2020
4742 Clouds 29 1003 70 10000 5.1 290 10:39 13.01.2020
4743 Clouds 29 1003 70 10000 5.1 290 10:39 13.01.2020
4744 Clouds 29 1003 70 10000 5.1 290 10:39 13.01.2020
4745 Clouds 29 1003 70 10000 5.1 290 10:21 13.01.2020
4746 Clouds 30 1002 70 10000 6.2 290 09:59 13.01.2020
4747 Clouds 30 1002 70 10000 6.2 290 09:40 13.01.2020
4748 Clouds 30 1002 70 10000 6.2 290 09:21 13.01.2020
4749 Clouds 30 1001 70 10000 6.2 270 08:41 13.01.2020
4750 Clouds 30 1001 70 10000 6.2 270 08:20 13.01.2020
4751 Clouds 32 1000 52 10000 5.1 270 07:48 13.01.2020
4752 Clouds 32 1000 52 10000 5.1 270 07:27 13.01.2020
4753 Clouds 33 1000 55 10000 8.7 270 06:43 13.01.2020
4754 Clouds 33 1000 55 10000 8.7 270 06:21 13.01.2020
4755 Clouds 34 1000 56 10000 8.2 270 05:23 13.01.2020
4756 Clouds 34 1001 56 10000 5.7 270 03:54 13.01.2020
4757 Clouds 34 1001 56 10000 5.7 270 03:22 13.01.2020
4758 Clouds 33 1002 63 10000 6.2 270 02:44 13.01.2020
4759 Clouds 33 1002 63 10000 6.2 270 02:24 13.01.2020
4760 Clouds 32 1003 59 10000 5.7 270 01:18 13.01.2020
4761 Clouds 30 1003 79 10000 4.1 290 00:40 13.01.2020
4762 Clouds 30 1003 79 10000 4.1 290 00:21 13.01.2020
4763 Clouds 28 1003 94 10000 2.25 237 23:41 12.01.2020
4764 Clouds 28 1003 94 10000 2.25 237 23:23 12.01.2020
4765 Rain 26 1003 94 10000 1.5 180 22:57 12.01.2020
4766 Rain 26 1003 94 10000 1.5 180 22:39 12.01.2020
4767 Rain 26 1003 94 10000 1.5 180 22:21 12.01.2020
4768 Clouds 25 1002 100 10000 2.1 180 21:55 12.01.2020
4769 Clouds 25 1002 100 10000 2.1 180 21:37 12.01.2020
4770 Clouds 25 1002 100 10000 2.1 180 21:19 12.01.2020
4771 Drizzle 25 1001 100 10000 1 90 20:55 12.01.2020
4772 Drizzle 25 1001 100 10000 1 90 20:37 12.01.2020
4773 Drizzle 25 1001 100 10000 1 90 20:19 12.01.2020
4774 Drizzle 25 1001 100 10000 2.1 250 19:55 12.01.2020
4775 Drizzle 25 1001 100 10000 2.1 250 19:36 12.01.2020
4776 Drizzle 25 1001 100 10000 2.1 250 19:18 12.01.2020
4777 Clouds 25 1001 100 10000 2.1 200 18:56 12.01.2020
4778 Clouds 25 1001 100 10000 2.1 200 18:38 12.01.2020
4779 Clouds 25 1001 100 10000 2.1 200 18:19 12.01.2020
4780 Drizzle 25 1001 100 10000 1 140 17:42 12.01.2020
4781 Drizzle 25 1001 100 10000 1 140 17:21 12.01.2020
4782 Drizzle 25 1001 100 10000 1 200 16:57 12.01.2020
4783 Drizzle 25 1001 100 10000 1 200 16:38 12.01.2020
4784 Drizzle 25 1001 100 10000 1 200 16:19 12.01.2020
4785 Rain 23 1001 92 0 2.68 252 15:43 12.01.2020
4786 Rain 23 1001 92 0 2.68 252 15:25 12.01.2020
4787 Drizzle 26 1003 94 10000 2.1 250 14:59 12.01.2020
4788 Drizzle 26 1003 94 10000 2.1 250 14:41 12.01.2020
4789 Drizzle 26 1003 94 10000 2.1 250 14:21 12.01.2020
4790 Drizzle 26 1003 94 10000 2.1 250 13:56 12.01.2020
4791 Drizzle 26 1003 94 10000 2.1 250 13:38 12.01.2020
4792 Drizzle 26 1003 94 10000 2.1 250 13:20 12.01.2020
4793 Drizzle 25 1003 100 10000 1 270 12:43 12.01.2020
4794 Drizzle 25 1003 100 10000 1 270 12:21 12.01.2020
4795 Rain 26 1003 94 10000 2.6 270 11:59 12.01.2020
4796 Rain 26 1003 94 10000 2.6 270 11:39 12.01.2020
4797 Rain 26 1003 94 10000 2.6 270 11:21 12.01.2020
4798 Rain 26 1003 94 10000 4.1 290 10:42 12.01.2020
4799 Rain 26 1003 94 10000 4.1 290 10:22 12.01.2020
4800 Rain 24 1003 94 0 2.88 248 09:59 12.01.2020
4801 Rain 24 1003 94 0 2.88 248 09:41 12.01.2020
4802 Drizzle 26 1002 100 10000 3.1 270 09:20 12.01.2020
4803 Drizzle 26 1002 100 10000 3.1 270 08:45 12.01.2020
4804 Drizzle 26 1002 100 10000 3.1 270 08:21 12.01.2020
4805 Clouds 28 1001 83 10000 4.1 290 07:44 12.01.2020
4806 Clouds 28 1001 83 10000 4.1 290 07:25 12.01.2020
4807 Clouds 29 1001 79 10000 6.2 290 06:49 12.01.2020
4808 Clouds 29 1001 79 10000 6.2 290 06:30 12.01.2020
4809 Clouds 30 1001 74 10000 3.1 340 05:37 12.01.2020
4810 Clouds 30 1001 74 10000 6.2 320 04:30 12.01.2020
4811 Clouds 31 1002 74 10000 5.1 340 03:25 12.01.2020
4812 Clouds 30 1003 79 10000 5.1 320 02:34 12.01.2020
4813 Clouds 29 1003 83 10000 3.1 360 01:51 12.01.2020
4814 Clouds 29 1003 83 10000 3.1 360 01:29 12.01.2020
4815 Clouds 29 1003 83 10000 2.6 340 00:41 12.01.2020
4816 Clouds 29 1003 83 10000 2.6 340 00:20 12.01.2020
4817 Clouds 29 1003 83 10000 2.6 340 00:20 12.01.2020
4818 Clouds 29 1004 83 10000 2.81 304 23:42 11.01.2020
4819 Clouds 29 1004 83 10000 1.95 305 23:20 11.01.2020
4820 Clouds 26 1003 88 10000 1.95 305 22:58 11.01.2020
4821 Clouds 26 1003 88 10000 1.95 305 22:58 11.01.2020
4822 Clouds 26 1003 88 10000 1.95 305 22:40 11.01.2020
4823 Clouds 26 1003 88 10000 1.95 305 22:20 11.01.2020
4824 Clouds 24 1003 100 10000 1.95 305 21:58 11.01.2020
4825 Clouds 24 1003 100 10000 1.95 305 21:40 11.01.2020
4826 Clouds 24 1003 100 10000 1.95 305 21:18 11.01.2020
4827 Clouds 24 1002 100 10000 1.5 140 20:41 11.01.2020
4828 Clouds 24 1002 100 10000 1.5 140 20:22 11.01.2020
4829 Clouds 24 1002 100 10000 2.15 325 19:58 11.01.2020
4830 Clouds 24 1002 100 10000 2.15 325 19:39 11.01.2020
4831 Clouds 24 1002 100 10000 2.15 325 19:21 11.01.2020
4832 Clouds 24 1002 100 10000 1 140 18:58 11.01.2020
4833 Clouds 24 1002 100 10000 1 140 18:38 11.01.2020
4834 Clouds 24 1002 100 10000 1 140 18:19 11.01.2020
4835 Clouds 25 1001 94 10000 2.15 325 17:57 11.01.2020
4836 Clouds 25 1001 94 10000 2.15 325 17:57 11.01.2020
4837 Clouds 25 1001 94 10000 2.15 325 17:39 11.01.2020
4838 Clouds 25 1001 94 10000 0.97 285 17:19 11.01.2020
4839 Clouds 25 1002 94 10000 0.97 285 16:44 11.01.2020
4840 Clouds 25 1002 94 10000 0.97 285 16:26 11.01.2020
4841 Clouds 25 1003 100 10000 1 140 15:58 11.01.2020
4842 Clouds 25 1003 100 10000 1 140 15:40 11.01.2020
4843 Clouds 25 1003 100 10000 1 140 15:20 11.01.2020
4844 Clouds 25 1004 100 10000 0.97 285 14:56 11.01.2020
4845 Clouds 25 1004 100 10000 0.97 285 14:38 11.01.2020
4846 Clouds 25 1004 100 10000 1.36 276 14:19 11.01.2020
4847 Drizzle 25 1005 100 10000 1.36 276 13:39 11.01.2020
4848 Drizzle 25 1005 100 10000 1.36 276 13:20 11.01.2020
4849 Drizzle 25 1005 100 10000 1.7 280 12:56 11.01.2020
4850 Drizzle 25 1005 100 10000 1.7 280 12:38 11.01.2020
4851 Drizzle 25 1005 100 10000 1.7 280 12:20 11.01.2020
4852 Rain 25 1005 100 0 2.1 140 11:45 11.01.2020
4853 Rain 25 1005 100 0 2.1 140 11:24 11.01.2020
4854 Rain 25 1005 100 0 2.1 110 10:50 11.01.2020
4855 Rain 25 1005 100 0 2.1 110 10:30 11.01.2020
4856 Clouds 25 1004 100 0 1.5 20 09:55 11.01.2020
4857 Clouds 25 1004 100 0 1.5 20 09:37 11.01.2020
4858 Clouds 25 1004 100 0 1.5 20 09:18 11.01.2020
4859 Clouds 27 1003 88 10000 3.6 320 08:41 11.01.2020
4860 Clouds 27 1003 88 10000 3.6 320 08:20 11.01.2020
4861 Clouds 30 1002 70 10000 2.1 20 07:43 11.01.2020
4862 Clouds 30 1002 70 10000 2.1 20 07:24 11.01.2020
4863 Clouds 30 1002 74 10000 3.1 340 06:45 11.01.2020
4864 Rain 31 1002 74 10000 2.6 20 05:31 11.01.2020
4865 Rain 31 1003 66 10000 4.1 20 04:43 11.01.2020
4866 Rain 31 1003 66 10000 4.1 20 04:25 11.01.2020
4867 Clouds 31 1004 70 10000 3.1 360 02:48 11.01.2020
4868 Rain 30 1005 70 10000 2.6 360 01:48 11.01.2020
4869 Rain 30 1005 70 10000 2.6 360 01:30 11.01.2020
4870 Clouds 29 1006 74 10000 2.6 20 00:58 11.01.2020
4871 Clouds 29 1006 74 10000 2.6 20 00:29 11.01.2020
4872 Clouds 29 1006 79 10000 1 20 23:59 10.01.2020
4873 Clouds 29 1006 79 10000 1 20 23:39 10.01.2020
4874 Clouds 29 1006 79 10000 1 20 23:20 10.01.2020
4875 Clouds 26 1006 88 10000 1.5 230 22:41 10.01.2020
4876 Clouds 26 1006 88 10000 1.5 230 22:22 10.01.2020
4877 Clouds 24 1005 100 10000 1.7 117 21:59 10.01.2020
4878 Clouds 24 1005 100 10000 1.7 117 21:41 10.01.2020
4879 Clouds 24 1005 100 10000 1.7 117 21:20 10.01.2020
4880 Clouds 24 1004 100 10000 2.1 140 20:57 10.01.2020
4881 Clouds 24 1004 100 10000 2.1 140 20:39 10.01.2020
4882 Clouds 24 1004 100 10000 2.1 140 20:39 10.01.2020
4883 Clouds 24 1004 100 10000 2.1 140 20:20 10.01.2020
4884 Clouds 24 1004 100 10000 1.06 143 19:41 10.01.2020
4885 Clouds 24 1004 100 10000 1.06 143 19:21 10.01.2020
4886 Clouds 24 1003 100 10000 1.06 143 18:56 10.01.2020
4887 Clouds 24 1003 100 10000 1.06 143 18:37 10.01.2020
4888 Clouds 24 1003 100 10000 1.06 143 18:18 10.01.2020
4889 Clouds 24 1003 100 10000 1.06 143 17:56 10.01.2020
4890 Clouds 24 1003 100 10000 1.06 143 17:38 10.01.2020
4891 Clouds 24 1003 100 10000 1.4 180 17:19 10.01.2020
4892 Clouds 24 1003 100 10000 1.4 180 17:19 10.01.2020
4893 Clouds 25 1004 94 10000 1.4 180 16:42 10.01.2020
4894 Clouds 25 1004 94 10000 1.4 180 16:21 10.01.2020
4895 Clouds 25 1004 88 10000 1.4 180 15:57 10.01.2020
4896 Clouds 25 1004 88 10000 1.4 180 15:38 10.01.2020
4897 Clouds 25 1004 88 10000 1.4 180 15:19 10.01.2020
4898 Clouds 25 1006 94 10000 6.7 110 14:57 10.01.2020
4899 Clouds 25 1006 94 10000 6.7 110 14:39 10.01.2020
4900 Clouds 25 1006 94 10000 6.7 110 14:19 10.01.2020
4901 Clouds 25 1006 94 10000 1 160 13:55 10.01.2020
4902 Clouds 25 1006 94 10000 1 160 13:36 10.01.2020
4903 Clouds 25 1006 94 10000 1 160 13:18 10.01.2020
4904 Drizzle 26 1006 94 10000 1 250 12:54 10.01.2020
4905 Drizzle 26 1006 94 10000 1 250 12:36 10.01.2020
4906 Drizzle 26 1006 94 10000 1 250 12:18 10.01.2020
4907 Clouds 26 1006 94 10000 2.6 250 11:42 10.01.2020
4908 Clouds 26 1006 94 10000 2.6 250 11:42 10.01.2020
4909 Clouds 26 1006 94 10000 2.6 250 11:42 10.01.2020
4910 Clouds 26 1006 94 10000 2.6 250 11:21 10.01.2020
4911 Clouds 26 1005 88 10000 2.6 50 10:59 10.01.2020
4912 Clouds 26 1005 88 10000 2.6 50 10:38 10.01.2020
4913 Clouds 26 1005 88 10000 2.6 50 10:19 10.01.2020
4914 Rain 27 1005 88 10000 2.1 230 09:46 10.01.2020
4915 Rain 27 1005 88 10000 2.1 230 09:26 10.01.2020
4916 Clouds 28 1004 83 10000 3.1 160 08:57 10.01.2020
4917 Clouds 28 1004 83 10000 3.1 160 08:37 10.01.2020
4918 Clouds 28 1004 83 10000 3.1 160 08:37 10.01.2020
4919 Clouds 28 1004 83 10000 3.1 160 08:18 10.01.2020
4920 Rain 30 1003 79 10000 3.1 50 07:41 10.01.2020
4921 Rain 30 1003 79 10000 3.1 50 07:19 10.01.2020
4922 Clouds 31 1003 74 10000 3.1 50 06:37 10.01.2020
4923 Clouds 31 1003 74 10000 3.1 50 06:19 10.01.2020
4924 Clouds 32 1003 62 10000 3.6 50 04:44 10.01.2020
4925 Clouds 32 1004 66 10000 3.1 50 03:31 10.01.2020
4926 Clouds 31 1005 70 10000 2.6 50 02:52 10.01.2020
4927 Clouds 30 1006 74 10000 3.1 70 01:53 10.01.2020
4928 Clouds 30 1006 74 10000 3.1 70 01:29 10.01.2020
4929 Clouds 31 1006 74 10000 4.6 140 00:48 10.01.2020
4930 Clouds 31 1006 74 10000 4.6 140 00:30 10.01.2020
4931 Clouds 30 1006 79 10000 5.1 90 23:40 09.01.2020
4932 Clouds 30 1006 79 10000 5.1 90 23:21 09.01.2020
4933 Clouds 30 1006 79 10000 5.1 90 23:21 09.01.2020
4934 Clouds 28 1006 83 10000 2.6 140 22:58 09.01.2020
4935 Clouds 28 1006 83 10000 2.6 140 22:39 09.01.2020
4936 Clouds 28 1006 83 10000 2.6 140 22:19 09.01.2020
4937 Clouds 28 1006 83 10000 2.6 140 22:19 09.01.2020
4938 Clouds 25 1006 94 10000 1 160 21:58 09.01.2020
4939 Clouds 25 1006 94 10000 1 160 21:39 09.01.2020
4940 Clouds 25 1006 94 10000 1 160 21:20 09.01.2020
4941 Clouds 24 1006 100 10000 1.5 180 20:58 09.01.2020
4942 Clouds 24 1006 100 10000 1.5 180 20:40 09.01.2020
4943 Clouds 24 1006 100 10000 1.5 180 20:20 09.01.2020
4944 Clouds 24 1005 94 10000 1 160 19:59 09.01.2020
4945 Clouds 24 1005 94 10000 1 160 19:39 09.01.2020
4946 Clouds 24 1005 94 10000 1 160 19:20 09.01.2020
4947 Clouds 24 1005 100 10000 1 200 18:56 09.01.2020
4948 Clouds 24 1005 100 10000 1 200 18:38 09.01.2020
4949 Clouds 24 1005 100 10000 1 200 18:20 09.01.2020
4950 Clouds 24 1005 100 10000 1.5 180 17:41 09.01.2020
4951 Clouds 24 1005 100 10000 1.5 180 17:19 09.01.2020
4952 Rain 24 1005 100 10000 1.5 140 16:56 09.01.2020
4953 Rain 24 1005 100 10000 1.5 140 16:37 09.01.2020
4954 Rain 24 1005 100 10000 1.5 140 16:19 09.01.2020
4955 Rain 22 1005 97 0 1.88 121 15:42 09.01.2020
4956 Clouds 25 1007 100 10000 2.1 200 15:21 09.01.2020
4957 Clouds 25 1007 100 10000 2.1 200 14:55 09.01.2020
4958 Clouds 25 1007 100 10000 2.1 200 14:37 09.01.2020
4959 Clouds 25 1007 100 10000 2.1 200 14:18 09.01.2020
4960 Drizzle 25 1008 94 10000 1 160 13:55 09.01.2020
4961 Drizzle 25 1008 94 10000 1 160 13:55 09.01.2020
4962 Drizzle 25 1008 94 10000 1 160 13:36 09.01.2020
4963 Drizzle 25 1008 94 10000 1 160 13:18 09.01.2020
4964 Drizzle 25 1008 94 10000 0.96 141 12:42 09.01.2020
4965 Drizzle 25 1008 94 10000 0.96 141 12:22 09.01.2020
4966 Drizzle 25 1008 100 10000 1.5 160 11:58 09.01.2020
4967 Drizzle 25 1008 100 10000 1.5 160 11:40 09.01.2020
4968 Drizzle 25 1008 100 10000 1.5 160 11:22 09.01.2020
4969 Rain 26 1007 88 10000 1.5 160 10:44 09.01.2020
4970 Rain 26 1007 88 10000 1.5 160 10:23 09.01.2020
4971 Rain 26 1006 88 10000 1.59 162 09:59 09.01.2020
4972 Rain 26 1006 88 10000 1.59 162 09:39 09.01.2020
4973 Rain 26 1006 88 10000 1.59 162 09:21 09.01.2020
4974 Rain 26 1006 88 10000 1.59 162 09:21 09.01.2020
4975 Rain 23 1007 92 0 1.59 162 08:55 09.01.2020
4976 Rain 23 1007 92 0 1.59 162 08:37 09.01.2020
4977 Rain 24 1005 92 0 2.22 126 08:19 09.01.2020
4978 Rain 24 1005 92 0 2.22 126 07:42 09.01.2020
4979 Rain 24 1005 92 0 2.22 126 07:23 09.01.2020
4980 Rain 24 1005 92 0 2.22 126 06:39 09.01.2020
4981 Clouds 30 1004 84 10000 3.1 50 06:20 09.01.2020
4982 Clouds 30 1004 84 10000 3.1 50 05:48 09.01.2020
4983 Clouds 30 1006 79 10000 2.1 50 04:43 09.01.2020
4984 Clouds 28 1006 88 10000 1 160 03:31 09.01.2020
4985 Clouds 28 1008 88 10000 2.1 160 02:53 09.01.2020
4986 Clouds 28 1008 88 10000 2.1 160 02:24 09.01.2020
4987 Drizzle 27 1008 94 10000 2.1 140 01:38 09.01.2020
4988 Clouds 27 1008 88 10000 1 180 00:42 09.01.2020
4989 Clouds 27 1008 88 10000 1 180 00:21 09.01.2020
4990 Clouds 26 1008 94 10000 3.83 88 23:42 08.01.2020
4991 Clouds 26 1008 94 10000 3.83 88 23:42 08.01.2020
4992 Clouds 26 1008 94 10000 3.83 88 23:24 08.01.2020
4993 Clouds 25 1007 94 10000 1.5 180 22:58 08.01.2020
4994 Clouds 25 1007 94 10000 1.5 180 22:38 08.01.2020
4995 Clouds 25 1007 94 10000 1.5 180 22:20 08.01.2020
4996 Clouds 24 1007 100 10000 1.5 140 21:56 08.01.2020
4997 Clouds 24 1007 100 10000 1.5 140 21:38 08.01.2020
4998 Clouds 24 1007 100 10000 1.5 140 21:18 08.01.2020
4999 Clouds 24 1006 100 10000 2.1 140 20:57 08.01.2020
5000 Clouds 24 1006 100 10000 2.1 140 20:38 08.01.2020
5001 Clouds 24 1006 100 10000 2.1 140 20:19 08.01.2020
5002 Drizzle 25 1006 94 10000 1.5 160 19:39 08.01.2020
5003 Drizzle 25 1006 94 10000 1.5 160 19:39 08.01.2020
5004 Drizzle 25 1006 94 10000 1.5 160 19:21 08.01.2020
5005 Drizzle 24 1006 100 10000 2.1 110 18:59 08.01.2020
5006 Drizzle 24 1006 100 10000 2.1 110 18:40 08.01.2020
5007 Drizzle 24 1006 100 10000 2.1 110 18:19 08.01.2020
5008 Drizzle 24 1006 100 10000 2.1 110 18:19 08.01.2020
5009 Clouds 25 1006 94 0 2.6 140 17:59 08.01.2020
5010 Clouds 25 1006 94 0 2.6 140 17:40 08.01.2020
5011 Clouds 25 1006 94 0 2.6 140 17:22 08.01.2020
5012 Clouds 25 1007 94 0 5.1 110 16:57 08.01.2020
5013 Clouds 25 1007 94 0 5.1 110 16:57 08.01.2020
5014 Clouds 25 1007 94 0 5.1 110 16:38 08.01.2020
5015 Clouds 25 1007 94 0 5.1 110 16:19 08.01.2020
5016 Clouds 25 1007 100 0 4.1 140 15:45 08.01.2020
5017 Clouds 25 1007 100 0 5.1 140 15:22 08.01.2020
5018 Clouds 25 1007 100 10000 3.1 140 14:59 08.01.2020
5019 Clouds 25 1007 100 10000 3.1 140 14:40 08.01.2020
5020 Clouds 25 1007 100 10000 3.1 140 14:21 08.01.2020
5021 Drizzle 25 1007 94 10000 1.5 160 13:42 08.01.2020
5022 Drizzle 25 1007 94 10000 1.5 160 13:22 08.01.2020
5023 Clouds 25 1008 100 10000 4.6 160 12:55 08.01.2020
5024 Clouds 25 1008 100 10000 4.6 160 12:37 08.01.2020
5025 Clouds 25 1008 100 10000 4.6 160 12:18 08.01.2020
5026 Clouds 25 1007 100 10000 2.6 200 11:48 08.01.2020
5027 Clouds 25 1007 100 10000 2.6 200 11:19 08.01.2020
5028 Clouds 27 1007 88 0 1.5 50 10:59 08.01.2020
5029 Clouds 27 1007 88 0 1.5 50 10:40 08.01.2020
5030 Clouds 27 1007 88 0 1.5 50 10:21 08.01.2020
5031 Clouds 27 1007 88 0 1.5 50 10:21 08.01.2020
5032 Clouds 27 1007 88 0 1.5 50 10:21 08.01.2020
5033 Clouds 27 1007 94 0 6.2 50 09:43 08.01.2020
5034 Clouds 27 1007 94 0 6.2 50 09:20 08.01.2020
5035 Thunderstorm 30 1006 79 10000 5.7 20 08:59 08.01.2020
5036 Clouds 31 1005 70 10000 3.1 90 08:40 08.01.2020
5037 Clouds 31 1005 70 10000 3.1 90 08:21 08.01.2020
5038 Clouds 32 1005 70 10000 5.1 140 07:52 08.01.2020
5039 Clouds 32 1005 70 10000 5.1 140 07:52 08.01.2020
5040 Clouds 32 1005 70 10000 5.1 140 07:34 08.01.2020
5041 Clouds 33 1004 63 10000 2.6 90 06:58 08.01.2020
5042 Thunderstorm 32 1004 70 10000 4.6 70 06:40 08.01.2020
5043 Thunderstorm 33 1004 66 10000 4.6 70 05:55 08.01.2020
5044 Clouds 33 1004 63 10000 3.6 70 05:25 08.01.2020
5045 Clouds 34 1005 63 10000 3.6 50 04:36 08.01.2020
5046 Rain 33 1007 66 10000 5.7 70 02:46 08.01.2020
5047 Rain 33 1007 66 10000 5.7 70 02:28 08.01.2020
5048 Rain 33 1007 63 10000 3.6 70 01:52 08.01.2020
5049 Rain 33 1007 63 10000 3.6 70 01:26 08.01.2020
5050 Clouds 32 1008 66 10000 4.6 70 00:42 08.01.2020
5051 Clouds 32 1008 66 10000 4.6 70 00:21 08.01.2020
5052 Clouds 31 1008 74 10000 4.1 90 23:44 07.01.2020
5053 Clouds 31 1008 74 10000 4.1 90 23:20 07.01.2020
5054 Clouds 29 1007 70 10000 1 160 22:40 07.01.2020
5055 Clouds 29 1007 70 10000 1 160 22:21 07.01.2020
5056 Clouds 25 1007 94 10000 1 140 21:57 07.01.2020
5057 Clouds 25 1007 94 10000 1 140 21:39 07.01.2020
5058 Clouds 25 1007 94 10000 1 140 21:21 07.01.2020
5059 Clouds 24 1007 94 10000 1 140 20:56 07.01.2020
5060 Clouds 24 1007 94 10000 1 140 20:38 07.01.2020
5061 Clouds 24 1007 94 10000 1 140 20:19 07.01.2020
5062 Clouds 24 1006 94 10000 1 160 19:38 07.01.2020
5063 Clouds 24 1006 94 10000 1 160 19:20 07.01.2020
5064 Clouds 24 1005 94 10000 1.96 129 18:58 07.01.2020
5065 Clouds 24 1005 94 10000 1.96 129 18:40 07.01.2020
5066 Clouds 24 1005 94 10000 1.96 129 18:19 07.01.2020
5067 Clouds 24 1005 94 10000 1.96 129 17:59 07.01.2020
5068 Clouds 24 1005 94 10000 1.96 129 17:39 07.01.2020
5069 Clouds 24 1005 94 10000 1.73 162 17:21 07.01.2020
5070 Clouds 24 1006 94 10000 1 160 16:56 07.01.2020
5071 Clouds 24 1006 94 10000 1 160 16:38 07.01.2020
5072 Clouds 24 1006 94 10000 1 160 16:19 07.01.2020
5073 Clouds 24 1006 94 10000 1.73 162 15:57 07.01.2020
5074 Clouds 24 1006 94 10000 1.73 162 15:38 07.01.2020
5075 Clouds 24 1006 94 10000 1.73 162 15:19 07.01.2020
5076 Clouds 25 1007 88 10000 1 110 14:42 07.01.2020
5077 Clouds 25 1007 88 10000 1 110 14:24 07.01.2020
5078 Clouds 25 1008 88 10000 1.5 180 13:57 07.01.2020
5079 Clouds 25 1008 88 10000 1.5 180 13:38 07.01.2020
5080 Clouds 25 1008 88 10000 1.5 180 13:18 07.01.2020
5081 Clouds 26 1008 88 10000 2.1 140 12:41 07.01.2020
5082 Clouds 26 1008 88 10000 2.1 140 12:19 07.01.2020
5083 Clouds 27 1007 88 10000 1.5 180 11:44 07.01.2020
5084 Clouds 27 1007 88 10000 1.5 180 11:23 07.01.2020
5085 Clouds 27 1007 88 10000 1.5 180 11:23 07.01.2020
5086 Clouds 28 1007 83 10000 2.1 140 10:59 07.01.2020
5087 Clouds 28 1007 83 10000 2.1 140 10:40 07.01.2020
5088 Clouds 28 1007 83 10000 2.1 140 10:40 07.01.2020
5089 Clouds 28 1007 83 10000 2.1 140 10:22 07.01.2020
5090 Clouds 30 1006 74 10000 1.5 110 09:56 07.01.2020
5091 Clouds 30 1006 74 10000 1.5 110 09:37 07.01.2020
5092 Clouds 30 1006 74 10000 1.5 110 09:19 07.01.2020
5093 Clouds 31 1005 70 10000 2.6 70 08:41 07.01.2020
5094 Clouds 31 1005 70 10000 2.6 70 08:18 07.01.2020
5095 Clouds 33 1004 55 10000 4.1 70 07:49 07.01.2020
5096 Clouds 33 1004 55 10000 4.1 70 07:23 07.01.2020
5097 Clouds 33 1004 63 10000 6.2 70 06:50 07.01.2020
5098 Clouds 33 1004 63 10000 6.2 70 06:30 07.01.2020
5099 Clouds 34 1004 56 10000 6.7 70 05:41 07.01.2020
5100 Clouds 33 1006 66 10000 5.1 50 03:52 07.01.2020
5101 Clouds 33 1006 66 10000 5.1 50 03:52 07.01.2020
5102 Clouds 33 1006 66 10000 5.1 50 03:25 07.01.2020
5103 Clouds 33 1007 70 10000 6.7 50 02:20 07.01.2020
5104 Clouds 33 1008 55 10000 8.2 70 01:40 07.01.2020
5105 Clouds 33 1008 55 10000 8.2 70 01:40 07.01.2020
5106 Clouds 32 1008 62 10000 5.1 110 00:59 07.01.2020
5107 Clouds 32 1008 62 10000 5.1 110 00:21 07.01.2020
5108 Clouds 32 1008 62 10000 5.1 110 00:21 07.01.2020
5109 Clouds 32 1008 62 10000 5.1 110 00:21 07.01.2020
5110 Clouds 31 1008 74 10000 5.1 70 23:57 06.01.2020
5111 Clouds 31 1008 74 10000 5.1 70 23:37 06.01.2020
5112 Clouds 31 1008 74 10000 5.1 70 23:19 06.01.2020
5113 Clouds 28 1008 78 10000 2.6 140 22:44 06.01.2020
5114 Clouds 28 1008 78 10000 2.6 140 22:25 06.01.2020
5115 Clouds 25 1008 100 10000 1.09 103 21:59 06.01.2020
5116 Clouds 25 1008 100 10000 1.09 103 21:39 06.01.2020
5117 Clouds 25 1008 100 10000 1.09 103 21:20 06.01.2020
5118 Clouds 24 1007 100 10000 2.1 160 20:57 06.01.2020
5119 Clouds 24 1007 100 10000 2.1 160 20:39 06.01.2020
5120 Clouds 24 1007 100 10000 2.1 160 20:20 06.01.2020
5121 Clouds 25 1006 100 10000 1 270 19:57 06.01.2020
5122 Clouds 25 1006 100 10000 1 270 19:38 06.01.2020
5123 Clouds 25 1006 100 10000 1 270 19:20 06.01.2020
5124 Clouds 26 1006 94 10000 1 140 18:48 06.01.2020
5125 Clouds 26 1006 94 10000 1 140 18:23 06.01.2020
5126 Clouds 26 1006 94 10000 1.35 140 17:59 06.01.2020
5127 Clouds 26 1006 94 10000 1.35 140 17:38 06.01.2020
5128 Clouds 26 1006 94 10000 1.54 135 17:18 06.01.2020
5129 Clouds 26 1006 94 10000 2.1 160 16:44 06.01.2020
5130 Clouds 26 1006 94 10000 2.1 160 16:25 06.01.2020
5131 Clouds 26 1006 94 10000 2.1 160 16:25 06.01.2020
5132 Clouds 26 1007 100 10000 1 140 15:59 06.01.2020
5133 Clouds 26 1007 100 10000 1 140 15:39 06.01.2020
5134 Clouds 26 1007 100 10000 1 140 15:19 06.01.2020
5135 Clouds 27 1008 94 10000 1.5 140 14:57 06.01.2020
5136 Clouds 27 1008 94 10000 1.5 140 14:39 06.01.2020
5137 Clouds 27 1008 94 10000 1.5 140 14:18 06.01.2020
5138 Clouds 27 1008 94 10000 1.5 140 13:42 06.01.2020
5139 Clouds 27 1008 94 10000 1.5 140 13:22 06.01.2020
5140 Clouds 27 1008 94 10000 1.5 180 12:59 06.01.2020
5141 Clouds 27 1008 94 10000 1.5 180 12:41 06.01.2020
5142 Clouds 27 1008 94 10000 1.5 180 12:20 06.01.2020
5143 Clouds 27 1008 94 10000 2.6 140 11:56 06.01.2020
5144 Clouds 27 1008 94 10000 2.6 140 11:38 06.01.2020
5145 Clouds 27 1008 94 10000 2.6 140 11:20 06.01.2020
5146 Clouds 27 1008 94 10000 2.6 140 11:20 06.01.2020
5147 Thunderstorm 27 1008 94 10000 1.5 180 10:42 06.01.2020
5148 Thunderstorm 27 1008 94 10000 2.1 200 10:21 06.01.2020
5149 Clouds 28 1007 88 10000 3.1 110 09:42 06.01.2020
5150 Clouds 28 1007 88 10000 3.1 110 09:24 06.01.2020
5151 Clouds 28 1007 88 10000 3.1 110 09:24 06.01.2020
5152 Clouds 29 1006 83 10000 2.1 200 08:58 06.01.2020
5153 Clouds 29 1006 83 10000 2.1 200 08:58 06.01.2020
5154 Clouds 29 1006 83 10000 2.1 200 08:39 06.01.2020
5155 Clouds 29 1006 83 10000 2.1 200 08:21 06.01.2020
5156 Thunderstorm 29 1006 79 10000 2.1 180 07:45 06.01.2020
5157 Thunderstorm 31 1005 74 10000 2.1 360 07:21 06.01.2020
5158 Clouds 31 1005 79 10000 2.6 360 06:38 06.01.2020
5159 Clouds 32 1005 75 10000 4.1 334 05:49 06.01.2020
5160 Thunderstorm 32 1005 75 10000 4.1 320 05:28 06.01.2020
5161 Rain 33 1005 75 10000 3.1 20 04:24 06.01.2020
5162 Rain 32 1006 79 10000 4.6 360 03:51 06.01.2020
5163 Clouds 32 1007 75 10000 3.1 360 02:29 06.01.2020
5164 Clouds 32 1007 70 10000 2.6 50 01:54 06.01.2020
5165 Clouds 32 1007 70 10000 2.6 50 01:31 06.01.2020
5166 Clouds 30 1008 79 10000 2.1 20 00:46 06.01.2020
5167 Clouds 30 1008 79 10000 2.1 20 00:28 06.01.2020
5168 Clouds 31 1008 74 10000 1.5 90 23:57 05.01.2020
5169 Clouds 31 1008 74 10000 1.5 90 23:57 05.01.2020
5170 Clouds 31 1008 74 10000 1.5 90 23:57 05.01.2020
5171 Clouds 31 1008 74 10000 1.5 90 23:38 05.01.2020
5172 Clouds 31 1008 74 10000 1.5 90 23:20 05.01.2020
5173 Clouds 28 1008 78 10000 1.5 230 22:40 05.01.2020
5174 Clouds 28 1008 78 10000 1.5 230 22:20 05.01.2020
5175 Clouds 25 1008 94 10000 1 160 21:57 05.01.2020
5176 Clouds 25 1008 94 10000 1 160 21:39 05.01.2020
5177 Clouds 25 1008 94 10000 1 160 21:20 05.01.2020
5178 Clouds 24 1007 94 10000 1 140 20:56 05.01.2020
5179 Clouds 24 1007 94 10000 1 140 20:38 05.01.2020
5180 Clouds 24 1007 94 10000 1 140 20:19 05.01.2020
5181 Clouds 24 1007 94 10000 1 140 20:19 05.01.2020
5182 Clouds 25 1007 88 10000 1.5 200 19:58 05.01.2020
5183 Clouds 25 1007 88 10000 1.5 200 19:38 05.01.2020
5184 Clouds 25 1007 88 10000 1.5 200 19:19 05.01.2020
5185 Clouds 25 1007 94 10000 1 200 18:55 05.01.2020
5186 Clouds 25 1007 94 10000 1 200 18:37 05.01.2020
5187 Clouds 25 1007 94 10000 1 200 18:37 05.01.2020
5188 Clouds 25 1007 94 10000 1 200 18:19 05.01.2020
5189 Clouds 25 1007 94 10000 1.72 185 17:57 05.01.2020
5190 Clouds 25 1007 94 10000 1.72 185 17:38 05.01.2020
5191 Clouds 25 1007 94 10000 1.13 165 17:19 05.01.2020
5192 Clouds 25 1008 94 10000 1.13 165 16:55 05.01.2020
5193 Clouds 25 1008 94 10000 1.13 165 16:37 05.01.2020
5194 Clouds 25 1008 94 10000 1.13 165 16:19 05.01.2020
5195 Clouds 25 1008 94 10000 1.13 165 16:19 05.01.2020
5196 Clouds 25 1008 94 10000 1.13 165 16:19 05.01.2020
5197 Clouds 25 1008 100 10000 1.13 165 15:37 05.01.2020
5198 Clouds 25 1008 100 10000 1.13 165 15:18 05.01.2020
5199 Clouds 25 1009 100 10000 1.13 165 14:55 05.01.2020
5200 Clouds 25 1009 100 10000 1.13 165 14:36 05.01.2020
5201 Clouds 25 1009 100 10000 1.5 148 14:18 05.01.2020
5202 Clouds 26 1010 94 10000 1 180 13:40 05.01.2020
5203 Clouds 26 1010 94 10000 1 180 13:21 05.01.2020
5204 Clouds 26 1010 94 10000 2.1 140 12:58 05.01.2020
5205 Clouds 26 1010 94 10000 2.1 140 12:39 05.01.2020
5206 Clouds 26 1010 94 10000 2.1 140 12:21 05.01.2020
5207 Clouds 26 1010 94 10000 1.26 166 11:58 05.01.2020
5208 Clouds 26 1010 94 10000 1.26 166 11:39 05.01.2020
5209 Clouds 26 1010 94 10000 1.26 166 11:39 05.01.2020
5210 Clouds 26 1010 94 10000 1.68 123 11:19 05.01.2020
5211 Clouds 27 1009 83 10000 1.68 123 10:56 05.01.2020
5212 Clouds 27 1009 83 10000 1.68 123 10:36 05.01.2020
5213 Clouds 27 1009 83 10000 1.68 123 10:36 05.01.2020
5214 Clouds 27 1009 83 10000 1.68 123 10:18 05.01.2020
5215 Clouds 29 1008 74 10000 1 180 09:41 05.01.2020
5216 Clouds 29 1008 74 10000 1 180 09:21 05.01.2020
5217 Clouds 31 1007 62 10000 4.1 90 08:46 05.01.2020
5218 Clouds 31 1007 62 10000 4.1 90 08:27 05.01.2020
5219 Clouds 32 1006 59 10000 3.1 90 07:55 05.01.2020
5220 Clouds 32 1006 59 10000 3.1 90 07:35 05.01.2020
5221 Clouds 33 1006 63 10000 5.1 90 06:58 05.01.2020
5222 Clouds 33 1006 66 10000 6.7 70 05:55 05.01.2020
5223 Clouds 33 1006 66 10000 6.7 70 05:30 05.01.2020
5224 Clouds 33 1006 66 10000 6.7 70 05:30 05.01.2020
5225 Clouds 33 1007 63 10000 6.7 70 04:34 05.01.2020
5226 Clouds 33 1008 66 10000 5.1 50 03:47 05.01.2020
5227 Clouds 33 1008 66 10000 5.1 90 02:43 05.01.2020
5228 Clouds 33 1008 66 10000 5.1 90 02:20 05.01.2020
5229 Clouds 32 1009 62 10000 5.1 110 01:39 05.01.2020
5230 Clouds 32 1009 62 10000 5.1 110 01:18 05.01.2020
5231 Clouds 31 1009 74 10000 6.2 110 00:40 05.01.2020
5232 Clouds 31 1009 74 10000 6.2 110 00:21 05.01.2020
5233 Clouds 30 1009 74 10000 3.6 110 23:59 04.01.2020
5234 Clouds 30 1009 74 10000 3.6 110 23:39 04.01.2020
5235 Clouds 30 1009 74 10000 3.6 110 23:18 04.01.2020
5236 Rain 28 1009 83 10000 1 140 22:39 04.01.2020
5237 Rain 28 1009 83 10000 1 140 22:39 04.01.2020
5238 Rain 28 1009 83 10000 1 140 22:20 04.01.2020
5239 Rain 26 1008 94 10000 1.5 140 21:56 04.01.2020
5240 Rain 26 1008 94 10000 1.5 140 21:37 04.01.2020
5241 Rain 26 1008 94 10000 1.5 140 21:19 04.01.2020
5242 Clouds 25 1007 94 10000 1.5 160 20:56 04.01.2020
5243 Clouds 25 1007 94 10000 1.5 160 20:37 04.01.2020
5244 Clouds 25 1007 94 10000 1.5 160 20:18 04.01.2020
5245 Clouds 25 1007 83 10000 1 180 19:41 04.01.2020
5246 Clouds 25 1007 83 10000 1 180 19:41 04.01.2020
5247 Clouds 25 1007 83 10000 1 180 19:41 04.01.2020
5248 Clouds 25 1007 83 10000 1 180 19:23 04.01.2020
5249 Clouds 25 1006 94 10000 1 180 18:58 04.01.2020
5250 Clouds 25 1006 94 10000 1 180 18:39 04.01.2020
5251 Clouds 25 1006 94 10000 1 180 18:20 04.01.2020
5252 Clouds 25 1006 94 10000 1 90 17:56 04.01.2020
5253 Clouds 25 1006 94 10000 1 90 17:38 04.01.2020
5254 Clouds 25 1006 94 10000 1 90 17:20 04.01.2020
5255 Clouds 25 1006 94 10000 1 140 16:42 04.01.2020
5256 Clouds 25 1006 94 10000 1 140 16:24 04.01.2020
5257 Clouds 25 1007 94 10000 1 180 15:57 04.01.2020
5258 Clouds 25 1007 94 10000 1 180 15:38 04.01.2020
5259 Clouds 25 1007 94 10000 1 180 15:19 04.01.2020
5260 Clouds 25 1008 94 10000 1 140 14:56 04.01.2020
5261 Clouds 25 1008 94 10000 1 140 14:37 04.01.2020
5262 Clouds 25 1008 94 10000 1 140 14:19 04.01.2020
5263 Clouds 26 1008 88 10000 1.5 140 13:54 04.01.2020
5264 Clouds 26 1008 88 10000 1.5 140 13:36 04.01.2020
5265 Clouds 26 1008 88 10000 1.5 140 13:18 04.01.2020
5266 Rain 27 1009 88 10000 1.49 150 12:41 04.01.2020
5267 Rain 27 1009 88 10000 1.49 150 12:19 04.01.2020
5268 Clouds 27 1008 88 10000 1.5 160 11:57 04.01.2020
5269 Clouds 27 1008 88 10000 1.5 160 11:38 04.01.2020
5270 Clouds 27 1008 88 10000 1.5 160 11:19 04.01.2020
5271 Clouds 28 1008 83 10000 1.5 140 10:42 04.01.2020
5272 Clouds 28 1008 83 10000 1.5 140 10:23 04.01.2020
5273 Clouds 30 1007 74 10000 3.1 90 09:57 04.01.2020
5274 Clouds 30 1007 74 10000 3.1 90 09:39 04.01.2020
5275 Clouds 30 1007 74 10000 3.1 90 09:20 04.01.2020
5276 Clouds 31 1006 74 10000 4.1 50 08:40 04.01.2020
5277 Clouds 31 1006 74 10000 4.1 50 08:20 04.01.2020
5278 Clouds 32 1005 62 10000 4.1 50 07:42 04.01.2020
5279 Clouds 32 1005 62 10000 4.1 50 07:19 04.01.2020
5280 Rain 32 1004 70 10000 3.1 50 06:33 04.01.2020
5281 Clouds 32 1005 66 10000 4.1 50 05:19 04.01.2020
5282 Clouds 32 1005 66 10000 4.1 50 04:34 04.01.2020
5283 Clouds 31 1006 74 10000 5.1 50 03:43 04.01.2020
5284 Clouds 31 1006 74 10000 5.1 50 03:43 04.01.2020
5285 Clouds 31 1006 74 10000 5.1 50 03:18 04.01.2020
5286 Clouds 31 1007 74 10000 4.6 50 02:21 04.01.2020
5287 Clouds 31 1007 74 10000 4.6 50 02:21 04.01.2020
5288 Clouds 31 1008 70 10000 4.1 50 01:53 04.01.2020
5289 Clouds 31 1008 70 10000 4.1 50 01:30 04.01.2020
5290 Clouds 32 1008 66 10000 4.1 70 00:41 04.01.2020
5291 Clouds 32 1008 66 10000 4.1 70 00:22 04.01.2020
5292 Clouds 31 1008 70 10000 4.1 110 23:41 03.01.2020
5293 Clouds 31 1008 70 10000 4.1 110 23:23 03.01.2020
5294 Clouds 28 1008 74 10000 2.1 140 22:41 03.01.2020
5295 Clouds 28 1008 74 10000 2.1 140 22:20 03.01.2020
5296 Clouds 28 1008 74 10000 2.1 140 22:20 03.01.2020
5297 Clouds 26 1007 88 10000 1.41 123 21:58 03.01.2020
5298 Clouds 26 1007 88 10000 1.41 123 21:38 03.01.2020
5299 Clouds 26 1007 88 10000 1.41 123 21:38 03.01.2020
5300 Clouds 26 1007 88 10000 1.41 123 21:38 03.01.2020
5301 Clouds 26 1007 88 10000 1.41 123 21:19 03.01.2020
5302 Clouds 26 1007 88 10000 1.41 123 21:19 03.01.2020
5303 Clouds 24 1007 94 10000 1.41 123 20:56 03.01.2020
5304 Clouds 24 1007 94 10000 1.41 123 20:38 03.01.2020
5305 Clouds 24 1007 94 10000 1.11 150 20:18 03.01.2020
5306 Clouds 24 1007 94 10000 1.5 200 19:55 03.01.2020
5307 Clouds 24 1007 94 10000 1.5 200 19:37 03.01.2020
5308 Clouds 24 1007 94 10000 1.5 200 19:18 03.01.2020
5309 Clouds 24 1006 94 10000 1.5 200 18:40 03.01.2020
5310 Clouds 24 1006 94 10000 1.5 200 18:21 03.01.2020
5311 Clouds 25 1007 94 10000 1.11 150 17:54 03.01.2020
5312 Clouds 25 1007 94 10000 1.11 150 17:36 03.01.2020
5313 Clouds 25 1007 94 10000 1.42 174 17:18 03.01.2020
5314 Clouds 27 1007 88 10000 3.1 250 16:42 03.01.2020
5315 Clouds 27 1007 88 10000 3.1 250 16:22 03.01.2020
5316 Clouds 26 1007 94 10000 2.1 270 15:43 03.01.2020
5317 Clouds 26 1007 94 10000 2.1 270 15:19 03.01.2020
5318 Clouds 26 1007 94 10000 2.1 270 15:19 03.01.2020
5319 Clouds 26 1008 94 10000 1.42 174 14:56 03.01.2020
5320 Clouds 26 1008 94 10000 1.42 174 14:37 03.01.2020
5321 Clouds 26 1008 94 10000 0.93 171 14:19 03.01.2020
5322 Clouds 27 1008 88 10000 1 160 13:41 03.01.2020
5323 Clouds 27 1008 88 10000 1 160 13:23 03.01.2020
5324 Clouds 27 1008 94 10000 1.5 200 12:56 03.01.2020
5325 Clouds 27 1008 94 10000 1.5 200 12:38 03.01.2020
5326 Clouds 27 1008 94 10000 1.5 200 12:19 03.01.2020
5327 Clouds 28 1007 88 10000 1.5 160 11:42 03.01.2020
5328 Clouds 28 1007 88 10000 1.5 160 11:18 03.01.2020
5329 Clouds 29 1007 79 10000 1.5 160 10:43 03.01.2020
5330 Clouds 29 1007 79 10000 1.5 160 10:24 03.01.2020
5331 Clouds 30 1006 70 10000 2.1 50 09:56 03.01.2020
5332 Clouds 30 1006 70 10000 2.1 50 09:38 03.01.2020
5333 Clouds 30 1006 70 10000 2.1 50 09:20 03.01.2020
5334 Clouds 30 1005 70 10000 0.43 212 08:45 03.01.2020
5335 Clouds 30 1005 70 10000 0.76 351 08:23 03.01.2020
5336 Clouds 31 1005 62 10000 1.5 20 07:57 03.01.2020
5337 Clouds 31 1005 62 10000 1.5 20 07:38 03.01.2020
5338 Clouds 31 1005 62 10000 1.5 20 07:18 03.01.2020
5339 Clouds 31 1004 70 10000 3.1 360 06:42 03.01.2020
5340 Clouds 31 1004 70 10000 3.1 360 06:23 03.01.2020
5341 Clouds 32 1005 66 10000 3.1 360 05:20 03.01.2020
5342 Clouds 31 1006 70 10000 3.1 50 03:42 03.01.2020
5343 Clouds 31 1007 66 10000 4.1 20 02:54 03.01.2020
5344 Clouds 31 1008 74 10000 3.1 20 01:51 03.01.2020
5345 Clouds 31 1008 74 10000 3.1 20 01:33 03.01.2020
5346 Clouds 31 1008 70 10000 2.1 20 00:43 03.01.2020
5347 Clouds 31 1008 70 10000 2.1 20 00:24 03.01.2020
5348 Clouds 31 1009 70 10000 1 110 23:39 02.01.2020
5349 Clouds 31 1009 70 10000 1 110 23:20 02.01.2020
5350 Clouds 28 1009 74 10000 2.1 180 22:59 02.01.2020
5351 Clouds 28 1009 74 10000 2.1 180 22:41 02.01.2020
5352 Clouds 28 1009 74 10000 2.1 180 22:20 02.01.2020
5353 Clouds 25 1008 94 10000 0.67 168 21:56 02.01.2020
5354 Clouds 25 1008 94 10000 0.67 168 21:38 02.01.2020
5355 Clouds 25 1008 94 10000 0.67 168 21:19 02.01.2020
5356 Clouds 23 1008 100 10000 2.1 160 20:56 02.01.2020
5357 Clouds 23 1008 100 10000 2.1 160 20:37 02.01.2020
5358 Clouds 23 1008 100 10000 2.1 160 20:18 02.01.2020
5359 Clouds 23 1007 100 10000 1.5 140 19:54 02.01.2020
5360 Clouds 23 1007 100 10000 1.5 140 19:36 02.01.2020
5361 Clouds 23 1007 100 10000 1.5 140 19:36 02.01.2020
5362 Clouds 23 1007 100 10000 1.5 140 19:18 02.01.2020
5363 Clouds 24 1007 94 10000 1.21 190 18:42 02.01.2020
5364 Clouds 24 1007 94 10000 1.21 190 18:23 02.01.2020
5365 Clouds 24 1007 100 10000 1.5 110 17:58 02.01.2020
5366 Clouds 24 1007 100 10000 1.5 110 17:38 02.01.2020
5367 Clouds 24 1007 100 10000 1.5 110 17:19 02.01.2020
5368 Clouds 24 1008 100 10000 1.05 193 16:58 02.01.2020
5369 Clouds 24 1008 100 10000 1.05 193 16:40 02.01.2020
5370 Clouds 24 1008 100 10000 1.05 193 16:40 02.01.2020
5371 Clouds 24 1008 100 10000 1.05 193 16:20 02.01.2020
5372 Rain 23 1008 91 0 1.05 193 15:57 02.01.2020
5373 Rain 23 1008 91 0 1.05 193 15:39 02.01.2020
5374 Clouds 26 1010 94 10000 2.1 160 15:19 02.01.2020
5375 Clouds 26 1010 94 10000 2.1 160 14:55 02.01.2020
5376 Clouds 26 1010 94 10000 2.1 160 14:55 02.01.2020
5377 Clouds 26 1010 94 10000 2.1 160 14:55 02.01.2020
5378 Clouds 26 1010 94 10000 2.1 160 14:36 02.01.2020
5379 Clouds 26 1010 83 10000 1 140 14:18 02.01.2020
5380 Clouds 26 1010 83 10000 1 140 13:47 02.01.2020
5381 Clouds 26 1010 83 10000 1 140 13:29 02.01.2020
5382 Clouds 27 1010 88 10000 2.6 200 12:45 02.01.2020
5383 Clouds 28 1010 83 10000 1 200 12:25 02.01.2020
5384 Clouds 28 1010 83 10000 1 200 12:25 02.01.2020
5385 Clouds 28 1010 83 10000 1 200 11:44 02.01.2020
5386 Clouds 28 1010 83 10000 1 200 11:26 02.01.2020
5387 Clouds 29 1009 83 10000 1 140 10:58 02.01.2020
5388 Clouds 29 1009 83 10000 1 140 10:38 02.01.2020
5389 Clouds 29 1009 83 10000 1 140 10:19 02.01.2020
5390 Clouds 30 1009 74 10000 1.5 290 09:41 02.01.2020
5391 Clouds 30 1009 74 10000 1.5 290 09:22 02.01.2020
5392 Clouds 30 1008 74 10000 2.1 340 08:44 02.01.2020
5393 Clouds 30 1008 74 10000 2.1 340 08:25 02.01.2020
5394 Clouds 31 1007 66 10000 2.6 360 07:49 02.01.2020
5395 Clouds 31 1007 66 10000 2.6 360 07:30 02.01.2020
5396 Clouds 32 1007 62 10000 3.6 360 06:44 02.01.2020
5397 Clouds 32 1007 62 10000 3.6 360 06:26 02.01.2020
5398 Clouds 31 1008 66 10000 4.1 360 04:41 02.01.2020
5399 Clouds 31 1008 66 10000 4.1 360 04:21 02.01.2020
5400 Clouds 31 1008 66 10000 4.1 360 04:21 02.01.2020
5401 Clouds 31 1010 70 10000 4.1 20 02:28 02.01.2020
5402 Clouds 31 1010 66 10000 4.1 20 01:57 02.01.2020
5403 Clouds 31 1010 66 10000 4.1 20 01:32 02.01.2020
5404 Clouds 31 1010 70 10000 3.6 20 00:53 02.01.2020
5405 Clouds 31 1010 70 10000 3.6 20 00:32 02.01.2020
5406 Clouds 30 1010 70 10000 2.6 50 23:48 01.01.2020
5407 Clouds 30 1010 70 10000 2.6 50 23:25 01.01.2020
5408 Rain 25 1010 86 0 0.2 166 22:54 01.01.2020
5409 Rain 25 1010 86 0 0.2 166 22:36 01.01.2020
5410 Rain 25 1010 86 0 0.2 166 22:18 01.01.2020
5411 Rain 25 1010 86 0 0.2 166 21:42 01.01.2020
5412 Clouds 24 1010 94 10000 1.5 90 21:21 01.01.2020
5413 Clouds 24 1010 94 10000 1.5 90 20:58 01.01.2020
5414 Rain 25 1010 86 0 0.2 166 20:39 01.01.2020
5415 Clouds 24 1009 94 10000 1 180 20:20 01.01.2020
5416 Clouds 24 1009 94 10000 1 180 19:57 01.01.2020
5417 Clouds 24 1009 94 10000 1 180 19:39 01.01.2020
5418 Clouds 24 1009 94 10000 1 180 19:20 01.01.2020
5419 Rain 23 1010 91 0 1.1 193 18:57 01.01.2020
5420 Rain 23 1010 91 0 1.1 193 18:38 01.01.2020
5421 Clouds 24 1009 100 10000 1 140 18:20 01.01.2020
5422 Clouds 24 1009 100 10000 1 140 17:58 01.01.2020
5423 Clouds 24 1009 100 10000 1 140 17:40 01.01.2020
5424 Clouds 24 1009 100 10000 1 140 17:19 01.01.2020
5425 Clouds 25 1010 94 10000 1.5 140 16:57 01.01.2020
5426 Clouds 25 1010 94 10000 1.5 140 16:38 01.01.2020
5427 Clouds 25 1010 94 10000 1.5 140 16:38 01.01.2020
5428 Clouds 25 1010 94 10000 1.5 140 16:19 01.01.2020
5429 Clouds 25 1010 94 10000 1 160 15:54 01.01.2020
5430 Clouds 25 1010 94 10000 1 160 15:36 01.01.2020
5431 Clouds 25 1010 94 10000 1 160 15:36 01.01.2020
5432 Clouds 25 1010 94 10000 1 160 15:36 01.01.2020
5433 Clouds 25 1010 94 10000 1 160 15:18 01.01.2020
5434 Clouds 26 1011 94 10000 2.1 180 14:41 01.01.2020
5435 Clouds 26 1011 94 10000 2.1 180 14:23 01.01.2020
5436 Clouds 26 1011 88 10000 0.54 118 13:57 01.01.2020
5437 Clouds 26 1011 88 10000 0.71 139 13:38 01.01.2020
5438 Clouds 26 1011 88 10000 0.71 139 13:19 01.01.2020
5439 Clouds 27 1011 88 10000 0.71 139 12:57 01.01.2020
5440 Clouds 27 1011 88 10000 0.71 139 12:39 01.01.2020
5441 Clouds 27 1011 88 10000 0.71 139 12:19 01.01.2020
5442 Clouds 27 1011 88 10000 0.71 139 12:19 01.01.2020
5443 Clouds 28 1011 83 10000 2.1 140 11:56 01.01.2020
5444 Clouds 28 1011 83 10000 2.1 140 11:37 01.01.2020
5445 Clouds 28 1011 83 10000 2.1 140 11:18 01.01.2020
5446 Clouds 29 1010 74 10000 0.32 162 10:41 01.01.2020
5447 Clouds 29 1010 74 10000 0.32 162 10:21 01.01.2020
5448 Clouds 29 1009 74 10000 0.32 162 09:59 01.01.2020
5449 Clouds 29 1009 74 10000 0.32 162 09:38 01.01.2020
5450 Clouds 29 1009 74 10000 0.32 162 09:19 01.01.2020
5451 Clouds 30 1008 74 10000 2.1 340 08:55 01.01.2020
5452 Clouds 30 1008 74 10000 2.1 340 08:37 01.01.2020
5453 Clouds 30 1008 74 10000 2.1 340 08:37 01.01.2020
5454 Clouds 30 1008 74 10000 2.1 340 08:18 01.01.2020
5455 Clouds 32 1007 55 10000 2.1 320 07:54 01.01.2020
5456 Clouds 32 1007 55 10000 2.1 320 07:36 01.01.2020
5457 Rain 31 1007 62 10000 3.1 340 06:45 01.01.2020
5458 Rain 31 1007 62 10000 3.1 340 06:21 01.01.2020
5459 Rain 32 1007 59 10000 2.1 320 05:22 01.01.2020
5460 Clouds 32 1009 62 10000 5.1 320 03:45 01.01.2020
5461 Clouds 32 1009 62 10000 5.1 320 03:23 01.01.2020
5462 Clouds 32 1010 62 10000 3.6 360 02:57 01.01.2020
5463 Clouds 32 1010 62 10000 3.6 360 02:34 01.01.2020
5464 Clouds 32 1011 59 10000 3.1 360 01:55 01.01.2020
5465 Clouds 32 1011 59 10000 3.1 360 01:36 01.01.2020
5466 Clouds 32 1011 59 10000 3.1 360 01:18 01.01.2020
5467 Clouds 31 1011 66 10000 1 360 00:44 01.01.2020
5468 Clouds 31 1011 66 10000 1 360 00:24 01.01.2020
5469 Clouds 31 1011 70 10000 1.5 140 23:41 31.12.2019
5470 Clouds 31 1011 70 10000 1.5 140 23:21 31.12.2019
5471 Clouds 27 1011 78 10000 1 180 22:57 31.12.2019
5472 Clouds 27 1011 78 10000 1 180 22:38 31.12.2019
5473 Clouds 27 1011 78 10000 1 180 22:19 31.12.2019
5474 Clouds 25 1010 88 10000 1 180 21:57 31.12.2019
5475 Clouds 25 1010 88 10000 1 180 21:37 31.12.2019
5476 Clouds 25 1010 88 10000 1 180 21:19 31.12.2019
5477 Clouds 23 1010 94 10000 1 180 20:40 31.12.2019
5478 Clouds 23 1010 94 10000 1 180 20:22 31.12.2019
5479 Clouds 23 1009 94 10000 1 180 19:59 31.12.2019
5480 Clouds 23 1009 94 10000 1 180 19:40 31.12.2019
5481 Clouds 23 1009 94 10000 1 180 19:22 31.12.2019
5482 Clouds 23 1009 94 10000 1 180 19:22 31.12.2019
5483 Clouds 23 1009 100 10000 1 160 18:58 31.12.2019
5484 Clouds 23 1009 100 10000 1 160 18:40 31.12.2019
5485 Clouds 23 1009 100 10000 1 160 18:19 31.12.2019
5486 Clouds 24 1009 94 10000 1 160 17:56 31.12.2019
5487 Clouds 24 1009 94 10000 1 160 17:37 31.12.2019
5488 Clouds 24 1009 94 10000 1 160 17:19 31.12.2019
5489 Clouds 24 1010 94 10000 1 140 16:56 31.12.2019
5490 Clouds 24 1010 94 10000 1 140 16:37 31.12.2019
5491 Clouds 24 1010 94 10000 1 140 16:19 31.12.2019
5492 Clouds 25 1010 88 10000 1 160 15:56 31.12.2019
5493 Clouds 25 1010 88 10000 1 160 15:38 31.12.2019
5494 Clouds 25 1010 88 10000 1 160 15:20 31.12.2019
5495 Clouds 25 1011 94 10000 1 160 14:56 31.12.2019
5496 Clouds 25 1011 94 10000 1 160 14:37 31.12.2019
5497 Clouds 25 1011 94 10000 1 160 14:19 31.12.2019
5498 Clouds 25 1011 94 10000 1 140 13:56 31.12.2019
5499 Clouds 25 1011 94 10000 1 140 13:38 31.12.2019
5500 Clouds 25 1011 94 10000 1 140 13:38 31.12.2019
5501 Clouds 25 1011 94 10000 1 140 13:20 31.12.2019
5502 Clouds 25 1011 94 10000 1 160 12:56 31.12.2019
5503 Clouds 25 1011 94 10000 1 160 12:37 31.12.2019
5504 Clouds 25 1011 94 10000 1 160 12:19 31.12.2019
5505 Clouds 26 1010 88 10000 1 160 11:55 31.12.2019
5506 Clouds 26 1010 88 10000 1 160 11:37 31.12.2019
5507 Clouds 26 1010 88 10000 1 160 11:19 31.12.2019
5508 Clouds 26 1009 88 10000 2.1 180 10:56 31.12.2019
5509 Clouds 26 1009 88 10000 2.1 180 10:37 31.12.2019
5510 Clouds 26 1009 88 10000 2.1 180 10:19 31.12.2019
5511 Clouds 29 1009 70 10000 1 290 09:57 31.12.2019
5512 Clouds 29 1009 70 10000 1 290 09:57 31.12.2019
5513 Clouds 29 1009 70 10000 1 290 09:38 31.12.2019
5514 Clouds 29 1009 70 10000 1 290 09:18 31.12.2019
5515 Clouds 30 1008 70 10000 1.5 360 08:42 31.12.2019
5516 Clouds 30 1008 70 10000 1.5 360 08:42 31.12.2019
5517 Clouds 30 1008 70 10000 1.5 360 08:22 31.12.2019
5518 Clouds 31 1007 62 10000 2.1 340 07:56 31.12.2019
5519 Clouds 31 1007 62 10000 2.1 340 07:37 31.12.2019
5520 Clouds 31 1007 62 10000 2.1 340 07:18 31.12.2019
5521 Clouds 31 1007 66 10000 2.6 320 06:27 31.12.2019
5522 Clouds 31 1007 62 10000 3.6 50 04:55 31.12.2019
5523 Clouds 31 1007 62 10000 3.6 50 04:25 31.12.2019
5524 Clouds 31 1008 66 10000 3.1 50 02:57 31.12.2019
5525 Clouds 31 1008 66 10000 3.1 50 02:20 31.12.2019
5526 Clouds 30 1009 70 10000 3.1 20 01:49 31.12.2019
5527 Clouds 30 1009 70 10000 3.1 20 01:31 31.12.2019
5528 Clouds 30 1009 74 10000 3.1 20 00:48 31.12.2019
5529 Clouds 30 1009 74 10000 3.1 20 00:25 31.12.2019
5530 Clouds 30 1009 74 10000 2.2 358 23:58 30.12.2019
5531 Clouds 30 1009 74 10000 2.2 358 23:39 30.12.2019
5532 Clouds 30 1009 74 10000 0.61 224 23:21 30.12.2019
5533 Clouds 27 1009 78 10000 2.1 180 22:59 30.12.2019
5534 Clouds 27 1009 78 10000 2.1 180 22:41 30.12.2019
5535 Clouds 27 1009 78 10000 2.1 180 22:21 30.12.2019
5536 Clouds 25 1009 88 10000 2.1 180 21:57 30.12.2019
5537 Clouds 25 1009 88 10000 2.1 180 21:39 30.12.2019
5538 Clouds 25 1009 88 10000 2.1 180 21:20 30.12.2019
5539 Clouds 23 1008 94 10000 1 180 20:58 30.12.2019
5540 Clouds 23 1008 94 10000 1 180 20:40 30.12.2019
5541 Clouds 23 1008 94 10000 1 180 20:20 30.12.2019
5542 Clouds 24 1008 88 10000 1 180 19:58 30.12.2019
5543 Clouds 24 1008 88 10000 1 180 19:38 30.12.2019
5544 Clouds 24 1008 88 10000 1 180 19:19 30.12.2019
5545 Clouds 24 1008 94 10000 1 200 18:58 30.12.2019
5546 Clouds 24 1008 94 10000 1 200 18:40 30.12.2019
5547 Clouds 24 1008 94 10000 1 200 18:20 30.12.2019
5548 Clouds 24 1008 94 10000 1.5 200 17:55 30.12.2019
5549 Clouds 24 1008 94 10000 1.5 200 17:37 30.12.2019
5550 Clouds 24 1008 94 10000 1.5 200 17:18 30.12.2019
5551 Clouds 25 1009 88 10000 2.1 200 16:57 30.12.2019
5552 Clouds 25 1009 88 10000 2.1 200 16:37 30.12.2019
5553 Clouds 25 1009 88 10000 2.1 200 16:18 30.12.2019
5554 Clouds 25 1009 94 10000 1 180 15:55 30.12.2019
5555 Clouds 25 1009 94 10000 1 180 15:36 30.12.2019
5556 Clouds 25 1009 94 10000 1 180 15:18 30.12.2019
5557 Clouds 25 1010 94 10000 2.1 180 14:42 30.12.2019
5558 Clouds 25 1010 94 10000 2.1 180 14:19 30.12.2019
5559 Clouds 26 1010 83 10000 1.5 90 13:56 30.12.2019
5560 Clouds 26 1010 83 10000 1.5 90 13:37 30.12.2019
5561 Clouds 26 1010 83 10000 1.5 90 13:19 30.12.2019
5562 Clouds 26 1010 94 10000 1.5 110 12:43 30.12.2019
5563 Clouds 26 1010 94 10000 1.5 110 12:20 30.12.2019
5564 Clouds 26 1010 94 10000 1.5 200 11:59 30.12.2019
5565 Clouds 26 1010 94 10000 1.5 200 11:40 30.12.2019
5566 Clouds 26 1010 94 10000 1.5 200 11:19 30.12.2019
5567 Clouds 27 1009 88 10000 1 140 10:45 30.12.2019
5568 Clouds 27 1009 88 10000 1 140 10:22 30.12.2019
5569 Clouds 27 1009 88 10000 1 140 10:22 30.12.2019
5570 Clouds 27 1008 88 10000 1.5 160 09:58 30.12.2019
5571 Clouds 27 1008 88 10000 1.5 160 09:40 30.12.2019
5572 Clouds 27 1008 88 10000 1.5 160 09:20 30.12.2019
5573 Clouds 28 1008 78 10000 2.1 200 08:50 30.12.2019
5574 Clouds 28 1008 78 10000 2.1 200 08:23 30.12.2019
5575 Clouds 30 1007 70 10000 4.6 290 07:56 30.12.2019
5576 Clouds 30 1007 70 10000 4.6 290 07:37 30.12.2019
5577 Rain 30 1006 70 10000 3.1 340 06:52 30.12.2019
5578 Clouds 31 1007 70 10000 4.1 360 04:57 30.12.2019
5579 Clouds 31 1007 70 10000 3.1 360 03:55 30.12.2019
5580 Clouds 31 1008 70 10000 3.1 360 02:56 30.12.2019
5581 Clouds 31 1008 70 10000 3.1 360 02:37 30.12.2019
5582 Clouds 31 1008 62 10000 3.1 20 01:50 30.12.2019
5583 Clouds 31 1008 62 10000 3.1 20 01:21 30.12.2019
5584 Clouds 31 1009 66 10000 3.1 20 00:44 30.12.2019
5585 Clouds 31 1009 66 10000 3.1 20 00:18 30.12.2019
5586 Clouds 30 1009 70 10000 1 140 23:39 29.12.2019
5587 Clouds 30 1009 70 10000 1 140 23:39 29.12.2019
5588 Clouds 30 1009 70 10000 1 140 23:21 29.12.2019
5589 Clouds 28 1009 69 10000 3.1 180 22:42 29.12.2019
5590 Clouds 28 1009 69 10000 3.1 180 22:23 29.12.2019
5591 Clouds 25 1009 88 10000 0.32 135 21:58 29.12.2019
5592 Clouds 25 1009 88 10000 0.32 135 21:40 29.12.2019
5593 Clouds 25 1009 88 10000 0.32 135 21:20 29.12.2019
5594 Clouds 23 1009 94 10000 0.32 135 20:57 29.12.2019
5595 Clouds 23 1009 94 10000 0.32 135 20:38 29.12.2019
5596 Clouds 23 1009 94 10000 1.74 193 20:20 29.12.2019
5597 Clouds 23 1008 94 10000 1.5 160 19:58 29.12.2019
5598 Clouds 23 1008 94 10000 1.5 160 19:39 29.12.2019
5599 Clouds 23 1008 94 10000 1.5 160 19:20 29.12.2019
5600 Clouds 23 1008 94 10000 1.5 140 18:55 29.12.2019
5601 Clouds 23 1008 94 10000 1.5 140 18:37 29.12.2019
5602 Clouds 23 1008 94 10000 1.5 140 18:19 29.12.2019
5603 Clouds 23 1008 94 10000 1.5 140 18:19 29.12.2019
5604 Clouds 24 1008 94 10000 1.5 160 17:56 29.12.2019
5605 Clouds 24 1008 94 10000 1.5 160 17:38 29.12.2019
5606 Clouds 24 1008 94 10000 1.5 160 17:19 29.12.2019
5607 Clouds 25 1008 88 10000 2.04 197 16:56 29.12.2019
5608 Clouds 25 1008 88 10000 2.04 197 16:36 29.12.2019
5609 Clouds 25 1008 88 10000 2.04 197 16:18 29.12.2019
5610 Clouds 25 1009 88 10000 2.04 197 15:56 29.12.2019
5611 Clouds 25 1009 88 10000 2.04 197 15:56 29.12.2019
5612 Clouds 25 1009 88 10000 2.04 197 15:38 29.12.2019
5613 Clouds 25 1009 88 10000 2.04 197 15:18 29.12.2019
5614 Clouds 25 1009 94 10000 2.04 197 14:55 29.12.2019
5615 Clouds 25 1009 94 10000 2.04 197 14:37 29.12.2019
5616 Clouds 25 1009 94 10000 2.16 186 14:18 29.12.2019
5617 Clouds 25 1010 94 10000 2.16 186 13:41 29.12.2019
5618 Clouds 25 1010 94 10000 2.01 182 13:22 29.12.2019
5619 Clouds 26 1009 94 10000 2.01 182 12:59 29.12.2019
5620 Clouds 26 1009 94 10000 2.01 182 12:41 29.12.2019
5621 Clouds 26 1009 94 10000 2.01 182 12:22 29.12.2019
5622 Clouds 26 1009 94 10000 1.5 200 11:46 29.12.2019
5623 Clouds 26 1009 94 10000 1.5 200 11:23 29.12.2019
5624 Clouds 28 1009 83 10000 1.5 180 11:00 29.12.2019
5625 Clouds 28 1009 83 10000 1.5 180 10:41 29.12.2019
5626 Clouds 28 1009 83 10000 1.5 180 10:19 29.12.2019
5627 Clouds 29 1008 79 10000 1 140 09:47 29.12.2019
5628 Clouds 29 1008 79 10000 1 140 09:28 29.12.2019
5629 Clouds 30 1007 70 10000 2.6 50 08:59 29.12.2019
5630 Clouds 30 1007 70 10000 2.6 50 08:41 29.12.2019
5631 Clouds 30 1007 70 10000 2.6 50 08:23 29.12.2019
5632 Clouds 30 1007 70 10000 2.6 70 07:45 29.12.2019
5633 Clouds 30 1007 70 10000 2.6 70 07:26 29.12.2019
5634 Clouds 31 1006 70 10000 2.6 340 06:42 29.12.2019
5635 Clouds 31 1006 70 10000 2.6 340 06:19 29.12.2019
5636 Clouds 31 1006 70 10000 3.6 20 05:44 29.12.2019
5637 Clouds 32 1007 66 10000 2.1 320 04:33 29.12.2019
5638 Clouds 32 1008 66 10000 1.64 26 03:36 29.12.2019
5639 Clouds 31 1008 70 10000 2.6 360 02:30 29.12.2019
5640 Clouds 31 1008 70 10000 2.6 360 02:30 29.12.2019
5641 Clouds 30 1009 70 10000 3.6 20 01:52 29.12.2019
5642 Clouds 30 1009 70 10000 3.6 20 01:29 29.12.2019
5643 Clouds 30 1009 70 10000 3.6 20 01:29 29.12.2019
5644 Clouds 31 1009 70 10000 1.5 290 00:45 29.12.2019
5645 Clouds 31 1009 70 10000 1.5 290 00:45 29.12.2019
5646 Clouds 31 1009 70 10000 1.5 290 00:25 29.12.2019
5647 Clouds 31 1009 70 10000 1.5 290 00:25 29.12.2019
5648 Clouds 29 1009 74 10000 3.1 160 23:55 28.12.2019
5649 Clouds 29 1009 74 10000 3.1 160 23:37 28.12.2019
5650 Clouds 29 1009 74 10000 3.1 160 23:18 28.12.2019
5651 Clouds 27 1009 83 10000 1.5 200 22:37 28.12.2019
5652 Clouds 27 1009 83 10000 1.5 200 22:18 28.12.2019
5653 Clouds 25 1009 88 10000 1.5 180 21:56 28.12.2019
5654 Clouds 25 1009 88 10000 1.5 180 21:56 28.12.2019
5655 Clouds 25 1009 88 10000 1.5 180 21:37 28.12.2019
5656 Clouds 25 1009 88 10000 1.5 180 21:19 28.12.2019
5657 Clouds 24 1008 94 10000 1 180 20:42 28.12.2019
5658 Clouds 24 1008 94 10000 1 180 20:23 28.12.2019
5659 Clouds 24 1008 94 10000 1 180 19:59 28.12.2019
5660 Clouds 24 1008 94 10000 1 180 19:41 28.12.2019
5661 Clouds 24 1008 94 10000 1 180 19:23 28.12.2019
5662 Clear 22 1008 89 0 1.64 184 18:59 28.12.2019
5663 Clear 22 1008 89 0 1.64 184 18:40 28.12.2019
5664 Clear 22 1008 89 0 1.64 184 18:20 28.12.2019
5665 Clear 22 1008 89 0 1.64 184 17:56 28.12.2019
5666 Clear 22 1008 89 0 1.64 184 17:38 28.12.2019
5667 Clouds 24 1008 100 10000 1 140 17:19 28.12.2019
5668 Clouds 24 1008 100 10000 1 140 16:46 28.12.2019
5669 Clouds 24 1008 100 10000 1 140 16:26 28.12.2019
5670 Clouds 24 1008 100 10000 1 140 16:26 28.12.2019
5671 Clouds 24 1008 100 10000 1 140 16:26 28.12.2019
5672 Clouds 25 1009 94 10000 1.62 196 15:49 28.12.2019
5673 Clouds 25 1009 94 10000 1.62 196 15:25 28.12.2019
5674 Clouds 26 1009 88 10000 1.5 230 14:59 28.12.2019
5675 Clouds 26 1009 88 10000 1.5 230 14:39 28.12.2019
5676 Clouds 26 1009 88 10000 1.5 230 14:20 28.12.2019
5677 Clouds 26 1009 88 10000 1 180 13:56 28.12.2019
5678 Clouds 26 1009 88 10000 1 180 13:37 28.12.2019
5679 Clouds 26 1009 88 10000 1 180 13:18 28.12.2019
5680 Clouds 26 1009 94 10000 1.38 187 12:42 28.12.2019
5681 Clouds 26 1009 94 10000 1.38 187 12:23 28.12.2019
5682 Clouds 27 1009 88 10000 1.38 187 11:56 28.12.2019
5683 Clouds 27 1009 88 10000 1.38 187 11:37 28.12.2019
5684 Clouds 27 1009 88 10000 0.85 133 11:18 28.12.2019
5685 Clouds 28 1008 83 10000 0.85 133 10:43 28.12.2019
5686 Clouds 28 1008 83 10000 0.85 133 10:21 28.12.2019
5687 Clouds 29 1007 79 10000 0.85 133 09:57 28.12.2019
5688 Clouds 29 1007 79 10000 0.85 133 09:39 28.12.2019
5689 Clouds 29 1007 79 10000 0.85 133 09:19 28.12.2019
5690 Clouds 30 1006 70 10000 1.5 340 08:44 28.12.2019
5691 Clouds 30 1006 70 10000 1.5 340 08:26 28.12.2019
5692 Clouds 31 1006 66 10000 2.1 50 07:49 28.12.2019
5693 Clouds 31 1006 66 10000 2.1 50 07:27 28.12.2019
5694 Clouds 31 1006 70 10000 3.1 20 06:21 28.12.2019
5695 Clouds 31 1007 66 10000 4.6 360 03:59 28.12.2019
5696 Clouds 31 1007 66 10000 4.6 360 03:38 28.12.2019
5697 Clouds 31 1008 70 10000 4.6 320 02:48 28.12.2019
5698 Clouds 30 1008 70 10000 3.1 340 01:59 28.12.2019
5699 Clouds 30 1008 70 10000 3.1 340 01:29 28.12.2019
5700 Clouds 32 1009 62 10000 3.6 20 00:54 28.12.2019
5701 Clouds 32 1009 62 10000 3.6 20 00:36 28.12.2019
5702 Clouds 32 1009 62 10000 3.6 20 00:18 28.12.2019
5703 Haze 30 1009 74 10000 1.5 160 23:42 27.12.2019
5704 Haze 30 1009 74 10000 1.5 160 23:19 27.12.2019
5705 Haze 30 1009 74 10000 1.5 160 23:19 27.12.2019
5706 Haze 30 1009 74 10000 1.5 160 23:19 27.12.2019
5707 Clouds 27 1009 74 10000 2.1 180 22:57 27.12.2019
5708 Clouds 27 1009 74 10000 2.1 180 22:38 27.12.2019
5709 Clouds 27 1009 74 10000 2.1 180 22:20 27.12.2019
5710 Clouds 25 1008 83 10000 2.6 180 21:54 27.12.2019
5711 Clouds 25 1008 83 10000 2.6 180 21:36 27.12.2019
5712 Clouds 25 1008 83 10000 2.6 180 21:18 27.12.2019
5713 Clouds 23 1008 94 10000 2.6 180 20:40 27.12.2019
5714 Clouds 23 1008 94 10000 2.6 180 20:21 27.12.2019
5715 Clouds 23 1007 94 10000 1 160 19:42 27.12.2019
5716 Clouds 23 1007 94 10000 1 160 19:20 27.12.2019
5717 Clouds 24 1006 88 10000 1.5 200 18:59 27.12.2019
5718 Clouds 24 1006 88 10000 1.5 200 18:38 27.12.2019
5719 Clouds 24 1006 88 10000 1.5 200 18:20 27.12.2019
5720 Clouds 24 1006 88 10000 1.5 180 17:57 27.12.2019
5721 Clouds 24 1006 88 10000 1.5 180 17:38 27.12.2019
5722 Clouds 24 1006 88 10000 1.5 180 17:19 27.12.2019
5723 Clouds 24 1007 88 10000 1.5 180 16:56 27.12.2019
5724 Clouds 24 1007 88 10000 1.5 180 16:37 27.12.2019
5725 Clouds 24 1007 88 10000 1.5 180 16:19 27.12.2019
5726 Clouds 24 1008 94 10000 1 160 15:43 27.12.2019
5727 Clouds 24 1008 94 10000 1 160 15:20 27.12.2019
5728 Clouds 25 1008 88 10000 2.15 195 14:56 27.12.2019
5729 Clouds 25 1008 88 10000 2.15 195 14:38 27.12.2019
5730 Clouds 25 1008 88 10000 2.31 187 14:20 27.12.2019
5731 Clouds 25 1008 94 10000 2.31 187 13:48 27.12.2019
5732 Clouds 25 1008 94 10000 2.31 187 13:25 27.12.2019
5733 Clouds 25 1008 94 10000 2.38 189 13:25 27.12.2019
5734 Clouds 26 1008 88 10000 2.38 189 12:56 27.12.2019
5735 Clouds 26 1008 88 10000 2.38 189 12:38 27.12.2019
5736 Clouds 26 1008 88 10000 2.38 189 12:20 27.12.2019
5737 Haze 26 1008 94 0 1.5 180 11:42 27.12.2019
5738 Haze 26 1008 94 0 1.5 180 11:22 27.12.2019
5739 Haze 27 1007 88 0 1.5 200 10:54 27.12.2019
5740 Haze 27 1007 88 0 1.5 200 10:36 27.12.2019
5741 Haze 27 1007 88 0 1.5 200 10:18 27.12.2019
5742 Haze 28 1007 83 0 1.5 180 09:39 27.12.2019
5743 Haze 28 1007 83 0 1.5 180 09:21 27.12.2019
5744 Clouds 30 1006 70 10000 1.24 154 08:49 27.12.2019
5745 Clouds 30 1006 70 10000 1.09 152 08:30 27.12.2019
5746 Rain 30 1005 66 10000 2.6 360 07:48 27.12.2019
5747 Rain 30 1005 66 10000 2.6 360 07:26 27.12.2019
5748 Clouds 31 1004 66 10000 4.1 320 06:33 27.12.2019
5749 Clouds 32 1005 62 10000 4.1 320 04:51 27.12.2019
5750 Clouds 31 1006 70 10000 4.1 50 02:35 27.12.2019
5751 Clouds 30 1007 70 10000 3.1 360 01:48 27.12.2019
5752 Clouds 30 1007 70 10000 3.1 360 01:23 27.12.2019
5753 Clouds 30 1007 74 10000 2.6 360 00:52 27.12.2019
5754 Clouds 30 1007 74 10000 2.6 360 00:34 27.12.2019
5755 Clouds 30 1007 74 10000 2.6 360 00:34 27.12.2019
5756 Clouds 30 1007 74 10000 1 200 23:57 26.12.2019
5757 Clouds 30 1007 74 10000 1 200 23:38 26.12.2019
5758 Clouds 30 1007 74 10000 1 200 23:20 26.12.2019
5759 Clouds 26 1007 83 10000 1.5 250 22:42 26.12.2019
5760 Clouds 26 1007 83 10000 1.5 250 22:21 26.12.2019
5761 Clouds 24 1006 94 10000 0.82 176 21:55 26.12.2019
5762 Clouds 24 1006 94 10000 0.82 176 21:37 26.12.2019
5763 Clouds 24 1006 94 10000 0.82 176 21:19 26.12.2019
5764 Clouds 23 1006 94 10000 1.5 110 20:44 26.12.2019
5765 Clouds 23 1006 94 10000 1.5 110 20:22 26.12.2019
5766 Clouds 23 1005 94 10000 1 200 19:57 26.12.2019
5767 Clouds 23 1005 94 10000 1 200 19:38 26.12.2019
5768 Clouds 23 1005 94 10000 1 200 19:20 26.12.2019
5769 Clouds 22 1006 89 0 1.42 201 18:57 26.12.2019
5770 Clouds 22 1006 89 0 1.42 201 18:37 26.12.2019
5771 Clouds 23 1005 94 10000 1 200 18:18 26.12.2019
5772 Clouds 23 1005 94 10000 1 200 17:42 26.12.2019
5773 Clouds 23 1005 94 10000 1 200 17:22 26.12.2019
5774 Clouds 24 1005 88 10000 1 200 16:51 26.12.2019
5775 Clouds 24 1005 88 10000 1 200 16:29 26.12.2019
5776 Clouds 24 1006 94 10000 1 200 15:59 26.12.2019
5777 Clouds 24 1006 94 10000 1 200 15:40 26.12.2019
5778 Clouds 24 1006 94 10000 1 200 15:19 26.12.2019
5779 Clouds 23 1007 100 10000 1.54 186 14:42 26.12.2019
5780 Clouds 23 1007 100 10000 1.35 179 14:23 26.12.2019
5781 Clouds 24 1007 94 10000 1.35 179 13:57 26.12.2019
5782 Clouds 24 1007 94 10000 1.35 179 13:39 26.12.2019
5783 Clouds 24 1007 94 10000 1.35 179 13:39 26.12.2019
5784 Clouds 24 1007 94 10000 1.59 175 13:18 26.12.2019
5785 Clouds 24 1007 94 10000 1 180 12:45 26.12.2019
5786 Clouds 24 1007 94 10000 1 180 12:26 26.12.2019
5787 Clouds 25 1007 94 10000 1 180 11:59 26.12.2019
5788 Clouds 25 1007 94 10000 1 180 11:40 26.12.2019
5789 Clouds 25 1007 94 10000 1 180 11:22 26.12.2019
5790 Clouds 26 1007 88 10000 1 180 10:51 26.12.2019
5791 Clouds 26 1007 88 10000 1 180 10:28 26.12.2019
5792 Clouds 27 1006 83 10000 2.1 180 09:59 26.12.2019
5793 Clouds 27 1006 83 10000 2.1 180 09:41 26.12.2019
5794 Clouds 27 1006 83 10000 2.1 180 09:22 26.12.2019
5795 Clouds 30 1005 66 10000 1 340 08:39 26.12.2019
5796 Clouds 30 1005 66 10000 1 340 08:21 26.12.2019
5797 Clouds 30 1004 62 10000 3.6 360 07:44 26.12.2019
5798 Clouds 30 1004 62 10000 3.6 360 07:24 26.12.2019
5799 Clouds 31 1004 66 10000 2.1 320 06:38 26.12.2019
5800 Clouds 31 1004 66 10000 2.1 320 06:20 26.12.2019
5801 Clouds 31 1004 62 10000 3.6 340 05:42 26.12.2019
5802 Clouds 31 1005 52 10000 3.1 340 04:33 26.12.2019
5803 Clouds 30 1005 66 10000 2.6 360 03:31 26.12.2019
5804 Clouds 31 1006 58 10000 4.6 360 02:46 26.12.2019
5805 Clouds 31 1006 58 10000 4.6 360 02:27 26.12.2019
5806 Clouds 31 1006 62 10000 3.1 340 01:44 26.12.2019
5807 Clouds 31 1006 62 10000 3.1 340 01:24 26.12.2019
5808 Clouds 30 1007 66 10000 3.1 290 00:44 26.12.2019
5809 Clouds 30 1007 66 10000 3.1 290 00:23 26.12.2019
5810 Clouds 30 1007 66 10000 3.1 290 00:23 26.12.2019
5811 Clouds 30 1007 66 10000 1.84 3 23:57 25.12.2019
5812 Clouds 30 1007 66 10000 1.84 3 23:37 25.12.2019
5813 Clouds 30 1007 66 10000 0.96 179 23:18 25.12.2019
5814 Clouds 26 1007 88 10000 1.5 200 22:55 25.12.2019
5815 Clouds 26 1007 88 10000 1.5 200 22:37 25.12.2019
5816 Clouds 26 1007 88 10000 1.5 200 22:37 25.12.2019
5817 Clouds 26 1007 88 10000 1.5 200 22:18 25.12.2019
5818 Clouds 23 1006 88 10000 1 250 21:41 25.12.2019
5819 Clouds 23 1006 88 10000 1 250 21:23 25.12.2019
5820 Clouds 21 1005 94 10000 0.96 179 20:59 25.12.2019
5821 Clouds 21 1005 94 10000 0.96 179 20:40 25.12.2019
5822 Clouds 21 1005 94 10000 1.82 188 20:19 25.12.2019
5823 Clouds 22 1004 94 10000 1 140 19:57 25.12.2019
5824 Clouds 22 1004 94 10000 1 140 19:39 25.12.2019
5825 Clouds 22 1004 94 10000 1 140 19:21 25.12.2019
5826 Clouds 22 1004 94 10000 1 200 18:39 25.12.2019
5827 Clouds 22 1004 94 10000 1 200 18:20 25.12.2019
5828 Clouds 22 1004 94 10000 1.5 200 17:43 25.12.2019
5829 Clouds 22 1004 94 10000 1.5 200 17:21 25.12.2019
5830 Clouds 23 1005 94 10000 1.5 200 16:59 25.12.2019
5831 Clouds 23 1005 94 10000 1.5 200 16:39 25.12.2019
5832 Clouds 23 1005 94 10000 1.5 200 16:19 25.12.2019
5833 Clouds 21 1005 84 0 1.92 178 15:58 25.12.2019
5834 Clouds 21 1005 84 0 1.92 178 15:39 25.12.2019
5835 Clouds 21 1005 84 0 1.92 178 15:39 25.12.2019
5836 Clouds 24 1006 88 10000 2.1 90 15:21 25.12.2019
5837 Clouds 24 1006 88 10000 2.1 90 14:58 25.12.2019
5838 Clouds 24 1006 88 10000 2.1 90 14:40 25.12.2019
5839 Clouds 24 1006 88 10000 2.1 90 14:21 25.12.2019
5840 Clouds 24 1007 88 10000 2.1 110 13:55 25.12.2019
5841 Clouds 24 1007 88 10000 2.1 110 13:36 25.12.2019
5842 Clouds 24 1007 88 10000 2.1 110 13:18 25.12.2019
5843 Clouds 25 1007 83 10000 2.59 201 12:39 25.12.2019
5844 Clouds 25 1007 83 10000 2.59 201 12:20 25.12.2019
5845 Clouds 26 1007 78 10000 1 230 11:54 25.12.2019
5846 Clouds 26 1007 78 10000 1 230 11:36 25.12.2019
5847 Clouds 26 1007 78 10000 1 230 11:18 25.12.2019
5848 Clouds 27 1006 94 10000 1 160 10:38 25.12.2019
5849 Clouds 27 1006 94 10000 1 160 10:19 25.12.2019
5850 Clouds 29 1005 79 10000 2.1 70 09:49 25.12.2019
5851 Clouds 29 1005 79 10000 2.1 70 09:30 25.12.2019
5852 Clouds 30 1005 74 10000 3.6 50 08:47 25.12.2019
5853 Clouds 30 1005 74 10000 3.6 50 08:29 25.12.2019
5854 Clouds 31 1004 70 10000 2.6 70 07:50 25.12.2019
5855 Clouds 31 1004 70 10000 2.6 70 07:31 25.12.2019
5856 Clouds 31 1003 70 10000 2.6 360 06:49 25.12.2019
5857 Clouds 31 1003 70 10000 2.6 360 06:22 25.12.2019
5858 Clouds 31 1004 70 10000 2.6 360 05:18 25.12.2019
5859 Clouds 31 1004 70 10000 3.6 360 04:38 25.12.2019
5860 Clouds 31 1004 70 10000 3.6 360 04:18 25.12.2019
5861 Clouds 31 1005 70 10000 4.1 360 03:40 25.12.2019
5862 Clouds 31 1006 70 10000 3.1 360 02:39 25.12.2019
5863 Clouds 31 1007 70 10000 4.1 360 01:59 25.12.2019
5864 Clouds 31 1007 70 10000 4.1 360 01:25 25.12.2019
5865 Clouds 31 1007 70 10000 2.1 360 00:50 25.12.2019
5866 Clouds 31 1007 70 10000 2.1 360 00:29 25.12.2019
5867 Clouds 31 1007 74 10000 0.54 72 23:55 24.12.2019
5868 Clouds 31 1007 74 10000 0.54 72 23:37 24.12.2019
5869 Clouds 31 1007 74 10000 1.1 166 23:19 24.12.2019
5870 Clouds 28 1008 83 10000 1.1 166 22:39 24.12.2019
5871 Clouds 28 1008 83 10000 1.1 166 22:20 24.12.2019
5872 Clouds 28 1008 83 10000 1.1 166 22:20 24.12.2019
5873 Clouds 24 1007 94 10000 1.1 166 21:42 24.12.2019
5874 Clouds 24 1007 94 10000 1.1 166 21:22 24.12.2019
5875 Clouds 24 1006 94 10000 1.1 166 20:45 24.12.2019
5876 Clouds 24 1006 94 10000 0.87 202 20:24 24.12.2019
5877 Clouds 24 1005 94 10000 1.28 194 19:57 24.12.2019
5878 Clouds 24 1005 94 10000 1.28 194 19:38 24.12.2019
5879 Clouds 24 1005 94 10000 1.28 194 19:18 24.12.2019
5880 Clouds 24 1005 100 10000 1.5 180 18:42 24.12.2019
5881 Clouds 24 1005 100 10000 1.5 180 18:19 24.12.2019
5882 Clouds 25 1005 94 10000 1.28 194 17:45 24.12.2019
5883 Clouds 25 1005 94 10000 1.28 194 17:23 24.12.2019
5884 Clouds 25 1005 94 10000 1.5 187 16:59 24.12.2019
5885 Clouds 25 1005 94 10000 1.5 187 16:59 24.12.2019
5886 Clouds 25 1005 94 10000 1.5 187 16:40 24.12.2019
5887 Clouds 25 1005 94 10000 1.5 187 16:22 24.12.2019
5888 Clouds 25 1006 100 10000 1.5 187 15:58 24.12.2019
5889 Clouds 25 1006 100 10000 1.5 187 15:38 24.12.2019
5890 Clouds 25 1006 100 10000 1.5 187 15:19 24.12.2019
5891 Clouds 25 1007 100 10000 1.5 187 14:58 24.12.2019
5892 Clouds 25 1007 100 10000 1.5 187 14:40 24.12.2019
5893 Clouds 25 1007 100 10000 1.64 211 14:22 24.12.2019
5894 Clouds 25 1007 100 10000 1.64 211 13:56 24.12.2019
5895 Clouds 25 1007 100 10000 1.64 211 13:38 24.12.2019
5896 Clouds 25 1007 100 10000 1.68 199 13:20 24.12.2019
5897 Clouds 26 1007 100 10000 1.5 110 12:57 24.12.2019
5898 Clouds 26 1007 100 10000 1.5 110 12:38 24.12.2019
5899 Clouds 26 1007 100 10000 1.5 110 12:19 24.12.2019
5900 Clouds 26 1007 100 10000 2.6 250 11:56 24.12.2019
5901 Clouds 26 1007 100 10000 2.6 250 11:37 24.12.2019
5902 Clouds 26 1007 100 10000 2.6 250 11:19 24.12.2019
5903 Clouds 27 1007 88 10000 2.6 270 10:56 24.12.2019
5904 Clouds 27 1007 88 10000 2.6 270 10:56 24.12.2019
5905 Clouds 27 1007 88 10000 2.6 270 10:56 24.12.2019
5906 Clouds 27 1007 88 10000 2.6 270 10:38 24.12.2019
5907 Clouds 27 1007 88 10000 2.6 270 10:19 24.12.2019
5908 Drizzle 27 1006 94 10000 3.6 260 09:55 24.12.2019
5909 Drizzle 27 1006 94 10000 3.6 260 09:37 24.12.2019
5910 Drizzle 27 1006 94 10000 3.6 260 09:19 24.12.2019
5911 Clouds 28 1005 94 10000 3.6 230 08:45 24.12.2019
5912 Clouds 28 1005 94 10000 3.6 230 08:24 24.12.2019
5913 Clouds 29 1004 83 0 2.1 340 07:46 24.12.2019
5914 Clouds 29 1004 83 0 2.1 340 07:26 24.12.2019
5915 Clouds 30 1004 79 0 3.1 50 06:58 24.12.2019
5916 Clouds 30 1004 79 0 3.1 50 06:38 24.12.2019
5917 Clouds 30 1004 79 0 3.1 50 06:38 24.12.2019
5918 Clouds 30 1004 79 0 3.1 50 06:19 24.12.2019
5919 Rain 31 1004 70 10000 4.1 340 05:40 24.12.2019
5920 Rain 31 1004 70 10000 4.1 340 05:18 24.12.2019
5921 Clouds 32 1005 70 10000 1 160 03:50 24.12.2019
5922 Clouds 32 1005 70 10000 1 160 03:23 24.12.2019
5923 Clouds 30 1006 79 10000 2.6 340 02:25 24.12.2019
5924 Rain 30 1007 74 10000 2.1 50 01:51 24.12.2019
5925 Rain 30 1007 74 10000 2.1 50 01:22 24.12.2019
5926 Clouds 29 1006 83 10000 1.5 20 00:45 24.12.2019
5927 Clouds 29 1006 83 10000 1.5 20 00:24 24.12.2019
5928 Rain 29 1006 79 10000 1.45 9 23:59 23.12.2019
5929 Rain 29 1006 79 10000 1.45 9 23:40 23.12.2019
5930 Rain 29 1006 79 10000 1.1 134 23:22 23.12.2019
5931 Rain 27 1007 88 10000 2.1 140 22:56 23.12.2019
5932 Rain 27 1007 88 10000 2.1 140 22:56 23.12.2019
5933 Rain 27 1007 88 10000 2.1 140 22:36 23.12.2019
5934 Rain 27 1007 88 10000 2.1 140 22:18 23.12.2019
5935 Clouds 26 1006 94 10000 2.1 180 21:55 23.12.2019
5936 Clouds 26 1006 94 10000 2.1 180 21:36 23.12.2019
5937 Clouds 26 1006 94 10000 2.1 180 21:18 23.12.2019
5938 Clouds 24 1005 100 10000 1 200 20:56 23.12.2019
5939 Clouds 24 1005 100 10000 1 200 20:56 23.12.2019
5940 Clouds 24 1005 100 10000 1 200 20:38 23.12.2019
5941 Clouds 24 1005 100 10000 1 200 20:18 23.12.2019
5942 Clouds 24 1005 100 10000 1 200 19:55 23.12.2019
5943 Clouds 24 1005 100 10000 1 200 19:55 23.12.2019
5944 Clouds 24 1005 100 10000 1 200 19:36 23.12.2019
5945 Clouds 24 1005 100 10000 1 200 19:18 23.12.2019
5946 Clouds 23 1005 90 0 1.08 194 18:55 23.12.2019
5947 Clouds 23 1005 90 0 1.08 194 18:36 23.12.2019
5948 Clouds 25 1006 94 10000 1 200 18:18 23.12.2019
5949 Clouds 25 1006 94 10000 1 200 17:55 23.12.2019
5950 Clouds 25 1006 94 10000 1 200 17:37 23.12.2019
5951 Clouds 25 1006 94 10000 1 200 17:18 23.12.2019
5952 Rain 25 1006 94 10000 1.1 191 16:42 23.12.2019
5953 Rain 25 1006 94 10000 1.1 191 16:19 23.12.2019
5954 Rain 25 1006 94 10000 1.1 191 16:19 23.12.2019
5955 Clouds 25 1006 100 10000 1 250 15:58 23.12.2019
5956 Clouds 25 1006 100 10000 1 250 15:38 23.12.2019
5957 Clouds 25 1006 100 10000 1 250 15:19 23.12.2019
5958 Clouds 25 1007 100 10000 1 200 14:58 23.12.2019
5959 Clouds 25 1007 100 10000 1 200 14:39 23.12.2019
5960 Clouds 25 1007 100 10000 1 200 14:20 23.12.2019
5961 Clouds 25 1007 100 10000 1.5 180 13:57 23.12.2019
5962 Clouds 25 1007 100 10000 1.5 180 13:39 23.12.2019
5963 Clouds 25 1007 100 10000 1.5 180 13:21 23.12.2019
5964 Clouds 25 1007 100 10000 1.02 168 12:55 23.12.2019
5965 Clouds 25 1007 100 10000 1.02 168 12:37 23.12.2019
5966 Clouds 25 1007 100 10000 1.02 168 12:37 23.12.2019
5967 Clouds 25 1007 100 10000 1.02 168 12:18 23.12.2019
5968 Clouds 26 1007 94 10000 1.02 168 11:43 23.12.2019
5969 Clouds 26 1007 94 10000 1.02 168 11:25 23.12.2019
5970 Clouds 27 1007 94 10000 0.34 144 10:56 23.12.2019
5971 Clouds 27 1007 94 10000 0.34 144 10:38 23.12.2019
5972 Clouds 27 1007 94 10000 0.34 144 10:38 23.12.2019
5973 Clouds 27 1007 94 10000 0.34 144 10:20 23.12.2019
5974 Clouds 27 1006 94 10000 1.5 140 09:58 23.12.2019
5975 Clouds 27 1006 94 10000 1.5 140 09:39 23.12.2019
5976 Clouds 27 1006 94 10000 1.5 140 09:39 23.12.2019
5977 Clouds 27 1006 94 10000 1.5 140 09:39 23.12.2019
5978 Clouds 27 1006 94 10000 1.5 140 09:19 23.12.2019
5979 Clouds 27 1006 94 10000 0.34 144 08:55 23.12.2019
5980 Clouds 27 1006 94 10000 0.34 144 08:37 23.12.2019
5981 Clouds 27 1006 94 10000 0.77 10 08:18 23.12.2019
5982 Rain 27 1004 94 10000 2.1 180 07:42 23.12.2019
5983 Rain 27 1004 94 10000 2.1 180 07:19 23.12.2019
5984 Clouds 26 1005 100 10000 1.5 200 06:44 23.12.2019
5985 Clouds 26 1005 100 10000 2.1 270 06:22 23.12.2019
5986 Clouds 26 1005 94 10000 2.6 230 05:46 23.12.2019
5987 Clouds 27 1005 100 0 2.6 200 04:55 23.12.2019
5988 Thunderstorm 30 1005 79 10000 4.6 50 03:59 23.12.2019
5989 Clouds 30 1006 79 10000 4.6 50 02:48 23.12.2019
5990 Clouds 30 1006 79 10000 4.6 50 02:20 23.12.2019
5991 Clouds 30 1006 66 10000 4.6 20 01:51 23.12.2019
5992 Clouds 30 1006 66 10000 4.6 20 01:32 23.12.2019
5993 Clouds 30 1006 66 10000 4.6 20 01:32 23.12.2019
5994 Clouds 30 1006 66 10000 4.6 20 01:32 23.12.2019
5995 Clouds 30 1007 74 10000 3.1 70 00:49 23.12.2019
5996 Clouds 30 1007 74 10000 3.1 70 00:30 23.12.2019
5997 Clouds 30 1007 74 10000 0.8 16 23:57 22.12.2019
5998 Clouds 30 1007 74 10000 0.8 16 23:57 22.12.2019
5999 Clouds 30 1007 74 10000 0.8 16 23:37 22.12.2019
6000 Clouds 30 1007 74 10000 0.77 174 23:19 22.12.2019
6001 Clouds 25 1007 94 10000 1.5 200 22:55 22.12.2019
6002 Clouds 25 1007 94 10000 1.5 200 22:37 22.12.2019
6003 Clouds 25 1007 94 10000 1.5 200 22:18 22.12.2019
6004 Clouds 24 1006 100 10000 0.77 174 21:54 22.12.2019
6005 Clouds 24 1006 100 10000 0.77 174 21:36 22.12.2019
6006 Clouds 24 1006 100 10000 0.77 174 21:18 22.12.2019
6007 Clouds 23 1005 100 10000 1 140 20:40 22.12.2019
6008 Clouds 23 1005 100 10000 1 140 20:19 22.12.2019
6009 Clouds 23 1005 100 10000 1 140 19:57 22.12.2019
6010 Clouds 23 1005 100 10000 1 140 19:39 22.12.2019
6011 Clouds 23 1005 100 10000 1 140 19:20 22.12.2019
6012 Clouds 24 1005 100 10000 1.5 140 18:44 22.12.2019
6013 Clouds 24 1005 100 10000 1.5 140 18:44 22.12.2019
6014 Clouds 24 1005 100 10000 1.5 140 18:25 22.12.2019
6015 Clouds 24 1005 100 10000 1 110 17:58 22.12.2019
6016 Clouds 24 1005 100 10000 1 110 17:39 22.12.2019
6017 Clouds 24 1005 100 10000 1 110 17:19 22.12.2019
6018 Clouds 24 1006 100 10000 1.01 176 16:59 22.12.2019
6019 Clouds 24 1006 100 10000 1.01 176 16:41 22.12.2019
6020 Clouds 24 1006 100 10000 1.01 176 16:22 22.12.2019
6021 Clouds 24 1006 100 10000 1.01 176 16:22 22.12.2019
6022 Clouds 25 1007 94 10000 1.01 176 15:57 22.12.2019
6023 Clouds 25 1007 94 10000 1.01 176 15:39 22.12.2019
6024 Clouds 25 1007 94 10000 1.01 176 15:39 22.12.2019
6025 Clouds 25 1007 94 10000 1.01 176 15:20 22.12.2019
6026 Clouds 25 1008 100 10000 1.5 200 14:56 22.12.2019
6027 Clouds 25 1008 100 10000 1.5 200 14:38 22.12.2019
6028 Clouds 25 1008 100 10000 1.5 200 14:19 22.12.2019
6029 Clouds 25 1008 100 10000 1.5 200 14:19 22.12.2019
6030 Clouds 25 1008 94 10000 1 140 13:55 22.12.2019
6031 Clouds 25 1008 94 10000 1 140 13:37 22.12.2019
6032 Clouds 25 1008 94 10000 1 140 13:19 22.12.2019
6033 Clouds 25 1008 100 10000 1 140 12:56 22.12.2019
6034 Clouds 25 1008 100 10000 1 140 12:37 22.12.2019
6035 Clouds 25 1008 100 10000 1 140 12:19 22.12.2019
6036 Rain 25 1008 100 10000 1 180 11:56 22.12.2019
6037 Rain 25 1008 100 10000 1 180 11:38 22.12.2019
6038 Rain 25 1008 100 10000 1 180 11:18 22.12.2019
6039 Rain 25 1006 100 10000 1 180 10:55 22.12.2019
6040 Rain 25 1006 100 10000 1 180 10:36 22.12.2019
6041 Rain 25 1006 100 10000 1 180 10:18 22.12.2019
6042 Rain 25 1007 100 10000 2.1 140 09:56 22.12.2019
6043 Rain 25 1007 100 10000 2.1 140 09:37 22.12.2019
6044 Rain 25 1007 100 10000 2.1 140 09:19 22.12.2019
6045 Rain 26 1006 94 10000 1.5 140 08:39 22.12.2019
6046 Rain 26 1006 94 10000 1.5 140 08:21 22.12.2019
6047 Drizzle 26 1005 94 10000 1 180 07:40 22.12.2019
6048 Drizzle 26 1005 94 10000 1 180 07:21 22.12.2019
6049 Drizzle 26 1005 100 10000 2.1 180 06:41 22.12.2019
6050 Clouds 27 1005 88 10000 1 250 05:56 22.12.2019
6051 Clouds 27 1005 88 10000 1 250 05:24 22.12.2019
6052 Rain 28 1005 83 10000 4.1 340 04:30 22.12.2019
6053 Rain 31 1006 74 10000 3.1 360 03:58 22.12.2019
6054 Clouds 30 1006 74 10000 2.6 360 02:42 22.12.2019
6055 Clouds 30 1007 74 10000 2.6 20 01:54 22.12.2019
6056 Clouds 30 1007 74 10000 2.6 20 01:30 22.12.2019
6057 Clouds 30 1007 74 10000 2.6 20 01:30 22.12.2019
6058 Clouds 31 1007 74 10000 3.1 70 00:47 22.12.2019
6059 Clouds 31 1007 74 10000 3.1 70 00:24 22.12.2019
6060 Clouds 30 1007 79 10000 1.49 71 23:57 21.12.2019
6061 Clouds 30 1007 79 10000 1.49 71 23:38 21.12.2019
6062 Clouds 30 1007 79 10000 1.37 81 23:19 21.12.2019
6063 Clouds 27 1006 83 10000 1.5 160 22:41 21.12.2019
6064 Clouds 27 1006 83 10000 1.5 160 22:19 21.12.2019
6065 Clouds 25 1006 100 10000 1.37 81 21:57 21.12.2019
6066 Clouds 25 1006 100 10000 1.37 81 21:38 21.12.2019
6067 Clouds 25 1006 100 10000 1.37 81 21:19 21.12.2019
6068 Clouds 25 1006 94 10000 2.1 180 20:58 21.12.2019
6069 Clouds 25 1006 94 10000 2.1 180 20:39 21.12.2019
6070 Clouds 25 1006 94 10000 2.1 180 20:21 21.12.2019
6071 Clouds 24 1005 100 10000 1.03 264 19:58 21.12.2019
6072 Clouds 24 1005 100 10000 1.03 264 19:40 21.12.2019
6073 Clouds 24 1005 100 10000 1.03 264 19:19 21.12.2019
6074 Clouds 24 1005 100 10000 1.03 264 18:45 21.12.2019
6075 Clouds 24 1005 100 10000 1.03 264 18:24 21.12.2019
6076 Clouds 25 1005 94 10000 1.03 264 17:57 21.12.2019
6077 Clouds 25 1005 94 10000 1.03 264 17:39 21.12.2019
6078 Clouds 25 1005 94 10000 1.03 144 17:21 21.12.2019
6079 Clouds 25 1005 94 10000 1.03 144 16:58 21.12.2019
6080 Clouds 25 1005 94 10000 1.03 144 16:39 21.12.2019
6081 Clouds 25 1005 94 10000 1.03 144 16:18 21.12.2019
6082 Clouds 25 1006 100 10000 2.1 160 15:56 21.12.2019
6083 Clouds 25 1006 100 10000 2.1 160 15:38 21.12.2019
6084 Clouds 25 1006 100 10000 2.1 160 15:19 21.12.2019
6085 Drizzle 26 1005 100 10000 1.03 144 14:45 21.12.2019
6086 Drizzle 26 1005 100 10000 1.03 144 14:26 21.12.2019
6087 Drizzle 26 1007 100 10000 1.5 180 13:59 21.12.2019
6088 Drizzle 26 1007 100 10000 1.5 180 13:40 21.12.2019
6089 Drizzle 26 1007 100 10000 1.5 180 13:20 21.12.2019
6090 Clouds 26 1008 100 10000 1 290 12:57 21.12.2019
6091 Clouds 26 1008 100 10000 1 290 12:39 21.12.2019
6092 Clouds 26 1008 100 10000 1 290 12:21 21.12.2019
6093 Clouds 26 1008 100 10000 1 290 11:57 21.12.2019
6094 Thunderstorm 27 1008 94 10000 2.6 250 11:39 21.12.2019
6095 Thunderstorm 27 1008 94 10000 2.6 250 11:21 21.12.2019
6096 Drizzle 27 1007 88 10000 1 250 10:41 21.12.2019
6097 Drizzle 27 1007 88 10000 1 250 10:23 21.12.2019
6098 Drizzle 28 1006 94 10000 3.1 140 09:58 21.12.2019
6099 Drizzle 28 1006 94 10000 3.1 140 09:39 21.12.2019
6100 Drizzle 28 1006 94 10000 3.1 140 09:19 21.12.2019
6101 Clouds 30 1006 74 10000 2.1 320 08:51 21.12.2019
6102 Clouds 30 1006 74 10000 2.1 320 08:27 21.12.2019
6103 Rain 30 1005 74 10000 2.6 360 07:58 21.12.2019
6104 Rain 30 1005 74 10000 2.6 360 07:58 21.12.2019
6105 Rain 30 1005 74 10000 2.6 360 07:39 21.12.2019
6106 Rain 30 1005 74 10000 2.6 360 07:20 21.12.2019
6107 Rain 32 1004 66 10000 4.1 20 06:40 21.12.2019
6108 Rain 32 1004 66 10000 4.1 20 06:22 21.12.2019
6109 Rain 31 1004 70 10000 3.1 360 05:25 21.12.2019
6110 Clouds 32 1005 62 10000 3.1 20 04:34 21.12.2019
6111 Clouds 31 1005 70 10000 3.1 20 03:56 21.12.2019
6112 Clouds 31 1006 74 10000 3.1 20 02:25 21.12.2019
6113 Clouds 31 1006 74 10000 3.1 20 02:25 21.12.2019
6114 Clouds 31 1007 74 10000 3.1 50 01:43 21.12.2019
6115 Clouds 31 1007 74 10000 3.1 50 01:24 21.12.2019
6116 Clouds 31 1006 70 10000 3.1 140 00:40 21.12.2019
6117 Clouds 31 1006 70 10000 3.1 140 00:21 21.12.2019
6118 Clouds 29 1007 79 10000 3.1 90 23:39 20.12.2019
6119 Clouds 29 1007 79 10000 3.1 90 23:39 20.12.2019
6120 Clouds 29 1007 79 10000 3.1 90 23:20 20.12.2019
6121 Rain 26 1007 88 10000 1.5 140 22:57 20.12.2019
6122 Rain 26 1007 88 10000 1.5 140 22:38 20.12.2019
6123 Rain 26 1007 88 10000 1.5 140 22:18 20.12.2019
6124 Rain 25 1007 94 10000 1.5 180 21:41 20.12.2019
6125 Rain 25 1007 94 10000 1.5 180 21:21 20.12.2019
6126 Rain 25 1007 94 10000 1.5 180 21:21 20.12.2019
6127 Clouds 24 1006 100 10000 1 110 20:57 20.12.2019
6128 Clouds 24 1006 100 10000 1 110 20:38 20.12.2019
6129 Clouds 24 1006 100 10000 1 110 20:18 20.12.2019
6130 Clouds 25 1005 94 10000 2.1 180 19:42 20.12.2019
6131 Clouds 25 1005 94 10000 2.1 180 19:21 20.12.2019
6132 Clouds 24 1005 100 10000 1 160 18:58 20.12.2019
6133 Clouds 24 1005 100 10000 1 160 18:39 20.12.2019
6134 Clouds 24 1005 100 10000 1 160 18:21 20.12.2019
6135 Clouds 22 1006 85 0 1.1 151 17:55 20.12.2019
6136 Clouds 22 1006 85 0 1.1 151 17:37 20.12.2019
6137 -273 0 0 0 0 0 17:18 20.12.2019
6138 Clouds 24 1005 94 10000 1 140 16:40 20.12.2019
6139 Clouds 24 1005 94 10000 1 140 16:20 20.12.2019
6140 Clouds 25 1006 94 10000 1 160 15:57 20.12.2019
6141 Clouds 25 1006 94 10000 1 160 15:39 20.12.2019
6142 Clouds 25 1006 94 10000 1 160 15:20 20.12.2019
6143 Clouds 25 1006 100 10000 1.03 174 14:59 20.12.2019
6144 Clouds 25 1006 100 10000 1.03 174 14:40 20.12.2019
6145 Clouds 25 1006 100 10000 2.11 167 14:22 20.12.2019
6146 Clouds 26 1007 94 10000 1 230 13:55 20.12.2019
6147 Clouds 26 1007 94 10000 1 230 13:36 20.12.2019
6148 Clouds 26 1007 94 10000 1 230 13:18 20.12.2019
6149 Clouds 26 1007 94 10000 1.5 160 12:41 20.12.2019
6150 Clouds 26 1007 94 10000 1.5 160 12:19 20.12.2019
6151 Clouds 26 1007 94 10000 1 140 11:59 20.12.2019
6152 Clouds 26 1007 94 10000 1 140 11:40 20.12.2019
6153 Clouds 26 1007 94 10000 1 140 11:21 20.12.2019
6154 Clouds 27 1007 88 10000 1 110 10:59 20.12.2019
6155 Clouds 27 1007 88 10000 1 110 10:41 20.12.2019
6156 Clouds 27 1007 88 10000 1 110 10:20 20.12.2019
6157 Clouds 27 1006 94 10000 1 110 09:55 20.12.2019
6158 Clouds 27 1006 94 10000 1 110 09:37 20.12.2019
6159 Clouds 27 1006 94 10000 1 110 09:19 20.12.2019
6160 Clouds 28 1005 88 10000 1 230 08:42 20.12.2019
6161 Clouds 28 1005 88 10000 1 230 08:22 20.12.2019
6162 Rain 29 1005 74 10000 1.68 105 07:58 20.12.2019
6163 Rain 29 1005 74 10000 1.68 105 07:40 20.12.2019
6164 Rain 29 1005 74 10000 1.68 105 07:19 20.12.2019
6165 Rain 29 1005 74 10000 1.68 105 07:19 20.12.2019
6166 Rain 30 1005 74 10000 2.1 360 06:50 20.12.2019
6167 Rain 30 1005 74 10000 2.1 360 06:31 20.12.2019
6168 Clouds 30 1005 74 10000 1.68 105 05:52 20.12.2019
6169 Clouds 30 1005 74 10000 1.68 105 05:34 20.12.2019
6170 Rain 30 1006 79 10000 3.6 20 03:57 20.12.2019
6171 Rain 30 1006 79 10000 3.6 20 03:29 20.12.2019
6172 Rain 31 1007 74 10000 3.1 20 02:38 20.12.2019
6173 Clouds 31 1007 70 10000 3.6 110 01:44 20.12.2019
6174 Clouds 30 1007 79 10000 3.1 90 00:59 20.12.2019
6175 Clouds 30 1007 79 10000 3.1 90 00:40 20.12.2019
6176 Clouds 29 1007 83 10000 3.6 90 23:59 19.12.2019
6177 Clouds 29 1007 83 10000 3.6 90 23:40 19.12.2019
6178 Clouds 29 1007 83 10000 3.6 90 23:22 19.12.2019
6179 Clouds 28 1007 83 10000 1.5 160 22:41 19.12.2019
6180 Clouds 28 1007 83 10000 1.5 160 22:23 19.12.2019
6181 Clouds 26 1006 88 10000 1.27 105 21:59 19.12.2019
6182 Clouds 26 1006 88 10000 1.27 105 21:59 19.12.2019
6183 Clouds 26 1006 88 10000 1.27 105 21:41 19.12.2019
6184 Clouds 26 1006 88 10000 1.27 105 21:20 19.12.2019
6185 Clouds 24 1006 100 10000 2.1 160 20:58 19.12.2019
6186 Clouds 24 1006 100 10000 2.1 160 20:38 19.12.2019
6187 Clouds 24 1006 100 10000 2.1 160 20:20 19.12.2019
6188 Clouds 24 1006 100 10000 2.1 160 20:20 19.12.2019
6189 Clouds 24 1006 100 10000 1.58 132 19:58 19.12.2019
6190 Clouds 24 1006 100 10000 1.58 132 19:40 19.12.2019
6191 Clouds 24 1006 100 10000 1.58 132 19:40 19.12.2019
6192 Clouds 24 1006 100 10000 1.58 132 19:20 19.12.2019
6193 Clouds 24 1006 100 10000 1.58 132 19:20 19.12.2019
6194 Clouds 24 1006 100 10000 1.58 132 19:20 19.12.2019
6195 Clouds 24 1006 100 10000 1.58 132 19:20 19.12.2019
6196 Clouds 24 1005 100 10000 1.58 132 18:58 19.12.2019
6197 Clouds 24 1005 100 10000 1.58 132 18:40 19.12.2019
6198 Clouds 24 1005 100 10000 1.58 132 18:20 19.12.2019
6199 Clouds 24 1005 100 10000 1.58 132 17:56 19.12.2019
6200 Clouds 24 1005 100 10000 1.58 132 17:38 19.12.2019
6201 Clouds 24 1005 100 10000 1.67 143 17:18 19.12.2019
6202 Clouds 25 1005 94 10000 1.67 143 16:56 19.12.2019
6203 Clouds 25 1005 94 10000 1.67 143 16:37 19.12.2019
6204 Clouds 25 1005 94 10000 1.67 143 16:19 19.12.2019
6205 Clouds 25 1006 94 10000 1.5 160 15:57 19.12.2019
6206 Clouds 25 1006 94 10000 1.5 160 15:37 19.12.2019
6207 Clouds 25 1006 94 10000 1.5 160 15:19 19.12.2019
6208 Clouds 25 1006 94 10000 1.5 160 15:19 19.12.2019
6209 Clouds 25 1006 94 10000 2.1 140 14:43 19.12.2019
6210 Clouds 25 1006 94 10000 2.1 140 14:20 19.12.2019
6211 Clouds 26 1007 88 10000 2.1 110 13:59 19.12.2019
6212 Clouds 26 1007 88 10000 2.1 110 13:38 19.12.2019
6213 Clouds 26 1007 88 10000 2.1 110 13:38 19.12.2019
6214 Clouds 26 1007 88 10000 2.1 110 13:19 19.12.2019
6215 Clouds 26 1007 94 10000 1.5 110 12:57 19.12.2019
6216 Clouds 26 1007 94 10000 1.5 110 12:39 19.12.2019
6217 Clouds 26 1007 94 10000 1.5 110 12:19 19.12.2019
6218 Clouds 26 1007 94 10000 1.5 110 12:19 19.12.2019
6219 Clouds 26 1008 100 10000 1.5 140 11:58 19.12.2019
6220 Clouds 26 1008 100 10000 1.5 140 11:40 19.12.2019
6221 Clouds 26 1008 100 10000 1.5 140 11:18 19.12.2019
6222 Clouds 26 1007 94 10000 1.5 160 10:57 19.12.2019
6223 Clouds 26 1007 94 10000 1.5 160 10:38 19.12.2019
6224 Clouds 26 1007 94 10000 1.5 160 10:19 19.12.2019
6225 Clouds 28 1006 83 10000 5.1 90 09:54 19.12.2019
6226 Clouds 28 1006 83 10000 5.1 90 09:36 19.12.2019
6227 Clouds 28 1006 83 10000 5.1 90 09:18 19.12.2019
6228 Clouds 28 1005 83 10000 6.2 50 08:41 19.12.2019
6229 Clouds 28 1005 83 10000 6.2 50 08:19 19.12.2019
6230 Clouds 30 1004 74 10000 4.6 90 07:57 19.12.2019
6231 Clouds 30 1004 74 10000 4.6 90 07:38 19.12.2019
6232 Clouds 30 1004 74 10000 4.6 90 07:19 19.12.2019
6233 Rain 31 1004 74 10000 3.6 110 06:50 19.12.2019
6234 Rain 31 1004 74 10000 3.6 110 06:29 19.12.2019
6235 Clouds 31 1004 74 10000 3.1 50 05:55 19.12.2019
6236 Clouds 31 1004 74 10000 3.1 50 05:34 19.12.2019
6237 Rain 32 1004 66 10000 6.2 90 04:52 19.12.2019
6238 Rain 32 1005 70 10000 6.2 110 03:21 19.12.2019
6239 Clouds 32 1006 70 10000 4.6 90 02:22 19.12.2019
6240 Clouds 31 1006 66 10000 6.2 90 01:22 19.12.2019
6241 Clouds 31 1006 74 10000 5.7 110 00:41 19.12.2019
6242 Clouds 31 1006 74 10000 5.7 110 00:22 19.12.2019
6243 Clouds 30 1006 79 10000 3.6 110 23:56 18.12.2019
6244 Clouds 30 1006 79 10000 3.6 110 23:38 18.12.2019
6245 Clouds 30 1006 79 10000 3.6 110 23:18 18.12.2019
6246 Clouds 28 1006 78 10000 1.5 110 22:55 18.12.2019
6247 Clouds 28 1006 78 10000 1.5 110 22:36 18.12.2019
6248 Clouds 28 1006 78 10000 1.5 110 22:18 18.12.2019
6249 Clouds 25 1005 94 10000 1 160 21:55 18.12.2019
6250 Clouds 25 1005 94 10000 1 160 21:37 18.12.2019
6251 Clouds 25 1005 94 10000 1 160 21:36 18.12.2019
6252 Clouds 25 1005 94 10000 1 160 21:18 18.12.2019
6253 Clouds 26 1006 77 0 0.77 121 20:54 18.12.2019
6254 Clouds 26 1006 77 0 0.77 121 20:36 18.12.2019
6255 Clouds 23 1005 86 0 1.3 143 20:18 18.12.2019
6256 Clouds 23 1005 86 0 1.3 143 19:54 18.12.2019
6257 Clouds 23 1005 86 0 1.3 143 19:54 18.12.2019
6258 Clouds 23 1005 86 0 1.3 143 19:36 18.12.2019
6259 Clouds 23 1005 86 0 1.3 143 19:18 18.12.2019
6260 Clouds 23 1005 86 0 1.3 143 18:43 18.12.2019
6261 Clouds 23 1005 86 0 1.3 143 18:25 18.12.2019
6262 Clouds 23 1005 86 0 1.3 143 17:56 18.12.2019
6263 Clouds 23 1005 86 0 1.3 143 17:38 18.12.2019
6264 Clouds 23 1005 86 0 1.3 143 17:38 18.12.2019
6265 Clouds 25 1005 94 10000 1 160 17:19 18.12.2019
6266 Clouds 25 1005 94 10000 1 160 16:43 18.12.2019
6267 Clouds 25 1005 94 10000 1 160 16:24 18.12.2019
6268 Clouds 25 1006 94 10000 1 180 15:59 18.12.2019
6269 Clouds 25 1006 94 10000 1 180 15:40 18.12.2019
6270 Clouds 25 1006 94 10000 1 180 15:21 18.12.2019
6271 Clouds 25 1006 94 10000 1 140 14:58 18.12.2019
6272 Clouds 25 1006 94 10000 1 140 14:40 18.12.2019
6273 Clouds 25 1006 94 10000 1 140 14:20 18.12.2019
6274 Clouds 26 1006 94 10000 2.1 160 13:56 18.12.2019
6275 Clouds 26 1006 94 10000 2.1 160 13:56 18.12.2019
6276 Clouds 26 1006 94 10000 2.1 160 13:37 18.12.2019
6277 Clouds 26 1006 94 10000 2.1 160 13:19 18.12.2019
6278 Clouds 26 1006 94 10000 1 180 12:55 18.12.2019
6279 Clouds 26 1006 94 10000 1 180 12:54 18.12.2019
6280 Clouds 26 1006 94 10000 1 180 12:36 18.12.2019
6281 Clouds 26 1006 94 10000 1 180 12:18 18.12.2019
6282 Clouds 26 1006 94 10000 1.5 110 11:54 18.12.2019
6283 Clouds 26 1006 94 10000 1.5 110 11:36 18.12.2019
6284 Clouds 26 1006 94 10000 1.5 110 11:18 18.12.2019
6285 Clouds 27 1006 88 10000 1.5 140 10:54 18.12.2019
6286 Clouds 27 1006 88 10000 1.5 140 10:54 18.12.2019
6287 Clouds 27 1006 88 10000 1.5 140 10:36 18.12.2019
6288 Clouds 27 1006 88 10000 1.5 140 10:18 18.12.2019
6289 Thunderstorm 28 1006 88 10000 1.5 140 09:21 18.12.2019
6290 Thunderstorm 28 1005 88 10000 2.1 160 08:57 18.12.2019
6291 Thunderstorm 28 1005 88 10000 2.1 160 08:57 18.12.2019
6292 Thunderstorm 28 1005 88 10000 2.1 160 08:57 18.12.2019
6293 Rain 29 1004 83 10000 1 200 08:39 18.12.2019
6294 Rain 29 1004 83 10000 1 200 08:20 18.12.2019
6295 Rain 31 1003 74 10000 5.1 70 07:42 18.12.2019
6296 Rain 31 1003 74 10000 5.1 70 07:21 18.12.2019
6297 Clouds 32 1003 70 10000 6.2 70 06:53 18.12.2019
6298 Clouds 32 1003 70 10000 6.2 70 06:26 18.12.2019
6299 Thunderstorm 32 1003 70 10000 4.6 70 05:43 18.12.2019
6300 Clouds 32 1004 70 10000 5.7 50 04:37 18.12.2019
6301 Clouds 32 1005 70 10000 6.2 50 02:50 18.12.2019
6302 Clouds 32 1005 70 10000 6.2 50 02:30 18.12.2019
6303 Clouds 31 1006 70 10000 3.1 50 01:47 18.12.2019
6304 Clouds 31 1006 70 10000 3.1 50 01:28 18.12.2019
6305 Clouds 31 1006 74 10000 3.6 20 00:59 18.12.2019
6306 Clouds 31 1006 74 10000 3.6 20 00:39 18.12.2019
6307 Clouds 31 1006 74 10000 3.6 20 00:21 18.12.2019
6308 Clouds 29 1006 83 10000 2.39 42 23:44 17.12.2019
6309 Clouds 29 1006 83 10000 2.39 42 23:24 17.12.2019
6310 Clouds 26 1006 88 10000 1.5 180 22:57 17.12.2019
6311 Clouds 26 1006 88 10000 1.5 180 22:39 17.12.2019
6312 Clouds 26 1006 88 10000 1.5 180 22:20 17.12.2019
6313 Clouds 24 1005 100 10000 2.1 140 21:57 17.12.2019
6314 Clouds 24 1005 100 10000 2.1 140 21:39 17.12.2019
6315 Clouds 24 1005 100 10000 2.1 140 21:20 17.12.2019
6316 Clouds 24 1005 100 10000 2.1 140 21:20 17.12.2019
6317 Clouds 24 1005 94 10000 1 140 20:59 17.12.2019
6318 Clouds 24 1005 94 10000 1 140 20:40 17.12.2019
6319 Clouds 24 1005 94 10000 1 140 20:19 17.12.2019
6320 Clouds 24 1004 94 10000 1 185 19:57 17.12.2019
6321 Clouds 24 1004 94 10000 1 185 19:39 17.12.2019
6322 Clouds 24 1004 94 10000 1 185 19:19 17.12.2019
6323 Clouds 24 1004 94 10000 1 160 18:57 17.12.2019
6324 Clouds 24 1004 94 10000 1 160 18:38 17.12.2019
6325 Clouds 24 1004 94 10000 1 185 18:20 17.12.2019
6326 Clouds 24 1004 94 10000 1 185 17:55 17.12.2019
6327 Clouds 24 1004 94 10000 1 185 17:36 17.12.2019
6328 Clouds 24 1004 100 10000 1.16 180 17:18 17.12.2019
6329 Clouds 24 1004 100 10000 1.16 180 16:54 17.12.2019
6330 Clouds 24 1004 100 10000 1.16 180 16:36 17.12.2019
6331 Clouds 24 1004 100 10000 1.16 180 16:18 17.12.2019
6332 Clouds 24 1005 100 10000 1.16 180 15:38 17.12.2019
6333 Clouds 24 1005 100 10000 1.16 180 15:20 17.12.2019
6334 Clouds 24 1005 100 10000 1.16 180 14:56 17.12.2019
6335 Clouds 24 1005 100 10000 1.16 180 14:38 17.12.2019
6336 Clouds 24 1005 100 10000 1.36 174 14:19 17.12.2019
6337 Clouds 24 1005 100 10000 1.36 174 14:19 17.12.2019
6338 Clouds 25 1006 94 10000 1.36 174 13:56 17.12.2019
6339 Clouds 25 1006 94 10000 1.36 174 13:38 17.12.2019
6340 Clouds 25 1006 94 10000 1.04 156 13:19 17.12.2019
6341 Clouds 25 1006 94 10000 1.04 156 13:19 17.12.2019
6342 Clouds 25 1006 100 10000 1.5 180 12:58 17.12.2019
6343 Clouds 25 1006 100 10000 1.5 180 12:38 17.12.2019
6344 Clouds 25 1006 100 10000 1.5 140 12:18 17.12.2019
6345 Clouds 25 1006 100 10000 1.5 140 11:56 17.12.2019
6346 Clouds 25 1006 100 10000 1.5 140 11:36 17.12.2019
6347 Rain 26 1005 83 10000 1.5 140 11:18 17.12.2019
6348 Rain 26 1005 83 10000 1.5 140 10:55 17.12.2019
6349 Rain 26 1005 83 10000 1.5 140 10:37 17.12.2019
6350 Rain 26 1005 83 10000 1.5 140 10:18 17.12.2019
6351 Rain 27 1005 94 10000 2.6 230 09:42 17.12.2019
6352 Rain 27 1005 94 10000 2.6 230 09:21 17.12.2019
6353 Clouds 28 1004 83 10000 1.5 160 08:58 17.12.2019
6354 Clouds 28 1004 83 10000 1.5 160 08:39 17.12.2019
6355 Clouds 28 1004 83 10000 1.5 160 08:21 17.12.2019
6356 Thunderstorm 28 1004 83 10000 3.1 110 07:58 17.12.2019
6357 Thunderstorm 29 1004 79 10000 3.1 110 07:39 17.12.2019
6358 Thunderstorm 29 1004 79 10000 3.1 110 07:19 17.12.2019
6359 Thunderstorm 30 1003 74 10000 4.1 90 06:36 17.12.2019
6360 Thunderstorm 30 1003 79 10000 6.2 70 06:18 17.12.2019
6361 Rain 31 1003 74 10000 7.2 70 05:38 17.12.2019
6362 Rain 31 1003 70 10000 3.1 20 04:46 17.12.2019
6363 Clouds 30 1005 79 10000 1.5 20 02:48 17.12.2019
6364 Rain 30 1006 74 10000 1.5 50 01:56 17.12.2019
6365 Rain 30 1006 74 10000 1.5 50 01:20 17.12.2019
6366 Clouds 29 1006 79 10000 1 20 00:38 17.12.2019
6367 Clouds 29 1006 79 10000 1 20 00:20 17.12.2019
6368 Clouds 28 1006 83 10000 1 110 23:42 16.12.2019
6369 Clouds 28 1006 83 10000 1 110 23:19 16.12.2019
6370 Clouds 26 1006 88 10000 0.81 135 22:58 16.12.2019
6371 Clouds 26 1006 88 10000 0.81 135 22:38 16.12.2019
6372 Clouds 26 1006 88 10000 0.81 135 22:20 16.12.2019
6373 Clouds 24 1005 100 10000 0.81 135 21:56 16.12.2019
6374 Clouds 24 1005 100 10000 0.81 135 21:38 16.12.2019
6375 Clouds 24 1005 100 10000 0.81 135 21:20 16.12.2019
6376 Clouds 24 1004 100 10000 0.81 135 20:57 16.12.2019
6377 Clouds 24 1004 100 10000 0.81 135 20:38 16.12.2019
6378 Clouds 24 1004 100 10000 0.81 135 20:38 16.12.2019
6379 Clouds 24 1004 100 10000 1.46 169 20:19 16.12.2019
6380 Clouds 24 1004 94 10000 1 90 19:56 16.12.2019
6381 Clouds 24 1004 94 10000 1 90 19:37 16.12.2019
6382 Clouds 24 1004 94 10000 1 90 19:19 16.12.2019
6383 Clouds 24 1004 100 10000 1.5 140 18:56 16.12.2019
6384 Clouds 24 1004 100 10000 1.5 140 18:56 16.12.2019
6385 Clouds 24 1004 100 10000 1.5 140 18:38 16.12.2019
6386 Clouds 24 1004 100 10000 1.5 140 18:38 16.12.2019
6387 Clouds 24 1004 100 10000 1.5 140 18:19 16.12.2019
6388 Rain 24 1004 100 10000 2.1 200 17:57 16.12.2019
6389 Rain 24 1004 100 10000 2.1 200 17:38 16.12.2019
6390 Drizzle 25 1004 100 10000 1.34 163 17:19 16.12.2019
6391 Drizzle 25 1004 100 10000 1.34 163 16:55 16.12.2019
6392 Drizzle 25 1004 100 10000 1.34 163 16:37 16.12.2019
6393 Drizzle 25 1004 100 10000 1.34 163 16:18 16.12.2019
6394 Clouds 26 1005 94 10000 1.34 163 15:57 16.12.2019
6395 Clouds 26 1005 94 10000 1.34 163 15:38 16.12.2019
6396 Clouds 26 1005 94 10000 1.34 163 15:19 16.12.2019
6397 Clouds 26 1005 94 10000 1 70 14:54 16.12.2019
6398 Clouds 26 1005 94 10000 1 70 14:36 16.12.2019
6399 Clouds 26 1006 88 10000 1 200 14:18 16.12.2019
6400 Clouds 26 1006 88 10000 1 200 13:38 16.12.2019
6401 Clouds 26 1006 88 10000 1 200 13:20 16.12.2019
6402 Clouds 26 1005 94 10000 1 200 12:59 16.12.2019
6403 Clouds 26 1005 94 10000 1 200 12:41 16.12.2019
6404 Clouds 23 1006 92 0 1.2 161 12:20 16.12.2019
6405 Clouds 23 1006 92 0 1.61 166 11:59 16.12.2019
6406 Clouds 23 1006 92 0 1.61 166 11:41 16.12.2019
6407 Clouds 26 1005 94 10000 1 180 11:22 16.12.2019
6408 Clouds 26 1005 94 10000 1 180 10:59 16.12.2019
6409 Clouds 26 1005 94 10000 1 180 10:40 16.12.2019
6410 Clouds 26 1005 94 10000 1 180 10:21 16.12.2019
6411 Rain 27 1005 88 10000 2.1 200 09:47 16.12.2019
6412 Rain 27 1005 88 10000 2.1 200 09:29 16.12.2019
6413 Rain 28 1004 78 10000 3.1 50 08:58 16.12.2019
6414 Rain 28 1004 78 10000 3.1 50 08:38 16.12.2019
6415 Rain 28 1004 78 10000 3.1 50 08:19 16.12.2019
6416 Rain 30 1003 70 10000 1 180 07:49 16.12.2019
6417 Rain 30 1003 70 10000 1 180 07:30 16.12.2019
6418 Clouds 30 1003 74 10000 2.6 70 06:46 16.12.2019
6419 Clouds 30 1003 74 10000 2.6 70 06:26 16.12.2019
6420 Rain 30 1003 74 10000 1 140 05:56 16.12.2019
6421 Rain 30 1003 74 10000 1 140 05:35 16.12.2019
6422 Drizzle 29 1004 83 10000 1 50 04:33 16.12.2019
6423 Rain 30 1005 74 10000 5.1 50 02:49 16.12.2019
6424 Clouds 31 1006 66 10000 2.6 50 01:45 16.12.2019
6425 Clouds 30 1006 74 10000 2.1 70 00:54 16.12.2019
6426 Clouds 30 1006 74 10000 2.1 70 00:36 16.12.2019
6427 Clouds 29 1006 74 10000 1 70 00:18 16.12.2019
6428 Clouds 29 1006 74 10000 1 70 23:40 15.12.2019
6429 Clouds 29 1006 74 10000 1 70 23:21 15.12.2019
6430 Clouds 27 1006 83 10000 1 180 22:56 15.12.2019
6431 Clouds 27 1006 83 10000 1 180 22:38 15.12.2019
6432 Clouds 27 1006 83 10000 1 180 22:18 15.12.2019
6433 Clouds 24 1006 100 10000 2.1 140 21:56 15.12.2019
6434 Clouds 24 1006 100 10000 2.1 140 21:38 15.12.2019
6435 Clouds 24 1006 100 10000 2.1 140 21:19 15.12.2019
6436 Clouds 23 1005 100 10000 0.4 159 20:56 15.12.2019
6437 Clouds 23 1005 100 10000 0.4 159 20:37 15.12.2019
6438 Clouds 23 1005 100 10000 1.4 177 20:19 15.12.2019
6439 Clouds 23 1004 100 10000 1 180 19:57 15.12.2019
6440 Clouds 23 1004 100 10000 1 180 19:57 15.12.2019
6441 Clouds 23 1004 100 10000 1 180 19:38 15.12.2019
6442 Clouds 23 1004 100 10000 2.6 160 19:18 15.12.2019
6443 Clouds 23 1004 100 10000 2.6 160 18:56 15.12.2019
6444 Clouds 23 1004 100 10000 2.6 160 18:56 15.12.2019
6445 Clouds 23 1004 100 10000 2.6 160 18:38 15.12.2019
6446 Clouds 24 1004 100 10000 1 110 18:18 15.12.2019
6447 Clouds 24 1004 100 10000 1 110 17:56 15.12.2019
6448 Clouds 24 1004 100 10000 1 110 17:36 15.12.2019
6449 Clouds 24 1005 94 10000 1.98 161 17:18 15.12.2019
6450 Clouds 24 1005 94 10000 1.98 161 17:18 15.12.2019
6451 Clouds 24 1005 94 10000 1.87 161 16:43 15.12.2019
6452 Clouds 24 1005 94 10000 1.87 161 16:23 15.12.2019
6453 Clouds 24 1006 100 10000 1.5 230 15:58 15.12.2019
6454 Clouds 24 1006 100 10000 1.5 230 15:39 15.12.2019
6455 Clouds 24 1006 100 10000 1.5 230 15:20 15.12.2019
6456 Clouds 24 1007 100 10000 1.87 161 14:57 15.12.2019
6457 Clouds 24 1007 100 10000 1.87 161 14:38 15.12.2019
6458 Clouds 24 1007 100 10000 1.79 152 14:19 15.12.2019
6459 Drizzle 25 1008 94 10000 1 180 13:59 15.12.2019
6460 Drizzle 25 1008 94 10000 1 180 13:39 15.12.2019
6461 Drizzle 25 1008 94 10000 1 180 13:20 15.12.2019
6462 Drizzle 25 1008 100 10000 1.8 163 12:57 15.12.2019
6463 Drizzle 25 1008 100 10000 1.8 163 12:39 15.12.2019
6464 Drizzle 25 1008 100 10000 2.1 230 12:21 15.12.2019
6465 Drizzle 25 1008 100 10000 2.1 230 11:59 15.12.2019
6466 Drizzle 25 1008 100 10000 2.1 230 11:38 15.12.2019
6467 Clouds 25 1007 94 10000 2.1 230 11:19 15.12.2019
6468 Clouds 25 1007 94 10000 2.1 230 11:19 15.12.2019
6469 Clouds 25 1007 94 10000 2.1 230 10:55 15.12.2019
6470 Clouds 25 1007 94 10000 2.1 230 10:37 15.12.2019
6471 Clouds 25 1007 94 10000 2.1 230 10:19 15.12.2019
6472 Drizzle 24 1006 100 10000 2.1 180 09:41 15.12.2019
6473 Drizzle 24 1006 100 10000 2.1 180 09:20 15.12.2019
6474 Drizzle 25 1006 94 10000 3.6 140 08:59 15.12.2019
6475 Drizzle 25 1006 94 0 2.1 140 08:41 15.12.2019
6476 Drizzle 25 1006 94 0 2.1 140 08:22 15.12.2019
6477 Clouds 27 1005 83 10000 2.1 160 07:56 15.12.2019
6478 Clouds 27 1005 83 10000 2.1 160 07:35 15.12.2019
6479 Clouds 27 1004 94 10000 5.1 140 06:52 15.12.2019
6480 Clouds 30 1004 74 10000 5.1 200 06:20 15.12.2019
6481 Clouds 30 1004 74 10000 5.1 200 05:28 15.12.2019
6482 Clouds 30 1004 74 10000 5.1 200 05:28 15.12.2019
6483 Clouds 31 1004 70 10000 5.1 320 04:47 15.12.2019
6484 Clouds 32 1005 66 10000 5.7 360 03:31 15.12.2019
6485 Clouds 31 1006 70 10000 4.1 20 02:34 15.12.2019
6486 Clouds 28 1006 83 10000 2.6 50 01:47 15.12.2019
6487 Clouds 28 1006 83 10000 2.6 50 01:28 15.12.2019
6488 Clouds 32 1006 66 10000 1 270 00:58 15.12.2019
6489 Clouds 32 1006 66 10000 1 270 00:40 15.12.2019
6490 Clouds 32 1006 66 10000 1 270 00:21 15.12.2019
6491 Clouds 30 1007 74 10000 2.1 200 23:40 14.12.2019
6492 Clouds 28 1006 78 10000 0.27 151 23:21 14.12.2019
6493 Clouds 28 1006 78 10000 0.27 151 22:58 14.12.2019
6494 Clouds 28 1006 78 10000 0.27 151 22:40 14.12.2019
6495 Clouds 28 1006 78 10000 0.27 151 22:21 14.12.2019
6496 Clouds 25 1006 94 10000 0.27 151 21:56 14.12.2019
6497 Clouds 25 1006 94 10000 0.27 151 21:56 14.12.2019
6498 Clouds 25 1006 94 10000 0.27 151 21:37 14.12.2019
6499 Clouds 25 1006 94 10000 0.27 151 21:18 14.12.2019
6500 Clouds 24 1006 94 10000 0.27 151 20:56 14.12.2019
6501 Clouds 24 1006 94 10000 0.27 151 20:37 14.12.2019
6502 Clouds 24 1006 94 10000 1.41 192 20:19 14.12.2019
6503 Clouds 24 1005 94 10000 1.41 192 19:40 14.12.2019
6504 Clouds 24 1005 94 10000 1.41 192 19:40 14.12.2019
6505 Clouds 24 1005 94 10000 1.41 192 19:21 14.12.2019
6506 Clouds 24 1005 94 10000 1.41 192 18:59 14.12.2019
6507 Clouds 24 1005 94 10000 1.41 192 18:40 14.12.2019
6508 Clouds 24 1005 94 10000 1.41 192 18:22 14.12.2019
6509 Clouds 25 1005 94 10000 1.41 192 17:59 14.12.2019
6510 Clouds 25 1005 94 10000 1.41 192 17:41 14.12.2019
6511 Clouds 25 1005 94 10000 1.74 191 17:22 14.12.2019
6512 Clouds 25 1006 94 10000 1 180 16:42 14.12.2019
6513 Clouds 25 1006 94 10000 1 180 16:19 14.12.2019
6514 Clouds 25 1006 94 10000 1.74 191 15:57 14.12.2019
6515 Clouds 25 1006 94 10000 1.74 191 15:38 14.12.2019
6516 Clouds 25 1006 94 10000 1.74 191 15:38 14.12.2019
6517 Clouds 25 1006 94 10000 1.74 191 15:19 14.12.2019
6518 Clouds 25 1007 100 10000 1.5 230 14:57 14.12.2019
6519 Clouds 25 1007 100 10000 1.5 230 14:37 14.12.2019
6520 Clouds 25 1007 100 10000 1.5 230 14:18 14.12.2019
6521 Clouds 25 1008 100 10000 1.63 182 13:44 14.12.2019
6522 Clouds 25 1008 100 10000 1.63 174 13:19 14.12.2019
6523 Clouds 26 1008 94 10000 1.71 177 12:58 14.12.2019
6524 Clouds 26 1008 94 10000 1.63 174 12:39 14.12.2019
6525 Clouds 26 1008 94 10000 1.71 177 12:20 14.12.2019
6526 Clouds 26 1008 100 10000 1 200 11:58 14.12.2019
6527 Clouds 26 1008 100 10000 1 200 11:39 14.12.2019
6528 Clouds 27 1007 94 10000 1.5 160 11:19 14.12.2019
6529 Clouds 27 1007 94 10000 1.5 160 10:56 14.12.2019
6530 Clouds 27 1007 94 10000 1.5 160 10:38 14.12.2019
6531 Clouds 27 1007 94 10000 1.5 160 10:20 14.12.2019
6532 Clouds 29 1006 79 10000 0.78 197 09:43 14.12.2019
6533 Clouds 29 1006 79 10000 0.78 197 09:23 14.12.2019
6534 Clouds 30 1006 74 10000 2.6 320 08:57 14.12.2019
6535 Clouds 30 1006 74 10000 2.6 320 08:57 14.12.2019
6536 Clouds 30 1006 74 10000 2.6 320 08:57 14.12.2019
6537 Clouds 30 1006 74 10000 2.6 320 08:38 14.12.2019
6538 Clouds 30 1006 74 10000 2.6 320 08:19 14.12.2019
6539 Clouds 31 1005 66 10000 3.6 360 07:40 14.12.2019
6540 Clouds 31 1005 66 10000 3.6 360 07:21 14.12.2019
6541 Clouds 31 1005 70 10000 3.1 290 06:48 14.12.2019
6542 Clouds 31 1005 70 10000 3.1 290 06:30 14.12.2019
6543 Clouds 31 1005 70 10000 4.1 290 05:50 14.12.2019
6544 Clouds 31 1007 74 10000 3.1 20 03:44 14.12.2019
6545 Clouds 31 1008 70 10000 2.6 340 02:24 14.12.2019
6546 Clouds 30 1009 74 10000 2.1 360 01:44 14.12.2019
6547 Clouds 30 1009 74 10000 2.1 360 01:20 14.12.2019
6548 Clouds 31 1009 74 10000 3.1 320 00:41 14.12.2019
6549 Clouds 31 1009 74 10000 3.1 320 00:20 14.12.2019
6550 Clouds 31 1009 74 10000 1 180 23:41 13.12.2019
6551 Clouds 29 1009 74 10000 1 160 23:19 13.12.2019
6552 Clouds 29 1009 74 10000 1 160 22:57 13.12.2019
6553 Clouds 29 1009 74 10000 1 160 22:37 13.12.2019
6554 Clouds 29 1009 74 10000 1 160 22:18 13.12.2019
6555 Clouds 26 1008 88 10000 0.11 197 21:44 13.12.2019
6556 Clouds 26 1008 88 10000 0.11 197 21:22 13.12.2019
6557 Clouds 24 1008 94 10000 2.1 200 20:59 13.12.2019
6558 Clear 26 1009 76 0 0.11 197 20:39 13.12.2019
6559 Clouds 24 1006 94 10000 1 160 20:20 13.12.2019
6560 Clouds 24 1006 94 10000 1 160 19:56 13.12.2019
6561 Clouds 24 1006 94 10000 1 160 19:38 13.12.2019
6562 Clouds 24 1006 94 10000 1 160 19:19 13.12.2019
6563 Clouds 24 1006 94 10000 1.43 174 18:54 13.12.2019
6564 Clouds 24 1006 94 10000 1.43 174 18:36 13.12.2019
6565 Clouds 24 1006 94 10000 1.43 174 18:18 13.12.2019
6566 Clouds 23 1007 88 0 1.43 174 17:40 13.12.2019
6567 Clouds 25 1006 94 10000 1.5 90 17:18 13.12.2019
6568 Clouds 25 1006 94 10000 1.5 90 17:18 13.12.2019
6569 Clouds 25 1006 94 10000 1.5 90 16:56 13.12.2019
6570 Clouds 25 1006 94 10000 1.5 90 16:38 13.12.2019
6571 Clouds 25 1006 94 10000 1.5 90 16:38 13.12.2019
6572 Clouds 25 1006 94 10000 1.5 90 16:20 13.12.2019
6573 Clouds 25 1007 94 10000 1 230 15:42 13.12.2019
6574 Clouds 25 1007 94 10000 1 230 15:42 13.12.2019
6575 Clouds 25 1007 94 10000 1 230 15:21 13.12.2019
6576 Clouds 26 1009 88 10000 1.5 200 14:57 13.12.2019
6577 Clouds 26 1009 88 10000 1.5 200 14:37 13.12.2019
6578 Clouds 26 1009 88 10000 1.5 200 14:19 13.12.2019
6579 Clouds 26 1009 94 10000 1.18 155 13:43 13.12.2019
6580 Clouds 26 1009 94 10000 1.39 186 13:24 13.12.2019
6581 Clouds 26 1009 100 10000 1.39 186 12:57 13.12.2019
6582 Clouds 26 1009 100 10000 1.39 186 12:39 13.12.2019
6583 Clouds 26 1009 100 10000 1.39 186 12:18 13.12.2019
6584 Clouds 27 1008 94 10000 1.5 140 11:43 13.12.2019
6585 Clouds 27 1008 94 10000 1.5 140 11:25 13.12.2019
6586 Clouds 28 1008 88 10000 1 180 10:56 13.12.2019
6587 Clouds 28 1008 88 10000 1 180 10:38 13.12.2019
6588 Clouds 28 1008 88 10000 1 180 10:20 13.12.2019
6589 Clouds 29 1007 83 10000 0.98 213 09:42 13.12.2019
6590 Clouds 29 1007 83 10000 0.98 213 09:21 13.12.2019
6591 Clouds 29 1006 83 10000 0.98 213 08:45 13.12.2019
6592 Clouds 29 1006 83 10000 0.89 227 08:27 13.12.2019
6593 Clouds 30 1006 79 10000 1.5 70 07:50 13.12.2019
6594 Clouds 30 1006 79 10000 1.5 70 07:27 13.12.2019
6595 Clouds 30 1006 79 10000 1.5 360 06:57 13.12.2019
6596 Clouds 30 1006 79 10000 1.5 360 06:32 13.12.2019
6597 Clouds 30 1006 79 10000 2.1 320 05:52 13.12.2019
6598 Clouds 30 1006 79 10000 2.1 320 05:33 13.12.2019
6599 Clouds 31 1007 66 10000 2.1 20 04:54 13.12.2019
6600 Clouds 31 1008 70 10000 4.1 360 03:52 13.12.2019
6601 Clouds 31 1009 74 10000 4.1 20 02:35 13.12.2019
6602 Clouds 31 1010 74 10000 2.6 50 01:51 13.12.2019
6603 Clouds 31 1010 74 10000 2.6 50 01:25 13.12.2019
6604 Clouds 30 1010 74 10000 3.1 20 00:46 13.12.2019
6605 Clouds 30 1010 74 10000 3.1 20 00:24 13.12.2019
6606 Clouds 30 1009 74 10000 3.1 70 23:42 12.12.2019
6607 Clouds 30 1009 74 10000 3.1 70 23:24 12.12.2019
6608 Clouds 28 1009 78 10000 0.31 90 22:56 12.12.2019
6609 Clouds 28 1009 78 10000 0.31 90 22:38 12.12.2019
6610 Clouds 28 1009 78 10000 0.31 90 22:38 12.12.2019
6611 Clouds 28 1009 78 10000 0.31 90 22:19 12.12.2019
6612 Clouds 25 1008 94 10000 0.31 90 21:55 12.12.2019
6613 Clouds 25 1008 94 10000 0.31 90 21:37 12.12.2019
6614 Clouds 25 1008 94 10000 0.31 90 21:19 12.12.2019
6615 Clouds 24 1008 100 10000 1.5 200 20:57 12.12.2019
6616 Clouds 24 1008 100 10000 1.5 200 20:38 12.12.2019
6617 Clouds 24 1008 100 10000 1.5 200 20:20 12.12.2019
6618 Clouds 24 1008 94 10000 1.41 171 19:55 12.12.2019
6619 Clouds 24 1008 94 10000 1.41 171 19:37 12.12.2019
6620 Clouds 24 1008 94 10000 1.41 171 19:18 12.12.2019
6621 Clouds 24 1007 100 10000 2.1 160 18:55 12.12.2019
6622 Clouds 24 1007 100 10000 2.1 160 18:36 12.12.2019
6623 Clouds 24 1007 100 10000 2.1 160 18:18 12.12.2019
6624 Clouds 24 1008 100 10000 1.5 160 17:55 12.12.2019
6625 Clouds 24 1008 100 10000 1.5 160 17:55 12.12.2019
6626 Clouds 24 1008 100 10000 1.5 160 17:37 12.12.2019
6627 Clouds 24 1008 100 10000 1.5 160 17:18 12.12.2019
6628 Clouds 24 1008 100 10000 1.67 192 16:42 12.12.2019
6629 Clouds 24 1008 100 10000 1.67 192 16:21 12.12.2019
6630 Clouds 25 1008 94 10000 1.5 110 15:58 12.12.2019
6631 Clouds 25 1008 94 10000 1.5 110 15:40 12.12.2019
6632 Clouds 25 1008 94 10000 1.5 110 15:19 12.12.2019
6633 Clouds 25 1009 100 10000 1 160 14:56 12.12.2019
6634 Clouds 25 1009 100 10000 1 160 14:36 12.12.2019
6635 Clouds 25 1009 100 10000 1 160 14:18 12.12.2019
6636 Clouds 26 1008 94 10000 1.68 188 13:54 12.12.2019
6637 Clouds 26 1008 94 10000 1.68 188 13:36 12.12.2019
6638 Clouds 26 1008 94 10000 1.68 188 13:18 12.12.2019
6639 Rain 23 1010 88 0 1.65 186 12:41 12.12.2019
6640 Rain 23 1010 88 0 1.65 186 12:41 12.12.2019
6641 Clouds 27 1009 94 10000 1 140 12:22 12.12.2019
6642 Clouds 27 1009 94 10000 1 140 11:59 12.12.2019
6643 Clouds 27 1009 94 10000 1 140 11:39 12.12.2019
6644 Clouds 27 1009 94 10000 1 140 11:39 12.12.2019
6645 Clouds 27 1009 94 10000 1 140 11:21 12.12.2019
6646 Clouds 27 1008 94 10000 1 160 10:57 12.12.2019
6647 Clouds 27 1008 94 10000 1 160 10:57 12.12.2019
6648 Clouds 27 1008 94 10000 1 160 10:39 12.12.2019
6649 Clouds 27 1008 94 10000 1 160 10:21 12.12.2019
6650 Clouds 28 1007 83 10000 1 340 09:55 12.12.2019
6651 Clouds 28 1007 83 10000 1 340 09:55 12.12.2019
6652 Clouds 28 1007 83 10000 1 340 09:37 12.12.2019
6653 Clouds 28 1007 83 10000 1 340 09:19 12.12.2019
6654 Clouds 30 1007 74 10000 1 320 08:43 12.12.2019
6655 Clouds 30 1007 74 10000 1 320 08:25 12.12.2019
6656 Clouds 30 1006 70 10000 3.1 360 07:49 12.12.2019
6657 Clouds 30 1006 70 10000 3.1